<?xml version='1.0' encoding='UTF-8'?><gpx version="1.1" creator="JPX - https://github.com/jenetics/jpx" xmlns="http://www.topografix.com/GPX/1/1"><trk><trkseg><trkpt lat="38.4850821" lon="14.9482792"><ele>204.8</ele><time>2026-04-25T13:21:49.011Z</time></trkpt><trkpt lat="38.4850735" lon="14.9483863"><ele>203.60000000000002</ele><time>2026-04-25T13:22:15.996Z</time></trkpt><trkpt lat="38.4850187" lon="14.9484594"><ele>202.4</ele><time>2026-04-25T13:22:17.997Z</time></trkpt><trkpt lat="38.4849579" lon="14.9485475"><ele>201.2</ele><time>2026-04-25T13:22:19.997Z</time></trkpt><trkpt lat="38.4849283" lon="14.9486775"><ele>200.0</ele><time>2026-04-25T13:22:21.997Z</time></trkpt><trkpt lat="38.4849258" lon="14.9488123"><ele>200.0</ele><time>2026-04-25T13:22:23.997Z</time></trkpt><trkpt lat="38.4849548" lon="14.9489322"><ele>200.0</ele><time>2026-04-25T13:22:25.996Z</time></trkpt><trkpt lat="38.4850168" lon="14.9490732"><ele>200.0</ele><time>2026-04-25T13:22:27.997Z</time></trkpt><trkpt lat="38.4850613" lon="14.9491567"><ele>200.0</ele><time>2026-04-25T13:22:28.996Z</time></trkpt><trkpt lat="38.4851038" lon="14.9492385"><ele>200.0</ele><time>2026-04-25T13:22:29.997Z</time></trkpt><trkpt lat="38.4851476" lon="14.9493302"><ele>198.8</ele><time>2026-04-25T13:22:30.996Z</time></trkpt><trkpt lat="38.4851938" lon="14.949433"><ele>197.6</ele><time>2026-04-25T13:22:31.997Z</time></trkpt><trkpt lat="38.4852278" lon="14.9495467"><ele>196.39999999999998</ele><time>2026-04-25T13:22:32.996Z</time></trkpt><trkpt lat="38.4852485" lon="14.9496705"><ele>195.2</ele><time>2026-04-25T13:22:33.996Z</time></trkpt><trkpt lat="38.4852463" lon="14.9498217"><ele>194.0</ele><time>2026-04-25T13:22:34.996Z</time></trkpt><trkpt lat="38.4852322" lon="14.9499913"><ele>192.75</ele><time>2026-04-25T13:22:35.996Z</time></trkpt><trkpt lat="38.4852211" lon="14.9501537"><ele>191.5</ele><time>2026-04-25T13:22:36.997Z</time></trkpt><trkpt lat="38.485208" lon="14.950331"><ele>190.25</ele><time>2026-04-25T13:22:37.997Z</time></trkpt><trkpt lat="38.4851963" lon="14.9505008"><ele>189.0</ele><time>2026-04-25T13:22:38.996Z</time></trkpt><trkpt lat="38.4851756" lon="14.950689"><ele>189.0</ele><time>2026-04-25T13:22:39.997Z</time></trkpt><trkpt lat="38.4851587" lon="14.9508738"><ele>189.0</ele><time>2026-04-25T13:22:40.997Z</time></trkpt><trkpt lat="38.4851419" lon="14.9510615"><ele>189.0</ele><time>2026-04-25T13:22:41.997Z</time></trkpt><trkpt lat="38.4851286" lon="14.951244"><ele>189.0</ele><time>2026-04-25T13:22:42.996Z</time></trkpt><trkpt lat="38.485117" lon="14.9514205"><ele>187.5</ele><time>2026-04-25T13:22:43.996Z</time></trkpt><trkpt lat="38.4851106" lon="14.951598"><ele>186.0</ele><time>2026-04-25T13:22:44.996Z</time></trkpt><trkpt lat="38.4851155" lon="14.9517678"><ele>184.5</ele><time>2026-04-25T13:22:45.996Z</time></trkpt><trkpt lat="38.4851366" lon="14.9519431"><ele>183.0</ele><time>2026-04-25T13:22:46.996Z</time></trkpt><trkpt lat="38.4851619" lon="14.9521152"><ele>182.25</ele><time>2026-04-25T13:22:47.996Z</time></trkpt><trkpt lat="38.485195" lon="14.9522867"><ele>181.5</ele><time>2026-04-25T13:22:48.997Z</time></trkpt><trkpt lat="38.4852246" lon="14.9524519"><ele>180.75</ele><time>2026-04-25T13:22:49.996Z</time></trkpt><trkpt lat="38.4852461" lon="14.9526097"><ele>180.0</ele><time>2026-04-25T13:22:50.997Z</time></trkpt><trkpt lat="38.4852588" lon="14.9527639"><ele>180.0</ele><time>2026-04-25T13:22:51.996Z</time></trkpt><trkpt lat="38.4852566" lon="14.9529119"><ele>180.0</ele><time>2026-04-25T13:22:52.996Z</time></trkpt><trkpt lat="38.48522" lon="14.9530422"><ele>180.0</ele><time>2026-04-25T13:22:53.997Z</time></trkpt><trkpt lat="38.4851745" lon="14.9531709"><ele>180.0</ele><time>2026-04-25T13:22:54.997Z</time></trkpt><trkpt lat="38.4851236" lon="14.9532863"><ele>180.0</ele><time>2026-04-25T13:22:55.997Z</time></trkpt><trkpt lat="38.4850697" lon="14.9533953"><ele>180.0</ele><time>2026-04-25T13:22:56.997Z</time></trkpt><trkpt lat="38.4850124" lon="14.9534901"><ele>180.0</ele><time>2026-04-25T13:22:57.996Z</time></trkpt><trkpt lat="38.4849589" lon="14.953557"><ele>180.0</ele><time>2026-04-25T13:22:58.996Z</time></trkpt><trkpt lat="38.4848985" lon="14.9536035"><ele>180.0</ele><time>2026-04-25T13:22:59.996Z</time></trkpt><trkpt lat="38.484792" lon="14.9535917"><ele>180.0</ele><time>2026-04-25T13:23:01.996Z</time></trkpt><trkpt lat="38.4847236" lon="14.9534996"><ele>180.0</ele><time>2026-04-25T13:23:03.996Z</time></trkpt><trkpt lat="38.4847747" lon="14.9533511"><ele>180.0</ele><time>2026-04-25T13:23:05.996Z</time></trkpt><trkpt lat="38.4848728" lon="14.9532302"><ele>180.0</ele><time>2026-04-25T13:23:06.996Z</time></trkpt><trkpt lat="38.4849333" lon="14.9531251"><ele>180.0</ele><time>2026-04-25T13:23:07.997Z</time></trkpt><trkpt lat="38.4849957" lon="14.9530107"><ele>180.0</ele><time>2026-04-25T13:23:08.996Z</time></trkpt><trkpt lat="38.4850319" lon="14.9528821"><ele>180.0</ele><time>2026-04-25T13:23:09.996Z</time></trkpt><trkpt lat="38.485046" lon="14.9527493"><ele>180.0</ele><time>2026-04-25T13:23:10.996Z</time></trkpt><trkpt lat="38.484996" lon="14.9526051"><ele>180.0</ele><time>2026-04-25T13:23:11.997Z</time></trkpt><trkpt lat="38.4849477" lon="14.9524822"><ele>180.0</ele><time>2026-04-25T13:23:12.996Z</time></trkpt><trkpt lat="38.4848859" lon="14.9523437"><ele>179.5</ele><time>2026-04-25T13:23:13.997Z</time></trkpt><trkpt lat="38.4848199" lon="14.9522023"><ele>179.0</ele><time>2026-04-25T13:23:14.996Z</time></trkpt><trkpt lat="38.4847544" lon="14.9520567"><ele>178.5</ele><time>2026-04-25T13:23:15.997Z</time></trkpt><trkpt lat="38.4846872" lon="14.951911"><ele>178.0</ele><time>2026-04-25T13:23:16.996Z</time></trkpt><trkpt lat="38.4846229" lon="14.9517715"><ele>171.0</ele><time>2026-04-25T13:23:17.996Z</time></trkpt><trkpt lat="38.4845626" lon="14.951635"><ele>164.0</ele><time>2026-04-25T13:23:18.997Z</time></trkpt><trkpt lat="38.4845106" lon="14.9514976"><ele>157.0</ele><time>2026-04-25T13:23:19.996Z</time></trkpt><trkpt lat="38.4844609" lon="14.9513724"><ele>150.0</ele><time>2026-04-25T13:23:20.997Z</time></trkpt><trkpt lat="38.4844016" lon="14.9512628"><ele>150.0</ele><time>2026-04-25T13:23:21.996Z</time></trkpt><trkpt lat="38.4843182" lon="14.9512031"><ele>150.0</ele><time>2026-04-25T13:23:22.997Z</time></trkpt><trkpt lat="38.4842316" lon="14.951152"><ele>150.0</ele><time>2026-04-25T13:23:23.997Z</time></trkpt><trkpt lat="38.4841403" lon="14.951103"><ele>150.0</ele><time>2026-04-25T13:23:24.996Z</time></trkpt><trkpt lat="38.4840484" lon="14.9510513"><ele>150.0</ele><time>2026-04-25T13:23:25.996Z</time></trkpt><trkpt lat="38.4839652" lon="14.9509963"><ele>150.0</ele><time>2026-04-25T13:23:26.996Z</time></trkpt><trkpt lat="38.4839103" lon="14.9509293"><ele>150.0</ele><time>2026-04-25T13:23:27.997Z</time></trkpt><trkpt lat="38.4838544" lon="14.9508412"><ele>150.0</ele><time>2026-04-25T13:23:28.996Z</time></trkpt><trkpt lat="38.4838111" lon="14.9507427"><ele>150.0</ele><time>2026-04-25T13:23:29.997Z</time></trkpt><trkpt lat="38.4837803" lon="14.9506262"><ele>150.0</ele><time>2026-04-25T13:23:30.996Z</time></trkpt><trkpt lat="38.483754" lon="14.9505099"><ele>150.0</ele><time>2026-04-25T13:23:31.996Z</time></trkpt><trkpt lat="38.4837268" lon="14.9503802"><ele>150.0</ele><time>2026-04-25T13:23:32.996Z</time></trkpt><trkpt lat="38.4837025" lon="14.9502503"><ele>150.0</ele><time>2026-04-25T13:23:33.997Z</time></trkpt><trkpt lat="38.4836762" lon="14.9501136"><ele>150.0</ele><time>2026-04-25T13:23:34.996Z</time></trkpt><trkpt lat="38.4836479" lon="14.9499846"><ele>150.0</ele><time>2026-04-25T13:23:35.997Z</time></trkpt><trkpt lat="38.483603" lon="14.949877"><ele>150.0</ele><time>2026-04-25T13:23:36.996Z</time></trkpt><trkpt lat="38.4835498" lon="14.9497733"><ele>150.0</ele><time>2026-04-25T13:23:37.996Z</time></trkpt><trkpt lat="38.4834677" lon="14.9497128"><ele>150.0</ele><time>2026-04-25T13:23:38.997Z</time></trkpt><trkpt lat="38.4833804" lon="14.9496788"><ele>150.0</ele><time>2026-04-25T13:23:39.996Z</time></trkpt><trkpt lat="38.4832903" lon="14.9496618"><ele>150.0</ele><time>2026-04-25T13:23:40.996Z</time></trkpt><trkpt lat="38.4831984" lon="14.9496575"><ele>150.0</ele><time>2026-04-25T13:23:41.997Z</time></trkpt><trkpt lat="38.4830904" lon="14.9496577"><ele>150.0</ele><time>2026-04-25T13:23:42.996Z</time></trkpt><trkpt lat="38.4829787" lon="14.9496574"><ele>150.0</ele><time>2026-04-25T13:23:43.996Z</time></trkpt><trkpt lat="38.4828554" lon="14.9496648"><ele>150.0</ele><time>2026-04-25T13:23:44.997Z</time></trkpt><trkpt lat="38.4827328" lon="14.9496911"><ele>150.0</ele><time>2026-04-25T13:23:45.996Z</time></trkpt><trkpt lat="38.4826111" lon="14.9497409"><ele>148.0</ele><time>2026-04-25T13:23:46.996Z</time></trkpt><trkpt lat="38.4824958" lon="14.9498172"><ele>146.0</ele><time>2026-04-25T13:23:47.996Z</time></trkpt><trkpt lat="38.4823848" lon="14.9498981"><ele>144.0</ele><time>2026-04-25T13:23:48.997Z</time></trkpt><trkpt lat="38.4822712" lon="14.9499989"><ele>142.0</ele><time>2026-04-25T13:23:49.997Z</time></trkpt><trkpt lat="38.4821546" lon="14.9500947"><ele>135.5</ele><time>2026-04-25T13:23:50.997Z</time></trkpt><trkpt lat="38.4820489" lon="14.9501922"><ele>129.0</ele><time>2026-04-25T13:23:51.996Z</time></trkpt><trkpt lat="38.4819402" lon="14.9502892"><ele>122.5</ele><time>2026-04-25T13:23:52.997Z</time></trkpt><trkpt lat="38.4818343" lon="14.9503819"><ele>116.0</ele><time>2026-04-25T13:23:53.996Z</time></trkpt><trkpt lat="38.4817294" lon="14.9504522"><ele>116.0</ele><time>2026-04-25T13:23:54.996Z</time></trkpt><trkpt lat="38.481626" lon="14.9505063"><ele>116.0</ele><time>2026-04-25T13:23:55.996Z</time></trkpt><trkpt lat="38.4815211" lon="14.950518"><ele>116.0</ele><time>2026-04-25T13:23:56.997Z</time></trkpt><trkpt lat="38.4814271" lon="14.9505151"><ele>116.0</ele><time>2026-04-25T13:23:57.996Z</time></trkpt><trkpt lat="38.481345" lon="14.9504907"><ele>116.0</ele><time>2026-04-25T13:23:58.996Z</time></trkpt><trkpt lat="38.4812826" lon="14.9504329"><ele>116.99999999999999</ele><time>2026-04-25T13:23:59.997Z</time></trkpt><trkpt lat="38.4812366" lon="14.9503669"><ele>118.0</ele><time>2026-04-25T13:24:00.997Z</time></trkpt><trkpt lat="38.481191" lon="14.9502633"><ele>119.0</ele><time>2026-04-25T13:24:01.996Z</time></trkpt><trkpt lat="38.4811402" lon="14.9501695"><ele>120.0</ele><time>2026-04-25T13:24:02.996Z</time></trkpt><trkpt lat="38.4810768" lon="14.9500916"><ele>120.99999999999999</ele><time>2026-04-25T13:24:03.997Z</time></trkpt><trkpt lat="38.4809981" lon="14.950027"><ele>122.0</ele><time>2026-04-25T13:24:04.997Z</time></trkpt><trkpt lat="38.480913" lon="14.9500261"><ele>122.0</ele><time>2026-04-25T13:24:05.996Z</time></trkpt><trkpt lat="38.4808254" lon="14.9500595"><ele>121.99999999999999</ele><time>2026-04-25T13:24:06.996Z</time></trkpt><trkpt lat="38.4807593" lon="14.9501287"><ele>121.99999999999999</ele><time>2026-04-25T13:24:07.996Z</time></trkpt><trkpt lat="38.4807171" lon="14.9502336"><ele>122.0</ele><time>2026-04-25T13:24:08.996Z</time></trkpt><trkpt lat="38.4806893" lon="14.9503551"><ele>122.0</ele><time>2026-04-25T13:24:09.996Z</time></trkpt><trkpt lat="38.4806648" lon="14.9504875"><ele>122.0</ele><time>2026-04-25T13:24:10.997Z</time></trkpt><trkpt lat="38.4806471" lon="14.9506294"><ele>122.0</ele><time>2026-04-25T13:24:11.996Z</time></trkpt><trkpt lat="38.4806158" lon="14.9507705"><ele>122.0</ele><time>2026-04-25T13:24:12.997Z</time></trkpt><trkpt lat="38.4805933" lon="14.9509183"><ele>122.0</ele><time>2026-04-25T13:24:13.997Z</time></trkpt><trkpt lat="38.4805848" lon="14.95107"><ele>119.0</ele><time>2026-04-25T13:24:14.997Z</time></trkpt><trkpt lat="38.480577" lon="14.951222"><ele>116.0</ele><time>2026-04-25T13:24:15.997Z</time></trkpt><trkpt lat="38.480575" lon="14.9513742"><ele>113.0</ele><time>2026-04-25T13:24:16.996Z</time></trkpt><trkpt lat="38.4805787" lon="14.9515218"><ele>110.0</ele><time>2026-04-25T13:24:17.996Z</time></trkpt><trkpt lat="38.4805776" lon="14.9516654"><ele>109.2</ele><time>2026-04-25T13:24:18.996Z</time></trkpt><trkpt lat="38.4805947" lon="14.9518081"><ele>108.4</ele><time>2026-04-25T13:24:19.996Z</time></trkpt><trkpt lat="38.4806143" lon="14.9519427"><ele>107.6</ele><time>2026-04-25T13:24:20.996Z</time></trkpt><trkpt lat="38.4806625" lon="14.9520603"><ele>106.8</ele><time>2026-04-25T13:24:21.996Z</time></trkpt><trkpt lat="38.4807144" lon="14.9521804"><ele>106.0</ele><time>2026-04-25T13:24:22.997Z</time></trkpt><trkpt lat="38.4807506" lon="14.952294"><ele>106.0</ele><time>2026-04-25T13:24:23.996Z</time></trkpt><trkpt lat="38.4807588" lon="14.9524026"><ele>106.0</ele><time>2026-04-25T13:24:24.996Z</time></trkpt><trkpt lat="38.480766" lon="14.95251"><ele>106.0</ele><time>2026-04-25T13:24:25.996Z</time></trkpt><trkpt lat="38.4807096" lon="14.9526177"><ele>106.0</ele><time>2026-04-25T13:24:26.996Z</time></trkpt><trkpt lat="38.4806526" lon="14.952727"><ele>106.0</ele><time>2026-04-25T13:24:27.996Z</time></trkpt><trkpt lat="38.4805821" lon="14.9528314"><ele>103.6</ele><time>2026-04-25T13:24:28.996Z</time></trkpt><trkpt lat="38.4805134" lon="14.9529401"><ele>101.19999999999999</ele><time>2026-04-25T13:24:29.996Z</time></trkpt><trkpt lat="38.4804626" lon="14.953061"><ele>98.80000000000001</ele><time>2026-04-25T13:24:30.996Z</time></trkpt><trkpt lat="38.4804393" lon="14.9531905"><ele>96.4</ele><time>2026-04-25T13:24:31.997Z</time></trkpt><trkpt lat="38.4804348" lon="14.9533308"><ele>94.0</ele><time>2026-04-25T13:24:32.997Z</time></trkpt><trkpt lat="38.4804385" lon="14.9534748"><ele>93.75</ele><time>2026-04-25T13:24:33.996Z</time></trkpt><trkpt lat="38.4804428" lon="14.9536294"><ele>93.5</ele><time>2026-04-25T13:24:34.996Z</time></trkpt><trkpt lat="38.4804443" lon="14.953785"><ele>93.25</ele><time>2026-04-25T13:24:35.997Z</time></trkpt><trkpt lat="38.4804433" lon="14.953941"><ele>93.0</ele><time>2026-04-25T13:24:36.997Z</time></trkpt><trkpt lat="38.4804249" lon="14.954097"><ele>92.0</ele><time>2026-04-25T13:24:37.996Z</time></trkpt><trkpt lat="38.4803881" lon="14.9542586"><ele>91.0</ele><time>2026-04-25T13:24:38.996Z</time></trkpt><trkpt lat="38.4803475" lon="14.954418"><ele>90.0</ele><time>2026-04-25T13:24:39.997Z</time></trkpt><trkpt lat="38.4803143" lon="14.9545814"><ele>89.0</ele><time>2026-04-25T13:24:40.997Z</time></trkpt><trkpt lat="38.4802874" lon="14.9547487"><ele>89.0</ele><time>2026-04-25T13:24:41.997Z</time></trkpt><trkpt lat="38.480255" lon="14.9549222"><ele>89.0</ele><time>2026-04-25T13:24:42.996Z</time></trkpt><trkpt lat="38.480241" lon="14.9550936"><ele>89.0</ele><time>2026-04-25T13:24:43.997Z</time></trkpt><trkpt lat="38.4802499" lon="14.9552702"><ele>89.0</ele><time>2026-04-25T13:24:44.997Z</time></trkpt><trkpt lat="38.4802672" lon="14.9554501"><ele>89.75</ele><time>2026-04-25T13:24:45.996Z</time></trkpt><trkpt lat="38.4802886" lon="14.9556352"><ele>90.5</ele><time>2026-04-25T13:24:46.997Z</time></trkpt><trkpt lat="38.4803125" lon="14.9558193"><ele>91.25</ele><time>2026-04-25T13:24:47.997Z</time></trkpt><trkpt lat="38.4803303" lon="14.9560069"><ele>92.0</ele><time>2026-04-25T13:24:48.996Z</time></trkpt><trkpt lat="38.4803499" lon="14.9561959"><ele>92.75</ele><time>2026-04-25T13:24:49.997Z</time></trkpt><trkpt lat="38.4803706" lon="14.9563871"><ele>93.5</ele><time>2026-04-25T13:24:50.996Z</time></trkpt><trkpt lat="38.4803963" lon="14.956573"><ele>94.25</ele><time>2026-04-25T13:24:51.997Z</time></trkpt><trkpt lat="38.4804213" lon="14.9567497"><ele>95.0</ele><time>2026-04-25T13:24:52.997Z</time></trkpt><trkpt lat="38.4804402" lon="14.9569222"><ele>87.25</ele><time>2026-04-25T13:24:53.996Z</time></trkpt><trkpt lat="38.4804511" lon="14.9570927"><ele>79.5</ele><time>2026-04-25T13:24:54.996Z</time></trkpt><trkpt lat="38.4804637" lon="14.9572576"><ele>71.75</ele><time>2026-04-25T13:24:55.996Z</time></trkpt><trkpt lat="38.4804799" lon="14.9574189"><ele>64.0</ele><time>2026-04-25T13:24:56.996Z</time></trkpt><trkpt lat="38.4805141" lon="14.9575691"><ele>63.800000000000004</ele><time>2026-04-25T13:24:57.996Z</time></trkpt><trkpt lat="38.4805634" lon="14.9577107"><ele>63.60000000000001</ele><time>2026-04-25T13:24:58.996Z</time></trkpt><trkpt lat="38.480608" lon="14.9578476"><ele>63.4</ele><time>2026-04-25T13:24:59.997Z</time></trkpt><trkpt lat="38.4806251" lon="14.9579846"><ele>63.2</ele><time>2026-04-25T13:25:00.996Z</time></trkpt><trkpt lat="38.4806179" lon="14.9581145"><ele>63.0</ele><time>2026-04-25T13:25:01.997Z</time></trkpt><trkpt lat="38.4805923" lon="14.9582275"><ele>63.0</ele><time>2026-04-25T13:25:02.997Z</time></trkpt><trkpt lat="38.4805407" lon="14.9583115"><ele>63.0</ele><time>2026-04-25T13:25:03.997Z</time></trkpt><trkpt lat="38.4804744" lon="14.9583745"><ele>63.0</ele><time>2026-04-25T13:25:04.996Z</time></trkpt><trkpt lat="38.4803807" lon="14.9584241"><ele>63.0</ele><time>2026-04-25T13:25:05.996Z</time></trkpt><trkpt lat="38.4802776" lon="14.9584473"><ele>63.0</ele><time>2026-04-25T13:25:06.996Z</time></trkpt><trkpt lat="38.480175" lon="14.9584763"><ele>65.0</ele><time>2026-04-25T13:25:07.997Z</time></trkpt><trkpt lat="38.4800738" lon="14.9585289"><ele>67.0</ele><time>2026-04-25T13:25:08.996Z</time></trkpt><trkpt lat="38.4799888" lon="14.9586104"><ele>69.0</ele><time>2026-04-25T13:25:09.996Z</time></trkpt><trkpt lat="38.4799166" lon="14.9586764"><ele>71.0</ele><time>2026-04-25T13:25:10.996Z</time></trkpt><trkpt lat="38.4798418" lon="14.9587315"><ele>73.0</ele><time>2026-04-25T13:25:11.997Z</time></trkpt><trkpt lat="38.4797834" lon="14.9587856"><ele>73.0</ele><time>2026-04-25T13:25:12.997Z</time></trkpt><trkpt lat="38.4797439" lon="14.9588663"><ele>73.0</ele><time>2026-04-25T13:25:14.996Z</time></trkpt><trkpt lat="38.4798081" lon="14.9589071"><ele>73.0</ele><time>2026-04-25T13:25:17.996Z</time></trkpt><trkpt lat="38.4798646" lon="14.9588651"><ele>73.0</ele><time>2026-04-25T13:25:18.996Z</time></trkpt><trkpt lat="38.4799321" lon="14.9587931"><ele>73.0</ele><time>2026-04-25T13:25:19.997Z</time></trkpt><trkpt lat="38.4799858" lon="14.9587346"><ele>73.0</ele><time>2026-04-25T13:25:20.996Z</time></trkpt><trkpt lat="38.4800848" lon="14.9586766"><ele>73.0</ele><time>2026-04-25T13:25:21.997Z</time></trkpt><trkpt lat="38.480179" lon="14.9586558"><ele>73.0</ele><time>2026-04-25T13:25:22.996Z</time></trkpt><trkpt lat="38.4802783" lon="14.9586514"><ele>73.0</ele><time>2026-04-25T13:25:23.996Z</time></trkpt><trkpt lat="38.4803673" lon="14.9586486"><ele>73.0</ele><time>2026-04-25T13:25:24.997Z</time></trkpt><trkpt lat="38.4804362" lon="14.9586702"><ele>73.0</ele><time>2026-04-25T13:25:25.997Z</time></trkpt><trkpt lat="38.4804974" lon="14.95877"><ele>73.0</ele><time>2026-04-25T13:25:27.997Z</time></trkpt><trkpt lat="38.4804606" lon="14.9588701"><ele>73.0</ele><time>2026-04-25T13:25:29.997Z</time></trkpt><trkpt lat="38.4803988" lon="14.9588948"><ele>73.0</ele><time>2026-04-25T13:25:30.997Z</time></trkpt><trkpt lat="38.4803239" lon="14.9589363"><ele>73.0</ele><time>2026-04-25T13:25:31.997Z</time></trkpt><trkpt lat="38.4802261" lon="14.9589584"><ele>73.0</ele><time>2026-04-25T13:25:32.997Z</time></trkpt><trkpt lat="38.4801617" lon="14.9589762"><ele>73.0</ele><time>2026-04-25T13:25:33.996Z</time></trkpt><trkpt lat="38.4801074" lon="14.9590459"><ele>73.0</ele><time>2026-04-25T13:25:34.996Z</time></trkpt><trkpt lat="38.4800812" lon="14.9591351"><ele>73.0</ele><time>2026-04-25T13:25:35.997Z</time></trkpt><trkpt lat="38.4800872" lon="14.9592371"><ele>73.0</ele><time>2026-04-25T13:25:36.997Z</time></trkpt><trkpt lat="38.4801142" lon="14.9593268"><ele>73.0</ele><time>2026-04-25T13:25:37.996Z</time></trkpt><trkpt lat="38.4801608" lon="14.9594461"><ele>73.0</ele><time>2026-04-25T13:25:38.997Z</time></trkpt><trkpt lat="38.4801991" lon="14.9595568"><ele>73.0</ele><time>2026-04-25T13:25:39.997Z</time></trkpt><trkpt lat="38.4802363" lon="14.9596763"><ele>75.2</ele><time>2026-04-25T13:25:40.997Z</time></trkpt><trkpt lat="38.4802829" lon="14.9597806"><ele>77.4</ele><time>2026-04-25T13:25:41.996Z</time></trkpt><trkpt lat="38.4803375" lon="14.9598693"><ele>79.60000000000001</ele><time>2026-04-25T13:25:42.997Z</time></trkpt><trkpt lat="38.4804225" lon="14.9599277"><ele>81.8</ele><time>2026-04-25T13:25:43.997Z</time></trkpt><trkpt lat="38.480508" lon="14.9599426"><ele>84.0</ele><time>2026-04-25T13:25:44.997Z</time></trkpt><trkpt lat="38.4805992" lon="14.9599297"><ele>79.83333333333333</ele><time>2026-04-25T13:25:45.996Z</time></trkpt><trkpt lat="38.4806866" lon="14.9599093"><ele>75.66666666666667</ele><time>2026-04-25T13:25:46.996Z</time></trkpt><trkpt lat="38.4807655" lon="14.9599165"><ele>71.5</ele><time>2026-04-25T13:25:47.997Z</time></trkpt><trkpt lat="38.4808375" lon="14.9599469"><ele>67.33333333333334</ele><time>2026-04-25T13:25:48.996Z</time></trkpt><trkpt lat="38.4809119" lon="14.9599831"><ele>63.16666666666667</ele><time>2026-04-25T13:25:49.996Z</time></trkpt><trkpt lat="38.4809767" lon="14.9600199"><ele>59.0</ele><time>2026-04-25T13:25:50.996Z</time></trkpt><trkpt lat="38.4810378" lon="14.9599485"><ele>59.00000000000001</ele><time>2026-04-25T13:25:52.996Z</time></trkpt><trkpt lat="38.4809807" lon="14.9598244"><ele>59.0</ele><time>2026-04-25T13:25:54.997Z</time></trkpt><trkpt lat="38.4809188" lon="14.9597769"><ele>59.0</ele><time>2026-04-25T13:25:55.996Z</time></trkpt><trkpt lat="38.4808374" lon="14.9597588"><ele>59.0</ele><time>2026-04-25T13:25:56.996Z</time></trkpt><trkpt lat="38.4807526" lon="14.9597506"><ele>59.00000000000001</ele><time>2026-04-25T13:25:57.997Z</time></trkpt><trkpt lat="38.4806572" lon="14.9597573"><ele>59.0</ele><time>2026-04-25T13:25:58.996Z</time></trkpt><trkpt lat="38.4805687" lon="14.9597497"><ele>59.00000000000001</ele><time>2026-04-25T13:25:59.997Z</time></trkpt><trkpt lat="38.4804921" lon="14.9597186"><ele>59.0</ele><time>2026-04-25T13:26:00.996Z</time></trkpt><trkpt lat="38.4804289" lon="14.9596769"><ele>59.0</ele><time>2026-04-25T13:26:01.996Z</time></trkpt><trkpt lat="38.4803975" lon="14.9595741"><ele>59.0</ele><time>2026-04-25T13:26:02.997Z</time></trkpt><trkpt lat="38.4803697" lon="14.9594898"><ele>59.00000000000001</ele><time>2026-04-25T13:26:03.997Z</time></trkpt><trkpt lat="38.4803595" lon="14.9593923"><ele>59.0</ele><time>2026-04-25T13:26:04.997Z</time></trkpt><trkpt lat="38.480373" lon="14.9593024"><ele>59.00000000000001</ele><time>2026-04-25T13:26:05.997Z</time></trkpt><trkpt lat="38.480435" lon="14.9592252"><ele>59.0</ele><time>2026-04-25T13:26:06.996Z</time></trkpt><trkpt lat="38.4804897" lon="14.9591632"><ele>59.0</ele><time>2026-04-25T13:26:07.996Z</time></trkpt><trkpt lat="38.4805742" lon="14.9591122"><ele>59.0</ele><time>2026-04-25T13:26:08.996Z</time></trkpt><trkpt lat="38.4806672" lon="14.9590601"><ele>59.00000000000001</ele><time>2026-04-25T13:26:09.996Z</time></trkpt><trkpt lat="38.4807477" lon="14.9590008"><ele>59.0</ele><time>2026-04-25T13:26:10.997Z</time></trkpt><trkpt lat="38.4808276" lon="14.9589209"><ele>59.800000000000004</ele><time>2026-04-25T13:26:11.996Z</time></trkpt><trkpt lat="38.4809022" lon="14.9588344"><ele>60.60000000000001</ele><time>2026-04-25T13:26:12.996Z</time></trkpt><trkpt lat="38.4809496" lon="14.9587225"><ele>61.4</ele><time>2026-04-25T13:26:13.997Z</time></trkpt><trkpt lat="38.4809884" lon="14.9585996"><ele>62.2</ele><time>2026-04-25T13:26:14.996Z</time></trkpt><trkpt lat="38.4810164" lon="14.958459"><ele>63.0</ele><time>2026-04-25T13:26:15.996Z</time></trkpt><trkpt lat="38.4810309" lon="14.9583136"><ele>63.0</ele><time>2026-04-25T13:26:16.996Z</time></trkpt><trkpt lat="38.4810422" lon="14.9581676"><ele>63.0</ele><time>2026-04-25T13:26:17.996Z</time></trkpt><trkpt lat="38.4810554" lon="14.9580166"><ele>63.0</ele><time>2026-04-25T13:26:18.997Z</time></trkpt><trkpt lat="38.481068" lon="14.9578756"><ele>63.0</ele><time>2026-04-25T13:26:19.996Z</time></trkpt><trkpt lat="38.4810604" lon="14.957725"><ele>63.0</ele><time>2026-04-25T13:26:20.996Z</time></trkpt><trkpt lat="38.48104" lon="14.9575843"><ele>63.0</ele><time>2026-04-25T13:26:21.997Z</time></trkpt><trkpt lat="38.4810282" lon="14.9574673"><ele>63.0</ele><time>2026-04-25T13:26:22.996Z</time></trkpt><trkpt lat="38.4810217" lon="14.9573575"><ele>63.0</ele><time>2026-04-25T13:26:23.997Z</time></trkpt><trkpt lat="38.4810327" lon="14.9572585"><ele>63.0</ele><time>2026-04-25T13:26:24.997Z</time></trkpt><trkpt lat="38.4810778" lon="14.9571927"><ele>63.0</ele><time>2026-04-25T13:26:25.997Z</time></trkpt><trkpt lat="38.4811405" lon="14.9571595"><ele>63.14285714285714</ele><time>2026-04-25T13:26:26.997Z</time></trkpt><trkpt lat="38.4812084" lon="14.9571439"><ele>63.285714285714285</ele><time>2026-04-25T13:26:27.997Z</time></trkpt><trkpt lat="38.4812951" lon="14.9571473"><ele>63.42857142857143</ele><time>2026-04-25T13:26:28.996Z</time></trkpt><trkpt lat="38.481363" lon="14.9571824"><ele>63.57142857142857</ele><time>2026-04-25T13:26:29.996Z</time></trkpt><trkpt lat="38.4814218" lon="14.9572277"><ele>63.71428571428571</ele><time>2026-04-25T13:26:30.996Z</time></trkpt><trkpt lat="38.481447" lon="14.9573073"><ele>63.857142857142854</ele><time>2026-04-25T13:26:31.997Z</time></trkpt><trkpt lat="38.4814556" lon="14.9574041"><ele>64.0</ele><time>2026-04-25T13:26:32.997Z</time></trkpt><trkpt lat="38.4814642" lon="14.9575029"><ele>61.2</ele><time>2026-04-25T13:26:33.996Z</time></trkpt><trkpt lat="38.4814634" lon="14.9576277"><ele>58.400000000000006</ele><time>2026-04-25T13:26:34.997Z</time></trkpt><trkpt lat="38.4814641" lon="14.9577579"><ele>55.6</ele><time>2026-04-25T13:26:35.997Z</time></trkpt><trkpt lat="38.4814723" lon="14.9578943"><ele>52.8</ele><time>2026-04-25T13:26:36.997Z</time></trkpt><trkpt lat="38.481494" lon="14.9580295"><ele>50.0</ele><time>2026-04-25T13:26:37.996Z</time></trkpt><trkpt lat="38.4815174" lon="14.9581669"><ele>50.0</ele><time>2026-04-25T13:26:38.996Z</time></trkpt><trkpt lat="38.4815487" lon="14.9583012"><ele>50.0</ele><time>2026-04-25T13:26:39.996Z</time></trkpt><trkpt lat="38.4815902" lon="14.9584263"><ele>50.0</ele><time>2026-04-25T13:26:40.997Z</time></trkpt><trkpt lat="38.4816501" lon="14.9585354"><ele>50.0</ele><time>2026-04-25T13:26:41.997Z</time></trkpt><trkpt lat="38.4817268" lon="14.9586335"><ele>50.0</ele><time>2026-04-25T13:26:42.996Z</time></trkpt><trkpt lat="38.4817909" lon="14.9587232"><ele>47.0</ele><time>2026-04-25T13:26:43.996Z</time></trkpt><trkpt lat="38.4818623" lon="14.958815"><ele>44.0</ele><time>2026-04-25T13:26:44.996Z</time></trkpt><trkpt lat="38.4818977" lon="14.9589095"><ele>41.0</ele><time>2026-04-25T13:26:45.996Z</time></trkpt><trkpt lat="38.4819165" lon="14.9590229"><ele>38.0</ele><time>2026-04-25T13:26:46.996Z</time></trkpt><trkpt lat="38.4819166" lon="14.9591464"><ele>35.0</ele><time>2026-04-25T13:26:47.996Z</time></trkpt><trkpt lat="38.481907" lon="14.9592723"><ele>34.8</ele><time>2026-04-25T13:26:48.997Z</time></trkpt><trkpt lat="38.4818953" lon="14.9594037"><ele>34.6</ele><time>2026-04-25T13:26:49.997Z</time></trkpt><trkpt lat="38.481881" lon="14.9595419"><ele>34.4</ele><time>2026-04-25T13:26:50.997Z</time></trkpt><trkpt lat="38.4818675" lon="14.9596757"><ele>34.2</ele><time>2026-04-25T13:26:51.996Z</time></trkpt><trkpt lat="38.4818489" lon="14.9598154"><ele>34.0</ele><time>2026-04-25T13:26:52.997Z</time></trkpt><trkpt lat="38.4818404" lon="14.9599512"><ele>36.66666666666667</ele><time>2026-04-25T13:26:53.996Z</time></trkpt><trkpt lat="38.4818275" lon="14.960079"><ele>39.333333333333336</ele><time>2026-04-25T13:26:54.997Z</time></trkpt><trkpt lat="38.4818214" lon="14.9601892"><ele>42.0</ele><time>2026-04-25T13:26:55.997Z</time></trkpt><trkpt lat="38.4818347" lon="14.9602902"><ele>44.66666666666667</ele><time>2026-04-25T13:26:56.996Z</time></trkpt><trkpt lat="38.4818783" lon="14.9603744"><ele>47.333333333333336</ele><time>2026-04-25T13:26:57.996Z</time></trkpt><trkpt lat="38.4819505" lon="14.9604386"><ele>50.0</ele><time>2026-04-25T13:26:58.997Z</time></trkpt><trkpt lat="38.4820187" lon="14.9604944"><ele>50.0</ele><time>2026-04-25T13:26:59.997Z</time></trkpt><trkpt lat="38.4820971" lon="14.9605448"><ele>50.0</ele><time>2026-04-25T13:27:00.996Z</time></trkpt><trkpt lat="38.4821738" lon="14.9606091"><ele>50.0</ele><time>2026-04-25T13:27:01.996Z</time></trkpt><trkpt lat="38.4822357" lon="14.9607026"><ele>50.0</ele><time>2026-04-25T13:27:02.997Z</time></trkpt><trkpt lat="38.4822932" lon="14.9608064"><ele>50.0</ele><time>2026-04-25T13:27:03.996Z</time></trkpt><trkpt lat="38.4823507" lon="14.9609246"><ele>46.0</ele><time>2026-04-25T13:27:04.996Z</time></trkpt><trkpt lat="38.4824025" lon="14.9610532"><ele>42.0</ele><time>2026-04-25T13:27:05.997Z</time></trkpt><trkpt lat="38.4824615" lon="14.961186"><ele>38.0</ele><time>2026-04-25T13:27:06.996Z</time></trkpt><trkpt lat="38.4825155" lon="14.9613229"><ele>34.0</ele><time>2026-04-25T13:27:07.996Z</time></trkpt><trkpt lat="38.4825657" lon="14.9614593"><ele>34.0</ele><time>2026-04-25T13:27:08.996Z</time></trkpt><trkpt lat="38.4826126" lon="14.9615952"><ele>34.0</ele><time>2026-04-25T13:27:09.996Z</time></trkpt><trkpt lat="38.4826547" lon="14.9617252"><ele>34.0</ele><time>2026-04-25T13:27:10.997Z</time></trkpt><trkpt lat="38.4826969" lon="14.9618618"><ele>34.0</ele><time>2026-04-25T13:27:11.996Z</time></trkpt><trkpt lat="38.4827259" lon="14.9619894"><ele>34.0</ele><time>2026-04-25T13:27:12.996Z</time></trkpt><trkpt lat="38.4827539" lon="14.9621159"><ele>34.4</ele><time>2026-04-25T13:27:13.996Z</time></trkpt><trkpt lat="38.4827641" lon="14.9622488"><ele>34.8</ele><time>2026-04-25T13:27:14.996Z</time></trkpt><trkpt lat="38.4827743" lon="14.9623812"><ele>35.2</ele><time>2026-04-25T13:27:15.996Z</time></trkpt><trkpt lat="38.4827789" lon="14.9625086"><ele>35.6</ele><time>2026-04-25T13:27:16.997Z</time></trkpt><trkpt lat="38.4827977" lon="14.9626322"><ele>36.0</ele><time>2026-04-25T13:27:17.996Z</time></trkpt><trkpt lat="38.4828189" lon="14.9627587"><ele>34.6</ele><time>2026-04-25T13:27:18.996Z</time></trkpt><trkpt lat="38.4828398" lon="14.9628782"><ele>33.2</ele><time>2026-04-25T13:27:19.996Z</time></trkpt><trkpt lat="38.4828563" lon="14.96299"><ele>31.799999999999997</ele><time>2026-04-25T13:27:20.996Z</time></trkpt><trkpt lat="38.4828736" lon="14.9630875"><ele>30.4</ele><time>2026-04-25T13:27:21.996Z</time></trkpt><trkpt lat="38.4828769" lon="14.9632268"><ele>29.0</ele><time>2026-04-25T13:27:23.996Z</time></trkpt><trkpt lat="38.4829161" lon="14.9633677"><ele>29.142857142857146</ele><time>2026-04-25T13:27:32.997Z</time></trkpt><trkpt lat="38.4829632" lon="14.9634231"><ele>29.285714285714285</ele><time>2026-04-25T13:27:33.996Z</time></trkpt><trkpt lat="38.4830183" lon="14.9634761"><ele>29.42857142857143</ele><time>2026-04-25T13:27:34.996Z</time></trkpt><trkpt lat="38.483082" lon="14.963519"><ele>29.571428571428573</ele><time>2026-04-25T13:27:35.997Z</time></trkpt><trkpt lat="38.4831453" lon="14.9635514"><ele>29.714285714285715</ele><time>2026-04-25T13:27:36.996Z</time></trkpt><trkpt lat="38.4832293" lon="14.9635578"><ele>29.857142857142858</ele><time>2026-04-25T13:27:38.997Z</time></trkpt><trkpt lat="38.4832403" lon="14.9634488"><ele>30.0</ele><time>2026-04-25T13:27:41.996Z</time></trkpt><trkpt lat="38.483173" lon="14.9634009"><ele>30.0</ele><time>2026-04-25T13:27:44.996Z</time></trkpt><trkpt lat="38.4830984" lon="14.9634032"><ele>30.0</ele><time>2026-04-25T13:31:30.996Z</time></trkpt><trkpt lat="38.4831285" lon="14.963487"><ele>30.0</ele><time>2026-04-25T13:31:37.996Z</time></trkpt><trkpt lat="38.4832459" lon="14.9635746"><ele>30.0</ele><time>2026-04-25T13:31:39.997Z</time></trkpt><trkpt lat="38.4833245" lon="14.9636063"><ele>30.0</ele><time>2026-04-25T13:31:40.996Z</time></trkpt><trkpt lat="38.4833957" lon="14.9636518"><ele>30.0</ele><time>2026-04-25T13:31:41.996Z</time></trkpt><trkpt lat="38.4834706" lon="14.9637034"><ele>30.0</ele><time>2026-04-25T13:31:42.996Z</time></trkpt><trkpt lat="38.4835428" lon="14.9637716"><ele>30.0</ele><time>2026-04-25T13:31:43.997Z</time></trkpt><trkpt lat="38.4836128" lon="14.9638619"><ele>30.0</ele><time>2026-04-25T13:31:44.997Z</time></trkpt><trkpt lat="38.4836816" lon="14.9639633"><ele>30.0</ele><time>2026-04-25T13:31:45.997Z</time></trkpt><trkpt lat="38.4837498" lon="14.9640752"><ele>30.0</ele><time>2026-04-25T13:31:46.996Z</time></trkpt><trkpt lat="38.4838208" lon="14.9641814"><ele>28.6</ele><time>2026-04-25T13:31:47.996Z</time></trkpt><trkpt lat="38.4838918" lon="14.9642906"><ele>27.2</ele><time>2026-04-25T13:31:48.997Z</time></trkpt><trkpt lat="38.4839658" lon="14.9644"><ele>25.799999999999997</ele><time>2026-04-25T13:31:49.997Z</time></trkpt><trkpt lat="38.4840455" lon="14.9645043"><ele>24.4</ele><time>2026-04-25T13:31:50.997Z</time></trkpt><trkpt lat="38.4841166" lon="14.9646058"><ele>23.0</ele><time>2026-04-25T13:31:51.997Z</time></trkpt><trkpt lat="38.4841875" lon="14.9647141"><ele>23.0</ele><time>2026-04-25T13:31:52.996Z</time></trkpt><trkpt lat="38.4842476" lon="14.9648238"><ele>23.0</ele><time>2026-04-25T13:31:53.997Z</time></trkpt><trkpt lat="38.484305" lon="14.9649351"><ele>23.0</ele><time>2026-04-25T13:31:54.997Z</time></trkpt><trkpt lat="38.4843453" lon="14.9650591"><ele>23.0</ele><time>2026-04-25T13:31:55.996Z</time></trkpt><trkpt lat="38.4843648" lon="14.9651949"><ele>23.0</ele><time>2026-04-25T13:31:56.996Z</time></trkpt><trkpt lat="38.4843687" lon="14.9653365"><ele>25.25</ele><time>2026-04-25T13:31:57.997Z</time></trkpt><trkpt lat="38.4843745" lon="14.9654821"><ele>27.5</ele><time>2026-04-25T13:31:58.996Z</time></trkpt><trkpt lat="38.484375" lon="14.9656309"><ele>29.75</ele><time>2026-04-25T13:31:59.996Z</time></trkpt><trkpt lat="38.4843787" lon="14.9657798"><ele>32.0</ele><time>2026-04-25T13:32:00.996Z</time></trkpt><trkpt lat="38.4843798" lon="14.9659354"><ele>33.2</ele><time>2026-04-25T13:32:01.996Z</time></trkpt><trkpt lat="38.4843859" lon="14.966088"><ele>34.400000000000006</ele><time>2026-04-25T13:32:02.997Z</time></trkpt><trkpt lat="38.4843951" lon="14.9662346"><ele>35.599999999999994</ele><time>2026-04-25T13:32:03.996Z</time></trkpt><trkpt lat="38.4844147" lon="14.9663699"><ele>36.8</ele><time>2026-04-25T13:32:04.997Z</time></trkpt><trkpt lat="38.4844393" lon="14.9664969"><ele>38.0</ele><time>2026-04-25T13:32:05.996Z</time></trkpt><trkpt lat="38.4844694" lon="14.9666244"><ele>40.599999999999994</ele><time>2026-04-25T13:32:06.997Z</time></trkpt><trkpt lat="38.4845077" lon="14.9667512"><ele>43.199999999999996</ele><time>2026-04-25T13:32:07.996Z</time></trkpt><trkpt lat="38.4845426" lon="14.9668772"><ele>45.8</ele><time>2026-04-25T13:32:08.996Z</time></trkpt><trkpt lat="38.4845868" lon="14.9670037"><ele>48.4</ele><time>2026-04-25T13:32:09.996Z</time></trkpt><trkpt lat="38.4846321" lon="14.9671287"><ele>51.0</ele><time>2026-04-25T13:32:10.996Z</time></trkpt><trkpt lat="38.484691" lon="14.9672412"><ele>43.8</ele><time>2026-04-25T13:32:11.997Z</time></trkpt><trkpt lat="38.4847611" lon="14.9673431"><ele>36.599999999999994</ele><time>2026-04-25T13:32:12.997Z</time></trkpt><trkpt lat="38.4848344" lon="14.9674373"><ele>29.4</ele><time>2026-04-25T13:32:13.996Z</time></trkpt><trkpt lat="38.484898" lon="14.9675258"><ele>22.2</ele><time>2026-04-25T13:32:14.996Z</time></trkpt><trkpt lat="38.4849375" lon="14.9676135"><ele>15.0</ele><time>2026-04-25T13:32:15.996Z</time></trkpt><trkpt lat="38.4849571" lon="14.9677114"><ele>13.8</ele><time>2026-04-25T13:32:16.997Z</time></trkpt><trkpt lat="38.4849228" lon="14.9678078"><ele>12.6</ele><time>2026-04-25T13:32:17.996Z</time></trkpt><trkpt lat="38.4848731" lon="14.9679063"><ele>11.4</ele><time>2026-04-25T13:32:18.996Z</time></trkpt><trkpt lat="38.484834" lon="14.9680098"><ele>10.2</ele><time>2026-04-25T13:32:19.996Z</time></trkpt><trkpt lat="38.4848064" lon="14.9681244"><ele>9.0</ele><time>2026-04-25T13:32:20.997Z</time></trkpt><trkpt lat="38.4847913" lon="14.9682408"><ele>8.6</ele><time>2026-04-25T13:32:21.996Z</time></trkpt><trkpt lat="38.4847994" lon="14.9683639"><ele>8.2</ele><time>2026-04-25T13:32:22.997Z</time></trkpt><trkpt lat="38.4848296" lon="14.9684758"><ele>7.799999999999999</ele><time>2026-04-25T13:32:23.997Z</time></trkpt><trkpt lat="38.4849001" lon="14.9685713"><ele>7.3999999999999995</ele><time>2026-04-25T13:32:24.996Z</time></trkpt><trkpt lat="38.4849769" lon="14.9686486"><ele>7.0</ele><time>2026-04-25T13:32:25.996Z</time></trkpt><trkpt lat="38.4850623" lon="14.9687182"><ele>7.0</ele><time>2026-04-25T13:32:26.996Z</time></trkpt><trkpt lat="38.4851504" lon="14.9687793"><ele>6.999999999999999</ele><time>2026-04-25T13:32:27.996Z</time></trkpt><trkpt lat="38.4852341" lon="14.9688372"><ele>6.999999999999999</ele><time>2026-04-25T13:32:28.996Z</time></trkpt><trkpt lat="38.4853041" lon="14.9688887"><ele>7.0</ele><time>2026-04-25T13:32:29.997Z</time></trkpt><trkpt lat="38.4853693" lon="14.9689097"><ele>7.0</ele><time>2026-04-25T13:32:30.997Z</time></trkpt><trkpt lat="38.4854797" lon="14.968846"><ele>6.500000000000001</ele><time>2026-04-25T13:32:32.996Z</time></trkpt><trkpt lat="38.4855244" lon="14.9687834"><ele>6.0</ele><time>2026-04-25T13:32:33.996Z</time></trkpt><trkpt lat="38.4855584" lon="14.9687003"><ele>5.5</ele><time>2026-04-25T13:32:34.996Z</time></trkpt><trkpt lat="38.4855991" lon="14.9686093"><ele>5.0</ele><time>2026-04-25T13:32:35.997Z</time></trkpt><trkpt lat="38.4856451" lon="14.9685072"><ele>4.5</ele><time>2026-04-25T13:32:36.996Z</time></trkpt><trkpt lat="38.4856924" lon="14.9683979"><ele>4.0</ele><time>2026-04-25T13:32:37.996Z</time></trkpt><trkpt lat="38.4857424" lon="14.9682854"><ele>4.0</ele><time>2026-04-25T13:32:38.996Z</time></trkpt><trkpt lat="38.4857939" lon="14.9681659"><ele>4.0</ele><time>2026-04-25T13:32:39.996Z</time></trkpt><trkpt lat="38.4858467" lon="14.9680439"><ele>4.0</ele><time>2026-04-25T13:32:40.997Z</time></trkpt><trkpt lat="38.4859044" lon="14.9679209"><ele>4.0</ele><time>2026-04-25T13:32:41.997Z</time></trkpt><trkpt lat="38.4859635" lon="14.9677948"><ele>4.0</ele><time>2026-04-25T13:32:42.996Z</time></trkpt><trkpt lat="38.4860143" lon="14.96767"><ele>4.0</ele><time>2026-04-25T13:32:43.997Z</time></trkpt><trkpt lat="38.4860666" lon="14.967549"><ele>4.0</ele><time>2026-04-25T13:32:44.997Z</time></trkpt><trkpt lat="38.486116" lon="14.9674339"><ele>4.0</ele><time>2026-04-25T13:32:45.997Z</time></trkpt><trkpt lat="38.4861644" lon="14.9673176"><ele>4.0</ele><time>2026-04-25T13:32:46.996Z</time></trkpt><trkpt lat="38.486216" lon="14.9671998"><ele>4.0</ele><time>2026-04-25T13:32:47.997Z</time></trkpt><trkpt lat="38.4862671" lon="14.9670872"><ele>4.0</ele><time>2026-04-25T13:32:48.997Z</time></trkpt><trkpt lat="38.486319" lon="14.9669759"><ele>4.0</ele><time>2026-04-25T13:32:49.996Z</time></trkpt><trkpt lat="38.4863791" lon="14.9668657"><ele>4.0</ele><time>2026-04-25T13:32:50.997Z</time></trkpt><trkpt lat="38.4864508" lon="14.9667596"><ele>4.0</ele><time>2026-04-25T13:32:51.997Z</time></trkpt><trkpt lat="38.4865236" lon="14.9666561"><ele>4.0</ele><time>2026-04-25T13:32:52.996Z</time></trkpt><trkpt lat="38.4865993" lon="14.9665477"><ele>4.4</ele><time>2026-04-25T13:32:53.997Z</time></trkpt><trkpt lat="38.4866721" lon="14.9664439"><ele>4.800000000000001</ele><time>2026-04-25T13:32:54.997Z</time></trkpt><trkpt lat="38.4867366" lon="14.9663495"><ele>5.199999999999999</ele><time>2026-04-25T13:32:55.997Z</time></trkpt><trkpt lat="38.486786" lon="14.9662714"><ele>5.6</ele><time>2026-04-25T13:32:56.996Z</time></trkpt><trkpt lat="38.48683" lon="14.9661611"><ele>6.0</ele><time>2026-04-25T13:32:58.996Z</time></trkpt><trkpt lat="38.4868063" lon="14.966077"><ele>6.0</ele><time>2026-04-25T13:33:00.996Z</time></trkpt><trkpt lat="38.4867671" lon="14.9660122"><ele>6.0</ele><time>2026-04-25T13:33:01.996Z</time></trkpt><trkpt lat="38.4867109" lon="14.9659191"><ele>6.0</ele><time>2026-04-25T13:33:02.996Z</time></trkpt><trkpt lat="38.4866392" lon="14.9658431"><ele>6.0</ele><time>2026-04-25T13:33:03.997Z</time></trkpt><trkpt lat="38.4865823" lon="14.9657725"><ele>6.0</ele><time>2026-04-25T13:33:04.996Z</time></trkpt><trkpt lat="38.4865253" lon="14.9656998"><ele>6.0</ele><time>2026-04-25T13:33:05.996Z</time></trkpt><trkpt lat="38.4864764" lon="14.965643"><ele>6.4</ele><time>2026-04-25T13:33:06.997Z</time></trkpt><trkpt lat="38.4864081" lon="14.9656024"><ele>6.8</ele><time>2026-04-25T13:33:09.997Z</time></trkpt><trkpt lat="38.4863207" lon="14.9656548"><ele>7.200000000000001</ele><time>2026-04-25T13:33:12.997Z</time></trkpt><trkpt lat="38.4862666" lon="14.9657064"><ele>7.6000000000000005</ele><time>2026-04-25T13:33:13.997Z</time></trkpt><trkpt lat="38.4861545" lon="14.9658178"><ele>8.0</ele><time>2026-04-25T13:33:15.997Z</time></trkpt><trkpt lat="38.4860954" lon="14.9658797"><ele>8.333333333333332</ele><time>2026-04-25T13:33:16.996Z</time></trkpt><trkpt lat="38.4860312" lon="14.9659498"><ele>8.666666666666666</ele><time>2026-04-25T13:33:17.996Z</time></trkpt><trkpt lat="38.4859693" lon="14.9660151"><ele>9.0</ele><time>2026-04-25T13:33:18.996Z</time></trkpt><trkpt lat="38.485916" lon="14.9660664"><ele>9.333333333333334</ele><time>2026-04-25T13:33:19.997Z</time></trkpt><trkpt lat="38.4858414" lon="14.9661423"><ele>9.666666666666668</ele><time>2026-04-25T13:33:21.997Z</time></trkpt><trkpt lat="38.4857932" lon="14.9662338"><ele>10.0</ele><time>2026-04-25T13:47:52.996Z</time></trkpt><trkpt lat="38.4857268" lon="14.9663283"><ele>10.0</ele><time>2026-04-25T13:47:54.997Z</time></trkpt><trkpt lat="38.4856333" lon="14.9664068"><ele>10.0</ele><time>2026-04-25T13:47:56.997Z</time></trkpt><trkpt lat="38.4855542" lon="14.9664876"><ele>10.0</ele><time>2026-04-25T13:47:58.996Z</time></trkpt><trkpt lat="38.4854887" lon="14.9665739"><ele>10.0</ele><time>2026-04-25T13:48:00.996Z</time></trkpt><trkpt lat="38.4854806" lon="14.9666868"><ele>10.0</ele><time>2026-04-25T13:48:02.997Z</time></trkpt><trkpt lat="38.4854332" lon="14.966801"><ele>9.6</ele><time>2026-04-25T13:48:04.996Z</time></trkpt><trkpt lat="38.4854135" lon="14.9669048"><ele>9.2</ele><time>2026-04-25T13:48:06.996Z</time></trkpt><trkpt lat="38.4854556" lon="14.9669869"><ele>8.8</ele><time>2026-04-25T13:48:08.996Z</time></trkpt><trkpt lat="38.4855423" lon="14.9670581"><ele>8.4</ele><time>2026-04-25T13:48:10.997Z</time></trkpt><trkpt lat="38.4856532" lon="14.9671322"><ele>8.0</ele><time>2026-04-25T13:48:12.996Z</time></trkpt><trkpt lat="38.4857157" lon="14.9671758"><ele>7.999999999999999</ele><time>2026-04-25T13:48:13.996Z</time></trkpt><trkpt lat="38.4857765" lon="14.9672107"><ele>8.0</ele><time>2026-04-25T13:48:14.996Z</time></trkpt><trkpt lat="38.4858745" lon="14.9672778"><ele>8.0</ele><time>2026-04-25T13:48:16.996Z</time></trkpt><trkpt lat="38.4859576" lon="14.9673311"><ele>8.0</ele><time>2026-04-25T13:48:18.996Z</time></trkpt><trkpt lat="38.4860321" lon="14.9673799"><ele>7.999999999999999</ele><time>2026-04-25T13:48:20.997Z</time></trkpt><trkpt lat="38.4860945" lon="14.9673915"><ele>8.0</ele><time>2026-04-25T13:48:23.997Z</time></trkpt><trkpt lat="38.4861638" lon="14.9673477"><ele>7.999999999999999</ele><time>2026-04-25T13:48:28.997Z</time></trkpt><trkpt lat="38.4862115" lon="14.9672315"><ele>8.0</ele><time>2026-04-25T13:48:30.996Z</time></trkpt><trkpt lat="38.486267" lon="14.967102"><ele>8.0</ele><time>2026-04-25T13:48:32.996Z</time></trkpt><trkpt lat="38.4862975" lon="14.9670306"><ele>8.0</ele><time>2026-04-25T13:48:33.996Z</time></trkpt><trkpt lat="38.4863344" lon="14.9669565"><ele>7.999999999999999</ele><time>2026-04-25T13:48:34.996Z</time></trkpt><trkpt lat="38.4863782" lon="14.9668827"><ele>8.0</ele><time>2026-04-25T13:48:35.996Z</time></trkpt><trkpt lat="38.4864267" lon="14.9668061"><ele>7.666666666666666</ele><time>2026-04-25T13:48:36.996Z</time></trkpt><trkpt lat="38.4864763" lon="14.9667396"><ele>7.333333333333333</ele><time>2026-04-25T13:48:37.996Z</time></trkpt><trkpt lat="38.4865265" lon="14.9666702"><ele>7.0</ele><time>2026-04-25T13:48:38.996Z</time></trkpt><trkpt lat="38.4865796" lon="14.966597"><ele>6.666666666666666</ele><time>2026-04-25T13:48:39.996Z</time></trkpt><trkpt lat="38.4866317" lon="14.9665219"><ele>6.333333333333333</ele><time>2026-04-25T13:48:40.997Z</time></trkpt><trkpt lat="38.4866845" lon="14.9664445"><ele>6.0</ele><time>2026-04-25T13:48:41.997Z</time></trkpt><trkpt lat="38.4867404" lon="14.9663656"><ele>6.0</ele><time>2026-04-25T13:48:42.996Z</time></trkpt><trkpt lat="38.4867946" lon="14.9662812"><ele>6.0</ele><time>2026-04-25T13:48:43.996Z</time></trkpt><trkpt lat="38.4868501" lon="14.9661955"><ele>6.0</ele><time>2026-04-25T13:48:44.997Z</time></trkpt><trkpt lat="38.4869046" lon="14.9661074"><ele>6.0</ele><time>2026-04-25T13:48:45.996Z</time></trkpt><trkpt lat="38.4869648" lon="14.9660228"><ele>6.0</ele><time>2026-04-25T13:48:46.996Z</time></trkpt><trkpt lat="38.4870225" lon="14.9659331"><ele>6.0</ele><time>2026-04-25T13:48:47.996Z</time></trkpt><trkpt lat="38.4870822" lon="14.9658468"><ele>5.5</ele><time>2026-04-25T13:48:48.996Z</time></trkpt><trkpt lat="38.4871375" lon="14.9657632"><ele>5.0</ele><time>2026-04-25T13:48:49.997Z</time></trkpt><trkpt lat="38.4871963" lon="14.9656794"><ele>4.5</ele><time>2026-04-25T13:48:50.997Z</time></trkpt><trkpt lat="38.4872615" lon="14.9655964"><ele>4.0</ele><time>2026-04-25T13:48:51.996Z</time></trkpt><trkpt lat="38.4873272" lon="14.9655221"><ele>3.5</ele><time>2026-04-25T13:48:52.997Z</time></trkpt><trkpt lat="38.4873984" lon="14.965447"><ele>3.0</ele><time>2026-04-25T13:48:53.996Z</time></trkpt><trkpt lat="38.4874688" lon="14.9653742"><ele>3.0</ele><time>2026-04-25T13:48:54.997Z</time></trkpt><trkpt lat="38.4875383" lon="14.9652978"><ele>3.0</ele><time>2026-04-25T13:48:55.996Z</time></trkpt><trkpt lat="38.4876083" lon="14.9652138"><ele>3.0</ele><time>2026-04-25T13:48:56.997Z</time></trkpt><trkpt lat="38.487679" lon="14.9651347"><ele>3.0</ele><time>2026-04-25T13:48:57.996Z</time></trkpt><trkpt lat="38.48775" lon="14.9650508"><ele>3.0</ele><time>2026-04-25T13:48:58.996Z</time></trkpt><trkpt lat="38.4878198" lon="14.9649674"><ele>3.4</ele><time>2026-04-25T13:48:59.997Z</time></trkpt><trkpt lat="38.4878949" lon="14.964883"><ele>3.8</ele><time>2026-04-25T13:49:00.996Z</time></trkpt><trkpt lat="38.4879674" lon="14.9648008"><ele>4.2</ele><time>2026-04-25T13:49:01.996Z</time></trkpt><trkpt lat="38.4880456" lon="14.9647166"><ele>4.6</ele><time>2026-04-25T13:49:02.997Z</time></trkpt><trkpt lat="38.4881208" lon="14.9646282"><ele>5.0</ele><time>2026-04-25T13:49:03.997Z</time></trkpt><trkpt lat="38.4881973" lon="14.9645433"><ele>5.0</ele><time>2026-04-25T13:49:04.997Z</time></trkpt><trkpt lat="38.4882764" lon="14.9644576"><ele>5.0</ele><time>2026-04-25T13:49:05.997Z</time></trkpt><trkpt lat="38.4883557" lon="14.9643804"><ele>5.0</ele><time>2026-04-25T13:49:06.996Z</time></trkpt><trkpt lat="38.4884296" lon="14.9643047"><ele>5.0</ele><time>2026-04-25T13:49:07.997Z</time></trkpt><trkpt lat="38.4885087" lon="14.9642277"><ele>5.0</ele><time>2026-04-25T13:49:08.996Z</time></trkpt><trkpt lat="38.4885899" lon="14.9641571"><ele>5.2</ele><time>2026-04-25T13:49:09.996Z</time></trkpt><trkpt lat="38.4886739" lon="14.9640893"><ele>5.4</ele><time>2026-04-25T13:49:10.997Z</time></trkpt><trkpt lat="38.4887575" lon="14.964018"><ele>5.6</ele><time>2026-04-25T13:49:11.996Z</time></trkpt><trkpt lat="38.4888365" lon="14.9639439"><ele>5.8</ele><time>2026-04-25T13:49:12.996Z</time></trkpt><trkpt lat="38.4889148" lon="14.9638681"><ele>6.0</ele><time>2026-04-25T13:49:13.997Z</time></trkpt><trkpt lat="38.488996" lon="14.9637962"><ele>5.2</ele><time>2026-04-25T13:49:14.996Z</time></trkpt><trkpt lat="38.4890751" lon="14.963724"><ele>4.3999999999999995</ele><time>2026-04-25T13:49:15.996Z</time></trkpt><trkpt lat="38.4891525" lon="14.9636514"><ele>3.6</ele><time>2026-04-25T13:49:16.996Z</time></trkpt><trkpt lat="38.4892264" lon="14.9635765"><ele>2.8</ele><time>2026-04-25T13:49:17.997Z</time></trkpt><trkpt lat="38.4893023" lon="14.963505"><ele>2.0</ele><time>2026-04-25T13:49:18.996Z</time></trkpt><trkpt lat="38.4893711" lon="14.963439"><ele>1.9999999999999998</ele><time>2026-04-25T13:49:19.997Z</time></trkpt><trkpt lat="38.4894453" lon="14.9633749"><ele>2.0</ele><time>2026-04-25T13:49:20.996Z</time></trkpt><trkpt lat="38.4895132" lon="14.9633095"><ele>2.0</ele><time>2026-04-25T13:49:21.996Z</time></trkpt><trkpt lat="38.4895904" lon="14.9632375"><ele>2.0</ele><time>2026-04-25T13:49:22.996Z</time></trkpt><trkpt lat="38.4896627" lon="14.9631719"><ele>1.9999999999999998</ele><time>2026-04-25T13:49:23.997Z</time></trkpt><trkpt lat="38.4897392" lon="14.9631105"><ele>2.0</ele><time>2026-04-25T13:49:24.996Z</time></trkpt><trkpt lat="38.489815" lon="14.9630509"><ele>2.0</ele><time>2026-04-25T13:49:25.996Z</time></trkpt><trkpt lat="38.4898859" lon="14.9629915"><ele>2.0</ele><time>2026-04-25T13:49:26.996Z</time></trkpt><trkpt lat="38.4899643" lon="14.9629235"><ele>2.0</ele><time>2026-04-25T13:49:27.996Z</time></trkpt><trkpt lat="38.4900433" lon="14.9628541"><ele>2.0</ele><time>2026-04-25T13:49:28.997Z</time></trkpt><trkpt lat="38.4901224" lon="14.9627857"><ele>2.0</ele><time>2026-04-25T13:49:29.996Z</time></trkpt><trkpt lat="38.4901988" lon="14.9627244"><ele>2.0</ele><time>2026-04-25T13:49:30.997Z</time></trkpt><trkpt lat="38.4902789" lon="14.9626644"><ele>2.0</ele><time>2026-04-25T13:49:31.996Z</time></trkpt><trkpt lat="38.4903615" lon="14.9626101"><ele>2.0</ele><time>2026-04-25T13:49:32.997Z</time></trkpt><trkpt lat="38.4904447" lon="14.9625575"><ele>2.0</ele><time>2026-04-25T13:49:33.996Z</time></trkpt><trkpt lat="38.4905293" lon="14.9625051"><ele>2.0</ele><time>2026-04-25T13:49:34.997Z</time></trkpt><trkpt lat="38.490613" lon="14.9624549"><ele>1.9999999999999998</ele><time>2026-04-25T13:49:35.997Z</time></trkpt><trkpt lat="38.4906957" lon="14.9623993"><ele>2.0</ele><time>2026-04-25T13:49:36.996Z</time></trkpt><trkpt lat="38.4907714" lon="14.9623374"><ele>2.0</ele><time>2026-04-25T13:49:37.996Z</time></trkpt><trkpt lat="38.4908473" lon="14.9622742"><ele>2.0</ele><time>2026-04-25T13:49:38.996Z</time></trkpt><trkpt lat="38.4909181" lon="14.9622058"><ele>1.9999999999999998</ele><time>2026-04-25T13:49:39.996Z</time></trkpt><trkpt lat="38.4909842" lon="14.9621389"><ele>2.0</ele><time>2026-04-25T13:49:40.996Z</time></trkpt><trkpt lat="38.4910558" lon="14.9620749"><ele>1.9999999999999998</ele><time>2026-04-25T13:49:41.996Z</time></trkpt><trkpt lat="38.4911328" lon="14.9620171"><ele>2.0</ele><time>2026-04-25T13:49:42.997Z</time></trkpt><trkpt lat="38.4912123" lon="14.9619777"><ele>2.0</ele><time>2026-04-25T13:49:43.997Z</time></trkpt><trkpt lat="38.4913016" lon="14.9619409"><ele>2.0</ele><time>2026-04-25T13:49:44.997Z</time></trkpt><trkpt lat="38.4913788" lon="14.9619062"><ele>1.9999999999999998</ele><time>2026-04-25T13:49:45.996Z</time></trkpt><trkpt lat="38.4914667" lon="14.9618644"><ele>2.0</ele><time>2026-04-25T13:49:46.996Z</time></trkpt><trkpt lat="38.4915604" lon="14.9618305"><ele>2.0</ele><time>2026-04-25T13:49:47.996Z</time></trkpt><trkpt lat="38.4916521" lon="14.9617978"><ele>2.0</ele><time>2026-04-25T13:49:48.997Z</time></trkpt><trkpt lat="38.4917497" lon="14.9617689"><ele>2.0</ele><time>2026-04-25T13:49:49.997Z</time></trkpt><trkpt lat="38.4918427" lon="14.9617464"><ele>2.0</ele><time>2026-04-25T13:49:50.996Z</time></trkpt><trkpt lat="38.4919404" lon="14.9617312"><ele>2.0</ele><time>2026-04-25T13:49:51.997Z</time></trkpt><trkpt lat="38.4920394" lon="14.9616983"><ele>3.0</ele><time>2026-04-25T13:49:52.997Z</time></trkpt><trkpt lat="38.4921422" lon="14.9616723"><ele>4.0</ele><time>2026-04-25T13:49:53.996Z</time></trkpt><trkpt lat="38.492242" lon="14.9616465"><ele>4.999999999999999</ele><time>2026-04-25T13:49:54.997Z</time></trkpt><trkpt lat="38.4923397" lon="14.9616229"><ele>6.0</ele><time>2026-04-25T13:49:55.996Z</time></trkpt><trkpt lat="38.4924381" lon="14.9615898"><ele>7.0</ele><time>2026-04-25T13:49:56.997Z</time></trkpt><trkpt lat="38.4925365" lon="14.9615676"><ele>7.0</ele><time>2026-04-25T13:49:57.996Z</time></trkpt><trkpt lat="38.4926326" lon="14.9615532"><ele>6.999999999999999</ele><time>2026-04-25T13:49:58.996Z</time></trkpt><trkpt lat="38.4927339" lon="14.961535"><ele>6.999999999999999</ele><time>2026-04-25T13:49:59.996Z</time></trkpt><trkpt lat="38.4928275" lon="14.9615244"><ele>7.0</ele><time>2026-04-25T13:50:00.997Z</time></trkpt><trkpt lat="38.4929263" lon="14.9615156"><ele>7.0</ele><time>2026-04-25T13:50:01.997Z</time></trkpt><trkpt lat="38.4930202" lon="14.9615137"><ele>6.8</ele><time>2026-04-25T13:50:02.997Z</time></trkpt><trkpt lat="38.4931135" lon="14.9615186"><ele>6.6</ele><time>2026-04-25T13:50:03.997Z</time></trkpt><trkpt lat="38.4932053" lon="14.9615182"><ele>6.3999999999999995</ele><time>2026-04-25T13:50:04.996Z</time></trkpt><trkpt lat="38.4933005" lon="14.9615119"><ele>6.199999999999999</ele><time>2026-04-25T13:50:05.996Z</time></trkpt><trkpt lat="38.4933935" lon="14.9615168"><ele>6.0</ele><time>2026-04-25T13:50:06.996Z</time></trkpt><trkpt lat="38.4934861" lon="14.9615356"><ele>6.0</ele><time>2026-04-25T13:50:07.997Z</time></trkpt><trkpt lat="38.4935746" lon="14.961569"><ele>6.0</ele><time>2026-04-25T13:50:08.997Z</time></trkpt><trkpt lat="38.4936631" lon="14.9616041"><ele>6.0</ele><time>2026-04-25T13:50:09.996Z</time></trkpt><trkpt lat="38.4937477" lon="14.9616381"><ele>6.0</ele><time>2026-04-25T13:50:10.996Z</time></trkpt><trkpt lat="38.4938282" lon="14.9616713"><ele>6.0</ele><time>2026-04-25T13:50:11.996Z</time></trkpt><trkpt lat="38.4939033" lon="14.9617012"><ele>6.0</ele><time>2026-04-25T13:50:12.996Z</time></trkpt><trkpt lat="38.4939738" lon="14.9617299"><ele>5.3999999999999995</ele><time>2026-04-25T13:50:13.996Z</time></trkpt><trkpt lat="38.4940383" lon="14.9617546"><ele>4.8</ele><time>2026-04-25T13:50:14.996Z</time></trkpt><trkpt lat="38.4941011" lon="14.9617774"><ele>4.199999999999999</ele><time>2026-04-25T13:50:15.996Z</time></trkpt><trkpt lat="38.4942213" lon="14.961768"><ele>3.5999999999999996</ele><time>2026-04-25T13:50:17.996Z</time></trkpt><trkpt lat="38.4943415" lon="14.9617524"><ele>3.0</ele><time>2026-04-25T13:50:19.996Z</time></trkpt><trkpt lat="38.4944582" lon="14.9617472"><ele>3.0</ele><time>2026-04-25T13:50:21.996Z</time></trkpt><trkpt lat="38.4945559" lon="14.9617021"><ele>3.0</ele><time>2026-04-25T13:50:23.997Z</time></trkpt><trkpt lat="38.4945846" lon="14.9615929"><ele>3.0</ele><time>2026-04-25T13:50:25.996Z</time></trkpt><trkpt lat="38.494557" lon="14.9614649"><ele>3.0</ele><time>2026-04-25T13:50:27.996Z</time></trkpt><trkpt lat="38.4945448" lon="14.9613747"><ele>3.0</ele><time>2026-04-25T13:50:28.996Z</time></trkpt><trkpt lat="38.4945278" lon="14.9612783"><ele>3.0</ele><time>2026-04-25T13:50:29.997Z</time></trkpt><trkpt lat="38.4945135" lon="14.9611901"><ele>3.1666666666666665</ele><time>2026-04-25T13:50:30.996Z</time></trkpt><trkpt lat="38.4944855" lon="14.9610874"><ele>3.333333333333333</ele><time>2026-04-25T13:50:31.997Z</time></trkpt><trkpt lat="38.4944526" lon="14.9609988"><ele>3.5</ele><time>2026-04-25T13:50:32.996Z</time></trkpt><trkpt lat="38.4944122" lon="14.9609063"><ele>3.6666666666666665</ele><time>2026-04-25T13:50:33.996Z</time></trkpt><trkpt lat="38.4943715" lon="14.9608151"><ele>3.833333333333333</ele><time>2026-04-25T13:50:34.996Z</time></trkpt><trkpt lat="38.4943291" lon="14.9607349"><ele>4.0</ele><time>2026-04-25T13:50:35.996Z</time></trkpt><trkpt lat="38.494294" lon="14.9606546"><ele>5.333333333333333</ele><time>2026-04-25T13:50:36.996Z</time></trkpt><trkpt lat="38.4942651" lon="14.9605257"><ele>6.666666666666666</ele><time>2026-04-25T13:50:38.996Z</time></trkpt><trkpt lat="38.4943098" lon="14.9604481"><ele>8.0</ele><time>2026-04-25T13:50:40.996Z</time></trkpt><trkpt lat="38.4943914" lon="14.9604663"><ele>9.333333333333334</ele><time>2026-04-25T13:50:42.996Z</time></trkpt><trkpt lat="38.4944841" lon="14.9605527"><ele>10.666666666666666</ele><time>2026-04-25T13:50:44.996Z</time></trkpt><trkpt lat="38.494546" lon="14.9605872"><ele>12.0</ele><time>2026-04-25T13:50:45.997Z</time></trkpt><trkpt lat="38.4946122" lon="14.9606387"><ele>11.166666666666666</ele><time>2026-04-25T13:50:46.997Z</time></trkpt><trkpt lat="38.4946759" lon="14.9606948"><ele>10.333333333333334</ele><time>2026-04-25T13:50:47.997Z</time></trkpt><trkpt lat="38.4947399" lon="14.9607518"><ele>9.5</ele><time>2026-04-25T13:50:48.997Z</time></trkpt><trkpt lat="38.4948035" lon="14.9608074"><ele>8.666666666666668</ele><time>2026-04-25T13:50:49.996Z</time></trkpt><trkpt lat="38.4948706" lon="14.9608545"><ele>7.833333333333334</ele><time>2026-04-25T13:50:50.996Z</time></trkpt><trkpt lat="38.4949344" lon="14.9608794"><ele>7.0</ele><time>2026-04-25T13:50:51.997Z</time></trkpt><trkpt lat="38.4950406" lon="14.9608188"><ele>9.666666666666668</ele><time>2026-04-25T13:50:53.996Z</time></trkpt><trkpt lat="38.4950643" lon="14.9606952"><ele>12.333333333333334</ele><time>2026-04-25T13:50:55.997Z</time></trkpt><trkpt lat="38.4950078" lon="14.9606254"><ele>15.0</ele><time>2026-04-25T13:50:56.997Z</time></trkpt><trkpt lat="38.4949458" lon="14.9605641"><ele>17.666666666666668</ele><time>2026-04-25T13:50:57.997Z</time></trkpt><trkpt lat="38.4948808" lon="14.9605035"><ele>20.333333333333336</ele><time>2026-04-25T13:50:58.997Z</time></trkpt><trkpt lat="38.4948198" lon="14.9604405"><ele>23.0</ele><time>2026-04-25T13:50:59.996Z</time></trkpt><trkpt lat="38.4947574" lon="14.9603825"><ele>23.0</ele><time>2026-04-25T13:51:00.997Z</time></trkpt><trkpt lat="38.4946938" lon="14.9603256"><ele>23.0</ele><time>2026-04-25T13:51:01.996Z</time></trkpt><trkpt lat="38.4946386" lon="14.9602729"><ele>23.0</ele><time>2026-04-25T13:51:02.997Z</time></trkpt><trkpt lat="38.4945819" lon="14.9601653"><ele>23.0</ele><time>2026-04-25T13:51:04.996Z</time></trkpt><trkpt lat="38.4946331" lon="14.9601005"><ele>23.0</ele><time>2026-04-25T13:51:06.997Z</time></trkpt><trkpt lat="38.4947257" lon="14.960121"><ele>23.0</ele><time>2026-04-25T13:51:08.996Z</time></trkpt><trkpt lat="38.4948436" lon="14.9601876"><ele>23.0</ele><time>2026-04-25T13:51:10.997Z</time></trkpt><trkpt lat="38.4949116" lon="14.9602224"><ele>23.0</ele><time>2026-04-25T13:51:11.996Z</time></trkpt><trkpt lat="38.4949829" lon="14.9602702"><ele>23.0</ele><time>2026-04-25T13:51:12.997Z</time></trkpt><trkpt lat="38.4950418" lon="14.9603262"><ele>23.0</ele><time>2026-04-25T13:51:13.996Z</time></trkpt><trkpt lat="38.4950965" lon="14.9603869"><ele>23.0</ele><time>2026-04-25T13:51:14.997Z</time></trkpt><trkpt lat="38.4951516" lon="14.960455"><ele>23.0</ele><time>2026-04-25T13:51:15.997Z</time></trkpt><trkpt lat="38.4952013" lon="14.9605308"><ele>23.0</ele><time>2026-04-25T13:51:16.997Z</time></trkpt><trkpt lat="38.4952383" lon="14.960627"><ele>23.0</ele><time>2026-04-25T13:51:17.997Z</time></trkpt><trkpt lat="38.4952707" lon="14.9607253"><ele>23.0</ele><time>2026-04-25T13:51:18.997Z</time></trkpt><trkpt lat="38.495307" lon="14.960826"><ele>23.0</ele><time>2026-04-25T13:51:19.996Z</time></trkpt><trkpt lat="38.495348" lon="14.9609155"><ele>23.0</ele><time>2026-04-25T13:51:20.997Z</time></trkpt><trkpt lat="38.4954028" lon="14.9609882"><ele>23.0</ele><time>2026-04-25T13:51:21.996Z</time></trkpt><trkpt lat="38.4954607" lon="14.9610509"><ele>22.28571428571429</ele><time>2026-04-25T13:51:22.996Z</time></trkpt><trkpt lat="38.4955295" lon="14.9610944"><ele>21.57142857142857</ele><time>2026-04-25T13:51:23.997Z</time></trkpt><trkpt lat="38.4956035" lon="14.9611284"><ele>20.857142857142858</ele><time>2026-04-25T13:51:24.997Z</time></trkpt><trkpt lat="38.4956715" lon="14.9611503"><ele>20.142857142857146</ele><time>2026-04-25T13:51:25.996Z</time></trkpt><trkpt lat="38.4957501" lon="14.9611617"><ele>19.42857142857143</ele><time>2026-04-25T13:51:26.997Z</time></trkpt><trkpt lat="38.4958205" lon="14.9611559"><ele>18.714285714285715</ele><time>2026-04-25T13:51:27.996Z</time></trkpt><trkpt lat="38.4958866" lon="14.9611327"><ele>18.0</ele><time>2026-04-25T13:51:28.997Z</time></trkpt><trkpt lat="38.4959587" lon="14.9610977"><ele>18.000000000000004</ele><time>2026-04-25T13:51:29.996Z</time></trkpt><trkpt lat="38.4960257" lon="14.961082"><ele>18.0</ele><time>2026-04-25T13:51:30.996Z</time></trkpt><trkpt lat="38.4960907" lon="14.9610671"><ele>18.0</ele><time>2026-04-25T13:51:31.996Z</time></trkpt><trkpt lat="38.4961536" lon="14.9610629"><ele>18.0</ele><time>2026-04-25T13:51:32.996Z</time></trkpt><trkpt lat="38.4962153" lon="14.961084"><ele>18.0</ele><time>2026-04-25T13:51:33.996Z</time></trkpt><trkpt lat="38.4962799" lon="14.9611245"><ele>18.000000000000004</ele><time>2026-04-25T13:51:34.997Z</time></trkpt><trkpt lat="38.4963386" lon="14.9611754"><ele>18.0</ele><time>2026-04-25T13:51:35.996Z</time></trkpt><trkpt lat="38.4964007" lon="14.961222"><ele>19.333333333333332</ele><time>2026-04-25T13:51:36.997Z</time></trkpt><trkpt lat="38.4964734" lon="14.9612581"><ele>20.666666666666664</ele><time>2026-04-25T13:51:37.996Z</time></trkpt><trkpt lat="38.4965506" lon="14.9612706"><ele>22.0</ele><time>2026-04-25T13:51:38.996Z</time></trkpt><trkpt lat="38.496631" lon="14.9612788"><ele>23.333333333333332</ele><time>2026-04-25T13:51:39.996Z</time></trkpt><trkpt lat="38.4967104" lon="14.9612687"><ele>24.666666666666664</ele><time>2026-04-25T13:51:40.997Z</time></trkpt><trkpt lat="38.4967898" lon="14.9612461"><ele>26.0</ele><time>2026-04-25T13:51:41.997Z</time></trkpt><trkpt lat="38.4968646" lon="14.9612233"><ele>25.999999999999996</ele><time>2026-04-25T13:51:42.996Z</time></trkpt><trkpt lat="38.496942" lon="14.9611955"><ele>26.0</ele><time>2026-04-25T13:51:43.996Z</time></trkpt><trkpt lat="38.4970243" lon="14.9611489"><ele>26.0</ele><time>2026-04-25T13:51:44.996Z</time></trkpt><trkpt lat="38.4971031" lon="14.9611089"><ele>26.0</ele><time>2026-04-25T13:51:45.996Z</time></trkpt><trkpt lat="38.4971836" lon="14.9610644"><ele>25.999999999999996</ele><time>2026-04-25T13:51:46.996Z</time></trkpt><trkpt lat="38.4972668" lon="14.9610176"><ele>26.0</ele><time>2026-04-25T13:51:47.996Z</time></trkpt><trkpt lat="38.4973459" lon="14.9609772"><ele>24.999999999999996</ele><time>2026-04-25T13:51:48.997Z</time></trkpt><trkpt lat="38.4974209" lon="14.960939"><ele>24.0</ele><time>2026-04-25T13:51:49.997Z</time></trkpt><trkpt lat="38.4974956" lon="14.960904"><ele>23.0</ele><time>2026-04-25T13:51:50.997Z</time></trkpt><trkpt lat="38.4975709" lon="14.9608735"><ele>22.0</ele><time>2026-04-25T13:51:51.997Z</time></trkpt><trkpt lat="38.4976423" lon="14.9608469"><ele>21.0</ele><time>2026-04-25T13:51:52.996Z</time></trkpt><trkpt lat="38.4977058" lon="14.9608208"><ele>20.0</ele><time>2026-04-25T13:51:53.997Z</time></trkpt><trkpt lat="38.4977794" lon="14.9608008"><ele>22.666666666666668</ele><time>2026-04-25T13:51:54.996Z</time></trkpt><trkpt lat="38.4978517" lon="14.960775"><ele>25.333333333333336</ele><time>2026-04-25T13:51:55.996Z</time></trkpt><trkpt lat="38.4979219" lon="14.9607414"><ele>28.0</ele><time>2026-04-25T13:51:56.996Z</time></trkpt><trkpt lat="38.4979889" lon="14.9606831"><ele>30.666666666666668</ele><time>2026-04-25T13:51:57.997Z</time></trkpt><trkpt lat="38.4980549" lon="14.9606321"><ele>33.333333333333336</ele><time>2026-04-25T13:51:58.996Z</time></trkpt><trkpt lat="38.498117" lon="14.9605772"><ele>36.0</ele><time>2026-04-25T13:51:59.997Z</time></trkpt><trkpt lat="38.4981821" lon="14.9605178"><ele>36.0</ele><time>2026-04-25T13:52:00.996Z</time></trkpt><trkpt lat="38.4982548" lon="14.9604649"><ele>36.0</ele><time>2026-04-25T13:52:01.996Z</time></trkpt><trkpt lat="38.4983205" lon="14.9604109"><ele>36.0</ele><time>2026-04-25T13:52:02.997Z</time></trkpt><trkpt lat="38.4983885" lon="14.9603436"><ele>36.0</ele><time>2026-04-25T13:52:03.997Z</time></trkpt><trkpt lat="38.4984496" lon="14.9602765"><ele>36.0</ele><time>2026-04-25T13:52:04.996Z</time></trkpt><trkpt lat="38.4985126" lon="14.9602038"><ele>36.0</ele><time>2026-04-25T13:52:05.996Z</time></trkpt><trkpt lat="38.498575" lon="14.9601378"><ele>36.0</ele><time>2026-04-25T13:52:06.997Z</time></trkpt><trkpt lat="38.498628" lon="14.9600789"><ele>36.0</ele><time>2026-04-25T13:52:07.996Z</time></trkpt><trkpt lat="38.4986905" lon="14.9600211"><ele>36.0</ele><time>2026-04-25T13:52:08.996Z</time></trkpt><trkpt lat="38.498758" lon="14.9599659"><ele>36.0</ele><time>2026-04-25T13:52:09.996Z</time></trkpt><trkpt lat="38.4988361" lon="14.9599454"><ele>36.0</ele><time>2026-04-25T13:52:10.996Z</time></trkpt><trkpt lat="38.4989193" lon="14.9599413"><ele>36.0</ele><time>2026-04-25T13:52:11.996Z</time></trkpt><trkpt lat="38.4990039" lon="14.9599569"><ele>35.0</ele><time>2026-04-25T13:52:12.997Z</time></trkpt><trkpt lat="38.4990843" lon="14.9599968"><ele>34.0</ele><time>2026-04-25T13:52:13.996Z</time></trkpt><trkpt lat="38.4991565" lon="14.9600531"><ele>33.0</ele><time>2026-04-25T13:52:14.997Z</time></trkpt><trkpt lat="38.4992318" lon="14.9601173"><ele>32.0</ele><time>2026-04-25T13:52:15.996Z</time></trkpt><trkpt lat="38.4993061" lon="14.9601898"><ele>31.0</ele><time>2026-04-25T13:52:16.996Z</time></trkpt><trkpt lat="38.4993792" lon="14.9602669"><ele>31.0</ele><time>2026-04-25T13:52:17.996Z</time></trkpt><trkpt lat="38.4994534" lon="14.9603428"><ele>31.0</ele><time>2026-04-25T13:52:18.997Z</time></trkpt><trkpt lat="38.4995284" lon="14.9604206"><ele>31.0</ele><time>2026-04-25T13:52:19.997Z</time></trkpt><trkpt lat="38.4996" lon="14.9604974"><ele>31.0</ele><time>2026-04-25T13:52:20.996Z</time></trkpt><trkpt lat="38.4996693" lon="14.9605758"><ele>31.0</ele><time>2026-04-25T13:52:21.996Z</time></trkpt><trkpt lat="38.4997404" lon="14.9606474"><ele>30.4</ele><time>2026-04-25T13:52:22.996Z</time></trkpt><trkpt lat="38.4998137" lon="14.9607125"><ele>29.8</ele><time>2026-04-25T13:52:23.996Z</time></trkpt><trkpt lat="38.4998898" lon="14.9607743"><ele>29.199999999999996</ele><time>2026-04-25T13:52:24.996Z</time></trkpt><trkpt lat="38.499972" lon="14.9608267"><ele>28.599999999999998</ele><time>2026-04-25T13:52:25.997Z</time></trkpt><trkpt lat="38.5000609" lon="14.9608741"><ele>28.0</ele><time>2026-04-25T13:52:26.997Z</time></trkpt><trkpt lat="38.5001398" lon="14.9609236"><ele>28.000000000000004</ele><time>2026-04-25T13:52:27.996Z</time></trkpt><trkpt lat="38.5002206" lon="14.9609502"><ele>28.0</ele><time>2026-04-25T13:52:28.997Z</time></trkpt><trkpt lat="38.5003029" lon="14.9609711"><ele>28.0</ele><time>2026-04-25T13:52:29.997Z</time></trkpt><trkpt lat="38.5003852" lon="14.9609894"><ele>28.0</ele><time>2026-04-25T13:52:30.997Z</time></trkpt><trkpt lat="38.500473" lon="14.9609945"><ele>28.000000000000004</ele><time>2026-04-25T13:52:31.997Z</time></trkpt><trkpt lat="38.5005549" lon="14.9609883"><ele>28.0</ele><time>2026-04-25T13:52:32.996Z</time></trkpt><trkpt lat="38.5006379" lon="14.9609809"><ele>29.833333333333336</ele><time>2026-04-25T13:52:33.996Z</time></trkpt><trkpt lat="38.5007323" lon="14.9609762"><ele>31.666666666666668</ele><time>2026-04-25T13:52:34.997Z</time></trkpt><trkpt lat="38.5008197" lon="14.9609612"><ele>33.5</ele><time>2026-04-25T13:52:35.997Z</time></trkpt><trkpt lat="38.5009011" lon="14.9609399"><ele>35.333333333333336</ele><time>2026-04-25T13:52:36.996Z</time></trkpt><trkpt lat="38.5009762" lon="14.9609188"><ele>37.166666666666664</ele><time>2026-04-25T13:52:37.996Z</time></trkpt><trkpt lat="38.5010541" lon="14.9608815"><ele>39.0</ele><time>2026-04-25T13:52:38.997Z</time></trkpt><trkpt lat="38.5011342" lon="14.9608361"><ele>41.833333333333336</ele><time>2026-04-25T13:52:39.997Z</time></trkpt><trkpt lat="38.5012137" lon="14.9607977"><ele>44.66666666666667</ele><time>2026-04-25T13:52:40.996Z</time></trkpt><trkpt lat="38.501289" lon="14.9607556"><ele>47.5</ele><time>2026-04-25T13:52:41.996Z</time></trkpt><trkpt lat="38.5013675" lon="14.9607097"><ele>50.333333333333336</ele><time>2026-04-25T13:52:42.996Z</time></trkpt><trkpt lat="38.5014494" lon="14.9606637"><ele>53.16666666666667</ele><time>2026-04-25T13:52:43.996Z</time></trkpt><trkpt lat="38.5015296" lon="14.9606227"><ele>56.0</ele><time>2026-04-25T13:52:44.996Z</time></trkpt><trkpt lat="38.5016135" lon="14.9605841"><ele>56.0</ele><time>2026-04-25T13:52:45.996Z</time></trkpt><trkpt lat="38.5016984" lon="14.9605618"><ele>55.99999999999999</ele><time>2026-04-25T13:52:46.996Z</time></trkpt><trkpt lat="38.5017901" lon="14.9605669"><ele>55.99999999999999</ele><time>2026-04-25T13:52:47.996Z</time></trkpt><trkpt lat="38.5018788" lon="14.9605684"><ele>56.0</ele><time>2026-04-25T13:52:48.997Z</time></trkpt><trkpt lat="38.50197" lon="14.960567"><ele>56.0</ele><time>2026-04-25T13:52:49.996Z</time></trkpt><trkpt lat="38.5020653" lon="14.9605632"><ele>57.8</ele><time>2026-04-25T13:52:50.997Z</time></trkpt><trkpt lat="38.5021644" lon="14.9605611"><ele>59.599999999999994</ele><time>2026-04-25T13:52:51.996Z</time></trkpt><trkpt lat="38.50226" lon="14.9605509"><ele>61.4</ele><time>2026-04-25T13:52:52.997Z</time></trkpt><trkpt lat="38.5023522" lon="14.960547"><ele>63.2</ele><time>2026-04-25T13:52:53.996Z</time></trkpt><trkpt lat="38.5024432" lon="14.9605507"><ele>65.0</ele><time>2026-04-25T13:52:54.997Z</time></trkpt><trkpt lat="38.502545" lon="14.9605919"><ele>65.0</ele><time>2026-04-25T13:52:55.997Z</time></trkpt><trkpt lat="38.5026102" lon="14.9606741"><ele>65.0</ele><time>2026-04-25T13:52:56.996Z</time></trkpt><trkpt lat="38.5026676" lon="14.9607735"><ele>65.0</ele><time>2026-04-25T13:52:57.996Z</time></trkpt><trkpt lat="38.5027208" lon="14.9608738"><ele>65.0</ele><time>2026-04-25T13:52:58.997Z</time></trkpt><trkpt lat="38.5027776" lon="14.9609738"><ele>65.0</ele><time>2026-04-25T13:52:59.996Z</time></trkpt><trkpt lat="38.5028388" lon="14.9610729"><ele>67.2</ele><time>2026-04-25T13:53:00.996Z</time></trkpt><trkpt lat="38.5028975" lon="14.9611705"><ele>69.4</ele><time>2026-04-25T13:53:01.997Z</time></trkpt><trkpt lat="38.5029571" lon="14.9612702"><ele>71.6</ele><time>2026-04-25T13:53:02.997Z</time></trkpt><trkpt lat="38.503017" lon="14.9613714"><ele>73.8</ele><time>2026-04-25T13:53:03.996Z</time></trkpt><trkpt lat="38.5030668" lon="14.9614883"><ele>76.0</ele><time>2026-04-25T13:53:04.996Z</time></trkpt><trkpt lat="38.5031086" lon="14.9616039"><ele>73.0</ele><time>2026-04-25T13:53:05.996Z</time></trkpt><trkpt lat="38.5031372" lon="14.9617238"><ele>70.0</ele><time>2026-04-25T13:53:06.996Z</time></trkpt><trkpt lat="38.5031598" lon="14.9618435"><ele>67.0</ele><time>2026-04-25T13:53:07.996Z</time></trkpt><trkpt lat="38.5031806" lon="14.9619545"><ele>64.0</ele><time>2026-04-25T13:53:08.997Z</time></trkpt><trkpt lat="38.5031958" lon="14.9620706"><ele>61.0</ele><time>2026-04-25T13:53:09.996Z</time></trkpt><trkpt lat="38.5032133" lon="14.9621763"><ele>60.99999999999999</ele><time>2026-04-25T13:53:10.996Z</time></trkpt><trkpt lat="38.5032306" lon="14.9622811"><ele>61.0</ele><time>2026-04-25T13:53:11.997Z</time></trkpt><trkpt lat="38.503252" lon="14.962388"><ele>61.0</ele><time>2026-04-25T13:53:12.997Z</time></trkpt><trkpt lat="38.5032869" lon="14.9624799"><ele>61.0</ele><time>2026-04-25T13:53:13.996Z</time></trkpt><trkpt lat="38.5033399" lon="14.9625498"><ele>60.99999999999999</ele><time>2026-04-25T13:53:14.997Z</time></trkpt><trkpt lat="38.5034054" lon="14.9625905"><ele>61.0</ele><time>2026-04-25T13:53:15.997Z</time></trkpt><trkpt lat="38.5034773" lon="14.9625928"><ele>60.99999999999999</ele><time>2026-04-25T13:53:16.996Z</time></trkpt><trkpt lat="38.5035559" lon="14.9625689"><ele>61.0</ele><time>2026-04-25T13:53:17.997Z</time></trkpt><trkpt lat="38.5036278" lon="14.9625283"><ele>61.0</ele><time>2026-04-25T13:53:18.996Z</time></trkpt><trkpt lat="38.5037083" lon="14.9624852"><ele>61.0</ele><time>2026-04-25T13:53:19.996Z</time></trkpt><trkpt lat="38.5037894" lon="14.962435"><ele>60.99999999999999</ele><time>2026-04-25T13:53:20.996Z</time></trkpt><trkpt lat="38.5038662" lon="14.9623707"><ele>61.0</ele><time>2026-04-25T13:53:21.997Z</time></trkpt><trkpt lat="38.5039249" lon="14.9622957"><ele>59.166666666666664</ele><time>2026-04-25T13:53:22.996Z</time></trkpt><trkpt lat="38.5039711" lon="14.962197"><ele>57.33333333333333</ele><time>2026-04-25T13:53:23.997Z</time></trkpt><trkpt lat="38.5040022" lon="14.9620946"><ele>55.5</ele><time>2026-04-25T13:53:24.996Z</time></trkpt><trkpt lat="38.5040324" lon="14.9619985"><ele>53.66666666666667</ele><time>2026-04-25T13:53:25.996Z</time></trkpt><trkpt lat="38.5040668" lon="14.9618981"><ele>51.833333333333336</ele><time>2026-04-25T13:53:26.996Z</time></trkpt><trkpt lat="38.5041053" lon="14.9618166"><ele>50.0</ele><time>2026-04-25T13:53:27.996Z</time></trkpt><trkpt lat="38.5041526" lon="14.9617473"><ele>50.00000000000001</ele><time>2026-04-25T13:53:28.997Z</time></trkpt><trkpt lat="38.5042077" lon="14.9616886"><ele>50.0</ele><time>2026-04-25T13:53:29.997Z</time></trkpt><trkpt lat="38.5042809" lon="14.9616894"><ele>50.0</ele><time>2026-04-25T13:53:30.996Z</time></trkpt><trkpt lat="38.5043999" lon="14.9617738"><ele>50.0</ele><time>2026-04-25T13:53:32.996Z</time></trkpt><trkpt lat="38.5044399" lon="14.9618545"><ele>50.00000000000001</ele><time>2026-04-25T13:53:33.996Z</time></trkpt><trkpt lat="38.5044726" lon="14.9619574"><ele>50.0</ele><time>2026-04-25T13:53:34.997Z</time></trkpt><trkpt lat="38.5045015" lon="14.9620496"><ele>50.00000000000001</ele><time>2026-04-25T13:53:35.996Z</time></trkpt><trkpt lat="38.5045439" lon="14.9621385"><ele>50.0</ele><time>2026-04-25T13:53:36.996Z</time></trkpt><trkpt lat="38.5046072" lon="14.9622022"><ele>50.0</ele><time>2026-04-25T13:53:37.996Z</time></trkpt><trkpt lat="38.5046831" lon="14.9622296"><ele>50.0</ele><time>2026-04-25T13:53:38.996Z</time></trkpt><trkpt lat="38.5047668" lon="14.962217"><ele>50.00000000000001</ele><time>2026-04-25T13:53:39.997Z</time></trkpt><trkpt lat="38.5048488" lon="14.9621987"><ele>50.0</ele><time>2026-04-25T13:53:40.997Z</time></trkpt><trkpt lat="38.5049345" lon="14.9621565"><ele>50.0</ele><time>2026-04-25T13:53:41.997Z</time></trkpt><trkpt lat="38.5050173" lon="14.962116"><ele>50.0</ele><time>2026-04-25T13:53:42.997Z</time></trkpt><trkpt lat="38.5051071" lon="14.962073"><ele>50.0</ele><time>2026-04-25T13:53:43.996Z</time></trkpt><trkpt lat="38.5052006" lon="14.9620377"><ele>50.0</ele><time>2026-04-25T13:53:44.996Z</time></trkpt><trkpt lat="38.5052953" lon="14.9620262"><ele>50.0</ele><time>2026-04-25T13:53:45.997Z</time></trkpt><trkpt lat="38.5053905" lon="14.9620474"><ele>51.6</ele><time>2026-04-25T13:53:46.996Z</time></trkpt><trkpt lat="38.5054734" lon="14.9621019"><ele>53.2</ele><time>2026-04-25T13:53:47.997Z</time></trkpt><trkpt lat="38.5055488" lon="14.9621662"><ele>54.8</ele><time>2026-04-25T13:53:48.997Z</time></trkpt><trkpt lat="38.5056165" lon="14.9622602"><ele>56.4</ele><time>2026-04-25T13:53:49.996Z</time></trkpt><trkpt lat="38.5056848" lon="14.9623565"><ele>58.0</ele><time>2026-04-25T13:53:50.997Z</time></trkpt><trkpt lat="38.5057513" lon="14.9624561"><ele>54.199999999999996</ele><time>2026-04-25T13:53:51.997Z</time></trkpt><trkpt lat="38.5058261" lon="14.9625451"><ele>50.4</ele><time>2026-04-25T13:53:52.997Z</time></trkpt><trkpt lat="38.5059018" lon="14.9626303"><ele>46.599999999999994</ele><time>2026-04-25T13:53:53.997Z</time></trkpt><trkpt lat="38.5059838" lon="14.9626932"><ele>42.8</ele><time>2026-04-25T13:53:54.996Z</time></trkpt><trkpt lat="38.5060786" lon="14.962744"><ele>39.0</ele><time>2026-04-25T13:53:55.996Z</time></trkpt><trkpt lat="38.5061821" lon="14.96277"><ele>39.2</ele><time>2026-04-25T13:53:56.997Z</time></trkpt><trkpt lat="38.5062743" lon="14.9627863"><ele>39.4</ele><time>2026-04-25T13:53:57.997Z</time></trkpt><trkpt lat="38.5063702" lon="14.9628054"><ele>39.6</ele><time>2026-04-25T13:53:58.996Z</time></trkpt><trkpt lat="38.5064663" lon="14.9627849"><ele>39.8</ele><time>2026-04-25T13:53:59.996Z</time></trkpt><trkpt lat="38.5065476" lon="14.9627264"><ele>40.0</ele><time>2026-04-25T13:54:00.996Z</time></trkpt><trkpt lat="38.5066301" lon="14.9626603"><ele>40.0</ele><time>2026-04-25T13:54:01.996Z</time></trkpt><trkpt lat="38.5067136" lon="14.9626006"><ele>40.0</ele><time>2026-04-25T13:54:02.996Z</time></trkpt><trkpt lat="38.5068001" lon="14.9625395"><ele>40.0</ele><time>2026-04-25T13:54:03.997Z</time></trkpt><trkpt lat="38.5068886" lon="14.9624795"><ele>40.0</ele><time>2026-04-25T13:54:04.996Z</time></trkpt><trkpt lat="38.5069703" lon="14.9624222"><ele>40.0</ele><time>2026-04-25T13:54:05.996Z</time></trkpt><trkpt lat="38.5070508" lon="14.9623624"><ele>42.8</ele><time>2026-04-25T13:54:06.997Z</time></trkpt><trkpt lat="38.507135" lon="14.9623172"><ele>45.6</ele><time>2026-04-25T13:54:07.997Z</time></trkpt><trkpt lat="38.5072264" lon="14.9622887"><ele>48.400000000000006</ele><time>2026-04-25T13:54:08.996Z</time></trkpt><trkpt lat="38.5073221" lon="14.9622685"><ele>51.2</ele><time>2026-04-25T13:54:09.997Z</time></trkpt><trkpt lat="38.5074197" lon="14.9622591"><ele>54.0</ele><time>2026-04-25T13:54:10.996Z</time></trkpt><trkpt lat="38.5075179" lon="14.962259"><ele>54.0</ele><time>2026-04-25T13:54:11.997Z</time></trkpt><trkpt lat="38.5076135" lon="14.9622655"><ele>54.00000000000001</ele><time>2026-04-25T13:54:12.997Z</time></trkpt><trkpt lat="38.5077219" lon="14.96228"><ele>54.00000000000001</ele><time>2026-04-25T13:54:13.997Z</time></trkpt><trkpt lat="38.5078226" lon="14.9622903"><ele>54.0</ele><time>2026-04-25T13:54:14.997Z</time></trkpt><trkpt lat="38.5079247" lon="14.9623056"><ele>54.0</ele><time>2026-04-25T13:54:15.997Z</time></trkpt><trkpt lat="38.5080316" lon="14.9623149"><ele>53.800000000000004</ele><time>2026-04-25T13:54:16.997Z</time></trkpt><trkpt lat="38.5081399" lon="14.962325"><ele>53.60000000000001</ele><time>2026-04-25T13:54:17.997Z</time></trkpt><trkpt lat="38.5082466" lon="14.9623414"><ele>53.4</ele><time>2026-04-25T13:54:18.996Z</time></trkpt><trkpt lat="38.5083598" lon="14.9623523"><ele>53.2</ele><time>2026-04-25T13:54:19.997Z</time></trkpt><trkpt lat="38.5084726" lon="14.9623673"><ele>53.0</ele><time>2026-04-25T13:54:20.996Z</time></trkpt><trkpt lat="38.508583" lon="14.9623828"><ele>53.0</ele><time>2026-04-25T13:54:21.996Z</time></trkpt><trkpt lat="38.5086944" lon="14.9623939"><ele>53.0</ele><time>2026-04-25T13:54:22.997Z</time></trkpt><trkpt lat="38.5088024" lon="14.9624041"><ele>53.0</ele><time>2026-04-25T13:54:23.996Z</time></trkpt><trkpt lat="38.5089099" lon="14.9624172"><ele>53.0</ele><time>2026-04-25T13:54:24.996Z</time></trkpt><trkpt lat="38.5090182" lon="14.9624268"><ele>53.0</ele><time>2026-04-25T13:54:25.996Z</time></trkpt><trkpt lat="38.5091211" lon="14.9624381"><ele>53.8</ele><time>2026-04-25T13:54:26.997Z</time></trkpt><trkpt lat="38.5092232" lon="14.9624262"><ele>54.599999999999994</ele><time>2026-04-25T13:54:27.997Z</time></trkpt><trkpt lat="38.5093134" lon="14.9623955"><ele>55.400000000000006</ele><time>2026-04-25T13:54:28.997Z</time></trkpt><trkpt lat="38.5093944" lon="14.9623399"><ele>56.2</ele><time>2026-04-25T13:54:29.996Z</time></trkpt><trkpt lat="38.5094729" lon="14.9622816"><ele>57.0</ele><time>2026-04-25T13:54:30.996Z</time></trkpt><trkpt lat="38.509559" lon="14.9622277"><ele>53.8</ele><time>2026-04-25T13:54:31.997Z</time></trkpt><trkpt lat="38.5096414" lon="14.9621699"><ele>50.6</ele><time>2026-04-25T13:54:32.996Z</time></trkpt><trkpt lat="38.5097287" lon="14.9621073"><ele>47.4</ele><time>2026-04-25T13:54:33.996Z</time></trkpt><trkpt lat="38.5098161" lon="14.9620407"><ele>44.199999999999996</ele><time>2026-04-25T13:54:34.997Z</time></trkpt><trkpt lat="38.509904" lon="14.9619773"><ele>41.0</ele><time>2026-04-25T13:54:35.997Z</time></trkpt><trkpt lat="38.5099881" lon="14.9619108"><ele>41.0</ele><time>2026-04-25T13:54:36.996Z</time></trkpt><trkpt lat="38.5100733" lon="14.9618459"><ele>41.0</ele><time>2026-04-25T13:54:37.997Z</time></trkpt><trkpt lat="38.510157" lon="14.9617964"><ele>41.0</ele><time>2026-04-25T13:54:38.996Z</time></trkpt><trkpt lat="38.5102572" lon="14.9617362"><ele>41.0</ele><time>2026-04-25T13:54:39.996Z</time></trkpt><trkpt lat="38.5103435" lon="14.9616898"><ele>41.0</ele><time>2026-04-25T13:54:40.996Z</time></trkpt><trkpt lat="38.5104365" lon="14.9616535"><ele>44.4</ele><time>2026-04-25T13:54:41.997Z</time></trkpt><trkpt lat="38.5105365" lon="14.9616216"><ele>47.8</ele><time>2026-04-25T13:54:42.996Z</time></trkpt><trkpt lat="38.5106352" lon="14.9615957"><ele>51.199999999999996</ele><time>2026-04-25T13:54:43.997Z</time></trkpt><trkpt lat="38.5107268" lon="14.9615826"><ele>54.599999999999994</ele><time>2026-04-25T13:54:44.997Z</time></trkpt><trkpt lat="38.5108157" lon="14.9615659"><ele>58.0</ele><time>2026-04-25T13:54:45.997Z</time></trkpt><trkpt lat="38.5108997" lon="14.961549"><ele>58.00000000000001</ele><time>2026-04-25T13:54:46.997Z</time></trkpt><trkpt lat="38.5109777" lon="14.9615266"><ele>58.0</ele><time>2026-04-25T13:54:47.996Z</time></trkpt><trkpt lat="38.5110464" lon="14.9615024"><ele>58.00000000000001</ele><time>2026-04-25T13:54:48.997Z</time></trkpt><trkpt lat="38.511116" lon="14.9614825"><ele>58.00000000000001</ele><time>2026-04-25T13:54:49.996Z</time></trkpt><trkpt lat="38.5111816" lon="14.9614691"><ele>58.0</ele><time>2026-04-25T13:54:50.997Z</time></trkpt><trkpt lat="38.5112472" lon="14.9614543"><ele>58.00000000000001</ele><time>2026-04-25T13:54:51.996Z</time></trkpt><trkpt lat="38.5113171" lon="14.9614442"><ele>58.00000000000001</ele><time>2026-04-25T13:54:52.996Z</time></trkpt><trkpt lat="38.5113851" lon="14.9614316"><ele>56.57142857142858</ele><time>2026-04-25T13:54:53.996Z</time></trkpt><trkpt lat="38.5114552" lon="14.9614175"><ele>55.142857142857146</ele><time>2026-04-25T13:54:54.997Z</time></trkpt><trkpt lat="38.5115277" lon="14.9614059"><ele>53.714285714285715</ele><time>2026-04-25T13:54:55.996Z</time></trkpt><trkpt lat="38.5115951" lon="14.9613906"><ele>52.28571428571429</ele><time>2026-04-25T13:54:56.997Z</time></trkpt><trkpt lat="38.5116638" lon="14.9613714"><ele>50.85714285714286</ele><time>2026-04-25T13:54:57.996Z</time></trkpt><trkpt lat="38.5117336" lon="14.9613623"><ele>49.42857142857142</ele><time>2026-04-25T13:54:58.996Z</time></trkpt><trkpt lat="38.5118045" lon="14.9613577"><ele>48.0</ele><time>2026-04-25T13:54:59.996Z</time></trkpt><trkpt lat="38.5118768" lon="14.9613429"><ele>47.99999999999999</ele><time>2026-04-25T13:55:00.996Z</time></trkpt><trkpt lat="38.511948" lon="14.9613268"><ele>48.0</ele><time>2026-04-25T13:55:01.996Z</time></trkpt><trkpt lat="38.5120185" lon="14.9613145"><ele>48.0</ele><time>2026-04-25T13:55:02.996Z</time></trkpt><trkpt lat="38.5120861" lon="14.9613018"><ele>48.0</ele><time>2026-04-25T13:55:03.997Z</time></trkpt><trkpt lat="38.5121587" lon="14.9612512"><ele>48.0</ele><time>2026-04-25T13:55:04.996Z</time></trkpt><trkpt lat="38.5122174" lon="14.96121"><ele>47.99999999999999</ele><time>2026-04-25T13:55:05.996Z</time></trkpt><trkpt lat="38.5122772" lon="14.9611483"><ele>48.0</ele><time>2026-04-25T13:55:06.996Z</time></trkpt><trkpt lat="38.5123344" lon="14.9610863"><ele>50.166666666666664</ele><time>2026-04-25T13:55:07.997Z</time></trkpt><trkpt lat="38.5123891" lon="14.9610265"><ele>52.33333333333333</ele><time>2026-04-25T13:55:08.997Z</time></trkpt><trkpt lat="38.5124469" lon="14.9609565"><ele>54.5</ele><time>2026-04-25T13:55:09.996Z</time></trkpt><trkpt lat="38.5125037" lon="14.9608859"><ele>56.666666666666664</ele><time>2026-04-25T13:55:10.997Z</time></trkpt><trkpt lat="38.512563" lon="14.9608132"><ele>58.83333333333333</ele><time>2026-04-25T13:55:11.997Z</time></trkpt><trkpt lat="38.5126268" lon="14.9607412"><ele>61.0</ele><time>2026-04-25T13:55:12.996Z</time></trkpt><trkpt lat="38.5126943" lon="14.9606736"><ele>60.99999999999999</ele><time>2026-04-25T13:55:13.997Z</time></trkpt><trkpt lat="38.512762" lon="14.9605985"><ele>61.0</ele><time>2026-04-25T13:55:14.996Z</time></trkpt><trkpt lat="38.5128276" lon="14.9605276"><ele>61.0</ele><time>2026-04-25T13:55:15.997Z</time></trkpt><trkpt lat="38.5128969" lon="14.9604532"><ele>61.0</ele><time>2026-04-25T13:55:16.996Z</time></trkpt><trkpt lat="38.5129692" lon="14.9603711"><ele>60.99999999999999</ele><time>2026-04-25T13:55:17.997Z</time></trkpt><trkpt lat="38.5130357" lon="14.960302"><ele>61.0</ele><time>2026-04-25T13:55:18.996Z</time></trkpt><trkpt lat="38.513104" lon="14.9602384"><ele>61.33333333333333</ele><time>2026-04-25T13:55:19.997Z</time></trkpt><trkpt lat="38.5131699" lon="14.9601804"><ele>61.666666666666664</ele><time>2026-04-25T13:55:20.996Z</time></trkpt><trkpt lat="38.5132383" lon="14.9601297"><ele>62.0</ele><time>2026-04-25T13:55:21.997Z</time></trkpt><trkpt lat="38.5133109" lon="14.9600848"><ele>62.33333333333333</ele><time>2026-04-25T13:55:22.996Z</time></trkpt><trkpt lat="38.5133937" lon="14.9600353"><ele>62.666666666666664</ele><time>2026-04-25T13:55:23.997Z</time></trkpt><trkpt lat="38.5134684" lon="14.9599876"><ele>63.0</ele><time>2026-04-25T13:55:24.996Z</time></trkpt><trkpt lat="38.513542" lon="14.9599322"><ele>63.0</ele><time>2026-04-25T13:55:25.996Z</time></trkpt><trkpt lat="38.5136157" lon="14.9598794"><ele>63.0</ele><time>2026-04-25T13:55:26.996Z</time></trkpt><trkpt lat="38.5136988" lon="14.9598294"><ele>63.0</ele><time>2026-04-25T13:55:27.997Z</time></trkpt><trkpt lat="38.5137807" lon="14.9597795"><ele>63.0</ele><time>2026-04-25T13:55:28.996Z</time></trkpt><trkpt lat="38.5138623" lon="14.9597248"><ele>63.0</ele><time>2026-04-25T13:55:29.997Z</time></trkpt><trkpt lat="38.5139463" lon="14.9596712"><ele>58.8</ele><time>2026-04-25T13:55:30.996Z</time></trkpt><trkpt lat="38.5140258" lon="14.9596208"><ele>54.599999999999994</ele><time>2026-04-25T13:55:31.997Z</time></trkpt><trkpt lat="38.5141084" lon="14.9595663"><ele>50.400000000000006</ele><time>2026-04-25T13:55:32.996Z</time></trkpt><trkpt lat="38.5141899" lon="14.9595147"><ele>46.2</ele><time>2026-04-25T13:55:33.997Z</time></trkpt><trkpt lat="38.5142646" lon="14.9594574"><ele>42.0</ele><time>2026-04-25T13:55:34.997Z</time></trkpt><trkpt lat="38.5143516" lon="14.9593873"><ele>42.0</ele><time>2026-04-25T13:55:35.996Z</time></trkpt><trkpt lat="38.5144233" lon="14.9593093"><ele>42.0</ele><time>2026-04-25T13:55:36.996Z</time></trkpt><trkpt lat="38.5144747" lon="14.9592087"><ele>42.0</ele><time>2026-04-25T13:55:37.996Z</time></trkpt><trkpt lat="38.5145184" lon="14.9591052"><ele>42.0</ele><time>2026-04-25T13:55:38.997Z</time></trkpt><trkpt lat="38.5145597" lon="14.9589902"><ele>42.0</ele><time>2026-04-25T13:55:39.996Z</time></trkpt><trkpt lat="38.5145977" lon="14.9588767"><ele>42.0</ele><time>2026-04-25T13:55:40.996Z</time></trkpt><trkpt lat="38.5146385" lon="14.9587665"><ele>42.0</ele><time>2026-04-25T13:55:41.996Z</time></trkpt><trkpt lat="38.5146868" lon="14.9586512"><ele>42.0</ele><time>2026-04-25T13:55:42.997Z</time></trkpt><trkpt lat="38.5147418" lon="14.9585421"><ele>42.0</ele><time>2026-04-25T13:55:43.996Z</time></trkpt><trkpt lat="38.5147991" lon="14.9584449"><ele>42.0</ele><time>2026-04-25T13:55:44.997Z</time></trkpt><trkpt lat="38.5148763" lon="14.9583527"><ele>42.0</ele><time>2026-04-25T13:55:45.996Z</time></trkpt><trkpt lat="38.5149531" lon="14.9582719"><ele>42.0</ele><time>2026-04-25T13:55:46.997Z</time></trkpt><trkpt lat="38.515034" lon="14.9581883"><ele>42.0</ele><time>2026-04-25T13:55:47.997Z</time></trkpt><trkpt lat="38.5151132" lon="14.9581174"><ele>42.0</ele><time>2026-04-25T13:55:48.996Z</time></trkpt><trkpt lat="38.5151979" lon="14.9580426"><ele>42.0</ele><time>2026-04-25T13:55:49.997Z</time></trkpt><trkpt lat="38.5152717" lon="14.9579766"><ele>42.0</ele><time>2026-04-25T13:55:50.997Z</time></trkpt><trkpt lat="38.5153579" lon="14.9579282"><ele>42.0</ele><time>2026-04-25T13:55:51.996Z</time></trkpt><trkpt lat="38.5154588" lon="14.9578772"><ele>42.0</ele><time>2026-04-25T13:55:52.997Z</time></trkpt><trkpt lat="38.5155633" lon="14.9578255"><ele>42.0</ele><time>2026-04-25T13:55:53.997Z</time></trkpt><trkpt lat="38.5156669" lon="14.9577817"><ele>42.0</ele><time>2026-04-25T13:55:54.996Z</time></trkpt><trkpt lat="38.5157833" lon="14.9577496"><ele>38.0</ele><time>2026-04-25T13:55:55.996Z</time></trkpt><trkpt lat="38.5158924" lon="14.9577305"><ele>34.0</ele><time>2026-04-25T13:55:56.996Z</time></trkpt><trkpt lat="38.5160028" lon="14.9577233"><ele>30.0</ele><time>2026-04-25T13:55:57.996Z</time></trkpt><trkpt lat="38.5161161" lon="14.9577186"><ele>26.0</ele><time>2026-04-25T13:55:58.997Z</time></trkpt><trkpt lat="38.5162245" lon="14.9577173"><ele>22.0</ele><time>2026-04-25T13:55:59.996Z</time></trkpt><trkpt lat="38.516341" lon="14.9577049"><ele>20.8</ele><time>2026-04-25T13:56:00.996Z</time></trkpt><trkpt lat="38.5164484" lon="14.9576967"><ele>19.6</ele><time>2026-04-25T13:56:01.996Z</time></trkpt><trkpt lat="38.5165594" lon="14.957692"><ele>18.400000000000002</ele><time>2026-04-25T13:56:02.996Z</time></trkpt><trkpt lat="38.5166638" lon="14.9576852"><ele>17.200000000000003</ele><time>2026-04-25T13:56:03.997Z</time></trkpt><trkpt lat="38.5167668" lon="14.9576819"><ele>16.0</ele><time>2026-04-25T13:56:04.996Z</time></trkpt><trkpt lat="38.5168697" lon="14.95769"><ele>16.0</ele><time>2026-04-25T13:56:05.996Z</time></trkpt><trkpt lat="38.5169689" lon="14.9577064"><ele>16.0</ele><time>2026-04-25T13:56:06.996Z</time></trkpt><trkpt lat="38.5170668" lon="14.9577386"><ele>16.0</ele><time>2026-04-25T13:56:07.997Z</time></trkpt><trkpt lat="38.5171612" lon="14.9577697"><ele>16.0</ele><time>2026-04-25T13:56:08.997Z</time></trkpt><trkpt lat="38.5172542" lon="14.9578055"><ele>16.0</ele><time>2026-04-25T13:56:09.997Z</time></trkpt><trkpt lat="38.5173462" lon="14.957851"><ele>18.0</ele><time>2026-04-25T13:56:10.996Z</time></trkpt><trkpt lat="38.5174331" lon="14.9579037"><ele>20.0</ele><time>2026-04-25T13:56:11.996Z</time></trkpt><trkpt lat="38.5175184" lon="14.9579615"><ele>22.0</ele><time>2026-04-25T13:56:12.996Z</time></trkpt><trkpt lat="38.5176037" lon="14.9580161"><ele>24.0</ele><time>2026-04-25T13:56:13.997Z</time></trkpt><trkpt lat="38.5176847" lon="14.9580772"><ele>26.0</ele><time>2026-04-25T13:56:14.997Z</time></trkpt><trkpt lat="38.5177607" lon="14.958146"><ele>25.999999999999996</ele><time>2026-04-25T13:56:15.996Z</time></trkpt><trkpt lat="38.517821" lon="14.9582397"><ele>26.0</ele><time>2026-04-25T13:56:16.996Z</time></trkpt><trkpt lat="38.5178754" lon="14.9583228"><ele>26.0</ele><time>2026-04-25T13:56:17.997Z</time></trkpt><trkpt lat="38.5179394" lon="14.9583969"><ele>26.0</ele><time>2026-04-25T13:56:18.997Z</time></trkpt><trkpt lat="38.5180132" lon="14.958446"><ele>25.999999999999996</ele><time>2026-04-25T13:56:19.997Z</time></trkpt><trkpt lat="38.5180941" lon="14.9584695"><ele>26.0</ele><time>2026-04-25T13:56:20.996Z</time></trkpt><trkpt lat="38.518178" lon="14.9584625"><ele>26.499999999999996</ele><time>2026-04-25T13:56:21.997Z</time></trkpt><trkpt lat="38.5182637" lon="14.9584615"><ele>27.0</ele><time>2026-04-25T13:56:22.996Z</time></trkpt><trkpt lat="38.5183493" lon="14.9584485"><ele>27.5</ele><time>2026-04-25T13:56:23.996Z</time></trkpt><trkpt lat="38.51843" lon="14.9584409"><ele>28.0</ele><time>2026-04-25T13:56:24.996Z</time></trkpt><trkpt lat="38.518498" lon="14.9584386"><ele>28.499999999999996</ele><time>2026-04-25T13:56:25.997Z</time></trkpt><trkpt lat="38.5185668" lon="14.9584334"><ele>29.0</ele><time>2026-04-25T13:56:26.996Z</time></trkpt><trkpt lat="38.5186349" lon="14.9584247"><ele>28.999999999999996</ele><time>2026-04-25T13:56:27.996Z</time></trkpt><trkpt lat="38.5187025" lon="14.9584196"><ele>29.0</ele><time>2026-04-25T13:56:28.997Z</time></trkpt><trkpt lat="38.5187758" lon="14.9584164"><ele>29.0</ele><time>2026-04-25T13:56:29.997Z</time></trkpt><trkpt lat="38.5188479" lon="14.9584175"><ele>29.0</ele><time>2026-04-25T13:56:30.996Z</time></trkpt><trkpt lat="38.5189249" lon="14.9584256"><ele>28.999999999999996</ele><time>2026-04-25T13:56:31.997Z</time></trkpt><trkpt lat="38.5190076" lon="14.9584563"><ele>29.0</ele><time>2026-04-25T13:56:32.997Z</time></trkpt><trkpt lat="38.519091" lon="14.9584967"><ele>30.499999999999996</ele><time>2026-04-25T13:56:33.996Z</time></trkpt><trkpt lat="38.5191665" lon="14.9585554"><ele>32.0</ele><time>2026-04-25T13:56:34.997Z</time></trkpt><trkpt lat="38.5192369" lon="14.9586225"><ele>33.5</ele><time>2026-04-25T13:56:35.997Z</time></trkpt><trkpt lat="38.5193054" lon="14.9586934"><ele>35.0</ele><time>2026-04-25T13:56:36.996Z</time></trkpt><trkpt lat="38.5193714" lon="14.9587707"><ele>36.5</ele><time>2026-04-25T13:56:37.996Z</time></trkpt><trkpt lat="38.5194364" lon="14.9588452"><ele>38.0</ele><time>2026-04-25T13:56:38.997Z</time></trkpt><trkpt lat="38.5194983" lon="14.9589205"><ele>38.0</ele><time>2026-04-25T13:56:39.996Z</time></trkpt><trkpt lat="38.5195633" lon="14.9589867"><ele>38.0</ele><time>2026-04-25T13:56:40.996Z</time></trkpt><trkpt lat="38.5196264" lon="14.9590624"><ele>38.0</ele><time>2026-04-25T13:56:41.996Z</time></trkpt><trkpt lat="38.5196903" lon="14.9591347"><ele>38.0</ele><time>2026-04-25T13:56:42.996Z</time></trkpt><trkpt lat="38.5197531" lon="14.9592115"><ele>38.0</ele><time>2026-04-25T13:56:43.996Z</time></trkpt><trkpt lat="38.5198133" lon="14.9592861"><ele>38.0</ele><time>2026-04-25T13:56:44.996Z</time></trkpt><trkpt lat="38.51988" lon="14.959356"><ele>38.666666666666664</ele><time>2026-04-25T13:56:45.996Z</time></trkpt><trkpt lat="38.5199417" lon="14.9594277"><ele>39.33333333333333</ele><time>2026-04-25T13:56:46.996Z</time></trkpt><trkpt lat="38.5200032" lon="14.9594994"><ele>40.0</ele><time>2026-04-25T13:56:47.996Z</time></trkpt><trkpt lat="38.520063" lon="14.9595762"><ele>40.666666666666664</ele><time>2026-04-25T13:56:48.996Z</time></trkpt><trkpt lat="38.520125" lon="14.9596489"><ele>41.333333333333336</ele><time>2026-04-25T13:56:49.996Z</time></trkpt><trkpt lat="38.5201867" lon="14.9597276"><ele>42.0</ele><time>2026-04-25T13:56:50.997Z</time></trkpt><trkpt lat="38.5202489" lon="14.9597985"><ele>42.0</ele><time>2026-04-25T13:56:51.996Z</time></trkpt><trkpt lat="38.5203188" lon="14.9598501"><ele>42.0</ele><time>2026-04-25T13:56:52.997Z</time></trkpt><trkpt lat="38.5203927" lon="14.9598947"><ele>42.0</ele><time>2026-04-25T13:56:53.996Z</time></trkpt><trkpt lat="38.5204781" lon="14.9599141"><ele>42.0</ele><time>2026-04-25T13:56:54.996Z</time></trkpt><trkpt lat="38.5205658" lon="14.9599141"><ele>42.0</ele><time>2026-04-25T13:56:55.997Z</time></trkpt><trkpt lat="38.5206493" lon="14.9599004"><ele>42.0</ele><time>2026-04-25T13:56:56.996Z</time></trkpt><trkpt lat="38.5207393" lon="14.9598845"><ele>44.8</ele><time>2026-04-25T13:56:57.997Z</time></trkpt><trkpt lat="38.5208319" lon="14.9598657"><ele>47.6</ele><time>2026-04-25T13:56:58.997Z</time></trkpt><trkpt lat="38.5209228" lon="14.9598519"><ele>50.39999999999999</ele><time>2026-04-25T13:56:59.997Z</time></trkpt><trkpt lat="38.521016" lon="14.9598385"><ele>53.199999999999996</ele><time>2026-04-25T13:57:00.996Z</time></trkpt><trkpt lat="38.5211042" lon="14.959821"><ele>56.0</ele><time>2026-04-25T13:57:01.996Z</time></trkpt><trkpt lat="38.5211874" lon="14.9597896"><ele>58.199999999999996</ele><time>2026-04-25T13:57:02.996Z</time></trkpt><trkpt lat="38.5212671" lon="14.959733"><ele>60.39999999999999</ele><time>2026-04-25T13:57:03.997Z</time></trkpt><trkpt lat="38.5213287" lon="14.9596432"><ele>62.6</ele><time>2026-04-25T13:57:04.997Z</time></trkpt><trkpt lat="38.5213807" lon="14.9595446"><ele>64.8</ele><time>2026-04-25T13:57:05.997Z</time></trkpt><trkpt lat="38.5214214" lon="14.9594377"><ele>67.0</ele><time>2026-04-25T13:57:06.996Z</time></trkpt><trkpt lat="38.5214619" lon="14.9593301"><ele>67.0</ele><time>2026-04-25T13:57:07.997Z</time></trkpt><trkpt lat="38.5215031" lon="14.9592134"><ele>67.0</ele><time>2026-04-25T13:57:08.997Z</time></trkpt><trkpt lat="38.5215416" lon="14.9590927"><ele>67.0</ele><time>2026-04-25T13:57:09.996Z</time></trkpt><trkpt lat="38.5215909" lon="14.9589734"><ele>67.0</ele><time>2026-04-25T13:57:10.996Z</time></trkpt><trkpt lat="38.5216345" lon="14.9588535"><ele>67.0</ele><time>2026-04-25T13:57:11.997Z</time></trkpt><trkpt lat="38.5216705" lon="14.9587339"><ele>66.0</ele><time>2026-04-25T13:57:12.997Z</time></trkpt><trkpt lat="38.5217035" lon="14.958614"><ele>65.0</ele><time>2026-04-25T13:57:13.997Z</time></trkpt><trkpt lat="38.5217292" lon="14.958491"><ele>64.0</ele><time>2026-04-25T13:57:14.997Z</time></trkpt><trkpt lat="38.5217543" lon="14.9583757"><ele>63.0</ele><time>2026-04-25T13:57:15.997Z</time></trkpt><trkpt lat="38.521781" lon="14.9582611"><ele>62.0</ele><time>2026-04-25T13:57:16.996Z</time></trkpt><trkpt lat="38.5218057" lon="14.9581413"><ele>61.8</ele><time>2026-04-25T13:57:17.997Z</time></trkpt><trkpt lat="38.5218362" lon="14.9580244"><ele>61.6</ele><time>2026-04-25T13:57:18.996Z</time></trkpt><trkpt lat="38.5218578" lon="14.9579059"><ele>61.39999999999999</ele><time>2026-04-25T13:57:19.997Z</time></trkpt><trkpt lat="38.5218739" lon="14.9577827"><ele>61.199999999999996</ele><time>2026-04-25T13:57:20.996Z</time></trkpt><trkpt lat="38.5218754" lon="14.9576564"><ele>61.0</ele><time>2026-04-25T13:57:21.996Z</time></trkpt><trkpt lat="38.5218666" lon="14.9575258"><ele>61.0</ele><time>2026-04-25T13:57:22.996Z</time></trkpt><trkpt lat="38.5218466" lon="14.9573923"><ele>60.99999999999999</ele><time>2026-04-25T13:57:23.997Z</time></trkpt><trkpt lat="38.5218335" lon="14.9572624"><ele>60.99999999999999</ele><time>2026-04-25T13:57:24.997Z</time></trkpt><trkpt lat="38.5218128" lon="14.9571262"><ele>61.0</ele><time>2026-04-25T13:57:25.997Z</time></trkpt><trkpt lat="38.5217807" lon="14.9569856"><ele>61.0</ele><time>2026-04-25T13:57:26.996Z</time></trkpt><trkpt lat="38.5217478" lon="14.9568481"><ele>61.0</ele><time>2026-04-25T13:57:27.996Z</time></trkpt><trkpt lat="38.5217131" lon="14.9567063"><ele>60.99999999999999</ele><time>2026-04-25T13:57:28.997Z</time></trkpt><trkpt lat="38.5216828" lon="14.9565684"><ele>60.99999999999999</ele><time>2026-04-25T13:57:29.996Z</time></trkpt><trkpt lat="38.5216553" lon="14.956436"><ele>61.0</ele><time>2026-04-25T13:57:30.996Z</time></trkpt><trkpt lat="38.5216201" lon="14.956301"><ele>61.0</ele><time>2026-04-25T13:57:31.997Z</time></trkpt><trkpt lat="38.5215844" lon="14.9561646"><ele>60.199999999999996</ele><time>2026-04-25T13:57:32.997Z</time></trkpt><trkpt lat="38.521539" lon="14.9560358"><ele>59.39999999999999</ele><time>2026-04-25T13:57:33.997Z</time></trkpt><trkpt lat="38.5214817" lon="14.9559131"><ele>58.6</ele><time>2026-04-25T13:57:34.997Z</time></trkpt><trkpt lat="38.5214286" lon="14.9557872"><ele>57.8</ele><time>2026-04-25T13:57:35.996Z</time></trkpt><trkpt lat="38.5213798" lon="14.9556609"><ele>57.0</ele><time>2026-04-25T13:57:36.997Z</time></trkpt><trkpt lat="38.521327" lon="14.9555344"><ele>55.400000000000006</ele><time>2026-04-25T13:57:37.997Z</time></trkpt><trkpt lat="38.5212747" lon="14.9554124"><ele>53.800000000000004</ele><time>2026-04-25T13:57:38.996Z</time></trkpt><trkpt lat="38.5212207" lon="14.9552919"><ele>52.2</ele><time>2026-04-25T13:57:39.996Z</time></trkpt><trkpt lat="38.521169" lon="14.9551691"><ele>50.6</ele><time>2026-04-25T13:57:40.997Z</time></trkpt><trkpt lat="38.5211161" lon="14.9550503"><ele>49.0</ele><time>2026-04-25T13:57:41.997Z</time></trkpt><trkpt lat="38.5210631" lon="14.9549274"><ele>53.800000000000004</ele><time>2026-04-25T13:57:42.997Z</time></trkpt><trkpt lat="38.5210308" lon="14.9548011"><ele>58.6</ele><time>2026-04-25T13:57:43.996Z</time></trkpt><trkpt lat="38.5210087" lon="14.9546739"><ele>63.4</ele><time>2026-04-25T13:57:44.997Z</time></trkpt><trkpt lat="38.5210164" lon="14.9545429"><ele>68.2</ele><time>2026-04-25T13:57:45.997Z</time></trkpt><trkpt lat="38.5210261" lon="14.9544202"><ele>73.0</ele><time>2026-04-25T13:57:46.996Z</time></trkpt><trkpt lat="38.5210364" lon="14.9542951"><ele>71.2</ele><time>2026-04-25T13:57:47.996Z</time></trkpt><trkpt lat="38.5210473" lon="14.9541717"><ele>69.4</ele><time>2026-04-25T13:57:48.996Z</time></trkpt><trkpt lat="38.5210587" lon="14.9540412"><ele>67.60000000000001</ele><time>2026-04-25T13:57:49.997Z</time></trkpt><trkpt lat="38.5210652" lon="14.9539136"><ele>65.8</ele><time>2026-04-25T13:57:50.997Z</time></trkpt><trkpt lat="38.5210757" lon="14.9537789"><ele>64.0</ele><time>2026-04-25T13:57:51.997Z</time></trkpt><trkpt lat="38.5210849" lon="14.9536442"><ele>64.0</ele><time>2026-04-25T13:57:52.996Z</time></trkpt><trkpt lat="38.521095" lon="14.9535111"><ele>64.0</ele><time>2026-04-25T13:57:53.996Z</time></trkpt><trkpt lat="38.5211093" lon="14.9533745"><ele>64.0</ele><time>2026-04-25T13:57:54.996Z</time></trkpt><trkpt lat="38.5211195" lon="14.9532393"><ele>64.0</ele><time>2026-04-25T13:57:55.996Z</time></trkpt><trkpt lat="38.5211361" lon="14.9530997"><ele>64.0</ele><time>2026-04-25T13:57:56.996Z</time></trkpt><trkpt lat="38.5211522" lon="14.9529587"><ele>64.0</ele><time>2026-04-25T13:57:57.997Z</time></trkpt><trkpt lat="38.5211642" lon="14.9528144"><ele>64.0</ele><time>2026-04-25T13:57:58.996Z</time></trkpt><trkpt lat="38.5211739" lon="14.9526702"><ele>64.0</ele><time>2026-04-25T13:57:59.996Z</time></trkpt><trkpt lat="38.5211774" lon="14.9525277"><ele>64.0</ele><time>2026-04-25T13:58:00.997Z</time></trkpt><trkpt lat="38.5211806" lon="14.9523806"><ele>63.75</ele><time>2026-04-25T13:58:01.996Z</time></trkpt><trkpt lat="38.521178" lon="14.9522346"><ele>63.5</ele><time>2026-04-25T13:58:02.996Z</time></trkpt><trkpt lat="38.5211635" lon="14.9520898"><ele>63.25</ele><time>2026-04-25T13:58:03.997Z</time></trkpt><trkpt lat="38.5211204" lon="14.9519449"><ele>63.0</ele><time>2026-04-25T13:58:04.996Z</time></trkpt><trkpt lat="38.5210714" lon="14.9518127"><ele>61.5</ele><time>2026-04-25T13:58:05.997Z</time></trkpt><trkpt lat="38.5210103" lon="14.9516801"><ele>60.0</ele><time>2026-04-25T13:58:06.996Z</time></trkpt><trkpt lat="38.520952" lon="14.9515544"><ele>58.5</ele><time>2026-04-25T13:58:07.996Z</time></trkpt><trkpt lat="38.5208955" lon="14.9514283"><ele>57.0</ele><time>2026-04-25T13:58:08.996Z</time></trkpt><trkpt lat="38.5208408" lon="14.9512981"><ele>57.0</ele><time>2026-04-25T13:58:09.997Z</time></trkpt><trkpt lat="38.5207881" lon="14.9511776"><ele>57.0</ele><time>2026-04-25T13:58:10.997Z</time></trkpt><trkpt lat="38.5207372" lon="14.9510623"><ele>57.0</ele><time>2026-04-25T13:58:11.996Z</time></trkpt><trkpt lat="38.5206881" lon="14.9509546"><ele>57.0</ele><time>2026-04-25T13:58:12.996Z</time></trkpt><trkpt lat="38.5206402" lon="14.9508512"><ele>57.0</ele><time>2026-04-25T13:58:13.997Z</time></trkpt><trkpt lat="38.5205964" lon="14.9507531"><ele>55.333333333333336</ele><time>2026-04-25T13:58:14.996Z</time></trkpt><trkpt lat="38.5205478" lon="14.9506562"><ele>53.666666666666664</ele><time>2026-04-25T13:58:15.996Z</time></trkpt><trkpt lat="38.5205082" lon="14.950563"><ele>52.0</ele><time>2026-04-25T13:58:16.996Z</time></trkpt><trkpt lat="38.5204641" lon="14.9504678"><ele>50.33333333333333</ele><time>2026-04-25T13:58:17.996Z</time></trkpt><trkpt lat="38.5204132" lon="14.9503844"><ele>48.666666666666664</ele><time>2026-04-25T13:58:18.996Z</time></trkpt><trkpt lat="38.5203715" lon="14.9502982"><ele>47.0</ele><time>2026-04-25T13:58:19.997Z</time></trkpt><trkpt lat="38.520336" lon="14.9502194"><ele>49.166666666666664</ele><time>2026-04-25T13:58:20.997Z</time></trkpt><trkpt lat="38.5203025" lon="14.9501323"><ele>51.33333333333333</ele><time>2026-04-25T13:58:21.996Z</time></trkpt><trkpt lat="38.5202741" lon="14.950051"><ele>53.5</ele><time>2026-04-25T13:58:22.996Z</time></trkpt><trkpt lat="38.5202379" lon="14.9499728"><ele>55.666666666666664</ele><time>2026-04-25T13:58:23.996Z</time></trkpt><trkpt lat="38.5202006" lon="14.9499036"><ele>57.833333333333336</ele><time>2026-04-25T13:58:24.997Z</time></trkpt><trkpt lat="38.5201629" lon="14.9498368"><ele>60.0</ele><time>2026-04-25T13:58:25.996Z</time></trkpt><trkpt lat="38.5200774" lon="14.9497427"><ele>60.0</ele><time>2026-04-25T13:58:27.996Z</time></trkpt><trkpt lat="38.5199983" lon="14.9496595"><ele>60.0</ele><time>2026-04-25T13:58:29.996Z</time></trkpt><trkpt lat="38.5199114" lon="14.9495971"><ele>60.0</ele><time>2026-04-25T13:58:31.996Z</time></trkpt><trkpt lat="38.5198335" lon="14.9495467"><ele>60.0</ele><time>2026-04-25T13:58:33.997Z</time></trkpt><trkpt lat="38.5197612" lon="14.9495001"><ele>60.0</ele><time>2026-04-25T13:58:35.997Z</time></trkpt><trkpt lat="38.5196963" lon="14.9494476"><ele>60.0</ele><time>2026-04-25T13:58:37.997Z</time></trkpt><trkpt lat="38.519628" lon="14.9493635"><ele>60.0</ele><time>2026-04-25T13:58:39.997Z</time></trkpt><trkpt lat="38.5195724" lon="14.9492774"><ele>60.0</ele><time>2026-04-25T13:58:41.996Z</time></trkpt><trkpt lat="38.5195065" lon="14.9491846"><ele>60.0</ele><time>2026-04-25T13:58:43.996Z</time></trkpt><trkpt lat="38.5194419" lon="14.9490887"><ele>60.0</ele><time>2026-04-25T13:58:45.997Z</time></trkpt><trkpt lat="38.5193663" lon="14.9489916"><ele>60.0</ele><time>2026-04-25T13:58:47.997Z</time></trkpt><trkpt lat="38.5193106" lon="14.9488643"><ele>60.666666666666664</ele><time>2026-04-25T13:58:49.997Z</time></trkpt><trkpt lat="38.5192639" lon="14.9487437"><ele>61.33333333333333</ele><time>2026-04-25T13:58:51.996Z</time></trkpt><trkpt lat="38.5192319" lon="14.9486423"><ele>62.0</ele><time>2026-04-25T13:58:53.996Z</time></trkpt><trkpt lat="38.5192014" lon="14.9485695"><ele>62.666666666666664</ele><time>2026-04-25T13:58:55.997Z</time></trkpt><trkpt lat="38.5191888" lon="14.9484897"><ele>63.33333333333333</ele><time>2026-04-25T13:58:57.996Z</time></trkpt><trkpt lat="38.5192127" lon="14.9483857"><ele>64.0</ele><time>2026-04-25T13:59:00.996Z</time></trkpt><trkpt lat="38.5192749" lon="14.948355"><ele>64.0</ele><time>2026-04-25T13:59:02.996Z</time></trkpt><trkpt lat="38.5193491" lon="14.9483857"><ele>64.0</ele><time>2026-04-25T13:59:04.996Z</time></trkpt><trkpt lat="38.5194283" lon="14.9484558"><ele>64.0</ele><time>2026-04-25T13:59:06.997Z</time></trkpt><trkpt lat="38.5195122" lon="14.9485282"><ele>64.0</ele><time>2026-04-25T13:59:08.996Z</time></trkpt><trkpt lat="38.5195989" lon="14.9486138"><ele>64.0</ele><time>2026-04-25T13:59:10.996Z</time></trkpt><trkpt lat="38.519684" lon="14.9486783"><ele>59.83333333333333</ele><time>2026-04-25T13:59:12.997Z</time></trkpt><trkpt lat="38.519774" lon="14.9487377"><ele>55.666666666666664</ele><time>2026-04-25T13:59:14.996Z</time></trkpt><trkpt lat="38.5198571" lon="14.9488028"><ele>51.5</ele><time>2026-04-25T13:59:16.997Z</time></trkpt><trkpt lat="38.5199284" lon="14.9488582"><ele>47.33333333333333</ele><time>2026-04-25T13:59:18.997Z</time></trkpt><trkpt lat="38.5199882" lon="14.9488212"><ele>43.166666666666664</ele><time>2026-04-25T13:59:20.996Z</time></trkpt><trkpt lat="38.519999" lon="14.9487372"><ele>39.0</ele><time>2026-04-25T13:59:22.997Z</time></trkpt><trkpt lat="38.5199468" lon="14.9486632"><ele>39.0</ele><time>2026-04-25T13:59:24.997Z</time></trkpt><trkpt lat="38.5198747" lon="14.9485838"><ele>39.0</ele><time>2026-04-25T13:59:26.996Z</time></trkpt><trkpt lat="38.519788" lon="14.9484938"><ele>39.0</ele><time>2026-04-25T13:59:28.996Z</time></trkpt><trkpt lat="38.5196971" lon="14.9484088"><ele>39.0</ele><time>2026-04-25T13:59:30.997Z</time></trkpt><trkpt lat="38.5196069" lon="14.9483079"><ele>39.0</ele><time>2026-04-25T13:59:32.996Z</time></trkpt><trkpt lat="38.5195169" lon="14.9482304"><ele>38.833333333333336</ele><time>2026-04-25T13:59:34.997Z</time></trkpt><trkpt lat="38.5194154" lon="14.9482003"><ele>38.666666666666664</ele><time>2026-04-25T13:59:36.996Z</time></trkpt><trkpt lat="38.5193146" lon="14.9481933"><ele>38.5</ele><time>2026-04-25T13:59:38.997Z</time></trkpt><trkpt lat="38.5192344" lon="14.9482031"><ele>38.33333333333333</ele><time>2026-04-25T13:59:40.996Z</time></trkpt><trkpt lat="38.5191626" lon="14.948192"><ele>38.166666666666664</ele><time>2026-04-25T13:59:43.996Z</time></trkpt><trkpt lat="38.5191803" lon="14.9480965"><ele>38.0</ele><time>2026-04-25T13:59:47.996Z</time></trkpt><trkpt lat="38.5192477" lon="14.9480744"><ele>38.0</ele><time>2026-04-25T13:59:49.996Z</time></trkpt><trkpt lat="38.5193137" lon="14.9480754"><ele>38.0</ele><time>2026-04-25T13:59:50.996Z</time></trkpt><trkpt lat="38.5194204" lon="14.9480871"><ele>38.0</ele><time>2026-04-25T13:59:52.997Z</time></trkpt><trkpt lat="38.5195344" lon="14.9481042"><ele>38.0</ele><time>2026-04-25T13:59:54.996Z</time></trkpt><trkpt lat="38.5196421" lon="14.9481428"><ele>38.0</ele><time>2026-04-25T13:59:56.996Z</time></trkpt><trkpt lat="38.5197354" lon="14.948194"><ele>34.166666666666664</ele><time>2026-04-25T13:59:58.997Z</time></trkpt><trkpt lat="38.5198189" lon="14.9482792"><ele>30.333333333333332</ele><time>2026-04-25T14:00:00.996Z</time></trkpt><trkpt lat="38.5198983" lon="14.9483453"><ele>26.5</ele><time>2026-04-25T14:00:02.996Z</time></trkpt><trkpt lat="38.5199754" lon="14.9483231"><ele>22.666666666666664</ele><time>2026-04-25T14:00:04.996Z</time></trkpt><trkpt lat="38.5199831" lon="14.9482426"><ele>18.833333333333332</ele><time>2026-04-25T14:00:06.997Z</time></trkpt><trkpt lat="38.5199161" lon="14.9481661"><ele>15.0</ele><time>2026-04-25T14:00:08.997Z</time></trkpt><trkpt lat="38.5198216" lon="14.9481122"><ele>15.0</ele><time>2026-04-25T14:00:10.996Z</time></trkpt><trkpt lat="38.5197292" lon="14.9480606"><ele>15.0</ele><time>2026-04-25T14:00:12.996Z</time></trkpt><trkpt lat="38.5196452" lon="14.9479967"><ele>15.0</ele><time>2026-04-25T14:00:14.997Z</time></trkpt><trkpt lat="38.5195998" lon="14.947885"><ele>15.0</ele><time>2026-04-25T14:00:16.996Z</time></trkpt><trkpt lat="38.5195853" lon="14.9477315"><ele>15.0</ele><time>2026-04-25T14:00:18.996Z</time></trkpt><trkpt lat="38.5195781" lon="14.9476444"><ele>15.0</ele><time>2026-04-25T14:00:19.996Z</time></trkpt><trkpt lat="38.519572" lon="14.9475516"><ele>15.0</ele><time>2026-04-25T14:00:20.996Z</time></trkpt><trkpt lat="38.5195652" lon="14.9474552"><ele>15.0</ele><time>2026-04-25T14:00:21.997Z</time></trkpt><trkpt lat="38.5195616" lon="14.9473575"><ele>15.0</ele><time>2026-04-25T14:00:22.996Z</time></trkpt><trkpt lat="38.5195518" lon="14.9472646"><ele>15.0</ele><time>2026-04-25T14:00:23.997Z</time></trkpt><trkpt lat="38.5195432" lon="14.947172"><ele>15.0</ele><time>2026-04-25T14:00:24.996Z</time></trkpt><trkpt lat="38.5195291" lon="14.9470866"><ele>15.0</ele><time>2026-04-25T14:00:25.996Z</time></trkpt><trkpt lat="38.5195141" lon="14.9469954"><ele>15.285714285714286</ele><time>2026-04-25T14:00:26.996Z</time></trkpt><trkpt lat="38.5195054" lon="14.9469073"><ele>15.57142857142857</ele><time>2026-04-25T14:00:27.997Z</time></trkpt><trkpt lat="38.5194963" lon="14.9468152"><ele>15.857142857142856</ele><time>2026-04-25T14:00:28.996Z</time></trkpt><trkpt lat="38.5194845" lon="14.9467208"><ele>16.142857142857142</ele><time>2026-04-25T14:00:29.997Z</time></trkpt><trkpt lat="38.5194719" lon="14.9466312"><ele>16.428571428571427</ele><time>2026-04-25T14:00:30.996Z</time></trkpt><trkpt lat="38.5194574" lon="14.9465401"><ele>16.71428571428571</ele><time>2026-04-25T14:00:31.997Z</time></trkpt><trkpt lat="38.5194463" lon="14.9464472"><ele>17.0</ele><time>2026-04-25T14:00:32.997Z</time></trkpt><trkpt lat="38.5194366" lon="14.9463509"><ele>16.285714285714285</ele><time>2026-04-25T14:00:33.997Z</time></trkpt><trkpt lat="38.5194256" lon="14.9462566"><ele>15.571428571428571</ele><time>2026-04-25T14:00:34.997Z</time></trkpt><trkpt lat="38.5194158" lon="14.9461657"><ele>14.857142857142856</ele><time>2026-04-25T14:00:35.997Z</time></trkpt><trkpt lat="38.5194006" lon="14.9460767"><ele>14.142857142857142</ele><time>2026-04-25T14:00:36.997Z</time></trkpt><trkpt lat="38.519393" lon="14.9459845"><ele>13.428571428571427</ele><time>2026-04-25T14:00:37.996Z</time></trkpt><trkpt lat="38.519385" lon="14.9458941"><ele>12.714285714285714</ele><time>2026-04-25T14:00:38.997Z</time></trkpt><trkpt lat="38.5193789" lon="14.9458005"><ele>12.0</ele><time>2026-04-25T14:00:39.997Z</time></trkpt><trkpt lat="38.519372" lon="14.9457042"><ele>11.8</ele><time>2026-04-25T14:00:40.996Z</time></trkpt><trkpt lat="38.5193681" lon="14.9456058"><ele>11.6</ele><time>2026-04-25T14:00:41.997Z</time></trkpt><trkpt lat="38.5193681" lon="14.9455071"><ele>11.4</ele><time>2026-04-25T14:00:42.997Z</time></trkpt><trkpt lat="38.5193766" lon="14.9453216"><ele>11.200000000000001</ele><time>2026-04-25T14:00:44.997Z</time></trkpt><trkpt lat="38.5193816" lon="14.9452234"><ele>11.0</ele><time>2026-04-25T14:00:45.997Z</time></trkpt><trkpt lat="38.5193851" lon="14.9451199"><ele>10.833333333333332</ele><time>2026-04-25T14:00:46.997Z</time></trkpt><trkpt lat="38.519388" lon="14.9450193"><ele>10.666666666666666</ele><time>2026-04-25T14:00:47.997Z</time></trkpt><trkpt lat="38.519391" lon="14.9449216"><ele>10.5</ele><time>2026-04-25T14:00:48.996Z</time></trkpt><trkpt lat="38.5193971" lon="14.9448231"><ele>10.333333333333334</ele><time>2026-04-25T14:00:49.996Z</time></trkpt><trkpt lat="38.5193996" lon="14.944726"><ele>10.166666666666668</ele><time>2026-04-25T14:00:50.997Z</time></trkpt><trkpt lat="38.5194033" lon="14.9446327"><ele>10.0</ele><time>2026-04-25T14:00:51.997Z</time></trkpt><trkpt lat="38.5194051" lon="14.944534"><ele>10.0</ele><time>2026-04-25T14:00:52.996Z</time></trkpt><trkpt lat="38.519406" lon="14.9444388"><ele>10.0</ele><time>2026-04-25T14:00:53.997Z</time></trkpt><trkpt lat="38.5194031" lon="14.9443417"><ele>10.0</ele><time>2026-04-25T14:00:54.997Z</time></trkpt><trkpt lat="38.5194006" lon="14.944248"><ele>10.0</ele><time>2026-04-25T14:00:55.997Z</time></trkpt><trkpt lat="38.5193965" lon="14.9441507"><ele>10.0</ele><time>2026-04-25T14:00:56.996Z</time></trkpt><trkpt lat="38.5193949" lon="14.9440568"><ele>10.0</ele><time>2026-04-25T14:00:57.996Z</time></trkpt><trkpt lat="38.5193935" lon="14.9439607"><ele>10.0</ele><time>2026-04-25T14:00:58.997Z</time></trkpt><trkpt lat="38.5193925" lon="14.9438682"><ele>10.0</ele><time>2026-04-25T14:00:59.997Z</time></trkpt><trkpt lat="38.519388" lon="14.943776"><ele>10.0</ele><time>2026-04-25T14:01:00.996Z</time></trkpt><trkpt lat="38.5193876" lon="14.9436801"><ele>10.0</ele><time>2026-04-25T14:01:01.997Z</time></trkpt><trkpt lat="38.5193858" lon="14.9435869"><ele>10.0</ele><time>2026-04-25T14:01:02.997Z</time></trkpt><trkpt lat="38.51938" lon="14.9434955"><ele>10.0</ele><time>2026-04-25T14:01:03.996Z</time></trkpt><trkpt lat="38.5193725" lon="14.943405"><ele>10.0</ele><time>2026-04-25T14:01:04.997Z</time></trkpt><trkpt lat="38.5193635" lon="14.9433139"><ele>10.0</ele><time>2026-04-25T14:01:05.997Z</time></trkpt><trkpt lat="38.5193598" lon="14.9432195"><ele>9.666666666666668</ele><time>2026-04-25T14:01:06.996Z</time></trkpt><trkpt lat="38.5193538" lon="14.9431181"><ele>9.333333333333334</ele><time>2026-04-25T14:01:07.997Z</time></trkpt><trkpt lat="38.5193501" lon="14.9430172"><ele>9.0</ele><time>2026-04-25T14:01:08.996Z</time></trkpt><trkpt lat="38.5193403" lon="14.9429138"><ele>8.666666666666666</ele><time>2026-04-25T14:01:09.997Z</time></trkpt><trkpt lat="38.5193317" lon="14.9428057"><ele>8.333333333333332</ele><time>2026-04-25T14:01:10.996Z</time></trkpt><trkpt lat="38.5193301" lon="14.9427012"><ele>8.0</ele><time>2026-04-25T14:01:11.996Z</time></trkpt><trkpt lat="38.5193268" lon="14.9425921"><ele>7.999999999999999</ele><time>2026-04-25T14:01:12.997Z</time></trkpt><trkpt lat="38.51933" lon="14.9424896"><ele>8.0</ele><time>2026-04-25T14:01:13.996Z</time></trkpt><trkpt lat="38.5193323" lon="14.942383"><ele>8.0</ele><time>2026-04-25T14:01:14.996Z</time></trkpt><trkpt lat="38.5193323" lon="14.9422774"><ele>8.0</ele><time>2026-04-25T14:01:15.996Z</time></trkpt><trkpt lat="38.51933" lon="14.9421794"><ele>7.999999999999999</ele><time>2026-04-25T14:01:16.996Z</time></trkpt><trkpt lat="38.519327" lon="14.9420766"><ele>8.0</ele><time>2026-04-25T14:01:17.996Z</time></trkpt><trkpt lat="38.5193273" lon="14.9419783"><ele>8.0</ele><time>2026-04-25T14:01:18.996Z</time></trkpt><trkpt lat="38.5193297" lon="14.94188"><ele>7.999999999999999</ele><time>2026-04-25T14:01:19.996Z</time></trkpt><trkpt lat="38.5193308" lon="14.9417797"><ele>8.0</ele><time>2026-04-25T14:01:20.996Z</time></trkpt><trkpt lat="38.5193334" lon="14.9416844"><ele>8.0</ele><time>2026-04-25T14:01:21.997Z</time></trkpt><trkpt lat="38.5193361" lon="14.9415887"><ele>7.999999999999999</ele><time>2026-04-25T14:01:22.997Z</time></trkpt><trkpt lat="38.5193396" lon="14.9415"><ele>8.0</ele><time>2026-04-25T14:01:23.997Z</time></trkpt><trkpt lat="38.519347" lon="14.9414131"><ele>8.0</ele><time>2026-04-25T14:01:24.996Z</time></trkpt><trkpt lat="38.5193446" lon="14.9413283"><ele>8.142857142857142</ele><time>2026-04-25T14:01:25.996Z</time></trkpt><trkpt lat="38.5193463" lon="14.9412454"><ele>8.285714285714285</ele><time>2026-04-25T14:01:26.997Z</time></trkpt><trkpt lat="38.5193544" lon="14.9411583"><ele>8.428571428571429</ele><time>2026-04-25T14:01:27.997Z</time></trkpt><trkpt lat="38.5193624" lon="14.9410723"><ele>8.571428571428571</ele><time>2026-04-25T14:01:28.997Z</time></trkpt><trkpt lat="38.5193707" lon="14.9409846"><ele>8.714285714285715</ele><time>2026-04-25T14:01:29.997Z</time></trkpt><trkpt lat="38.5193739" lon="14.9408983"><ele>8.857142857142858</ele><time>2026-04-25T14:01:30.997Z</time></trkpt><trkpt lat="38.5193803" lon="14.9408132"><ele>9.0</ele><time>2026-04-25T14:01:31.997Z</time></trkpt><trkpt lat="38.5193822" lon="14.9407229"><ele>9.000000000000002</ele><time>2026-04-25T14:01:32.996Z</time></trkpt><trkpt lat="38.5193875" lon="14.9406365"><ele>9.0</ele><time>2026-04-25T14:01:33.997Z</time></trkpt><trkpt lat="38.5193938" lon="14.9405464"><ele>9.0</ele><time>2026-04-25T14:01:34.996Z</time></trkpt><trkpt lat="38.5193992" lon="14.9404564"><ele>9.0</ele><time>2026-04-25T14:01:35.996Z</time></trkpt><trkpt lat="38.5194034" lon="14.9403714"><ele>9.0</ele><time>2026-04-25T14:01:36.996Z</time></trkpt><trkpt lat="38.5194086" lon="14.9402825"><ele>9.000000000000002</ele><time>2026-04-25T14:01:37.997Z</time></trkpt><trkpt lat="38.5194117" lon="14.9401971"><ele>9.0</ele><time>2026-04-25T14:01:38.996Z</time></trkpt><trkpt lat="38.5194135" lon="14.9401103"><ele>9.0</ele><time>2026-04-25T14:01:39.996Z</time></trkpt><trkpt lat="38.5194156" lon="14.9400281"><ele>9.0</ele><time>2026-04-25T14:01:40.996Z</time></trkpt><trkpt lat="38.5194158" lon="14.9399435"><ele>9.0</ele><time>2026-04-25T14:01:41.996Z</time></trkpt><trkpt lat="38.5194198" lon="14.9398606"><ele>9.0</ele><time>2026-04-25T14:01:42.996Z</time></trkpt><trkpt lat="38.5194207" lon="14.9397049"><ele>9.0</ele><time>2026-04-25T14:01:44.997Z</time></trkpt><trkpt lat="38.5194282" lon="14.9395511"><ele>9.0</ele><time>2026-04-25T14:01:46.996Z</time></trkpt><trkpt lat="38.5194319" lon="14.9394694"><ele>9.0</ele><time>2026-04-25T14:01:47.996Z</time></trkpt><trkpt lat="38.5194372" lon="14.9393849"><ele>9.0</ele><time>2026-04-25T14:01:48.997Z</time></trkpt><trkpt lat="38.5194385" lon="14.939303"><ele>9.0</ele><time>2026-04-25T14:01:49.996Z</time></trkpt><trkpt lat="38.5194386" lon="14.9391455"><ele>9.0</ele><time>2026-04-25T14:01:51.996Z</time></trkpt><trkpt lat="38.5194295" lon="14.9389918"><ele>9.0</ele><time>2026-04-25T14:01:53.996Z</time></trkpt><trkpt lat="38.5194355" lon="14.9388334"><ele>9.2</ele><time>2026-04-25T14:01:55.997Z</time></trkpt><trkpt lat="38.5194533" lon="14.9386864"><ele>9.4</ele><time>2026-04-25T14:01:57.996Z</time></trkpt><trkpt lat="38.5194705" lon="14.9385247"><ele>9.6</ele><time>2026-04-25T14:01:59.996Z</time></trkpt><trkpt lat="38.5194858" lon="14.9383682"><ele>9.8</ele><time>2026-04-25T14:02:01.996Z</time></trkpt><trkpt lat="38.5194955" lon="14.9382858"><ele>10.0</ele><time>2026-04-25T14:02:02.997Z</time></trkpt><trkpt lat="38.519505" lon="14.9382046"><ele>10.0</ele><time>2026-04-25T14:02:03.996Z</time></trkpt><trkpt lat="38.5195124" lon="14.9381218"><ele>10.0</ele><time>2026-04-25T14:02:04.996Z</time></trkpt><trkpt lat="38.5195315" lon="14.9379699"><ele>10.0</ele><time>2026-04-25T14:02:06.996Z</time></trkpt><trkpt lat="38.5195704" lon="14.9378207"><ele>10.0</ele><time>2026-04-25T14:02:08.997Z</time></trkpt><trkpt lat="38.519606" lon="14.9376743"><ele>10.0</ele><time>2026-04-25T14:02:10.997Z</time></trkpt><trkpt lat="38.5196271" lon="14.9375982"><ele>8.0</ele><time>2026-04-25T14:02:11.997Z</time></trkpt><trkpt lat="38.5196628" lon="14.9374579"><ele>6.0</ele><time>2026-04-25T14:02:13.997Z</time></trkpt><trkpt lat="38.5196974" lon="14.9373138"><ele>4.0</ele><time>2026-04-25T14:02:15.996Z</time></trkpt><trkpt lat="38.5197476" lon="14.9371822"><ele>2.0</ele><time>2026-04-25T14:02:17.997Z</time></trkpt><trkpt lat="38.5197942" lon="14.9370469"><ele>2.0</ele><time>2026-04-25T14:02:19.996Z</time></trkpt><trkpt lat="38.5198198" lon="14.9369064"><ele>2.0</ele><time>2026-04-25T14:02:21.997Z</time></trkpt><trkpt lat="38.5198487" lon="14.9367667"><ele>2.0</ele><time>2026-04-25T14:02:23.996Z</time></trkpt><trkpt lat="38.5198695" lon="14.9366196"><ele>2.0</ele><time>2026-04-25T14:02:25.996Z</time></trkpt><trkpt lat="38.5199047" lon="14.9364814"><ele>2.6</ele><time>2026-04-25T14:02:27.996Z</time></trkpt><trkpt lat="38.519933" lon="14.9363432"><ele>3.2</ele><time>2026-04-25T14:02:29.996Z</time></trkpt><trkpt lat="38.5199587" lon="14.9361974"><ele>3.8</ele><time>2026-04-25T14:02:31.996Z</time></trkpt><trkpt lat="38.5199788" lon="14.9360711"><ele>4.4</ele><time>2026-04-25T14:02:33.997Z</time></trkpt><trkpt lat="38.519994" lon="14.9359449"><ele>5.0</ele><time>2026-04-25T14:02:35.997Z</time></trkpt><trkpt lat="38.5199897" lon="14.935846"><ele>5.2</ele><time>2026-04-25T14:02:37.996Z</time></trkpt><trkpt lat="38.5199226" lon="14.9357859"><ele>5.4</ele><time>2026-04-25T14:02:39.996Z</time></trkpt><trkpt lat="38.5198261" lon="14.9357459"><ele>5.6</ele><time>2026-04-25T14:02:41.996Z</time></trkpt><trkpt lat="38.5197155" lon="14.935683"><ele>5.8</ele><time>2026-04-25T14:02:43.996Z</time></trkpt><trkpt lat="38.5196187" lon="14.9356115"><ele>6.0</ele><time>2026-04-25T14:02:45.997Z</time></trkpt><trkpt lat="38.5195226" lon="14.9355308"><ele>8.5</ele><time>2026-04-25T14:02:47.997Z</time></trkpt><trkpt lat="38.5194467" lon="14.935425"><ele>11.0</ele><time>2026-04-25T14:02:49.996Z</time></trkpt><trkpt lat="38.5193932" lon="14.9353035"><ele>13.5</ele><time>2026-04-25T14:02:51.997Z</time></trkpt><trkpt lat="38.5193052" lon="14.9352029"><ele>16.0</ele><time>2026-04-25T14:02:53.997Z</time></trkpt><trkpt lat="38.5192077" lon="14.9351324"><ele>15.999999999999998</ele><time>2026-04-25T14:02:55.996Z</time></trkpt><trkpt lat="38.5191347" lon="14.9350713"><ele>16.0</ele><time>2026-04-25T14:02:57.996Z</time></trkpt><trkpt lat="38.5190678" lon="14.934991"><ele>16.0</ele><time>2026-04-25T14:02:59.997Z</time></trkpt><trkpt lat="38.519022" lon="14.9348858"><ele>16.0</ele><time>2026-04-25T14:03:01.996Z</time></trkpt><trkpt lat="38.5189892" lon="14.9348148"><ele>15.999999999999998</ele><time>2026-04-25T14:03:04.996Z</time></trkpt><trkpt lat="38.5189979" lon="14.9347089"><ele>16.0</ele><time>2026-04-25T14:03:10.996Z</time></trkpt><trkpt lat="38.5190372" lon="14.9345634"><ele>15.999999999999998</ele><time>2026-04-25T14:03:12.996Z</time></trkpt><trkpt lat="38.5190568" lon="14.9344802"><ele>16.0</ele><time>2026-04-25T14:03:13.996Z</time></trkpt><trkpt lat="38.5190829" lon="14.9344038"><ele>16.0</ele><time>2026-04-25T14:03:14.996Z</time></trkpt><trkpt lat="38.5191087" lon="14.9343084"><ele>16.0</ele><time>2026-04-25T14:03:15.996Z</time></trkpt><trkpt lat="38.5191316" lon="14.9341967"><ele>15.999999999999998</ele><time>2026-04-25T14:03:16.997Z</time></trkpt><trkpt lat="38.5191617" lon="14.9340639"><ele>16.0</ele><time>2026-04-25T14:03:17.996Z</time></trkpt><trkpt lat="38.5191962" lon="14.933931"><ele>16.75</ele><time>2026-04-25T14:03:18.997Z</time></trkpt><trkpt lat="38.5192306" lon="14.9337951"><ele>17.5</ele><time>2026-04-25T14:03:19.996Z</time></trkpt><trkpt lat="38.5192648" lon="14.9336548"><ele>18.25</ele><time>2026-04-25T14:03:20.996Z</time></trkpt><trkpt lat="38.5192975" lon="14.9335129"><ele>19.0</ele><time>2026-04-25T14:03:21.997Z</time></trkpt><trkpt lat="38.5193279" lon="14.9333735"><ele>20.4</ele><time>2026-04-25T14:03:22.997Z</time></trkpt><trkpt lat="38.5193585" lon="14.9332348"><ele>21.799999999999997</ele><time>2026-04-25T14:03:23.996Z</time></trkpt><trkpt lat="38.519385" lon="14.933098"><ele>23.200000000000003</ele><time>2026-04-25T14:03:24.997Z</time></trkpt><trkpt lat="38.5194148" lon="14.9329607"><ele>24.6</ele><time>2026-04-25T14:03:25.996Z</time></trkpt><trkpt lat="38.5194421" lon="14.9328242"><ele>26.0</ele><time>2026-04-25T14:03:26.996Z</time></trkpt><trkpt lat="38.5194706" lon="14.9326889"><ele>26.0</ele><time>2026-04-25T14:03:27.996Z</time></trkpt><trkpt lat="38.5194974" lon="14.9325563"><ele>26.0</ele><time>2026-04-25T14:03:28.997Z</time></trkpt><trkpt lat="38.5195267" lon="14.9324301"><ele>26.0</ele><time>2026-04-25T14:03:29.997Z</time></trkpt><trkpt lat="38.5195544" lon="14.9322975"><ele>26.0</ele><time>2026-04-25T14:03:30.996Z</time></trkpt><trkpt lat="38.5195849" lon="14.9321661"><ele>26.0</ele><time>2026-04-25T14:03:31.996Z</time></trkpt><trkpt lat="38.5196102" lon="14.9320393"><ele>24.0</ele><time>2026-04-25T14:03:32.996Z</time></trkpt><trkpt lat="38.5196354" lon="14.9319101"><ele>22.0</ele><time>2026-04-25T14:03:33.996Z</time></trkpt><trkpt lat="38.5196625" lon="14.9317731"><ele>20.0</ele><time>2026-04-25T14:03:34.997Z</time></trkpt><trkpt lat="38.5196842" lon="14.9316337"><ele>18.0</ele><time>2026-04-25T14:03:35.996Z</time></trkpt><trkpt lat="38.5197047" lon="14.9315017"><ele>16.0</ele><time>2026-04-25T14:03:36.997Z</time></trkpt><trkpt lat="38.5197255" lon="14.9313722"><ele>16.0</ele><time>2026-04-25T14:03:37.996Z</time></trkpt><trkpt lat="38.5197474" lon="14.9312379"><ele>16.0</ele><time>2026-04-25T14:03:38.997Z</time></trkpt><trkpt lat="38.5197732" lon="14.9311084"><ele>16.0</ele><time>2026-04-25T14:03:39.997Z</time></trkpt><trkpt lat="38.519797" lon="14.9309692"><ele>16.0</ele><time>2026-04-25T14:03:40.996Z</time></trkpt><trkpt lat="38.5198292" lon="14.9308437"><ele>16.0</ele><time>2026-04-25T14:03:41.997Z</time></trkpt><trkpt lat="38.5198841" lon="14.9307315"><ele>19.200000000000003</ele><time>2026-04-25T14:03:42.996Z</time></trkpt><trkpt lat="38.5199435" lon="14.930629"><ele>22.400000000000002</ele><time>2026-04-25T14:03:43.996Z</time></trkpt><trkpt lat="38.5199989" lon="14.9305279"><ele>25.6</ele><time>2026-04-25T14:03:44.996Z</time></trkpt><trkpt lat="38.5200315" lon="14.9304215"><ele>28.8</ele><time>2026-04-25T14:03:45.997Z</time></trkpt><trkpt lat="38.5200492" lon="14.9302991"><ele>32.0</ele><time>2026-04-25T14:03:46.997Z</time></trkpt><trkpt lat="38.5200242" lon="14.930198"><ele>31.999999999999996</ele><time>2026-04-25T14:03:47.997Z</time></trkpt><trkpt lat="38.5199954" lon="14.9301003"><ele>32.0</ele><time>2026-04-25T14:03:48.996Z</time></trkpt><trkpt lat="38.5199628" lon="14.9299841"><ele>32.0</ele><time>2026-04-25T14:03:49.997Z</time></trkpt><trkpt lat="38.519934" lon="14.9298829"><ele>32.0</ele><time>2026-04-25T14:03:50.996Z</time></trkpt><trkpt lat="38.5199198" lon="14.9297874"><ele>31.999999999999996</ele><time>2026-04-25T14:03:51.997Z</time></trkpt><trkpt lat="38.5199256" lon="14.9296899"><ele>32.0</ele><time>2026-04-25T14:03:52.997Z</time></trkpt><trkpt lat="38.5199486" lon="14.9296015"><ele>35.0</ele><time>2026-04-25T14:03:53.997Z</time></trkpt><trkpt lat="38.5199937" lon="14.9295419"><ele>38.0</ele><time>2026-04-25T14:03:54.996Z</time></trkpt><trkpt lat="38.5200775" lon="14.9295108"><ele>41.0</ele><time>2026-04-25T14:03:55.997Z</time></trkpt><trkpt lat="38.5201539" lon="14.9295041"><ele>44.0</ele><time>2026-04-25T14:03:56.996Z</time></trkpt><trkpt lat="38.5202333" lon="14.9294758"><ele>47.00000000000001</ele><time>2026-04-25T14:03:57.996Z</time></trkpt><trkpt lat="38.5202993" lon="14.9294076"><ele>50.0</ele><time>2026-04-25T14:03:58.996Z</time></trkpt><trkpt lat="38.5203557" lon="14.9293275"><ele>50.00000000000001</ele><time>2026-04-25T14:03:59.996Z</time></trkpt><trkpt lat="38.5203888" lon="14.929229"><ele>50.0</ele><time>2026-04-25T14:04:00.997Z</time></trkpt><trkpt lat="38.520403" lon="14.9291227"><ele>50.0</ele><time>2026-04-25T14:04:01.996Z</time></trkpt><trkpt lat="38.5204138" lon="14.9290148"><ele>50.0</ele><time>2026-04-25T14:04:02.996Z</time></trkpt><trkpt lat="38.5204377" lon="14.928907"><ele>50.00000000000001</ele><time>2026-04-25T14:04:03.997Z</time></trkpt><trkpt lat="38.5204558" lon="14.9288086"><ele>50.0</ele><time>2026-04-25T14:04:04.997Z</time></trkpt><trkpt lat="38.520531" lon="14.9287255"><ele>47.8</ele><time>2026-04-25T14:04:05.997Z</time></trkpt><trkpt lat="38.5206089" lon="14.9286619"><ele>45.6</ele><time>2026-04-25T14:04:06.996Z</time></trkpt><trkpt lat="38.5206935" lon="14.9286199"><ele>43.4</ele><time>2026-04-25T14:04:07.997Z</time></trkpt><trkpt lat="38.5207822" lon="14.9285773"><ele>41.2</ele><time>2026-04-25T14:04:08.997Z</time></trkpt><trkpt lat="38.5208738" lon="14.928534"><ele>39.0</ele><time>2026-04-25T14:04:09.996Z</time></trkpt><trkpt lat="38.5209674" lon="14.9284975"><ele>39.0</ele><time>2026-04-25T14:04:10.996Z</time></trkpt><trkpt lat="38.5210617" lon="14.9284625"><ele>39.0</ele><time>2026-04-25T14:04:11.997Z</time></trkpt><trkpt lat="38.5211529" lon="14.9284265"><ele>39.0</ele><time>2026-04-25T14:04:12.997Z</time></trkpt><trkpt lat="38.5212429" lon="14.9283704"><ele>39.0</ele><time>2026-04-25T14:04:13.997Z</time></trkpt><trkpt lat="38.5213285" lon="14.9283141"><ele>39.0</ele><time>2026-04-25T14:04:14.997Z</time></trkpt><trkpt lat="38.5214057" lon="14.928259"><ele>38.833333333333336</ele><time>2026-04-25T14:04:15.996Z</time></trkpt><trkpt lat="38.5214843" lon="14.9281928"><ele>38.666666666666664</ele><time>2026-04-25T14:04:16.996Z</time></trkpt><trkpt lat="38.5215456" lon="14.9281278"><ele>38.5</ele><time>2026-04-25T14:04:17.996Z</time></trkpt><trkpt lat="38.521594" lon="14.9280479"><ele>38.33333333333333</ele><time>2026-04-25T14:04:18.996Z</time></trkpt><trkpt lat="38.5216242" lon="14.9279614"><ele>38.166666666666664</ele><time>2026-04-25T14:04:19.997Z</time></trkpt><trkpt lat="38.5216295" lon="14.927864"><ele>38.0</ele><time>2026-04-25T14:04:20.996Z</time></trkpt><trkpt lat="38.5216134" lon="14.9277641"><ele>38.0</ele><time>2026-04-25T14:04:21.997Z</time></trkpt><trkpt lat="38.521592" lon="14.9276642"><ele>38.0</ele><time>2026-04-25T14:04:22.997Z</time></trkpt><trkpt lat="38.521569" lon="14.927567"><ele>38.0</ele><time>2026-04-25T14:04:23.997Z</time></trkpt><trkpt lat="38.5215446" lon="14.9274661"><ele>38.0</ele><time>2026-04-25T14:04:24.996Z</time></trkpt><trkpt lat="38.5215155" lon="14.9273663"><ele>38.0</ele><time>2026-04-25T14:04:25.996Z</time></trkpt><trkpt lat="38.5214807" lon="14.9272677"><ele>38.0</ele><time>2026-04-25T14:04:26.996Z</time></trkpt><trkpt lat="38.5214423" lon="14.9271796"><ele>41.83333333333333</ele><time>2026-04-25T14:04:27.997Z</time></trkpt><trkpt lat="38.5213835" lon="14.9271013"><ele>45.666666666666664</ele><time>2026-04-25T14:04:28.997Z</time></trkpt><trkpt lat="38.521323" lon="14.9270334"><ele>49.5</ele><time>2026-04-25T14:04:29.996Z</time></trkpt><trkpt lat="38.5212624" lon="14.9269726"><ele>53.33333333333333</ele><time>2026-04-25T14:04:30.996Z</time></trkpt><trkpt lat="38.5212077" lon="14.9268969"><ele>57.166666666666664</ele><time>2026-04-25T14:04:31.996Z</time></trkpt><trkpt lat="38.5211657" lon="14.9268194"><ele>61.0</ele><time>2026-04-25T14:04:32.997Z</time></trkpt><trkpt lat="38.5211427" lon="14.9267199"><ele>66.66666666666666</ele><time>2026-04-25T14:04:33.997Z</time></trkpt><trkpt lat="38.5211409" lon="14.9266113"><ele>72.33333333333333</ele><time>2026-04-25T14:04:34.996Z</time></trkpt><trkpt lat="38.5211514" lon="14.9264992"><ele>78.0</ele><time>2026-04-25T14:04:35.996Z</time></trkpt><trkpt lat="38.5211565" lon="14.9263942"><ele>83.66666666666667</ele><time>2026-04-25T14:04:36.996Z</time></trkpt><trkpt lat="38.5211666" lon="14.9262807"><ele>89.33333333333334</ele><time>2026-04-25T14:04:37.997Z</time></trkpt><trkpt lat="38.521172" lon="14.9261658"><ele>95.0</ele><time>2026-04-25T14:04:38.996Z</time></trkpt><trkpt lat="38.5211805" lon="14.9260537"><ele>95.0</ele><time>2026-04-25T14:04:39.996Z</time></trkpt><trkpt lat="38.5211816" lon="14.925938"><ele>95.0</ele><time>2026-04-25T14:04:40.997Z</time></trkpt><trkpt lat="38.5211613" lon="14.9258228"><ele>95.0</ele><time>2026-04-25T14:04:41.997Z</time></trkpt><trkpt lat="38.5211295" lon="14.9257089"><ele>95.0</ele><time>2026-04-25T14:04:42.997Z</time></trkpt><trkpt lat="38.5210935" lon="14.9256023"><ele>95.0</ele><time>2026-04-25T14:04:43.996Z</time></trkpt><trkpt lat="38.5210598" lon="14.9254872"><ele>95.8</ele><time>2026-04-25T14:04:44.997Z</time></trkpt><trkpt lat="38.5210214" lon="14.9253705"><ele>96.6</ele><time>2026-04-25T14:04:45.997Z</time></trkpt><trkpt lat="38.5209845" lon="14.9252581"><ele>97.4</ele><time>2026-04-25T14:04:46.996Z</time></trkpt><trkpt lat="38.5209486" lon="14.9251449"><ele>98.2</ele><time>2026-04-25T14:04:47.996Z</time></trkpt><trkpt lat="38.5209058" lon="14.9250358"><ele>99.0</ele><time>2026-04-25T14:04:48.997Z</time></trkpt><trkpt lat="38.5208618" lon="14.9249291"><ele>99.0</ele><time>2026-04-25T14:04:49.996Z</time></trkpt><trkpt lat="38.5208156" lon="14.9248188"><ele>99.0</ele><time>2026-04-25T14:04:50.996Z</time></trkpt><trkpt lat="38.5207716" lon="14.9247085"><ele>99.0</ele><time>2026-04-25T14:04:51.996Z</time></trkpt><trkpt lat="38.5207253" lon="14.9246011"><ele>99.0</ele><time>2026-04-25T14:04:52.996Z</time></trkpt><trkpt lat="38.5206783" lon="14.9244949"><ele>99.0</ele><time>2026-04-25T14:04:53.997Z</time></trkpt><trkpt lat="38.5206279" lon="14.9243896"><ele>99.0</ele><time>2026-04-25T14:04:54.996Z</time></trkpt><trkpt lat="38.5205723" lon="14.9242839"><ele>99.0</ele><time>2026-04-25T14:04:55.996Z</time></trkpt><trkpt lat="38.5205266" lon="14.9241725"><ele>99.0</ele><time>2026-04-25T14:04:56.997Z</time></trkpt><trkpt lat="38.5204782" lon="14.9240597"><ele>99.0</ele><time>2026-04-25T14:04:57.996Z</time></trkpt><trkpt lat="38.5204383" lon="14.9239436"><ele>99.0</ele><time>2026-04-25T14:04:58.996Z</time></trkpt><trkpt lat="38.5203998" lon="14.9238265"><ele>103.2</ele><time>2026-04-25T14:04:59.996Z</time></trkpt><trkpt lat="38.5203561" lon="14.9237077"><ele>107.4</ele><time>2026-04-25T14:05:00.997Z</time></trkpt><trkpt lat="38.5203079" lon="14.9235898"><ele>111.6</ele><time>2026-04-25T14:05:01.997Z</time></trkpt><trkpt lat="38.5202556" lon="14.9234752"><ele>115.8</ele><time>2026-04-25T14:05:02.997Z</time></trkpt><trkpt lat="38.5202009" lon="14.9233609"><ele>120.0</ele><time>2026-04-25T14:05:03.997Z</time></trkpt><trkpt lat="38.5201443" lon="14.9232488"><ele>120.0</ele><time>2026-04-25T14:05:04.996Z</time></trkpt><trkpt lat="38.5200839" lon="14.9231386"><ele>120.0</ele><time>2026-04-25T14:05:05.996Z</time></trkpt><trkpt lat="38.5200262" lon="14.9230314"><ele>120.0</ele><time>2026-04-25T14:05:06.997Z</time></trkpt><trkpt lat="38.5199667" lon="14.9229263"><ele>120.0</ele><time>2026-04-25T14:05:07.997Z</time></trkpt><trkpt lat="38.5199009" lon="14.9228306"><ele>120.0</ele><time>2026-04-25T14:05:08.997Z</time></trkpt><trkpt lat="38.5198297" lon="14.9227388"><ele>120.0</ele><time>2026-04-25T14:05:09.997Z</time></trkpt><trkpt lat="38.5197495" lon="14.9226539"><ele>120.0</ele><time>2026-04-25T14:05:10.997Z</time></trkpt><trkpt lat="38.5196643" lon="14.9225813"><ele>120.0</ele><time>2026-04-25T14:05:11.997Z</time></trkpt><trkpt lat="38.5195765" lon="14.9225062"><ele>120.0</ele><time>2026-04-25T14:05:12.996Z</time></trkpt><trkpt lat="38.519487" lon="14.9224292"><ele>120.0</ele><time>2026-04-25T14:05:13.997Z</time></trkpt><trkpt lat="38.5194014" lon="14.9223672"><ele>122.2</ele><time>2026-04-25T14:05:14.996Z</time></trkpt><trkpt lat="38.51932" lon="14.9223014"><ele>124.4</ele><time>2026-04-25T14:05:15.997Z</time></trkpt><trkpt lat="38.5192396" lon="14.9222388"><ele>126.6</ele><time>2026-04-25T14:05:16.997Z</time></trkpt><trkpt lat="38.5191683" lon="14.9221675"><ele>128.8</ele><time>2026-04-25T14:05:17.996Z</time></trkpt><trkpt lat="38.5191039" lon="14.9220778"><ele>131.0</ele><time>2026-04-25T14:05:18.997Z</time></trkpt><trkpt lat="38.5190541" lon="14.9219763"><ele>131.0</ele><time>2026-04-25T14:05:19.996Z</time></trkpt><trkpt lat="38.5190199" lon="14.9218698"><ele>131.0</ele><time>2026-04-25T14:05:20.996Z</time></trkpt><trkpt lat="38.5189814" lon="14.9217632"><ele>131.0</ele><time>2026-04-25T14:05:21.997Z</time></trkpt><trkpt lat="38.5189408" lon="14.9216578"><ele>131.0</ele><time>2026-04-25T14:05:22.997Z</time></trkpt><trkpt lat="38.5188817" lon="14.921555"><ele>131.0</ele><time>2026-04-25T14:05:23.996Z</time></trkpt><trkpt lat="38.5188173" lon="14.921461"><ele>128.6</ele><time>2026-04-25T14:05:24.996Z</time></trkpt><trkpt lat="38.518749" lon="14.9213681"><ele>126.19999999999999</ele><time>2026-04-25T14:05:25.997Z</time></trkpt><trkpt lat="38.5186808" lon="14.9212737"><ele>123.80000000000001</ele><time>2026-04-25T14:05:26.997Z</time></trkpt><trkpt lat="38.5186236" lon="14.9211815"><ele>121.4</ele><time>2026-04-25T14:05:27.996Z</time></trkpt><trkpt lat="38.5185712" lon="14.9210877"><ele>119.0</ele><time>2026-04-25T14:05:28.996Z</time></trkpt><trkpt lat="38.5185478" lon="14.9209937"><ele>118.16666666666666</ele><time>2026-04-25T14:05:29.996Z</time></trkpt><trkpt lat="38.5185669" lon="14.9208968"><ele>117.33333333333333</ele><time>2026-04-25T14:05:30.996Z</time></trkpt><trkpt lat="38.5186033" lon="14.9207963"><ele>116.5</ele><time>2026-04-25T14:05:31.996Z</time></trkpt><trkpt lat="38.5186557" lon="14.9207001"><ele>115.66666666666666</ele><time>2026-04-25T14:05:32.996Z</time></trkpt><trkpt lat="38.5186935" lon="14.9206004"><ele>114.83333333333333</ele><time>2026-04-25T14:05:33.997Z</time></trkpt><trkpt lat="38.5187231" lon="14.9205059"><ele>114.0</ele><time>2026-04-25T14:05:34.997Z</time></trkpt><trkpt lat="38.5187382" lon="14.9204157"><ele>118.83333333333333</ele><time>2026-04-25T14:05:35.996Z</time></trkpt><trkpt lat="38.5186806" lon="14.9203161"><ele>123.66666666666666</ele><time>2026-04-25T14:05:36.996Z</time></trkpt><trkpt lat="38.5186261" lon="14.9202377"><ele>128.5</ele><time>2026-04-25T14:05:37.996Z</time></trkpt><trkpt lat="38.5185595" lon="14.9201607"><ele>133.33333333333331</ele><time>2026-04-25T14:05:38.997Z</time></trkpt><trkpt lat="38.5184912" lon="14.9200878"><ele>138.16666666666666</ele><time>2026-04-25T14:05:39.996Z</time></trkpt><trkpt lat="38.518423" lon="14.9200098"><ele>143.0</ele><time>2026-04-25T14:05:40.996Z</time></trkpt><trkpt lat="38.5183676" lon="14.9199283"><ele>143.33333333333331</ele><time>2026-04-25T14:05:41.996Z</time></trkpt><trkpt lat="38.518323" lon="14.9198355"><ele>143.66666666666666</ele><time>2026-04-25T14:05:42.996Z</time></trkpt><trkpt lat="38.518313" lon="14.9197282"><ele>144.0</ele><time>2026-04-25T14:05:43.997Z</time></trkpt><trkpt lat="38.5183235" lon="14.9196132"><ele>144.33333333333334</ele><time>2026-04-25T14:05:44.997Z</time></trkpt><trkpt lat="38.5183474" lon="14.9195143"><ele>144.66666666666669</ele><time>2026-04-25T14:05:45.996Z</time></trkpt><trkpt lat="38.518365" lon="14.9194226"><ele>145.0</ele><time>2026-04-25T14:05:46.996Z</time></trkpt><trkpt lat="38.5183261" lon="14.9192938"><ele>145.0</ele><time>2026-04-25T14:05:48.996Z</time></trkpt><trkpt lat="38.5182209" lon="14.9192979"><ele>145.0</ele><time>2026-04-25T14:05:50.996Z</time></trkpt><trkpt lat="38.5181341" lon="14.9193825"><ele>145.0</ele><time>2026-04-25T14:05:52.996Z</time></trkpt><trkpt lat="38.5181188" lon="14.9194815"><ele>145.0</ele><time>2026-04-25T14:05:53.997Z</time></trkpt><trkpt lat="38.518158" lon="14.9196167"><ele>145.0</ele><time>2026-04-25T14:05:54.997Z</time></trkpt><trkpt lat="38.5181819" lon="14.9197451"><ele>145.0</ele><time>2026-04-25T14:05:55.996Z</time></trkpt><trkpt lat="38.51819" lon="14.9198667"><ele>145.0</ele><time>2026-04-25T14:05:56.997Z</time></trkpt><trkpt lat="38.5182069" lon="14.9199876"><ele>145.0</ele><time>2026-04-25T14:05:57.997Z</time></trkpt><trkpt lat="38.5182171" lon="14.9201032"><ele>145.0</ele><time>2026-04-25T14:05:58.996Z</time></trkpt><trkpt lat="38.5182216" lon="14.9202156"><ele>145.0</ele><time>2026-04-25T14:05:59.996Z</time></trkpt><trkpt lat="38.5182082" lon="14.9203295"><ele>144.66666666666669</ele><time>2026-04-25T14:06:00.997Z</time></trkpt><trkpt lat="38.518176" lon="14.9204244"><ele>144.33333333333334</ele><time>2026-04-25T14:06:01.996Z</time></trkpt><trkpt lat="38.5181195" lon="14.9205101"><ele>144.0</ele><time>2026-04-25T14:06:02.996Z</time></trkpt><trkpt lat="38.5180542" lon="14.920582"><ele>143.66666666666666</ele><time>2026-04-25T14:06:03.996Z</time></trkpt><trkpt lat="38.5179866" lon="14.9206576"><ele>143.33333333333331</ele><time>2026-04-25T14:06:04.997Z</time></trkpt><trkpt lat="38.5179191" lon="14.9207368"><ele>143.0</ele><time>2026-04-25T14:06:05.997Z</time></trkpt><trkpt lat="38.5178653" lon="14.9208186"><ele>150.83333333333331</ele><time>2026-04-25T14:06:06.997Z</time></trkpt><trkpt lat="38.5178332" lon="14.9209141"><ele>158.66666666666666</ele><time>2026-04-25T14:06:07.996Z</time></trkpt><trkpt lat="38.5178126" lon="14.9210184"><ele>166.5</ele><time>2026-04-25T14:06:08.996Z</time></trkpt><trkpt lat="38.5178056" lon="14.9211307"><ele>174.33333333333334</ele><time>2026-04-25T14:06:09.996Z</time></trkpt><trkpt lat="38.5178252" lon="14.9212494"><ele>182.16666666666669</ele><time>2026-04-25T14:06:10.997Z</time></trkpt><trkpt lat="38.5178628" lon="14.9213571"><ele>190.0</ele><time>2026-04-25T14:06:11.996Z</time></trkpt><trkpt lat="38.5178983" lon="14.9214755"><ele>183.6</ele><time>2026-04-25T14:06:12.996Z</time></trkpt><trkpt lat="38.5179339" lon="14.9215934"><ele>177.2</ele><time>2026-04-25T14:06:13.997Z</time></trkpt><trkpt lat="38.5179622" lon="14.9217129"><ele>170.8</ele><time>2026-04-25T14:06:14.996Z</time></trkpt><trkpt lat="38.5179945" lon="14.921832"><ele>164.4</ele><time>2026-04-25T14:06:15.997Z</time></trkpt><trkpt lat="38.5180234" lon="14.9219474"><ele>158.0</ele><time>2026-04-25T14:06:16.996Z</time></trkpt><trkpt lat="38.5180506" lon="14.9220541"><ele>158.0</ele><time>2026-04-25T14:06:17.997Z</time></trkpt><trkpt lat="38.518083" lon="14.9221516"><ele>158.0</ele><time>2026-04-25T14:06:18.997Z</time></trkpt><trkpt lat="38.5181156" lon="14.9222391"><ele>158.0</ele><time>2026-04-25T14:06:19.997Z</time></trkpt><trkpt lat="38.518133" lon="14.9223245"><ele>158.0</ele><time>2026-04-25T14:06:20.997Z</time></trkpt><trkpt lat="38.5181056" lon="14.9224672"><ele>158.0</ele><time>2026-04-25T14:06:22.996Z</time></trkpt><trkpt lat="38.5179998" lon="14.9225113"><ele>158.0</ele><time>2026-04-25T14:06:24.997Z</time></trkpt><trkpt lat="38.5179059" lon="14.922429"><ele>158.0</ele><time>2026-04-25T14:06:26.996Z</time></trkpt><trkpt lat="38.5178735" lon="14.9223416"><ele>158.0</ele><time>2026-04-25T14:06:27.996Z</time></trkpt><trkpt lat="38.5178477" lon="14.9222385"><ele>158.0</ele><time>2026-04-25T14:06:28.996Z</time></trkpt><trkpt lat="38.5178242" lon="14.922142"><ele>158.0</ele><time>2026-04-25T14:06:29.996Z</time></trkpt><trkpt lat="38.5177895" lon="14.9220483"><ele>158.0</ele><time>2026-04-25T14:06:30.997Z</time></trkpt><trkpt lat="38.5177572" lon="14.9219492"><ele>163.33333333333331</ele><time>2026-04-25T14:06:31.997Z</time></trkpt><trkpt lat="38.5177214" lon="14.9218493"><ele>168.66666666666666</ele><time>2026-04-25T14:06:32.997Z</time></trkpt><trkpt lat="38.5176858" lon="14.921744"><ele>174.0</ele><time>2026-04-25T14:06:33.997Z</time></trkpt><trkpt lat="38.5176609" lon="14.9216376"><ele>179.33333333333334</ele><time>2026-04-25T14:06:34.997Z</time></trkpt><trkpt lat="38.5176316" lon="14.9215368"><ele>184.66666666666669</ele><time>2026-04-25T14:06:35.996Z</time></trkpt><trkpt lat="38.517602" lon="14.9214415"><ele>190.0</ele><time>2026-04-25T14:06:36.997Z</time></trkpt><trkpt lat="38.517568" lon="14.9213366"><ele>190.0</ele><time>2026-04-25T14:06:37.996Z</time></trkpt><trkpt lat="38.5175348" lon="14.9212412"><ele>190.0</ele><time>2026-04-25T14:06:38.997Z</time></trkpt><trkpt lat="38.5175004" lon="14.9211518"><ele>190.0</ele><time>2026-04-25T14:06:39.997Z</time></trkpt><trkpt lat="38.5174796" lon="14.9210576"><ele>190.0</ele><time>2026-04-25T14:06:40.997Z</time></trkpt><trkpt lat="38.5174632" lon="14.9209555"><ele>190.0</ele><time>2026-04-25T14:06:41.996Z</time></trkpt><trkpt lat="38.5174463" lon="14.9208559"><ele>190.0</ele><time>2026-04-25T14:06:42.996Z</time></trkpt><trkpt lat="38.5174386" lon="14.920757"><ele>188.83333333333334</ele><time>2026-04-25T14:06:43.996Z</time></trkpt><trkpt lat="38.5174328" lon="14.920654"><ele>187.66666666666669</ele><time>2026-04-25T14:06:44.996Z</time></trkpt><trkpt lat="38.5174369" lon="14.9205418"><ele>186.5</ele><time>2026-04-25T14:06:45.997Z</time></trkpt><trkpt lat="38.5174444" lon="14.9204308"><ele>185.33333333333334</ele><time>2026-04-25T14:06:46.996Z</time></trkpt><trkpt lat="38.517451" lon="14.9203194"><ele>184.16666666666666</ele><time>2026-04-25T14:06:47.997Z</time></trkpt><trkpt lat="38.5174551" lon="14.9202024"><ele>183.0</ele><time>2026-04-25T14:06:48.997Z</time></trkpt><trkpt lat="38.5174638" lon="14.9200862"><ele>185.4</ele><time>2026-04-25T14:06:49.997Z</time></trkpt><trkpt lat="38.5174817" lon="14.9199648"><ele>187.8</ele><time>2026-04-25T14:06:50.997Z</time></trkpt><trkpt lat="38.5175008" lon="14.9198475"><ele>190.2</ele><time>2026-04-25T14:06:51.997Z</time></trkpt><trkpt lat="38.5175212" lon="14.9197275"><ele>192.6</ele><time>2026-04-25T14:06:52.996Z</time></trkpt><trkpt lat="38.5175504" lon="14.9196067"><ele>195.0</ele><time>2026-04-25T14:06:53.997Z</time></trkpt><trkpt lat="38.5175824" lon="14.9194918"><ele>195.0</ele><time>2026-04-25T14:06:54.997Z</time></trkpt><trkpt lat="38.5176053" lon="14.919369"><ele>195.0</ele><time>2026-04-25T14:06:55.997Z</time></trkpt><trkpt lat="38.5176274" lon="14.9192523"><ele>195.0</ele><time>2026-04-25T14:06:56.996Z</time></trkpt><trkpt lat="38.5176437" lon="14.9191329"><ele>195.0</ele><time>2026-04-25T14:06:57.997Z</time></trkpt><trkpt lat="38.5176504" lon="14.9190126"><ele>195.0</ele><time>2026-04-25T14:06:58.997Z</time></trkpt><trkpt lat="38.5176489" lon="14.9188874"><ele>196.8</ele><time>2026-04-25T14:06:59.996Z</time></trkpt><trkpt lat="38.517647" lon="14.9187624"><ele>198.6</ele><time>2026-04-25T14:07:00.996Z</time></trkpt><trkpt lat="38.5176427" lon="14.9186341"><ele>200.39999999999998</ele><time>2026-04-25T14:07:01.996Z</time></trkpt><trkpt lat="38.5176398" lon="14.9185097"><ele>202.2</ele><time>2026-04-25T14:07:02.996Z</time></trkpt><trkpt lat="38.5176383" lon="14.91838"><ele>204.0</ele><time>2026-04-25T14:07:03.996Z</time></trkpt><trkpt lat="38.5176395" lon="14.9182533"><ele>206.39999999999998</ele><time>2026-04-25T14:07:04.997Z</time></trkpt><trkpt lat="38.5176338" lon="14.9181329"><ele>208.8</ele><time>2026-04-25T14:07:05.996Z</time></trkpt><trkpt lat="38.5176258" lon="14.9180101"><ele>211.20000000000002</ele><time>2026-04-25T14:07:06.996Z</time></trkpt><trkpt lat="38.517608" lon="14.9178927"><ele>213.60000000000002</ele><time>2026-04-25T14:07:07.996Z</time></trkpt><trkpt lat="38.5175842" lon="14.9177762"><ele>216.0</ele><time>2026-04-25T14:07:08.997Z</time></trkpt><trkpt lat="38.5175545" lon="14.9176584"><ele>214.0</ele><time>2026-04-25T14:07:09.996Z</time></trkpt><trkpt lat="38.5175232" lon="14.9175421"><ele>212.0</ele><time>2026-04-25T14:07:10.996Z</time></trkpt><trkpt lat="38.5174972" lon="14.9174352"><ele>210.0</ele><time>2026-04-25T14:07:11.997Z</time></trkpt><trkpt lat="38.5174482" lon="14.9173391"><ele>208.0</ele><time>2026-04-25T14:07:12.997Z</time></trkpt><trkpt lat="38.5174019" lon="14.9172488"><ele>206.0</ele><time>2026-04-25T14:07:13.997Z</time></trkpt><trkpt lat="38.5173244" lon="14.9171873"><ele>204.0</ele><time>2026-04-25T14:07:14.996Z</time></trkpt><trkpt lat="38.5172554" lon="14.917129"><ele>204.0</ele><time>2026-04-25T14:07:15.996Z</time></trkpt><trkpt lat="38.5171773" lon="14.9170852"><ele>204.0</ele><time>2026-04-25T14:07:16.997Z</time></trkpt><trkpt lat="38.5170927" lon="14.9170517"><ele>204.0</ele><time>2026-04-25T14:07:17.996Z</time></trkpt><trkpt lat="38.5170103" lon="14.9170244"><ele>204.0</ele><time>2026-04-25T14:07:18.996Z</time></trkpt><trkpt lat="38.5169266" lon="14.916989"><ele>204.0</ele><time>2026-04-25T14:07:19.996Z</time></trkpt><trkpt lat="38.5168491" lon="14.9169421"><ele>204.0</ele><time>2026-04-25T14:07:20.996Z</time></trkpt><trkpt lat="38.5167888" lon="14.9168714"><ele>208.16666666666666</ele><time>2026-04-25T14:07:21.997Z</time></trkpt><trkpt lat="38.5167626" lon="14.9167707"><ele>212.33333333333331</ele><time>2026-04-25T14:07:22.996Z</time></trkpt><trkpt lat="38.5167522" lon="14.9166592"><ele>216.5</ele><time>2026-04-25T14:07:23.996Z</time></trkpt><trkpt lat="38.5167346" lon="14.9165486"><ele>220.66666666666666</ele><time>2026-04-25T14:07:24.996Z</time></trkpt><trkpt lat="38.5167063" lon="14.9164412"><ele>224.83333333333331</ele><time>2026-04-25T14:07:25.996Z</time></trkpt><trkpt lat="38.5166733" lon="14.9163344"><ele>229.0</ele><time>2026-04-25T14:07:26.996Z</time></trkpt><trkpt lat="38.5166341" lon="14.9162341"><ele>228.99999999999997</ele><time>2026-04-25T14:07:27.996Z</time></trkpt><trkpt lat="38.5165847" lon="14.9161436"><ele>229.0</ele><time>2026-04-25T14:07:28.996Z</time></trkpt><trkpt lat="38.5165263" lon="14.9160604"><ele>229.0</ele><time>2026-04-25T14:07:29.997Z</time></trkpt><trkpt lat="38.5164597" lon="14.9159818"><ele>229.0</ele><time>2026-04-25T14:07:30.997Z</time></trkpt><trkpt lat="38.5163926" lon="14.9159064"><ele>228.99999999999997</ele><time>2026-04-25T14:07:31.996Z</time></trkpt><trkpt lat="38.5163249" lon="14.9158366"><ele>229.0</ele><time>2026-04-25T14:07:32.996Z</time></trkpt><trkpt lat="38.5162416" lon="14.915787"><ele>230.2</ele><time>2026-04-25T14:07:33.997Z</time></trkpt><trkpt lat="38.5161578" lon="14.91575"><ele>231.39999999999998</ele><time>2026-04-25T14:07:34.996Z</time></trkpt><trkpt lat="38.5160675" lon="14.9157186"><ele>232.6</ele><time>2026-04-25T14:07:35.997Z</time></trkpt><trkpt lat="38.5159788" lon="14.9156848"><ele>233.8</ele><time>2026-04-25T14:07:36.997Z</time></trkpt><trkpt lat="38.5158897" lon="14.9156569"><ele>235.0</ele><time>2026-04-25T14:07:37.996Z</time></trkpt><trkpt lat="38.5158017" lon="14.9156319"><ele>235.0</ele><time>2026-04-25T14:07:38.996Z</time></trkpt><trkpt lat="38.5157105" lon="14.9156101"><ele>235.0</ele><time>2026-04-25T14:07:39.996Z</time></trkpt><trkpt lat="38.5156202" lon="14.9155891"><ele>235.0</ele><time>2026-04-25T14:07:40.997Z</time></trkpt><trkpt lat="38.515528" lon="14.9155737"><ele>235.0</ele><time>2026-04-25T14:07:41.997Z</time></trkpt><trkpt lat="38.5154343" lon="14.9155623"><ele>235.0</ele><time>2026-04-25T14:07:42.996Z</time></trkpt><trkpt lat="38.5153421" lon="14.9155515"><ele>239.16666666666666</ele><time>2026-04-25T14:07:43.997Z</time></trkpt><trkpt lat="38.5152558" lon="14.9155283"><ele>243.33333333333331</ele><time>2026-04-25T14:07:44.996Z</time></trkpt><trkpt lat="38.5151835" lon="14.9154788"><ele>247.5</ele><time>2026-04-25T14:07:45.997Z</time></trkpt><trkpt lat="38.5151216" lon="14.9154091"><ele>251.66666666666669</ele><time>2026-04-25T14:07:46.996Z</time></trkpt><trkpt lat="38.5150741" lon="14.915321"><ele>255.83333333333334</ele><time>2026-04-25T14:07:47.997Z</time></trkpt><trkpt lat="38.5150371" lon="14.9152145"><ele>260.0</ele><time>2026-04-25T14:07:48.996Z</time></trkpt><trkpt lat="38.5150137" lon="14.9151046"><ele>256.2</ele><time>2026-04-25T14:07:49.997Z</time></trkpt><trkpt lat="38.5149975" lon="14.9149863"><ele>252.4</ele><time>2026-04-25T14:07:50.996Z</time></trkpt><trkpt lat="38.5149836" lon="14.9148677"><ele>248.60000000000002</ele><time>2026-04-25T14:07:51.996Z</time></trkpt><trkpt lat="38.514969" lon="14.9147486"><ele>244.8</ele><time>2026-04-25T14:07:52.996Z</time></trkpt><trkpt lat="38.5149513" lon="14.9146298"><ele>241.0</ele><time>2026-04-25T14:07:53.996Z</time></trkpt><trkpt lat="38.5149202" lon="14.9145254"><ele>241.0</ele><time>2026-04-25T14:07:54.997Z</time></trkpt><trkpt lat="38.5148719" lon="14.9144265"><ele>241.00000000000003</ele><time>2026-04-25T14:07:55.997Z</time></trkpt><trkpt lat="38.5148126" lon="14.914331"><ele>241.00000000000003</ele><time>2026-04-25T14:07:56.996Z</time></trkpt><trkpt lat="38.5147424" lon="14.9142368"><ele>241.0</ele><time>2026-04-25T14:07:57.996Z</time></trkpt><trkpt lat="38.5146667" lon="14.9141537"><ele>241.0</ele><time>2026-04-25T14:07:58.996Z</time></trkpt><trkpt lat="38.5145939" lon="14.9140723"><ele>246.8</ele><time>2026-04-25T14:07:59.997Z</time></trkpt><trkpt lat="38.5145154" lon="14.9139921"><ele>252.60000000000002</ele><time>2026-04-25T14:08:00.996Z</time></trkpt><trkpt lat="38.5144302" lon="14.9139093"><ele>258.4</ele><time>2026-04-25T14:08:01.996Z</time></trkpt><trkpt lat="38.5143437" lon="14.9138332"><ele>264.2</ele><time>2026-04-25T14:08:02.996Z</time></trkpt><trkpt lat="38.5142522" lon="14.9137594"><ele>270.0</ele><time>2026-04-25T14:08:03.997Z</time></trkpt><trkpt lat="38.5141577" lon="14.9136905"><ele>270.0</ele><time>2026-04-25T14:08:04.997Z</time></trkpt><trkpt lat="38.514058" lon="14.9136256"><ele>270.0</ele><time>2026-04-25T14:08:05.997Z</time></trkpt><trkpt lat="38.5139591" lon="14.9135617"><ele>270.0</ele><time>2026-04-25T14:08:06.997Z</time></trkpt><trkpt lat="38.5138669" lon="14.9134974"><ele>270.0</ele><time>2026-04-25T14:08:07.996Z</time></trkpt><trkpt lat="38.5137814" lon="14.9134314"><ele>270.0</ele><time>2026-04-25T14:08:08.997Z</time></trkpt><trkpt lat="38.5137077" lon="14.9133541"><ele>270.0</ele><time>2026-04-25T14:08:09.996Z</time></trkpt><trkpt lat="38.5136491" lon="14.9132626"><ele>270.0</ele><time>2026-04-25T14:08:10.996Z</time></trkpt><trkpt lat="38.5136121" lon="14.9131624"><ele>270.0</ele><time>2026-04-25T14:08:11.997Z</time></trkpt><trkpt lat="38.513601" lon="14.9130616"><ele>270.0</ele><time>2026-04-25T14:08:12.996Z</time></trkpt><trkpt lat="38.5135882" lon="14.9129602"><ele>270.0</ele><time>2026-04-25T14:08:13.997Z</time></trkpt><trkpt lat="38.5135682" lon="14.9128641"><ele>270.0</ele><time>2026-04-25T14:08:14.997Z</time></trkpt><trkpt lat="38.5135364" lon="14.9127899"><ele>270.0</ele><time>2026-04-25T14:08:15.996Z</time></trkpt><trkpt lat="38.5134963" lon="14.91272"><ele>270.0</ele><time>2026-04-25T14:08:16.996Z</time></trkpt><trkpt lat="38.5134419" lon="14.9126674"><ele>270.0</ele><time>2026-04-25T14:08:17.997Z</time></trkpt><trkpt lat="38.5133799" lon="14.9126434"><ele>270.0</ele><time>2026-04-25T14:08:18.996Z</time></trkpt><trkpt lat="38.5133135" lon="14.9126454"><ele>270.0</ele><time>2026-04-25T14:08:19.996Z</time></trkpt><trkpt lat="38.5132365" lon="14.9126731"><ele>270.0</ele><time>2026-04-25T14:08:20.997Z</time></trkpt><trkpt lat="38.5131569" lon="14.9127049"><ele>270.0</ele><time>2026-04-25T14:08:21.997Z</time></trkpt><trkpt lat="38.5130751" lon="14.9127379"><ele>270.0</ele><time>2026-04-25T14:08:22.996Z</time></trkpt><trkpt lat="38.5129868" lon="14.9127736"><ele>270.0</ele><time>2026-04-25T14:08:23.997Z</time></trkpt><trkpt lat="38.5128916" lon="14.9128091"><ele>270.0</ele><time>2026-04-25T14:08:24.996Z</time></trkpt><trkpt lat="38.5127955" lon="14.9128471"><ele>270.0</ele><time>2026-04-25T14:08:25.996Z</time></trkpt><trkpt lat="38.5127017" lon="14.9128897"><ele>270.0</ele><time>2026-04-25T14:08:26.996Z</time></trkpt><trkpt lat="38.5126064" lon="14.9129305"><ele>270.6</ele><time>2026-04-25T14:08:27.997Z</time></trkpt><trkpt lat="38.5125052" lon="14.9129752"><ele>271.2</ele><time>2026-04-25T14:08:28.997Z</time></trkpt><trkpt lat="38.5124082" lon="14.913017"><ele>271.8</ele><time>2026-04-25T14:08:29.996Z</time></trkpt><trkpt lat="38.5123183" lon="14.913055"><ele>272.4</ele><time>2026-04-25T14:08:30.997Z</time></trkpt><trkpt lat="38.5122299" lon="14.9131035"><ele>273.0</ele><time>2026-04-25T14:08:31.996Z</time></trkpt><trkpt lat="38.5121493" lon="14.9131403"><ele>274.6666666666667</ele><time>2026-04-25T14:08:32.996Z</time></trkpt><trkpt lat="38.5120606" lon="14.9131721"><ele>276.3333333333333</ele><time>2026-04-25T14:08:33.997Z</time></trkpt><trkpt lat="38.5119715" lon="14.9132067"><ele>278.0</ele><time>2026-04-25T14:08:34.997Z</time></trkpt><trkpt lat="38.5118886" lon="14.913254"><ele>279.66666666666663</ele><time>2026-04-25T14:08:35.997Z</time></trkpt><trkpt lat="38.5118248" lon="14.9133218"><ele>281.3333333333333</ele><time>2026-04-25T14:08:36.996Z</time></trkpt><trkpt lat="38.5117693" lon="14.9134069"><ele>283.0</ele><time>2026-04-25T14:08:37.996Z</time></trkpt><trkpt lat="38.5117334" lon="14.9135046"><ele>283.0</ele><time>2026-04-25T14:08:38.996Z</time></trkpt><trkpt lat="38.5116962" lon="14.9135954"><ele>283.0</ele><time>2026-04-25T14:08:39.996Z</time></trkpt><trkpt lat="38.5116438" lon="14.9136741"><ele>283.0</ele><time>2026-04-25T14:08:40.996Z</time></trkpt><trkpt lat="38.5115842" lon="14.9137387"><ele>283.0</ele><time>2026-04-25T14:08:41.997Z</time></trkpt><trkpt lat="38.5115096" lon="14.9137836"><ele>283.0</ele><time>2026-04-25T14:08:42.997Z</time></trkpt><trkpt lat="38.5114158" lon="14.9137902"><ele>283.0</ele><time>2026-04-25T14:08:43.996Z</time></trkpt><trkpt lat="38.5113207" lon="14.9137873"><ele>281.2</ele><time>2026-04-25T14:08:44.996Z</time></trkpt><trkpt lat="38.5112184" lon="14.9137883"><ele>279.4</ele><time>2026-04-25T14:08:45.996Z</time></trkpt><trkpt lat="38.5111144" lon="14.9138078"><ele>277.59999999999997</ele><time>2026-04-25T14:08:46.997Z</time></trkpt><trkpt lat="38.5110116" lon="14.9138291"><ele>275.8</ele><time>2026-04-25T14:08:47.996Z</time></trkpt><trkpt lat="38.5109124" lon="14.9138529"><ele>274.0</ele><time>2026-04-25T14:08:48.996Z</time></trkpt><trkpt lat="38.5108157" lon="14.9138878"><ele>274.0</ele><time>2026-04-25T14:08:49.997Z</time></trkpt><trkpt lat="38.5107253" lon="14.9139368"><ele>274.0</ele><time>2026-04-25T14:08:50.996Z</time></trkpt><trkpt lat="38.5106414" lon="14.9139977"><ele>274.0</ele><time>2026-04-25T14:08:51.997Z</time></trkpt><trkpt lat="38.5105601" lon="14.9140639"><ele>274.0</ele><time>2026-04-25T14:08:52.996Z</time></trkpt><trkpt lat="38.5104804" lon="14.9141299"><ele>274.0</ele><time>2026-04-25T14:08:53.996Z</time></trkpt><trkpt lat="38.5104037" lon="14.9141815"><ele>273.16666666666663</ele><time>2026-04-25T14:08:54.996Z</time></trkpt><trkpt lat="38.5103263" lon="14.9142112"><ele>272.3333333333333</ele><time>2026-04-25T14:08:55.996Z</time></trkpt><trkpt lat="38.5102418" lon="14.9142083"><ele>271.5</ele><time>2026-04-25T14:08:56.997Z</time></trkpt><trkpt lat="38.5101601" lon="14.9141668"><ele>270.6666666666667</ele><time>2026-04-25T14:08:57.997Z</time></trkpt><trkpt lat="38.5100843" lon="14.9141138"><ele>269.83333333333337</ele><time>2026-04-25T14:08:58.996Z</time></trkpt><trkpt lat="38.5100069" lon="14.9140554"><ele>269.0</ele><time>2026-04-25T14:08:59.996Z</time></trkpt><trkpt lat="38.5099383" lon="14.9139946"><ele>269.0</ele><time>2026-04-25T14:09:00.996Z</time></trkpt><trkpt lat="38.5098756" lon="14.9139407"><ele>269.0</ele><time>2026-04-25T14:09:01.997Z</time></trkpt><trkpt lat="38.5098161" lon="14.9138919"><ele>269.0</ele><time>2026-04-25T14:09:02.996Z</time></trkpt><trkpt lat="38.5097515" lon="14.9138352"><ele>269.0</ele><time>2026-04-25T14:09:04.996Z</time></trkpt><trkpt lat="38.5096817" lon="14.9137618"><ele>269.0</ele><time>2026-04-25T14:09:06.996Z</time></trkpt><trkpt lat="38.5095783" lon="14.9136786"><ele>269.0</ele><time>2026-04-25T14:09:08.997Z</time></trkpt><trkpt lat="38.5095236" lon="14.9136253"><ele>270.2</ele><time>2026-04-25T14:09:09.997Z</time></trkpt><trkpt lat="38.5094619" lon="14.9135717"><ele>271.4</ele><time>2026-04-25T14:09:10.996Z</time></trkpt><trkpt lat="38.5093928" lon="14.9135084"><ele>272.6</ele><time>2026-04-25T14:09:11.996Z</time></trkpt><trkpt lat="38.5093136" lon="14.9134443"><ele>273.8</ele><time>2026-04-25T14:09:12.996Z</time></trkpt><trkpt lat="38.5092311" lon="14.9133739"><ele>275.0</ele><time>2026-04-25T14:09:13.996Z</time></trkpt><trkpt lat="38.5091383" lon="14.9132866"><ele>275.0</ele><time>2026-04-25T14:09:14.997Z</time></trkpt><trkpt lat="38.5090538" lon="14.9132069"><ele>275.0</ele><time>2026-04-25T14:09:15.996Z</time></trkpt><trkpt lat="38.5089658" lon="14.9131135"><ele>275.0</ele><time>2026-04-25T14:09:16.997Z</time></trkpt><trkpt lat="38.5088816" lon="14.9130235"><ele>275.0</ele><time>2026-04-25T14:09:17.996Z</time></trkpt><trkpt lat="38.5087916" lon="14.9129241"><ele>275.0</ele><time>2026-04-25T14:09:18.996Z</time></trkpt><trkpt lat="38.5087017" lon="14.9128219"><ele>276.25</ele><time>2026-04-25T14:09:19.996Z</time></trkpt><trkpt lat="38.5086161" lon="14.9127219"><ele>277.5</ele><time>2026-04-25T14:09:20.996Z</time></trkpt><trkpt lat="38.508531" lon="14.9126134"><ele>278.75</ele><time>2026-04-25T14:09:21.996Z</time></trkpt><trkpt lat="38.5084492" lon="14.9125031"><ele>280.0</ele><time>2026-04-25T14:09:22.996Z</time></trkpt><trkpt lat="38.5083753" lon="14.9123974"><ele>280.0</ele><time>2026-04-25T14:09:23.996Z</time></trkpt><trkpt lat="38.5083058" lon="14.9122825"><ele>280.0</ele><time>2026-04-25T14:09:24.997Z</time></trkpt><trkpt lat="38.5082495" lon="14.9121704"><ele>280.0</ele><time>2026-04-25T14:09:25.997Z</time></trkpt><trkpt lat="38.5082129" lon="14.9120496"><ele>280.0</ele><time>2026-04-25T14:09:26.996Z</time></trkpt><trkpt lat="38.5081789" lon="14.9119338"><ele>280.0</ele><time>2026-04-25T14:09:27.997Z</time></trkpt><trkpt lat="38.508141" lon="14.9118299"><ele>280.0</ele><time>2026-04-25T14:09:28.997Z</time></trkpt><trkpt lat="38.5080871" lon="14.9117434"><ele>280.0</ele><time>2026-04-25T14:09:29.996Z</time></trkpt><trkpt lat="38.5080235" lon="14.9116702"><ele>280.0</ele><time>2026-04-25T14:09:30.997Z</time></trkpt><trkpt lat="38.5079521" lon="14.9116074"><ele>280.0</ele><time>2026-04-25T14:09:31.996Z</time></trkpt><trkpt lat="38.5078756" lon="14.9115478"><ele>280.0</ele><time>2026-04-25T14:09:32.997Z</time></trkpt><trkpt lat="38.507796" lon="14.911494"><ele>280.0</ele><time>2026-04-25T14:09:33.997Z</time></trkpt><trkpt lat="38.5077083" lon="14.9114507"><ele>280.0</ele><time>2026-04-25T14:09:34.996Z</time></trkpt><trkpt lat="38.5076173" lon="14.9114227"><ele>280.0</ele><time>2026-04-25T14:09:35.996Z</time></trkpt><trkpt lat="38.5075274" lon="14.9114047"><ele>280.0</ele><time>2026-04-25T14:09:36.996Z</time></trkpt><trkpt lat="38.5074424" lon="14.9113953"><ele>280.0</ele><time>2026-04-25T14:09:37.996Z</time></trkpt><trkpt lat="38.5073618" lon="14.9114078"><ele>280.0</ele><time>2026-04-25T14:09:38.997Z</time></trkpt><trkpt lat="38.5072929" lon="14.9114408"><ele>280.0</ele><time>2026-04-25T14:09:39.997Z</time></trkpt><trkpt lat="38.5072366" lon="14.9114979"><ele>280.0</ele><time>2026-04-25T14:09:40.996Z</time></trkpt><trkpt lat="38.5072032" lon="14.9115729"><ele>280.0</ele><time>2026-04-25T14:09:41.997Z</time></trkpt><trkpt lat="38.5071854" lon="14.91166"><ele>280.0</ele><time>2026-04-25T14:09:42.997Z</time></trkpt><trkpt lat="38.5071951" lon="14.9117506"><ele>280.0</ele><time>2026-04-25T14:09:43.996Z</time></trkpt><trkpt lat="38.5072323" lon="14.9118367"><ele>280.0</ele><time>2026-04-25T14:09:44.996Z</time></trkpt><trkpt lat="38.5072804" lon="14.9119122"><ele>280.0</ele><time>2026-04-25T14:09:45.997Z</time></trkpt><trkpt lat="38.5073363" lon="14.9119881"><ele>280.0</ele><time>2026-04-25T14:09:46.996Z</time></trkpt><trkpt lat="38.5073863" lon="14.912075"><ele>280.6</ele><time>2026-04-25T14:09:47.996Z</time></trkpt><trkpt lat="38.5074366" lon="14.9121656"><ele>281.2</ele><time>2026-04-25T14:09:48.997Z</time></trkpt><trkpt lat="38.5074939" lon="14.9122576"><ele>281.8</ele><time>2026-04-25T14:09:49.996Z</time></trkpt><trkpt lat="38.5075548" lon="14.9123609"><ele>282.4</ele><time>2026-04-25T14:09:50.997Z</time></trkpt><trkpt lat="38.5076155" lon="14.9124553"><ele>283.0</ele><time>2026-04-25T14:09:51.996Z</time></trkpt><trkpt lat="38.5076775" lon="14.912552"><ele>282.6</ele><time>2026-04-25T14:09:52.996Z</time></trkpt><trkpt lat="38.5077353" lon="14.9126528"><ele>282.20000000000005</ele><time>2026-04-25T14:09:53.996Z</time></trkpt><trkpt lat="38.5077903" lon="14.9127607"><ele>281.8</ele><time>2026-04-25T14:09:54.996Z</time></trkpt><trkpt lat="38.5078423" lon="14.912864"><ele>281.40000000000003</ele><time>2026-04-25T14:09:55.996Z</time></trkpt><trkpt lat="38.5079036" lon="14.9129676"><ele>281.0</ele><time>2026-04-25T14:09:56.997Z</time></trkpt><trkpt lat="38.5079555" lon="14.9130765"><ele>282.40000000000003</ele><time>2026-04-25T14:09:57.997Z</time></trkpt><trkpt lat="38.5080075" lon="14.9131832"><ele>283.8</ele><time>2026-04-25T14:09:58.996Z</time></trkpt><trkpt lat="38.5080645" lon="14.9132875"><ele>285.20000000000005</ele><time>2026-04-25T14:09:59.997Z</time></trkpt><trkpt lat="38.5081163" lon="14.9133933"><ele>286.6</ele><time>2026-04-25T14:10:00.996Z</time></trkpt><trkpt lat="38.5081774" lon="14.9135006"><ele>288.0</ele><time>2026-04-25T14:10:01.997Z</time></trkpt><trkpt lat="38.5082353" lon="14.9136056"><ele>288.8</ele><time>2026-04-25T14:10:02.996Z</time></trkpt><trkpt lat="38.5082921" lon="14.9137097"><ele>289.6</ele><time>2026-04-25T14:10:03.997Z</time></trkpt><trkpt lat="38.5083491" lon="14.9138117"><ele>290.4</ele><time>2026-04-25T14:10:04.996Z</time></trkpt><trkpt lat="38.508396" lon="14.9139168"><ele>291.2</ele><time>2026-04-25T14:10:05.996Z</time></trkpt><trkpt lat="38.5084366" lon="14.9140247"><ele>292.0</ele><time>2026-04-25T14:10:06.996Z</time></trkpt><trkpt lat="38.5084688" lon="14.9141419"><ele>293.0</ele><time>2026-04-25T14:10:07.996Z</time></trkpt><trkpt lat="38.5084915" lon="14.9142637"><ele>294.0</ele><time>2026-04-25T14:10:08.996Z</time></trkpt><trkpt lat="38.5085072" lon="14.914389"><ele>295.0</ele><time>2026-04-25T14:10:09.997Z</time></trkpt><trkpt lat="38.5085235" lon="14.9145155"><ele>296.0</ele><time>2026-04-25T14:10:10.996Z</time></trkpt><trkpt lat="38.5085418" lon="14.9146414"><ele>297.0</ele><time>2026-04-25T14:10:11.996Z</time></trkpt><trkpt lat="38.5085602" lon="14.914763"><ele>297.0</ele><time>2026-04-25T14:10:12.997Z</time></trkpt><trkpt lat="38.5085727" lon="14.9148814"><ele>297.0</ele><time>2026-04-25T14:10:13.996Z</time></trkpt><trkpt lat="38.508594" lon="14.9149858"><ele>297.0</ele><time>2026-04-25T14:10:14.997Z</time></trkpt><trkpt lat="38.5086209" lon="14.9150934"><ele>297.0</ele><time>2026-04-25T14:10:15.996Z</time></trkpt><trkpt lat="38.508661" lon="14.9151996"><ele>297.0</ele><time>2026-04-25T14:10:16.997Z</time></trkpt><trkpt lat="38.5087112" lon="14.9153032"><ele>300.8</ele><time>2026-04-25T14:10:17.996Z</time></trkpt><trkpt lat="38.5087625" lon="14.9154039"><ele>304.6</ele><time>2026-04-25T14:10:18.997Z</time></trkpt><trkpt lat="38.5088136" lon="14.9155027"><ele>308.40000000000003</ele><time>2026-04-25T14:10:19.996Z</time></trkpt><trkpt lat="38.5088669" lon="14.9156128"><ele>312.2</ele><time>2026-04-25T14:10:20.997Z</time></trkpt><trkpt lat="38.5089087" lon="14.915706"><ele>316.0</ele><time>2026-04-25T14:10:21.997Z</time></trkpt><trkpt lat="38.5089367" lon="14.9158073"><ele>317.66666666666663</ele><time>2026-04-25T14:10:22.997Z</time></trkpt><trkpt lat="38.5089549" lon="14.9159057"><ele>319.3333333333333</ele><time>2026-04-25T14:10:23.996Z</time></trkpt><trkpt lat="38.5089583" lon="14.915999"><ele>321.0</ele><time>2026-04-25T14:10:24.996Z</time></trkpt><trkpt lat="38.508949" lon="14.9161016"><ele>322.6666666666667</ele><time>2026-04-25T14:10:25.997Z</time></trkpt><trkpt lat="38.5089286" lon="14.9161995"><ele>324.33333333333337</ele><time>2026-04-25T14:10:26.996Z</time></trkpt><trkpt lat="38.5088837" lon="14.9162953"><ele>326.0</ele><time>2026-04-25T14:10:27.996Z</time></trkpt><trkpt lat="38.5088332" lon="14.9163801"><ele>326.0</ele><time>2026-04-25T14:10:28.996Z</time></trkpt><trkpt lat="38.5087636" lon="14.9164466"><ele>326.0</ele><time>2026-04-25T14:10:29.997Z</time></trkpt><trkpt lat="38.5086891" lon="14.9164989"><ele>326.0</ele><time>2026-04-25T14:10:30.997Z</time></trkpt><trkpt lat="38.508605" lon="14.9165336"><ele>326.0</ele><time>2026-04-25T14:10:31.996Z</time></trkpt><trkpt lat="38.508512" lon="14.9165528"><ele>326.0</ele><time>2026-04-25T14:10:32.996Z</time></trkpt><trkpt lat="38.5084187" lon="14.9165655"><ele>326.0</ele><time>2026-04-25T14:10:33.996Z</time></trkpt><trkpt lat="38.5083188" lon="14.9165661"><ele>324.83333333333337</ele><time>2026-04-25T14:10:34.997Z</time></trkpt><trkpt lat="38.5082195" lon="14.9165675"><ele>323.6666666666667</ele><time>2026-04-25T14:10:35.996Z</time></trkpt><trkpt lat="38.508127" lon="14.9165812"><ele>322.5</ele><time>2026-04-25T14:10:36.996Z</time></trkpt><trkpt lat="38.5080521" lon="14.9166115"><ele>321.3333333333333</ele><time>2026-04-25T14:10:37.996Z</time></trkpt><trkpt lat="38.5079811" lon="14.916668"><ele>320.16666666666663</ele><time>2026-04-25T14:10:38.997Z</time></trkpt><trkpt lat="38.5079206" lon="14.9167341"><ele>319.0</ele><time>2026-04-25T14:10:39.997Z</time></trkpt><trkpt lat="38.5078544" lon="14.9167945"><ele>319.0</ele><time>2026-04-25T14:10:40.996Z</time></trkpt><trkpt lat="38.5077853" lon="14.9168643"><ele>319.0</ele><time>2026-04-25T14:10:41.996Z</time></trkpt><trkpt lat="38.5077152" lon="14.9169355"><ele>319.0</ele><time>2026-04-25T14:10:42.997Z</time></trkpt><trkpt lat="38.5076516" lon="14.9170081"><ele>319.0</ele><time>2026-04-25T14:10:43.996Z</time></trkpt><trkpt lat="38.5075862" lon="14.9170833"><ele>319.0</ele><time>2026-04-25T14:10:44.996Z</time></trkpt><trkpt lat="38.507516" lon="14.9171602"><ele>319.0</ele><time>2026-04-25T14:10:45.997Z</time></trkpt><trkpt lat="38.50745" lon="14.917223"><ele>319.0</ele><time>2026-04-25T14:10:46.997Z</time></trkpt><trkpt lat="38.5073869" lon="14.9172929"><ele>319.0</ele><time>2026-04-25T14:10:47.996Z</time></trkpt><trkpt lat="38.5073322" lon="14.9173575"><ele>319.0</ele><time>2026-04-25T14:10:48.997Z</time></trkpt><trkpt lat="38.5072988" lon="14.9174324"><ele>319.0</ele><time>2026-04-25T14:10:49.996Z</time></trkpt><trkpt lat="38.5072933" lon="14.9175153"><ele>319.0</ele><time>2026-04-25T14:10:50.996Z</time></trkpt><trkpt lat="38.5073535" lon="14.9176427"><ele>319.0</ele><time>2026-04-25T14:10:52.997Z</time></trkpt><trkpt lat="38.507406" lon="14.9176915"><ele>319.0</ele><time>2026-04-25T14:10:53.997Z</time></trkpt><trkpt lat="38.5074712" lon="14.9176798"><ele>319.0</ele><time>2026-04-25T14:10:54.996Z</time></trkpt><trkpt lat="38.5075456" lon="14.9176711"><ele>319.0</ele><time>2026-04-25T14:10:55.997Z</time></trkpt><trkpt lat="38.5076268" lon="14.917636"><ele>319.0</ele><time>2026-04-25T14:10:56.996Z</time></trkpt><trkpt lat="38.5077046" lon="14.9176049"><ele>319.0</ele><time>2026-04-25T14:10:57.996Z</time></trkpt><trkpt lat="38.5077895" lon="14.9175671"><ele>319.0</ele><time>2026-04-25T14:10:58.997Z</time></trkpt><trkpt lat="38.5078754" lon="14.9175585"><ele>321.2</ele><time>2026-04-25T14:10:59.996Z</time></trkpt><trkpt lat="38.5079632" lon="14.9175585"><ele>323.4</ele><time>2026-04-25T14:11:00.996Z</time></trkpt><trkpt lat="38.5080486" lon="14.917568"><ele>325.6</ele><time>2026-04-25T14:11:01.997Z</time></trkpt><trkpt lat="38.508141" lon="14.9175807"><ele>327.8</ele><time>2026-04-25T14:11:02.997Z</time></trkpt><trkpt lat="38.5082317" lon="14.9175919"><ele>330.0</ele><time>2026-04-25T14:11:03.997Z</time></trkpt><trkpt lat="38.5083368" lon="14.917609"><ele>333.6666666666667</ele><time>2026-04-25T14:11:04.996Z</time></trkpt><trkpt lat="38.5084253" lon="14.9176229"><ele>337.3333333333333</ele><time>2026-04-25T14:11:05.996Z</time></trkpt><trkpt lat="38.5085043" lon="14.9176309"><ele>341.0</ele><time>2026-04-25T14:11:06.996Z</time></trkpt><trkpt lat="38.5085808" lon="14.9176421"><ele>344.66666666666663</ele><time>2026-04-25T14:11:07.996Z</time></trkpt><trkpt lat="38.5086556" lon="14.9176389"><ele>348.3333333333333</ele><time>2026-04-25T14:11:08.997Z</time></trkpt><trkpt lat="38.5087276" lon="14.9176146"><ele>352.0</ele><time>2026-04-25T14:11:09.997Z</time></trkpt><trkpt lat="38.5088062" lon="14.9175787"><ele>353.20000000000005</ele><time>2026-04-25T14:11:10.996Z</time></trkpt><trkpt lat="38.5088609" lon="14.9175347"><ele>354.4</ele><time>2026-04-25T14:11:11.996Z</time></trkpt><trkpt lat="38.5089202" lon="14.9174906"><ele>355.6</ele><time>2026-04-25T14:11:12.997Z</time></trkpt><trkpt lat="38.5090313" lon="14.9175095"><ele>356.79999999999995</ele><time>2026-04-25T14:11:14.996Z</time></trkpt><trkpt lat="38.5090684" lon="14.9176389"><ele>358.0</ele><time>2026-04-25T14:11:16.996Z</time></trkpt><trkpt lat="38.5089945" lon="14.9177642"><ele>358.0</ele><time>2026-04-25T14:11:18.996Z</time></trkpt><trkpt lat="38.5089334" lon="14.9178206"><ele>358.0</ele><time>2026-04-25T14:11:19.996Z</time></trkpt><trkpt lat="38.5088613" lon="14.917873"><ele>358.0</ele><time>2026-04-25T14:11:20.997Z</time></trkpt><trkpt lat="38.5087807" lon="14.9179207"><ele>358.0</ele><time>2026-04-25T14:11:21.996Z</time></trkpt><trkpt lat="38.5086976" lon="14.917952"><ele>358.0</ele><time>2026-04-25T14:11:22.996Z</time></trkpt><trkpt lat="38.5086163" lon="14.9179874"><ele>358.0</ele><time>2026-04-25T14:11:23.996Z</time></trkpt><trkpt lat="38.5085311" lon="14.9180325"><ele>357.0</ele><time>2026-04-25T14:11:24.996Z</time></trkpt><trkpt lat="38.5084459" lon="14.9180587"><ele>356.0</ele><time>2026-04-25T14:11:25.997Z</time></trkpt><trkpt lat="38.5083655" lon="14.9181002"><ele>355.0</ele><time>2026-04-25T14:11:26.997Z</time></trkpt><trkpt lat="38.5082808" lon="14.9181586"><ele>354.0</ele><time>2026-04-25T14:11:27.996Z</time></trkpt><trkpt lat="38.5082014" lon="14.9182089"><ele>353.0</ele><time>2026-04-25T14:11:28.996Z</time></trkpt><trkpt lat="38.5081207" lon="14.9182551"><ele>352.0</ele><time>2026-04-25T14:11:29.996Z</time></trkpt><trkpt lat="38.5080438" lon="14.9183034"><ele>352.0</ele><time>2026-04-25T14:11:30.996Z</time></trkpt><trkpt lat="38.5079657" lon="14.9183503"><ele>352.0</ele><time>2026-04-25T14:11:31.997Z</time></trkpt><trkpt lat="38.5078896" lon="14.9184023"><ele>352.0</ele><time>2026-04-25T14:11:32.997Z</time></trkpt><trkpt lat="38.5078273" lon="14.918467"><ele>352.0</ele><time>2026-04-25T14:11:33.996Z</time></trkpt><trkpt lat="38.507783" lon="14.9185346"><ele>352.0</ele><time>2026-04-25T14:11:34.997Z</time></trkpt><trkpt lat="38.5077574" lon="14.9186214"><ele>352.0</ele><time>2026-04-25T14:11:35.997Z</time></trkpt><trkpt lat="38.5077542" lon="14.9187252"><ele>351.42857142857144</ele><time>2026-04-25T14:11:36.997Z</time></trkpt><trkpt lat="38.5077614" lon="14.9188303"><ele>350.85714285714283</ele><time>2026-04-25T14:11:37.997Z</time></trkpt><trkpt lat="38.5077792" lon="14.9189296"><ele>350.2857142857143</ele><time>2026-04-25T14:11:38.997Z</time></trkpt><trkpt lat="38.5077936" lon="14.9190269"><ele>349.7142857142857</ele><time>2026-04-25T14:11:39.996Z</time></trkpt><trkpt lat="38.5077987" lon="14.919121"><ele>349.14285714285717</ele><time>2026-04-25T14:11:40.997Z</time></trkpt><trkpt lat="38.507785" lon="14.9192066"><ele>348.57142857142856</ele><time>2026-04-25T14:11:41.996Z</time></trkpt><trkpt lat="38.5077606" lon="14.9192815"><ele>348.0</ele><time>2026-04-25T14:11:42.996Z</time></trkpt><trkpt lat="38.5076982" lon="14.9193766"><ele>351.0</ele><time>2026-04-25T14:11:44.997Z</time></trkpt><trkpt lat="38.5076665" lon="14.9194583"><ele>354.0</ele><time>2026-04-25T14:11:46.996Z</time></trkpt><trkpt lat="38.5077148" lon="14.9195234"><ele>357.0</ele><time>2026-04-25T14:11:49.997Z</time></trkpt><trkpt lat="38.5077907" lon="14.9194775"><ele>360.0</ele><time>2026-04-25T14:11:51.997Z</time></trkpt><trkpt lat="38.5078898" lon="14.9194089"><ele>363.0</ele><time>2026-04-25T14:11:53.996Z</time></trkpt><trkpt lat="38.5079537" lon="14.9194059"><ele>366.0</ele><time>2026-04-25T14:11:54.997Z</time></trkpt><trkpt lat="38.5080204" lon="14.9194198"><ele>368.14285714285717</ele><time>2026-04-25T14:11:55.996Z</time></trkpt><trkpt lat="38.5080837" lon="14.9194182"><ele>370.28571428571433</ele><time>2026-04-25T14:11:56.996Z</time></trkpt><trkpt lat="38.5081525" lon="14.9194059"><ele>372.42857142857144</ele><time>2026-04-25T14:11:57.996Z</time></trkpt><trkpt lat="38.5082213" lon="14.9193925"><ele>374.57142857142856</ele><time>2026-04-25T14:11:58.996Z</time></trkpt><trkpt lat="38.5082909" lon="14.9193564"><ele>376.7142857142857</ele><time>2026-04-25T14:11:59.997Z</time></trkpt><trkpt lat="38.5083665" lon="14.9193335"><ele>378.85714285714283</ele><time>2026-04-25T14:12:00.996Z</time></trkpt><trkpt lat="38.5084472" lon="14.9193242"><ele>381.0</ele><time>2026-04-25T14:12:01.996Z</time></trkpt><trkpt lat="38.5085342" lon="14.919319"><ele>381.0</ele><time>2026-04-25T14:12:02.996Z</time></trkpt><trkpt lat="38.5086259" lon="14.9193136"><ele>381.0</ele><time>2026-04-25T14:12:03.996Z</time></trkpt><trkpt lat="38.5087152" lon="14.9193023"><ele>381.0</ele><time>2026-04-25T14:12:04.997Z</time></trkpt><trkpt lat="38.5088133" lon="14.9192857"><ele>381.0</ele><time>2026-04-25T14:12:05.997Z</time></trkpt><trkpt lat="38.5089117" lon="14.9192577"><ele>381.0</ele><time>2026-04-25T14:12:06.996Z</time></trkpt><trkpt lat="38.5090071" lon="14.9192312"><ele>380.1666666666667</ele><time>2026-04-25T14:12:07.996Z</time></trkpt><trkpt lat="38.509102" lon="14.9192118"><ele>379.3333333333333</ele><time>2026-04-25T14:12:08.997Z</time></trkpt><trkpt lat="38.5091934" lon="14.9191973"><ele>378.5</ele><time>2026-04-25T14:12:09.997Z</time></trkpt><trkpt lat="38.5092779" lon="14.9191945"><ele>377.66666666666663</ele><time>2026-04-25T14:12:10.997Z</time></trkpt><trkpt lat="38.5093574" lon="14.9192136"><ele>376.8333333333333</ele><time>2026-04-25T14:12:11.996Z</time></trkpt><trkpt lat="38.5094328" lon="14.9192476"><ele>376.0</ele><time>2026-04-25T14:12:12.996Z</time></trkpt><trkpt lat="38.509513" lon="14.919292"><ele>378.0</ele><time>2026-04-25T14:12:13.996Z</time></trkpt><trkpt lat="38.5095874" lon="14.9193457"><ele>380.0</ele><time>2026-04-25T14:12:14.996Z</time></trkpt><trkpt lat="38.5096625" lon="14.919404"><ele>382.0</ele><time>2026-04-25T14:12:15.996Z</time></trkpt><trkpt lat="38.5097399" lon="14.9194708"><ele>384.0</ele><time>2026-04-25T14:12:16.996Z</time></trkpt><trkpt lat="38.5098151" lon="14.9195345"><ele>386.0</ele><time>2026-04-25T14:12:17.997Z</time></trkpt><trkpt lat="38.5098965" lon="14.919605"><ele>386.0</ele><time>2026-04-25T14:12:18.997Z</time></trkpt><trkpt lat="38.5099764" lon="14.9196713"><ele>386.0</ele><time>2026-04-25T14:12:19.997Z</time></trkpt><trkpt lat="38.5100559" lon="14.9197309"><ele>386.0</ele><time>2026-04-25T14:12:20.997Z</time></trkpt><trkpt lat="38.5101307" lon="14.9197795"><ele>386.0</ele><time>2026-04-25T14:12:21.996Z</time></trkpt><trkpt lat="38.5102191" lon="14.9198303"><ele>386.0</ele><time>2026-04-25T14:12:22.996Z</time></trkpt><trkpt lat="38.5102989" lon="14.9198767"><ele>386.0</ele><time>2026-04-25T14:12:23.997Z</time></trkpt><trkpt lat="38.5103684" lon="14.9199356"><ele>386.0</ele><time>2026-04-25T14:12:24.997Z</time></trkpt><trkpt lat="38.5104293" lon="14.9199794"><ele>386.0</ele><time>2026-04-25T14:12:25.996Z</time></trkpt><trkpt lat="38.5105311" lon="14.9200415"><ele>386.0</ele><time>2026-04-25T14:12:27.996Z</time></trkpt><trkpt lat="38.5106143" lon="14.9200623"><ele>386.0</ele><time>2026-04-25T14:12:29.996Z</time></trkpt><trkpt lat="38.510713" lon="14.9200765"><ele>384.0</ele><time>2026-04-25T14:12:31.997Z</time></trkpt><trkpt lat="38.5108303" lon="14.9200637"><ele>382.0</ele><time>2026-04-25T14:12:33.996Z</time></trkpt><trkpt lat="38.510919" lon="14.9200617"><ele>380.0</ele><time>2026-04-25T14:12:35.997Z</time></trkpt><trkpt lat="38.5109892" lon="14.9200545"><ele>378.0</ele><time>2026-04-25T14:12:37.996Z</time></trkpt><trkpt lat="38.5110492" lon="14.9199804"><ele>376.0</ele><time>2026-04-25T14:12:39.996Z</time></trkpt><trkpt lat="38.511088" lon="14.9198679"><ele>376.0</ele><time>2026-04-25T14:12:41.996Z</time></trkpt><trkpt lat="38.5111377" lon="14.9197484"><ele>376.0</ele><time>2026-04-25T14:12:43.997Z</time></trkpt><trkpt lat="38.5111749" lon="14.9196442"><ele>376.0</ele><time>2026-04-25T14:12:45.997Z</time></trkpt><trkpt lat="38.5112243" lon="14.9195663"><ele>376.0</ele><time>2026-04-25T14:12:47.996Z</time></trkpt><trkpt lat="38.5113125" lon="14.9195221"><ele>376.0</ele><time>2026-04-25T14:12:49.997Z</time></trkpt><trkpt lat="38.5114122" lon="14.9195276"><ele>375.0</ele><time>2026-04-25T14:12:51.996Z</time></trkpt><trkpt lat="38.5115229" lon="14.9195424"><ele>374.0</ele><time>2026-04-25T14:12:53.997Z</time></trkpt><trkpt lat="38.511641" lon="14.9195598"><ele>373.0</ele><time>2026-04-25T14:12:55.996Z</time></trkpt><trkpt lat="38.5117573" lon="14.9195695"><ele>372.0</ele><time>2026-04-25T14:12:57.997Z</time></trkpt><trkpt lat="38.5118803" lon="14.9195739"><ele>372.0</ele><time>2026-04-25T14:12:59.996Z</time></trkpt><trkpt lat="38.5120002" lon="14.9195783"><ele>372.0</ele><time>2026-04-25T14:13:01.997Z</time></trkpt><trkpt lat="38.5120684" lon="14.9195656"><ele>372.0</ele><time>2026-04-25T14:13:02.996Z</time></trkpt><trkpt lat="38.5121803" lon="14.9195568"><ele>372.0</ele><time>2026-04-25T14:13:04.996Z</time></trkpt><trkpt lat="38.5122804" lon="14.9195468"><ele>372.0</ele><time>2026-04-25T14:13:06.997Z</time></trkpt><trkpt lat="38.5123889" lon="14.9195496"><ele>370.6666666666667</ele><time>2026-04-25T14:13:08.996Z</time></trkpt><trkpt lat="38.5124867" lon="14.9195598"><ele>369.3333333333333</ele><time>2026-04-25T14:13:10.996Z</time></trkpt><trkpt lat="38.5125677" lon="14.9195781"><ele>368.0</ele><time>2026-04-25T14:13:12.997Z</time></trkpt><trkpt lat="38.5126484" lon="14.9195947"><ele>366.66666666666663</ele><time>2026-04-25T14:13:15.996Z</time></trkpt><trkpt lat="38.5127084" lon="14.9196197"><ele>365.3333333333333</ele><time>2026-04-25T14:13:18.996Z</time></trkpt><trkpt lat="38.512807" lon="14.9195389"><ele>364.0</ele><time>2026-04-25T14:13:42.997Z</time></trkpt><trkpt lat="38.5128591" lon="14.9194717"><ele>361.8333333333333</ele><time>2026-04-25T14:13:43.997Z</time></trkpt><trkpt lat="38.5129107" lon="14.9194152"><ele>359.66666666666663</ele><time>2026-04-25T14:13:44.997Z</time></trkpt><trkpt lat="38.5130016" lon="14.9192905"><ele>357.5</ele><time>2026-04-25T14:13:46.996Z</time></trkpt><trkpt lat="38.5130593" lon="14.9192355"><ele>355.3333333333333</ele><time>2026-04-25T14:13:47.997Z</time></trkpt><trkpt lat="38.5131177" lon="14.9191824"><ele>353.1666666666667</ele><time>2026-04-25T14:13:48.997Z</time></trkpt><trkpt lat="38.5131737" lon="14.9191415"><ele>351.0</ele><time>2026-04-25T14:13:49.997Z</time></trkpt><trkpt lat="38.5132434" lon="14.9191004"><ele>351.0</ele><time>2026-04-25T14:13:50.996Z</time></trkpt><trkpt lat="38.5133086" lon="14.9190708"><ele>351.0</ele><time>2026-04-25T14:13:51.996Z</time></trkpt><trkpt lat="38.5133842" lon="14.9190416"><ele>351.0</ele><time>2026-04-25T14:13:52.997Z</time></trkpt><trkpt lat="38.5134548" lon="14.9190084"><ele>351.0</ele><time>2026-04-25T14:13:53.997Z</time></trkpt><trkpt lat="38.5135251" lon="14.9189734"><ele>351.0</ele><time>2026-04-25T14:13:54.996Z</time></trkpt><trkpt lat="38.5135993" lon="14.9189428"><ele>351.0</ele><time>2026-04-25T14:13:55.997Z</time></trkpt><trkpt lat="38.5136751" lon="14.9189028"><ele>349.6666666666667</ele><time>2026-04-25T14:13:56.997Z</time></trkpt><trkpt lat="38.5137534" lon="14.9188542"><ele>348.3333333333333</ele><time>2026-04-25T14:13:57.997Z</time></trkpt><trkpt lat="38.5138246" lon="14.9188113"><ele>347.0</ele><time>2026-04-25T14:13:58.997Z</time></trkpt><trkpt lat="38.5138975" lon="14.9187659"><ele>345.66666666666663</ele><time>2026-04-25T14:13:59.997Z</time></trkpt><trkpt lat="38.5139674" lon="14.9187282"><ele>344.3333333333333</ele><time>2026-04-25T14:14:00.996Z</time></trkpt><trkpt lat="38.5140321" lon="14.9186822"><ele>343.0</ele><time>2026-04-25T14:14:01.997Z</time></trkpt><trkpt lat="38.5140998" lon="14.9186312"><ele>343.0</ele><time>2026-04-25T14:14:02.996Z</time></trkpt><trkpt lat="38.5142006" lon="14.9185518"><ele>343.0</ele><time>2026-04-25T14:14:04.996Z</time></trkpt><trkpt lat="38.5142629" lon="14.9185267"><ele>343.0</ele><time>2026-04-25T14:14:05.996Z</time></trkpt><trkpt lat="38.5143749" lon="14.9184703"><ele>343.0</ele><time>2026-04-25T14:14:07.997Z</time></trkpt><trkpt lat="38.5144713" lon="14.9184285"><ele>343.0</ele><time>2026-04-25T14:14:09.996Z</time></trkpt><trkpt lat="38.5145631" lon="14.9183677"><ele>343.16666666666663</ele><time>2026-04-25T14:14:11.997Z</time></trkpt><trkpt lat="38.5146396" lon="14.9183399"><ele>343.3333333333333</ele><time>2026-04-25T14:14:13.996Z</time></trkpt><trkpt lat="38.5147142" lon="14.918416"><ele>343.5</ele><time>2026-04-25T14:14:16.996Z</time></trkpt><trkpt lat="38.5147591" lon="14.9184959"><ele>343.6666666666667</ele><time>2026-04-25T14:14:18.997Z</time></trkpt><trkpt lat="38.5148306" lon="14.9185081"><ele>343.83333333333337</ele><time>2026-04-25T14:14:20.996Z</time></trkpt><trkpt lat="38.5148824" lon="14.9184145"><ele>344.0</ele><time>2026-04-25T14:14:23.997Z</time></trkpt><trkpt lat="38.514874" lon="14.9183286"><ele>344.00000000000006</ele><time>2026-04-25T14:16:11.996Z</time></trkpt><trkpt lat="38.51487" lon="14.9182475"><ele>344.0</ele><time>2026-04-25T14:16:20.996Z</time></trkpt><trkpt lat="38.5148762" lon="14.9181641"><ele>344.0</ele><time>2026-04-25T14:16:30.996Z</time></trkpt><trkpt lat="38.5148621" lon="14.9180783"><ele>344.0</ele><time>2026-04-25T14:16:36.996Z</time></trkpt><trkpt lat="38.5148746" lon="14.9179904"><ele>344.0</ele><time>2026-04-25T14:16:44.019Z</time></trkpt><trkpt lat="38.514936" lon="14.9180365"><ele>344.00000000000006</ele><time>2026-04-25T14:18:40.996Z</time></trkpt><trkpt lat="38.5149811" lon="14.9180987"><ele>344.0</ele><time>2026-04-25T14:18:47.96Z</time></trkpt><trkpt lat="38.5150405" lon="14.9180598"><ele>344.0</ele><time>2026-04-25T14:18:51.996Z</time></trkpt><trkpt lat="38.5150943" lon="14.9181075"><ele>344.0</ele><time>2026-04-25T14:19:24.976Z</time></trkpt><trkpt lat="38.5150158" lon="14.9180259"><ele>344.0</ele><time>2026-04-25T14:21:05.964Z</time></trkpt><trkpt lat="38.514954" lon="14.9180055"><ele>344.0</ele><time>2026-04-25T14:21:11.997Z</time></trkpt><trkpt lat="38.5148917" lon="14.917985"><ele>344.0</ele><time>2026-04-25T14:21:18.997Z</time></trkpt></trkseg><trkseg><trkpt lat="38.514825" lon="14.9182728"><ele>344.0</ele><time>2026-04-25T14:46:24.006Z</time></trkpt><trkpt lat="38.5147228" lon="14.9182722"><ele>344.0</ele><time>2026-04-25T14:46:25.985Z</time></trkpt><trkpt lat="38.5146454" lon="14.9182694"><ele>344.0</ele><time>2026-04-25T14:46:27.986Z</time></trkpt><trkpt lat="38.5145875" lon="14.918356"><ele>344.0</ele><time>2026-04-25T14:46:28.985Z</time></trkpt><trkpt lat="38.5145127" lon="14.9183919"><ele>344.0</ele><time>2026-04-25T14:46:30.985Z</time></trkpt><trkpt lat="38.514422" lon="14.9184445"><ele>344.0</ele><time>2026-04-25T14:46:32.986Z</time></trkpt><trkpt lat="38.5143337" lon="14.9184995"><ele>343.83333333333337</ele><time>2026-04-25T14:46:34.986Z</time></trkpt><trkpt lat="38.5142324" lon="14.9185529"><ele>343.6666666666667</ele><time>2026-04-25T14:46:36.986Z</time></trkpt><trkpt lat="38.5141752" lon="14.9185894"><ele>343.5</ele><time>2026-04-25T14:46:37.985Z</time></trkpt><trkpt lat="38.5140714" lon="14.9186646"><ele>343.3333333333333</ele><time>2026-04-25T14:46:39.986Z</time></trkpt><trkpt lat="38.5140083" lon="14.9187053"><ele>343.16666666666663</ele><time>2026-04-25T14:46:40.986Z</time></trkpt><trkpt lat="38.5139485" lon="14.9187452"><ele>343.0</ele><time>2026-04-25T14:46:41.986Z</time></trkpt><trkpt lat="38.5138909" lon="14.9187807"><ele>343.0</ele><time>2026-04-25T14:46:42.985Z</time></trkpt><trkpt lat="38.5137847" lon="14.9188412"><ele>343.0</ele><time>2026-04-25T14:46:44.986Z</time></trkpt><trkpt lat="38.5136705" lon="14.9189014"><ele>343.0</ele><time>2026-04-25T14:46:46.986Z</time></trkpt><trkpt lat="38.5135546" lon="14.9189301"><ele>343.0</ele><time>2026-04-25T14:46:48.986Z</time></trkpt><trkpt lat="38.5134367" lon="14.9189855"><ele>344.16666666666663</ele><time>2026-04-25T14:46:50.985Z</time></trkpt><trkpt lat="38.5133762" lon="14.9190173"><ele>345.3333333333333</ele><time>2026-04-25T14:46:51.985Z</time></trkpt><trkpt lat="38.5133114" lon="14.9190487"><ele>346.5</ele><time>2026-04-25T14:46:52.986Z</time></trkpt><trkpt lat="38.5132523" lon="14.9190789"><ele>347.6666666666667</ele><time>2026-04-25T14:46:53.986Z</time></trkpt><trkpt lat="38.5131429" lon="14.91916"><ele>348.83333333333337</ele><time>2026-04-25T14:46:55.985Z</time></trkpt><trkpt lat="38.5130892" lon="14.9192072"><ele>350.0</ele><time>2026-04-25T14:46:56.986Z</time></trkpt><trkpt lat="38.5130391" lon="14.9192641"><ele>350.0</ele><time>2026-04-25T14:46:57.986Z</time></trkpt><trkpt lat="38.5129992" lon="14.9193266"><ele>350.0</ele><time>2026-04-25T14:46:58.986Z</time></trkpt><trkpt lat="38.5129229" lon="14.9194312"><ele>350.0</ele><time>2026-04-25T14:47:00.985Z</time></trkpt><trkpt lat="38.5128628" lon="14.9195049"><ele>350.0</ele><time>2026-04-25T14:47:02.986Z</time></trkpt><trkpt lat="38.5128082" lon="14.919565"><ele>350.0</ele><time>2026-04-25T14:47:04.986Z</time></trkpt><trkpt lat="38.5127428" lon="14.91959"><ele>350.0</ele><time>2026-04-25T14:47:06.985Z</time></trkpt><trkpt lat="38.5126609" lon="14.919589"><ele>352.8</ele><time>2026-04-25T14:47:39.985Z</time></trkpt><trkpt lat="38.5125723" lon="14.9195622"><ele>355.6</ele><time>2026-04-25T14:47:41.985Z</time></trkpt><trkpt lat="38.512461" lon="14.919534"><ele>358.4</ele><time>2026-04-25T14:47:43.986Z</time></trkpt><trkpt lat="38.5123603" lon="14.9195164"><ele>361.2</ele><time>2026-04-25T14:47:45.985Z</time></trkpt><trkpt lat="38.5122476" lon="14.9195105"><ele>364.0</ele><time>2026-04-25T14:47:47.985Z</time></trkpt><trkpt lat="38.5121248" lon="14.9195259"><ele>365.3333333333333</ele><time>2026-04-25T14:47:49.986Z</time></trkpt><trkpt lat="38.5119993" lon="14.9195439"><ele>366.66666666666663</ele><time>2026-04-25T14:47:51.985Z</time></trkpt><trkpt lat="38.5119347" lon="14.9195454"><ele>368.0</ele><time>2026-04-25T14:47:52.985Z</time></trkpt><trkpt lat="38.5118119" lon="14.9195433"><ele>369.3333333333333</ele><time>2026-04-25T14:47:54.985Z</time></trkpt><trkpt lat="38.5117478" lon="14.919536"><ele>370.6666666666667</ele><time>2026-04-25T14:47:55.986Z</time></trkpt><trkpt lat="38.5116845" lon="14.9195282"><ele>372.0</ele><time>2026-04-25T14:47:56.985Z</time></trkpt><trkpt lat="38.5116209" lon="14.9195225"><ele>372.0</ele><time>2026-04-25T14:47:57.986Z</time></trkpt><trkpt lat="38.5115073" lon="14.9195091"><ele>372.0</ele><time>2026-04-25T14:47:59.986Z</time></trkpt><trkpt lat="38.5114144" lon="14.9194995"><ele>372.0</ele><time>2026-04-25T14:48:01.986Z</time></trkpt><trkpt lat="38.5113294" lon="14.9195049"><ele>372.0</ele><time>2026-04-25T14:48:03.986Z</time></trkpt><trkpt lat="38.5112511" lon="14.9195231"><ele>372.0</ele><time>2026-04-25T14:48:05.985Z</time></trkpt><trkpt lat="38.5111958" lon="14.9195768"><ele>372.0</ele><time>2026-04-25T14:48:07.985Z</time></trkpt><trkpt lat="38.5111369" lon="14.9196706"><ele>372.8</ele><time>2026-04-25T14:48:09.986Z</time></trkpt><trkpt lat="38.5111045" lon="14.9197414"><ele>373.6</ele><time>2026-04-25T14:48:10.985Z</time></trkpt><trkpt lat="38.5110667" lon="14.9198783"><ele>374.40000000000003</ele><time>2026-04-25T14:48:12.986Z</time></trkpt><trkpt lat="38.5110209" lon="14.9199739"><ele>375.20000000000005</ele><time>2026-04-25T14:48:14.985Z</time></trkpt><trkpt lat="38.5109311" lon="14.9200151"><ele>376.0</ele><time>2026-04-25T14:48:16.986Z</time></trkpt><trkpt lat="38.5108172" lon="14.9200305"><ele>376.0</ele><time>2026-04-25T14:48:18.985Z</time></trkpt><trkpt lat="38.510753" lon="14.9200411"><ele>376.0</ele><time>2026-04-25T14:48:19.986Z</time></trkpt><trkpt lat="38.510688" lon="14.9200416"><ele>376.0</ele><time>2026-04-25T14:48:20.985Z</time></trkpt><trkpt lat="38.5105608" lon="14.9200056"><ele>376.0</ele><time>2026-04-25T14:48:22.985Z</time></trkpt><trkpt lat="38.5104914" lon="14.9199703"><ele>376.0</ele><time>2026-04-25T14:48:23.985Z</time></trkpt><trkpt lat="38.5104227" lon="14.9199274"><ele>376.0</ele><time>2026-04-25T14:48:24.986Z</time></trkpt><trkpt lat="38.5103586" lon="14.9198832"><ele>377.66666666666663</ele><time>2026-04-25T14:48:25.985Z</time></trkpt><trkpt lat="38.5102888" lon="14.9198404"><ele>379.3333333333333</ele><time>2026-04-25T14:48:26.986Z</time></trkpt><trkpt lat="38.5102206" lon="14.9197903"><ele>381.0</ele><time>2026-04-25T14:48:27.986Z</time></trkpt><trkpt lat="38.5101429" lon="14.9197367"><ele>382.66666666666663</ele><time>2026-04-25T14:48:28.986Z</time></trkpt><trkpt lat="38.5100768" lon="14.9196861"><ele>384.3333333333333</ele><time>2026-04-25T14:48:29.986Z</time></trkpt><trkpt lat="38.5099946" lon="14.9196195"><ele>386.0</ele><time>2026-04-25T14:48:30.986Z</time></trkpt><trkpt lat="38.5099164" lon="14.9195588"><ele>385.99999999999994</ele><time>2026-04-25T14:48:31.985Z</time></trkpt><trkpt lat="38.5098423" lon="14.9194931"><ele>386.0</ele><time>2026-04-25T14:48:32.985Z</time></trkpt><trkpt lat="38.5097665" lon="14.9194305"><ele>386.0</ele><time>2026-04-25T14:48:33.985Z</time></trkpt><trkpt lat="38.5096927" lon="14.9193773"><ele>386.0</ele><time>2026-04-25T14:48:34.986Z</time></trkpt><trkpt lat="38.5096192" lon="14.9193216"><ele>385.99999999999994</ele><time>2026-04-25T14:48:35.985Z</time></trkpt><trkpt lat="38.5095486" lon="14.9192667"><ele>386.0</ele><time>2026-04-25T14:48:36.985Z</time></trkpt><trkpt lat="38.5094845" lon="14.9192134"><ele>384.3333333333333</ele><time>2026-04-25T14:48:37.985Z</time></trkpt><trkpt lat="38.5094125" lon="14.9191763"><ele>382.66666666666663</ele><time>2026-04-25T14:48:38.986Z</time></trkpt><trkpt lat="38.5093343" lon="14.9191551"><ele>381.0</ele><time>2026-04-25T14:48:39.985Z</time></trkpt><trkpt lat="38.5092579" lon="14.9191452"><ele>379.3333333333333</ele><time>2026-04-25T14:48:40.985Z</time></trkpt><trkpt lat="38.5091796" lon="14.9191533"><ele>377.66666666666663</ele><time>2026-04-25T14:48:41.986Z</time></trkpt><trkpt lat="38.5090975" lon="14.9191682"><ele>376.0</ele><time>2026-04-25T14:48:42.985Z</time></trkpt><trkpt lat="38.5090245" lon="14.9191858"><ele>376.0</ele><time>2026-04-25T14:48:43.986Z</time></trkpt><trkpt lat="38.5089481" lon="14.9192046"><ele>376.0</ele><time>2026-04-25T14:48:44.986Z</time></trkpt><trkpt lat="38.5088713" lon="14.9192214"><ele>376.0</ele><time>2026-04-25T14:48:45.986Z</time></trkpt><trkpt lat="38.508792" lon="14.9192362"><ele>376.0</ele><time>2026-04-25T14:48:46.985Z</time></trkpt><trkpt lat="38.5087121" lon="14.9192471"><ele>376.0</ele><time>2026-04-25T14:48:47.986Z</time></trkpt><trkpt lat="38.5086288" lon="14.9192582"><ele>376.0</ele><time>2026-04-25T14:48:48.985Z</time></trkpt><trkpt lat="38.5085465" lon="14.9192609"><ele>376.8333333333333</ele><time>2026-04-25T14:48:49.985Z</time></trkpt><trkpt lat="38.5084611" lon="14.9192708"><ele>377.66666666666663</ele><time>2026-04-25T14:48:50.986Z</time></trkpt><trkpt lat="38.508378" lon="14.9192865"><ele>378.5</ele><time>2026-04-25T14:48:51.986Z</time></trkpt><trkpt lat="38.5083023" lon="14.9193058"><ele>379.3333333333333</ele><time>2026-04-25T14:48:52.986Z</time></trkpt><trkpt lat="38.5082274" lon="14.9193346"><ele>380.1666666666667</ele><time>2026-04-25T14:48:53.985Z</time></trkpt><trkpt lat="38.5081604" lon="14.9193617"><ele>381.0</ele><time>2026-04-25T14:48:54.986Z</time></trkpt><trkpt lat="38.5080933" lon="14.9193702"><ele>381.0</ele><time>2026-04-25T14:48:55.986Z</time></trkpt><trkpt lat="38.5080261" lon="14.919362"><ele>381.0</ele><time>2026-04-25T14:48:56.985Z</time></trkpt><trkpt lat="38.507958" lon="14.9193561"><ele>381.0</ele><time>2026-04-25T14:48:57.985Z</time></trkpt><trkpt lat="38.5078912" lon="14.9193646"><ele>381.0</ele><time>2026-04-25T14:48:58.985Z</time></trkpt><trkpt lat="38.5078319" lon="14.9193947"><ele>381.0</ele><time>2026-04-25T14:48:59.986Z</time></trkpt><trkpt lat="38.5077345" lon="14.9194548"><ele>381.0</ele><time>2026-04-25T14:49:01.985Z</time></trkpt><trkpt lat="38.5076721" lon="14.9194779"><ele>381.0</ele><time>2026-04-25T14:49:03.985Z</time></trkpt><trkpt lat="38.5075873" lon="14.9195215"><ele>378.0</ele><time>2026-04-25T14:49:06.986Z</time></trkpt><trkpt lat="38.5074834" lon="14.9195853"><ele>375.0</ele><time>2026-04-25T14:49:08.986Z</time></trkpt><trkpt lat="38.5073751" lon="14.9196896"><ele>372.0</ele><time>2026-04-25T14:49:10.985Z</time></trkpt><trkpt lat="38.5073063" lon="14.9197451"><ele>369.0</ele><time>2026-04-25T14:49:11.985Z</time></trkpt><trkpt lat="38.5072373" lon="14.9198048"><ele>366.0</ele><time>2026-04-25T14:49:12.986Z</time></trkpt><trkpt lat="38.507157" lon="14.9198782"><ele>367.6</ele><time>2026-04-25T14:49:13.985Z</time></trkpt><trkpt lat="38.5070711" lon="14.919957"><ele>369.20000000000005</ele><time>2026-04-25T14:49:14.985Z</time></trkpt><trkpt lat="38.5069913" lon="14.9200337"><ele>370.79999999999995</ele><time>2026-04-25T14:49:15.986Z</time></trkpt><trkpt lat="38.5069129" lon="14.9201008"><ele>372.4</ele><time>2026-04-25T14:49:16.985Z</time></trkpt><trkpt lat="38.5068301" lon="14.9201697"><ele>374.0</ele><time>2026-04-25T14:49:17.986Z</time></trkpt><trkpt lat="38.5067527" lon="14.9202336"><ele>374.0</ele><time>2026-04-25T14:49:18.986Z</time></trkpt><trkpt lat="38.5066721" lon="14.9203117"><ele>374.0</ele><time>2026-04-25T14:49:19.986Z</time></trkpt><trkpt lat="38.5065846" lon="14.9203885"><ele>374.0</ele><time>2026-04-25T14:49:20.986Z</time></trkpt><trkpt lat="38.5064981" lon="14.9204614"><ele>374.0</ele><time>2026-04-25T14:49:21.985Z</time></trkpt><trkpt lat="38.5064151" lon="14.9205373"><ele>374.0</ele><time>2026-04-25T14:49:22.986Z</time></trkpt><trkpt lat="38.5063315" lon="14.9205995"><ele>374.0</ele><time>2026-04-25T14:49:23.985Z</time></trkpt><trkpt lat="38.5062532" lon="14.9206732"><ele>374.0</ele><time>2026-04-25T14:49:24.985Z</time></trkpt><trkpt lat="38.5061716" lon="14.9207477"><ele>374.0</ele><time>2026-04-25T14:49:25.986Z</time></trkpt><trkpt lat="38.5060845" lon="14.92082"><ele>374.0</ele><time>2026-04-25T14:49:26.985Z</time></trkpt><trkpt lat="38.5060046" lon="14.9208901"><ele>374.0</ele><time>2026-04-25T14:49:27.985Z</time></trkpt><trkpt lat="38.5059221" lon="14.9209601"><ele>375.83333333333337</ele><time>2026-04-25T14:49:28.986Z</time></trkpt><trkpt lat="38.5058415" lon="14.9210301"><ele>377.6666666666667</ele><time>2026-04-25T14:49:29.985Z</time></trkpt><trkpt lat="38.5057644" lon="14.9210959"><ele>379.5</ele><time>2026-04-25T14:49:30.986Z</time></trkpt><trkpt lat="38.5056891" lon="14.92116"><ele>381.33333333333337</ele><time>2026-04-25T14:49:31.985Z</time></trkpt><trkpt lat="38.5056139" lon="14.921214"><ele>383.1666666666667</ele><time>2026-04-25T14:49:32.986Z</time></trkpt><trkpt lat="38.5055456" lon="14.9212612"><ele>385.0</ele><time>2026-04-25T14:49:33.985Z</time></trkpt><trkpt lat="38.5054717" lon="14.9213066"><ele>383.0</ele><time>2026-04-25T14:49:34.986Z</time></trkpt><trkpt lat="38.5054006" lon="14.9213374"><ele>381.0</ele><time>2026-04-25T14:49:35.985Z</time></trkpt><trkpt lat="38.5052954" lon="14.9213517"><ele>379.0</ele><time>2026-04-25T14:49:36.985Z</time></trkpt><trkpt lat="38.5052162" lon="14.9213476"><ele>377.0</ele><time>2026-04-25T14:49:37.986Z</time></trkpt><trkpt lat="38.5051118" lon="14.921353"><ele>375.0</ele><time>2026-04-25T14:49:38.986Z</time></trkpt><trkpt lat="38.5050101" lon="14.9213592"><ele>375.0</ele><time>2026-04-25T14:49:39.985Z</time></trkpt><trkpt lat="38.5049076" lon="14.921371"><ele>375.0</ele><time>2026-04-25T14:49:40.985Z</time></trkpt><trkpt lat="38.5048117" lon="14.921365"><ele>375.0</ele><time>2026-04-25T14:49:41.985Z</time></trkpt><trkpt lat="38.5047186" lon="14.9213638"><ele>375.0</ele><time>2026-04-25T14:49:42.985Z</time></trkpt><trkpt lat="38.504621" lon="14.9213587"><ele>375.0</ele><time>2026-04-25T14:49:43.985Z</time></trkpt><trkpt lat="38.5045389" lon="14.9213134"><ele>375.4</ele><time>2026-04-25T14:49:44.986Z</time></trkpt><trkpt lat="38.5044483" lon="14.9212799"><ele>375.8</ele><time>2026-04-25T14:49:45.985Z</time></trkpt><trkpt lat="38.5043539" lon="14.9212411"><ele>376.20000000000005</ele><time>2026-04-25T14:49:46.985Z</time></trkpt><trkpt lat="38.5042636" lon="14.9212011"><ele>376.6</ele><time>2026-04-25T14:49:47.986Z</time></trkpt><trkpt lat="38.5041649" lon="14.9211646"><ele>377.0</ele><time>2026-04-25T14:49:48.986Z</time></trkpt><trkpt lat="38.5040655" lon="14.9211153"><ele>377.0</ele><time>2026-04-25T14:49:49.985Z</time></trkpt><trkpt lat="38.5039679" lon="14.9210726"><ele>377.0</ele><time>2026-04-25T14:49:50.985Z</time></trkpt><trkpt lat="38.5038804" lon="14.9210287"><ele>377.0</ele><time>2026-04-25T14:49:51.985Z</time></trkpt><trkpt lat="38.5037864" lon="14.9210199"><ele>377.0</ele><time>2026-04-25T14:49:52.986Z</time></trkpt><trkpt lat="38.5036796" lon="14.9210388"><ele>377.0</ele><time>2026-04-25T14:49:53.986Z</time></trkpt><trkpt lat="38.5035791" lon="14.9210644"><ele>375.0</ele><time>2026-04-25T14:49:54.986Z</time></trkpt><trkpt lat="38.5034848" lon="14.9210859"><ele>373.0</ele><time>2026-04-25T14:49:55.985Z</time></trkpt><trkpt lat="38.5033896" lon="14.9211145"><ele>371.0</ele><time>2026-04-25T14:49:56.986Z</time></trkpt><trkpt lat="38.5033013" lon="14.9211554"><ele>369.0</ele><time>2026-04-25T14:49:57.986Z</time></trkpt><trkpt lat="38.5032166" lon="14.9212049"><ele>367.0</ele><time>2026-04-25T14:49:58.985Z</time></trkpt><trkpt lat="38.5031324" lon="14.921264"><ele>367.0</ele><time>2026-04-25T14:49:59.986Z</time></trkpt><trkpt lat="38.5030772" lon="14.9213597"><ele>367.0</ele><time>2026-04-25T14:50:00.985Z</time></trkpt><trkpt lat="38.5030177" lon="14.9214593"><ele>367.0</ele><time>2026-04-25T14:50:01.985Z</time></trkpt><trkpt lat="38.5029586" lon="14.9215547"><ele>367.0</ele><time>2026-04-25T14:50:02.986Z</time></trkpt><trkpt lat="38.5028991" lon="14.9216406"><ele>367.0</ele><time>2026-04-25T14:50:03.985Z</time></trkpt><trkpt lat="38.5028323" lon="14.9217074"><ele>368.40000000000003</ele><time>2026-04-25T14:50:04.985Z</time></trkpt><trkpt lat="38.5027548" lon="14.9217609"><ele>369.8</ele><time>2026-04-25T14:50:05.986Z</time></trkpt><trkpt lat="38.5026635" lon="14.921739"><ele>371.2</ele><time>2026-04-25T14:50:06.985Z</time></trkpt><trkpt lat="38.5025802" lon="14.9217247"><ele>372.6</ele><time>2026-04-25T14:50:07.985Z</time></trkpt><trkpt lat="38.5025024" lon="14.9216491"><ele>374.0</ele><time>2026-04-25T14:50:08.985Z</time></trkpt><trkpt lat="38.5024383" lon="14.9215585"><ele>374.79999999999995</ele><time>2026-04-25T14:50:09.985Z</time></trkpt><trkpt lat="38.5023574" lon="14.9214855"><ele>375.59999999999997</ele><time>2026-04-25T14:50:10.985Z</time></trkpt><trkpt lat="38.5022761" lon="14.9214056"><ele>376.4</ele><time>2026-04-25T14:50:11.985Z</time></trkpt><trkpt lat="38.5021918" lon="14.9213221"><ele>377.2</ele><time>2026-04-25T14:50:12.986Z</time></trkpt><trkpt lat="38.50211" lon="14.9212397"><ele>378.0</ele><time>2026-04-25T14:50:13.986Z</time></trkpt><trkpt lat="38.5020297" lon="14.9211706"><ele>378.0</ele><time>2026-04-25T14:50:14.985Z</time></trkpt><trkpt lat="38.5019433" lon="14.9210988"><ele>378.0</ele><time>2026-04-25T14:50:15.986Z</time></trkpt><trkpt lat="38.501865" lon="14.9210249"><ele>378.0</ele><time>2026-04-25T14:50:16.985Z</time></trkpt><trkpt lat="38.5017859" lon="14.9209371"><ele>378.0</ele><time>2026-04-25T14:50:17.985Z</time></trkpt><trkpt lat="38.5017094" lon="14.9208493"><ele>378.0</ele><time>2026-04-25T14:50:18.985Z</time></trkpt><trkpt lat="38.5016388" lon="14.9207612"><ele>378.0</ele><time>2026-04-25T14:50:19.985Z</time></trkpt><trkpt lat="38.5015667" lon="14.9206775"><ele>378.0</ele><time>2026-04-25T14:50:20.985Z</time></trkpt><trkpt lat="38.5014949" lon="14.9206013"><ele>378.0</ele><time>2026-04-25T14:50:21.985Z</time></trkpt><trkpt lat="38.5014328" lon="14.9205658"><ele>378.0</ele><time>2026-04-25T14:50:22.985Z</time></trkpt><trkpt lat="38.5013595" lon="14.9205379"><ele>378.0</ele><time>2026-04-25T14:50:23.985Z</time></trkpt><trkpt lat="38.5012806" lon="14.9205072"><ele>378.0</ele><time>2026-04-25T14:50:24.986Z</time></trkpt><trkpt lat="38.501201" lon="14.9204774"><ele>378.0</ele><time>2026-04-25T14:50:25.985Z</time></trkpt><trkpt lat="38.501115" lon="14.9204588"><ele>378.0</ele><time>2026-04-25T14:50:26.985Z</time></trkpt><trkpt lat="38.5010172" lon="14.9204448"><ele>378.0</ele><time>2026-04-25T14:50:27.985Z</time></trkpt><trkpt lat="38.5009222" lon="14.9204321"><ele>378.0</ele><time>2026-04-25T14:50:28.985Z</time></trkpt><trkpt lat="38.5008147" lon="14.9204151"><ele>378.0</ele><time>2026-04-25T14:50:29.986Z</time></trkpt><trkpt lat="38.5007179" lon="14.9203797"><ele>378.0</ele><time>2026-04-25T14:50:30.985Z</time></trkpt><trkpt lat="38.5006171" lon="14.9203627"><ele>378.0</ele><time>2026-04-25T14:50:31.985Z</time></trkpt><trkpt lat="38.5005233" lon="14.9203405"><ele>378.0</ele><time>2026-04-25T14:50:32.986Z</time></trkpt><trkpt lat="38.5004396" lon="14.9203021"><ele>378.0</ele><time>2026-04-25T14:50:33.985Z</time></trkpt><trkpt lat="38.5003533" lon="14.9202697"><ele>378.0</ele><time>2026-04-25T14:50:34.986Z</time></trkpt><trkpt lat="38.5002739" lon="14.9202358"><ele>376.8333333333333</ele><time>2026-04-25T14:50:35.986Z</time></trkpt><trkpt lat="38.5001968" lon="14.9201989"><ele>375.6666666666667</ele><time>2026-04-25T14:50:36.986Z</time></trkpt><trkpt lat="38.5001219" lon="14.9201566"><ele>374.5</ele><time>2026-04-25T14:50:37.986Z</time></trkpt><trkpt lat="38.5000482" lon="14.9201016"><ele>373.33333333333337</ele><time>2026-04-25T14:50:38.986Z</time></trkpt><trkpt lat="38.4999702" lon="14.9200548"><ele>372.1666666666667</ele><time>2026-04-25T14:50:39.986Z</time></trkpt><trkpt lat="38.4998865" lon="14.9200103"><ele>371.0</ele><time>2026-04-25T14:50:40.985Z</time></trkpt><trkpt lat="38.4998028" lon="14.919969"><ele>371.0</ele><time>2026-04-25T14:50:41.985Z</time></trkpt><trkpt lat="38.4997219" lon="14.9199388"><ele>371.0</ele><time>2026-04-25T14:50:42.986Z</time></trkpt><trkpt lat="38.4996478" lon="14.9199152"><ele>371.0</ele><time>2026-04-25T14:50:43.985Z</time></trkpt><trkpt lat="38.4995771" lon="14.9199017"><ele>371.0</ele><time>2026-04-25T14:50:44.985Z</time></trkpt><trkpt lat="38.4994675" lon="14.9198874"><ele>371.0</ele><time>2026-04-25T14:50:46.986Z</time></trkpt><trkpt lat="38.4993974" lon="14.9198755"><ele>371.0</ele><time>2026-04-25T14:50:48.985Z</time></trkpt><trkpt lat="38.499347" lon="14.9198199"><ele>371.6666666666667</ele><time>2026-04-25T14:52:30.986Z</time></trkpt><trkpt lat="38.4994083" lon="14.9198441"><ele>372.33333333333337</ele><time>2026-04-25T14:55:43.985Z</time></trkpt><trkpt lat="38.4993462" lon="14.9198155"><ele>373.0</ele><time>2026-04-25T15:15:31.985Z</time></trkpt><trkpt lat="38.4992776" lon="14.9198585"><ele>373.6666666666667</ele><time>2026-04-25T15:17:24.985Z</time></trkpt><trkpt lat="38.4991656" lon="14.919833"><ele>374.3333333333333</ele><time>2026-04-25T15:17:26.985Z</time></trkpt><trkpt lat="38.4990931" lon="14.9198146"><ele>375.0</ele><time>2026-04-25T15:17:27.986Z</time></trkpt><trkpt lat="38.4990271" lon="14.9198103"><ele>375.0</ele><time>2026-04-25T15:17:28.986Z</time></trkpt><trkpt lat="38.4989597" lon="14.9198151"><ele>375.0</ele><time>2026-04-25T15:17:29.985Z</time></trkpt><trkpt lat="38.4988366" lon="14.9198543"><ele>375.0</ele><time>2026-04-25T15:17:31.986Z</time></trkpt><trkpt lat="38.4987721" lon="14.919883"><ele>375.0</ele><time>2026-04-25T15:17:32.986Z</time></trkpt><trkpt lat="38.4987063" lon="14.919918"><ele>375.0</ele><time>2026-04-25T15:17:33.985Z</time></trkpt><trkpt lat="38.4986338" lon="14.9199472"><ele>375.0</ele><time>2026-04-25T15:17:34.985Z</time></trkpt><trkpt lat="38.4985583" lon="14.9199735"><ele>374.5</ele><time>2026-04-25T15:17:35.985Z</time></trkpt><trkpt lat="38.4984839" lon="14.9199998"><ele>374.0</ele><time>2026-04-25T15:17:36.986Z</time></trkpt><trkpt lat="38.4984144" lon="14.9200129"><ele>373.5</ele><time>2026-04-25T15:17:37.985Z</time></trkpt><trkpt lat="38.4983359" lon="14.9200456"><ele>373.0</ele><time>2026-04-25T15:17:38.985Z</time></trkpt><trkpt lat="38.4982685" lon="14.9200703"><ele>372.5</ele><time>2026-04-25T15:17:39.985Z</time></trkpt><trkpt lat="38.4982015" lon="14.9200838"><ele>372.0</ele><time>2026-04-25T15:17:40.985Z</time></trkpt><trkpt lat="38.498082" lon="14.9200663"><ele>372.0</ele><time>2026-04-25T15:17:42.985Z</time></trkpt><trkpt lat="38.4979987" lon="14.9199767"><ele>372.0</ele><time>2026-04-25T15:17:44.985Z</time></trkpt><trkpt lat="38.4979954" lon="14.9198888"><ele>372.0</ele><time>2026-04-25T15:17:45.986Z</time></trkpt><trkpt lat="38.4980148" lon="14.9198085"><ele>372.0</ele><time>2026-04-25T15:17:46.985Z</time></trkpt><trkpt lat="38.4980418" lon="14.9197312"><ele>372.0</ele><time>2026-04-25T15:17:47.985Z</time></trkpt><trkpt lat="38.4980761" lon="14.9196452"><ele>372.0</ele><time>2026-04-25T15:17:48.986Z</time></trkpt><trkpt lat="38.4981114" lon="14.9195522"><ele>372.0</ele><time>2026-04-25T15:17:49.985Z</time></trkpt><trkpt lat="38.4981306" lon="14.9194512"><ele>372.0</ele><time>2026-04-25T15:17:50.985Z</time></trkpt><trkpt lat="38.4981502" lon="14.9193479"><ele>372.0</ele><time>2026-04-25T15:17:51.986Z</time></trkpt><trkpt lat="38.4981723" lon="14.9192386"><ele>372.0</ele><time>2026-04-25T15:17:52.985Z</time></trkpt><trkpt lat="38.4981812" lon="14.919137"><ele>372.0</ele><time>2026-04-25T15:17:53.986Z</time></trkpt><trkpt lat="38.498182" lon="14.9190468"><ele>372.0</ele><time>2026-04-25T15:17:54.986Z</time></trkpt><trkpt lat="38.498156" lon="14.9189575"><ele>371.8333333333333</ele><time>2026-04-25T15:17:55.985Z</time></trkpt><trkpt lat="38.4981145" lon="14.9188742"><ele>371.6666666666667</ele><time>2026-04-25T15:17:56.986Z</time></trkpt><trkpt lat="38.4980616" lon="14.9187995"><ele>371.5</ele><time>2026-04-25T15:17:57.986Z</time></trkpt><trkpt lat="38.4979953" lon="14.9187318"><ele>371.33333333333337</ele><time>2026-04-25T15:17:58.986Z</time></trkpt><trkpt lat="38.4979181" lon="14.9187039"><ele>371.1666666666667</ele><time>2026-04-25T15:17:59.986Z</time></trkpt><trkpt lat="38.4978392" lon="14.9186831"><ele>371.0</ele><time>2026-04-25T15:18:00.985Z</time></trkpt><trkpt lat="38.4977508" lon="14.9186983"><ele>373.6</ele><time>2026-04-25T15:18:01.985Z</time></trkpt><trkpt lat="38.4976611" lon="14.9187283"><ele>376.20000000000005</ele><time>2026-04-25T15:18:02.985Z</time></trkpt><trkpt lat="38.4975675" lon="14.9187611"><ele>378.79999999999995</ele><time>2026-04-25T15:18:03.986Z</time></trkpt><trkpt lat="38.4974703" lon="14.9187954"><ele>381.4</ele><time>2026-04-25T15:18:04.986Z</time></trkpt><trkpt lat="38.4973738" lon="14.9188315"><ele>384.0</ele><time>2026-04-25T15:18:05.986Z</time></trkpt><trkpt lat="38.4972724" lon="14.9188656"><ele>384.0</ele><time>2026-04-25T15:18:06.985Z</time></trkpt><trkpt lat="38.4971629" lon="14.9189098"><ele>384.0</ele><time>2026-04-25T15:18:07.986Z</time></trkpt><trkpt lat="38.4970536" lon="14.9189543"><ele>384.0</ele><time>2026-04-25T15:18:08.986Z</time></trkpt><trkpt lat="38.4969503" lon="14.9189944"><ele>384.0</ele><time>2026-04-25T15:18:09.985Z</time></trkpt><trkpt lat="38.4968442" lon="14.9190286"><ele>384.0</ele><time>2026-04-25T15:18:10.986Z</time></trkpt><trkpt lat="38.4967348" lon="14.9190688"><ele>385.25</ele><time>2026-04-25T15:18:11.986Z</time></trkpt><trkpt lat="38.4966258" lon="14.919108"><ele>386.5</ele><time>2026-04-25T15:18:12.986Z</time></trkpt><trkpt lat="38.4965161" lon="14.9191494"><ele>387.75</ele><time>2026-04-25T15:18:13.985Z</time></trkpt><trkpt lat="38.4964051" lon="14.9191899"><ele>389.0</ele><time>2026-04-25T15:18:14.985Z</time></trkpt><trkpt lat="38.4962952" lon="14.9192316"><ele>390.25</ele><time>2026-04-25T15:18:15.985Z</time></trkpt><trkpt lat="38.496183" lon="14.9192763"><ele>391.5</ele><time>2026-04-25T15:18:16.985Z</time></trkpt><trkpt lat="38.4960751" lon="14.9193238"><ele>392.75</ele><time>2026-04-25T15:18:17.986Z</time></trkpt><trkpt lat="38.4959722" lon="14.9193867"><ele>394.0</ele><time>2026-04-25T15:18:18.985Z</time></trkpt><trkpt lat="38.4958656" lon="14.9194561"><ele>394.0</ele><time>2026-04-25T15:18:19.986Z</time></trkpt><trkpt lat="38.4957554" lon="14.9195216"><ele>394.0</ele><time>2026-04-25T15:18:20.986Z</time></trkpt><trkpt lat="38.4956465" lon="14.9195888"><ele>394.0</ele><time>2026-04-25T15:18:21.986Z</time></trkpt><trkpt lat="38.4955444" lon="14.9196509"><ele>394.0</ele><time>2026-04-25T15:18:22.986Z</time></trkpt><trkpt lat="38.4954426" lon="14.9197165"><ele>394.6</ele><time>2026-04-25T15:18:23.986Z</time></trkpt><trkpt lat="38.4953408" lon="14.9197781"><ele>395.2</ele><time>2026-04-25T15:18:24.986Z</time></trkpt><trkpt lat="38.4952393" lon="14.9198467"><ele>395.8</ele><time>2026-04-25T15:18:25.985Z</time></trkpt><trkpt lat="38.4951407" lon="14.9199201"><ele>396.40000000000003</ele><time>2026-04-25T15:18:26.986Z</time></trkpt><trkpt lat="38.4950451" lon="14.9199827"><ele>397.0</ele><time>2026-04-25T15:18:27.985Z</time></trkpt><trkpt lat="38.4949389" lon="14.9200485"><ele>396.75</ele><time>2026-04-25T15:18:28.985Z</time></trkpt><trkpt lat="38.4948368" lon="14.920114"><ele>396.5</ele><time>2026-04-25T15:18:29.986Z</time></trkpt><trkpt lat="38.4947288" lon="14.9201789"><ele>396.25</ele><time>2026-04-25T15:18:30.986Z</time></trkpt><trkpt lat="38.4946287" lon="14.9202497"><ele>396.0</ele><time>2026-04-25T15:18:31.985Z</time></trkpt><trkpt lat="38.4945227" lon="14.9203133"><ele>398.0</ele><time>2026-04-25T15:18:32.986Z</time></trkpt><trkpt lat="38.494412" lon="14.9203755"><ele>400.0</ele><time>2026-04-25T15:18:33.985Z</time></trkpt><trkpt lat="38.4942996" lon="14.920436"><ele>402.0</ele><time>2026-04-25T15:18:34.985Z</time></trkpt><trkpt lat="38.4941945" lon="14.9204966"><ele>404.0</ele><time>2026-04-25T15:18:35.986Z</time></trkpt><trkpt lat="38.4940859" lon="14.920557"><ele>404.0</ele><time>2026-04-25T15:18:36.986Z</time></trkpt><trkpt lat="38.4939838" lon="14.9206188"><ele>404.0</ele><time>2026-04-25T15:18:37.985Z</time></trkpt><trkpt lat="38.4938765" lon="14.9206799"><ele>404.0</ele><time>2026-04-25T15:18:38.985Z</time></trkpt><trkpt lat="38.493763" lon="14.9207412"><ele>404.0</ele><time>2026-04-25T15:18:39.986Z</time></trkpt><trkpt lat="38.493656" lon="14.9207986"><ele>405.0</ele><time>2026-04-25T15:18:40.985Z</time></trkpt><trkpt lat="38.4935466" lon="14.9208594"><ele>406.0</ele><time>2026-04-25T15:18:41.985Z</time></trkpt><trkpt lat="38.4934395" lon="14.9209221"><ele>407.0</ele><time>2026-04-25T15:18:42.986Z</time></trkpt><trkpt lat="38.4933341" lon="14.9209816"><ele>408.0</ele><time>2026-04-25T15:18:43.986Z</time></trkpt><trkpt lat="38.4932242" lon="14.9210424"><ele>409.0</ele><time>2026-04-25T15:18:44.986Z</time></trkpt><trkpt lat="38.4931144" lon="14.9211015"><ele>410.0</ele><time>2026-04-25T15:18:45.985Z</time></trkpt><trkpt lat="38.4930075" lon="14.9211597"><ele>411.0</ele><time>2026-04-25T15:18:46.986Z</time></trkpt><trkpt lat="38.4928974" lon="14.9212122"><ele>412.0</ele><time>2026-04-25T15:18:47.986Z</time></trkpt><trkpt lat="38.4927913" lon="14.9212729"><ele>413.25</ele><time>2026-04-25T15:18:48.985Z</time></trkpt><trkpt lat="38.492685" lon="14.9213292"><ele>414.5</ele><time>2026-04-25T15:18:49.985Z</time></trkpt><trkpt lat="38.4925836" lon="14.9213869"><ele>415.75</ele><time>2026-04-25T15:18:50.985Z</time></trkpt><trkpt lat="38.4924803" lon="14.921445"><ele>417.0</ele><time>2026-04-25T15:18:51.986Z</time></trkpt><trkpt lat="38.4923742" lon="14.9215021"><ele>417.0</ele><time>2026-04-25T15:18:52.985Z</time></trkpt><trkpt lat="38.4922729" lon="14.9215579"><ele>417.0</ele><time>2026-04-25T15:18:53.985Z</time></trkpt><trkpt lat="38.4921727" lon="14.9216103"><ele>417.0</ele><time>2026-04-25T15:18:54.985Z</time></trkpt><trkpt lat="38.4920712" lon="14.9216453"><ele>417.0</ele><time>2026-04-25T15:18:55.986Z</time></trkpt><trkpt lat="38.4919715" lon="14.9216459"><ele>417.0</ele><time>2026-04-25T15:18:56.986Z</time></trkpt><trkpt lat="38.4918731" lon="14.9216229"><ele>417.8</ele><time>2026-04-25T15:18:57.986Z</time></trkpt><trkpt lat="38.4917722" lon="14.9215802"><ele>418.6</ele><time>2026-04-25T15:18:58.986Z</time></trkpt><trkpt lat="38.4916694" lon="14.9215393"><ele>419.40000000000003</ele><time>2026-04-25T15:18:59.985Z</time></trkpt><trkpt lat="38.4915655" lon="14.9215027"><ele>420.20000000000005</ele><time>2026-04-25T15:19:00.986Z</time></trkpt><trkpt lat="38.4914543" lon="14.9214632"><ele>421.0</ele><time>2026-04-25T15:19:01.986Z</time></trkpt><trkpt lat="38.4913403" lon="14.9214146"><ele>422.0</ele><time>2026-04-25T15:19:02.985Z</time></trkpt><trkpt lat="38.49123" lon="14.9213679"><ele>423.0</ele><time>2026-04-25T15:19:03.985Z</time></trkpt><trkpt lat="38.4911118" lon="14.9213141"><ele>424.0</ele><time>2026-04-25T15:19:04.985Z</time></trkpt><trkpt lat="38.490996" lon="14.9212657"><ele>425.0</ele><time>2026-04-25T15:19:05.986Z</time></trkpt><trkpt lat="38.4908769" lon="14.9212187"><ele>425.0</ele><time>2026-04-25T15:19:06.985Z</time></trkpt><trkpt lat="38.4907611" lon="14.921169"><ele>425.0</ele><time>2026-04-25T15:19:07.986Z</time></trkpt><trkpt lat="38.4906445" lon="14.9211245"><ele>425.0</ele><time>2026-04-25T15:19:08.985Z</time></trkpt><trkpt lat="38.490534" lon="14.9210792"><ele>425.0</ele><time>2026-04-25T15:19:09.986Z</time></trkpt><trkpt lat="38.4904194" lon="14.9210338"><ele>425.66666666666663</ele><time>2026-04-25T15:19:10.985Z</time></trkpt><trkpt lat="38.4903197" lon="14.9209934"><ele>426.3333333333333</ele><time>2026-04-25T15:19:11.986Z</time></trkpt><trkpt lat="38.4902221" lon="14.9209693"><ele>427.0</ele><time>2026-04-25T15:19:12.985Z</time></trkpt><trkpt lat="38.490142" lon="14.9209493"><ele>427.66666666666663</ele><time>2026-04-25T15:19:13.986Z</time></trkpt><trkpt lat="38.4900661" lon="14.9209358"><ele>428.3333333333333</ele><time>2026-04-25T15:19:14.985Z</time></trkpt><trkpt lat="38.4899926" lon="14.9209331"><ele>429.0</ele><time>2026-04-25T15:19:15.985Z</time></trkpt><trkpt lat="38.4899127" lon="14.9209301"><ele>429.0</ele><time>2026-04-25T15:19:16.985Z</time></trkpt><trkpt lat="38.4898309" lon="14.9209301"><ele>429.0</ele><time>2026-04-25T15:19:17.986Z</time></trkpt><trkpt lat="38.4897466" lon="14.9209338"><ele>429.0</ele><time>2026-04-25T15:19:18.985Z</time></trkpt><trkpt lat="38.4896621" lon="14.9209478"><ele>429.0</ele><time>2026-04-25T15:19:19.985Z</time></trkpt><trkpt lat="38.4895775" lon="14.9209665"><ele>429.0</ele><time>2026-04-25T15:19:20.985Z</time></trkpt><trkpt lat="38.4894891" lon="14.9209976"><ele>429.0</ele><time>2026-04-25T15:19:21.985Z</time></trkpt><trkpt lat="38.489406" lon="14.9210435"><ele>428.79999999999995</ele><time>2026-04-25T15:19:22.986Z</time></trkpt><trkpt lat="38.4893256" lon="14.9210972"><ele>428.59999999999997</ele><time>2026-04-25T15:19:23.985Z</time></trkpt><trkpt lat="38.4892495" lon="14.9211694"><ele>428.4</ele><time>2026-04-25T15:19:24.986Z</time></trkpt><trkpt lat="38.4891762" lon="14.9212443"><ele>428.2</ele><time>2026-04-25T15:19:25.986Z</time></trkpt><trkpt lat="38.4891069" lon="14.9213128"><ele>428.0</ele><time>2026-04-25T15:19:26.985Z</time></trkpt><trkpt lat="38.4890248" lon="14.9213831"><ele>428.0</ele><time>2026-04-25T15:19:27.985Z</time></trkpt><trkpt lat="38.4889368" lon="14.9214379"><ele>427.99999999999994</ele><time>2026-04-25T15:19:28.985Z</time></trkpt><trkpt lat="38.4888439" lon="14.9214842"><ele>427.99999999999994</ele><time>2026-04-25T15:19:29.985Z</time></trkpt><trkpt lat="38.4887576" lon="14.9215295"><ele>428.0</ele><time>2026-04-25T15:19:30.985Z</time></trkpt><trkpt lat="38.4886676" lon="14.9215745"><ele>428.0</ele><time>2026-04-25T15:19:31.986Z</time></trkpt><trkpt lat="38.4885755" lon="14.921619"><ele>427.0</ele><time>2026-04-25T15:19:32.985Z</time></trkpt><trkpt lat="38.4884805" lon="14.9216678"><ele>425.99999999999994</ele><time>2026-04-25T15:19:33.986Z</time></trkpt><trkpt lat="38.488387" lon="14.9217156"><ele>425.0</ele><time>2026-04-25T15:19:34.985Z</time></trkpt><trkpt lat="38.4882961" lon="14.9217576"><ele>424.0</ele><time>2026-04-25T15:19:35.986Z</time></trkpt><trkpt lat="38.4882097" lon="14.921794"><ele>423.0</ele><time>2026-04-25T15:19:36.985Z</time></trkpt><trkpt lat="38.4881228" lon="14.9218265"><ele>423.0</ele><time>2026-04-25T15:19:37.985Z</time></trkpt><trkpt lat="38.488032" lon="14.9218449"><ele>423.0</ele><time>2026-04-25T15:19:38.985Z</time></trkpt><trkpt lat="38.4879411" lon="14.9218476"><ele>423.0</ele><time>2026-04-25T15:19:39.985Z</time></trkpt><trkpt lat="38.4878517" lon="14.9218416"><ele>423.0</ele><time>2026-04-25T15:19:40.986Z</time></trkpt><trkpt lat="38.4877623" lon="14.9218111"><ele>423.0</ele><time>2026-04-25T15:19:41.986Z</time></trkpt><trkpt lat="38.4876726" lon="14.9217745"><ele>420.59999999999997</ele><time>2026-04-25T15:19:42.985Z</time></trkpt><trkpt lat="38.4875925" lon="14.9217359"><ele>418.2</ele><time>2026-04-25T15:19:43.985Z</time></trkpt><trkpt lat="38.4875016" lon="14.9216907"><ele>415.8</ele><time>2026-04-25T15:19:44.986Z</time></trkpt><trkpt lat="38.4874115" lon="14.9216526"><ele>413.4</ele><time>2026-04-25T15:19:45.985Z</time></trkpt><trkpt lat="38.4873206" lon="14.9216009"><ele>411.0</ele><time>2026-04-25T15:19:46.985Z</time></trkpt><trkpt lat="38.4872439" lon="14.9215599"><ele>411.0</ele><time>2026-04-25T15:19:47.985Z</time></trkpt><trkpt lat="38.4871671" lon="14.921513"><ele>411.0</ele><time>2026-04-25T15:19:48.986Z</time></trkpt><trkpt lat="38.4870915" lon="14.9214762"><ele>411.0</ele><time>2026-04-25T15:19:49.985Z</time></trkpt><trkpt lat="38.4870203" lon="14.9214761"><ele>411.0</ele><time>2026-04-25T15:19:50.986Z</time></trkpt><trkpt lat="38.486957" lon="14.921499"><ele>411.0</ele><time>2026-04-25T15:19:51.985Z</time></trkpt><trkpt lat="38.4869074" lon="14.9215623"><ele>411.0</ele><time>2026-04-25T15:19:52.985Z</time></trkpt><trkpt lat="38.4868851" lon="14.9216487"><ele>411.0</ele><time>2026-04-25T15:19:53.985Z</time></trkpt><trkpt lat="38.4868854" lon="14.9217472"><ele>408.0</ele><time>2026-04-25T15:19:54.985Z</time></trkpt><trkpt lat="38.4869009" lon="14.9218438"><ele>405.0</ele><time>2026-04-25T15:19:55.986Z</time></trkpt><trkpt lat="38.4869298" lon="14.921937"><ele>402.0</ele><time>2026-04-25T15:19:56.986Z</time></trkpt><trkpt lat="38.4869378" lon="14.9220304"><ele>399.0</ele><time>2026-04-25T15:19:57.985Z</time></trkpt><trkpt lat="38.486926" lon="14.9221167"><ele>396.0</ele><time>2026-04-25T15:19:58.986Z</time></trkpt><trkpt lat="38.4868285" lon="14.9222281"><ele>393.0</ele><time>2026-04-25T15:20:00.985Z</time></trkpt><trkpt lat="38.4867626" lon="14.9222721"><ele>393.0</ele><time>2026-04-25T15:20:01.986Z</time></trkpt><trkpt lat="38.4866963" lon="14.922326"><ele>393.0</ele><time>2026-04-25T15:20:02.985Z</time></trkpt><trkpt lat="38.4866391" lon="14.9224104"><ele>393.0</ele><time>2026-04-25T15:20:03.985Z</time></trkpt><trkpt lat="38.4865872" lon="14.9225048"><ele>393.0</ele><time>2026-04-25T15:20:04.986Z</time></trkpt><trkpt lat="38.4865401" lon="14.9226101"><ele>393.0</ele><time>2026-04-25T15:20:05.986Z</time></trkpt><trkpt lat="38.486496" lon="14.9227201"><ele>393.0</ele><time>2026-04-25T15:20:06.986Z</time></trkpt><trkpt lat="38.4864606" lon="14.9228366"><ele>391.2</ele><time>2026-04-25T15:20:07.986Z</time></trkpt><trkpt lat="38.4864398" lon="14.9229532"><ele>389.4</ele><time>2026-04-25T15:20:08.985Z</time></trkpt><trkpt lat="38.4864115" lon="14.9230667"><ele>387.59999999999997</ele><time>2026-04-25T15:20:09.985Z</time></trkpt><trkpt lat="38.4863733" lon="14.9231691"><ele>385.79999999999995</ele><time>2026-04-25T15:20:10.986Z</time></trkpt><trkpt lat="38.4863266" lon="14.9232665"><ele>384.0</ele><time>2026-04-25T15:20:11.985Z</time></trkpt><trkpt lat="38.4862583" lon="14.9233465"><ele>384.2</ele><time>2026-04-25T15:20:12.986Z</time></trkpt><trkpt lat="38.4861774" lon="14.923423"><ele>384.4</ele><time>2026-04-25T15:20:13.985Z</time></trkpt><trkpt lat="38.4860929" lon="14.9234907"><ele>384.6</ele><time>2026-04-25T15:20:14.986Z</time></trkpt><trkpt lat="38.4860036" lon="14.9235628"><ele>384.8</ele><time>2026-04-25T15:20:15.986Z</time></trkpt><trkpt lat="38.4859175" lon="14.923624"><ele>385.0</ele><time>2026-04-25T15:20:16.985Z</time></trkpt><trkpt lat="38.485841" lon="14.9236973"><ele>385.00000000000006</ele><time>2026-04-25T15:20:17.986Z</time></trkpt><trkpt lat="38.4857739" lon="14.923775"><ele>385.0</ele><time>2026-04-25T15:20:18.986Z</time></trkpt><trkpt lat="38.4857246" lon="14.923879"><ele>385.0</ele><time>2026-04-25T15:20:19.986Z</time></trkpt><trkpt lat="38.4856906" lon="14.9239898"><ele>385.0</ele><time>2026-04-25T15:20:20.986Z</time></trkpt><trkpt lat="38.4856731" lon="14.9240923"><ele>385.00000000000006</ele><time>2026-04-25T15:20:21.986Z</time></trkpt><trkpt lat="38.4856735" lon="14.9241961"><ele>385.0</ele><time>2026-04-25T15:20:22.985Z</time></trkpt><trkpt lat="38.4856972" lon="14.9243029"><ele>386.8</ele><time>2026-04-25T15:20:23.986Z</time></trkpt><trkpt lat="38.4857364" lon="14.9243916"><ele>388.6</ele><time>2026-04-25T15:20:24.986Z</time></trkpt><trkpt lat="38.4857745" lon="14.9244747"><ele>390.4</ele><time>2026-04-25T15:20:25.985Z</time></trkpt><trkpt lat="38.4858036" lon="14.9245539"><ele>392.2</ele><time>2026-04-25T15:20:26.986Z</time></trkpt><trkpt lat="38.4857701" lon="14.9246899"><ele>394.0</ele><time>2026-04-25T15:20:28.985Z</time></trkpt><trkpt lat="38.4856515" lon="14.9247293"><ele>394.00000000000006</ele><time>2026-04-25T15:20:30.985Z</time></trkpt><trkpt lat="38.4855907" lon="14.9247063"><ele>394.0</ele><time>2026-04-25T15:20:31.986Z</time></trkpt><trkpt lat="38.4855238" lon="14.9246801"><ele>394.0</ele><time>2026-04-25T15:20:32.986Z</time></trkpt><trkpt lat="38.4854515" lon="14.9246448"><ele>394.0</ele><time>2026-04-25T15:20:33.985Z</time></trkpt><trkpt lat="38.4853624" lon="14.9245912"><ele>394.00000000000006</ele><time>2026-04-25T15:20:34.986Z</time></trkpt><trkpt lat="38.4852645" lon="14.9245666"><ele>394.0</ele><time>2026-04-25T15:20:35.985Z</time></trkpt><trkpt lat="38.4851642" lon="14.9245379"><ele>393.83333333333337</ele><time>2026-04-25T15:20:36.985Z</time></trkpt><trkpt lat="38.4850793" lon="14.9245087"><ele>393.6666666666667</ele><time>2026-04-25T15:20:37.985Z</time></trkpt><trkpt lat="38.484987" lon="14.9244944"><ele>393.5</ele><time>2026-04-25T15:20:38.985Z</time></trkpt><trkpt lat="38.4849003" lon="14.9244945"><ele>393.33333333333337</ele><time>2026-04-25T15:20:39.985Z</time></trkpt><trkpt lat="38.4848199" lon="14.9244973"><ele>393.1666666666667</ele><time>2026-04-25T15:20:40.985Z</time></trkpt><trkpt lat="38.4847419" lon="14.9244691"><ele>393.0</ele><time>2026-04-25T15:20:41.986Z</time></trkpt><trkpt lat="38.4846728" lon="14.9244168"><ele>393.0</ele><time>2026-04-25T15:20:42.985Z</time></trkpt><trkpt lat="38.4846115" lon="14.9243387"><ele>393.0</ele><time>2026-04-25T15:20:43.985Z</time></trkpt><trkpt lat="38.4845595" lon="14.9242427"><ele>393.0</ele><time>2026-04-25T15:20:44.985Z</time></trkpt><trkpt lat="38.4845016" lon="14.924162"><ele>393.0</ele><time>2026-04-25T15:20:45.985Z</time></trkpt><trkpt lat="38.4844266" lon="14.9241094"><ele>393.0</ele><time>2026-04-25T15:20:46.985Z</time></trkpt><trkpt lat="38.4843482" lon="14.9240699"><ele>393.0</ele><time>2026-04-25T15:20:47.985Z</time></trkpt><trkpt lat="38.4842528" lon="14.9240325"><ele>391.2</ele><time>2026-04-25T15:20:48.986Z</time></trkpt><trkpt lat="38.4841577" lon="14.9239978"><ele>389.4</ele><time>2026-04-25T15:20:49.985Z</time></trkpt><trkpt lat="38.4840692" lon="14.9239615"><ele>387.59999999999997</ele><time>2026-04-25T15:20:50.985Z</time></trkpt><trkpt lat="38.4839757" lon="14.9239345"><ele>385.79999999999995</ele><time>2026-04-25T15:20:51.985Z</time></trkpt><trkpt lat="38.48388" lon="14.9239239"><ele>384.0</ele><time>2026-04-25T15:20:52.985Z</time></trkpt><trkpt lat="38.483782" lon="14.9239242"><ele>382.6</ele><time>2026-04-25T15:20:53.985Z</time></trkpt><trkpt lat="38.4836902" lon="14.9239311"><ele>381.2</ele><time>2026-04-25T15:20:54.986Z</time></trkpt><trkpt lat="38.4835944" lon="14.9239434"><ele>379.8</ele><time>2026-04-25T15:20:55.985Z</time></trkpt><trkpt lat="38.4834995" lon="14.92395"><ele>378.40000000000003</ele><time>2026-04-25T15:20:56.985Z</time></trkpt><trkpt lat="38.483404" lon="14.9239526"><ele>377.0</ele><time>2026-04-25T15:20:57.985Z</time></trkpt><trkpt lat="38.4833091" lon="14.9239627"><ele>377.0</ele><time>2026-04-25T15:20:58.985Z</time></trkpt><trkpt lat="38.4832152" lon="14.9239781"><ele>377.0</ele><time>2026-04-25T15:20:59.985Z</time></trkpt><trkpt lat="38.4831272" lon="14.9240119"><ele>377.0</ele><time>2026-04-25T15:21:00.985Z</time></trkpt><trkpt lat="38.4830394" lon="14.9240665"><ele>377.0</ele><time>2026-04-25T15:21:01.985Z</time></trkpt><trkpt lat="38.4829525" lon="14.9241163"><ele>377.0</ele><time>2026-04-25T15:21:02.986Z</time></trkpt><trkpt lat="38.482868" lon="14.9241703"><ele>375.33333333333337</ele><time>2026-04-25T15:21:03.985Z</time></trkpt><trkpt lat="38.4827843" lon="14.9242027"><ele>373.6666666666667</ele><time>2026-04-25T15:21:04.986Z</time></trkpt><trkpt lat="38.4826985" lon="14.9242197"><ele>372.0</ele><time>2026-04-25T15:21:05.986Z</time></trkpt><trkpt lat="38.4826142" lon="14.9241965"><ele>370.3333333333333</ele><time>2026-04-25T15:21:06.986Z</time></trkpt><trkpt lat="38.482524" lon="14.9241678"><ele>368.66666666666663</ele><time>2026-04-25T15:21:07.986Z</time></trkpt><trkpt lat="38.4824373" lon="14.9241345"><ele>367.0</ele><time>2026-04-25T15:21:08.986Z</time></trkpt><trkpt lat="38.4823535" lon="14.9240869"><ele>367.0</ele><time>2026-04-25T15:21:09.985Z</time></trkpt><trkpt lat="38.482273" lon="14.9240385"><ele>367.0</ele><time>2026-04-25T15:21:10.985Z</time></trkpt><trkpt lat="38.4822077" lon="14.9239414"><ele>367.0</ele><time>2026-04-25T15:21:11.986Z</time></trkpt><trkpt lat="38.4821454" lon="14.9238348"><ele>367.0</ele><time>2026-04-25T15:21:12.986Z</time></trkpt><trkpt lat="38.4820744" lon="14.9237363"><ele>367.0</ele><time>2026-04-25T15:21:13.986Z</time></trkpt><trkpt lat="38.4819932" lon="14.9236518"><ele>366.5</ele><time>2026-04-25T15:21:14.986Z</time></trkpt><trkpt lat="38.4819068" lon="14.9235651"><ele>366.0</ele><time>2026-04-25T15:21:15.985Z</time></trkpt><trkpt lat="38.4818169" lon="14.9234762"><ele>365.5</ele><time>2026-04-25T15:21:16.985Z</time></trkpt><trkpt lat="38.4817283" lon="14.9233889"><ele>365.0</ele><time>2026-04-25T15:21:17.986Z</time></trkpt><trkpt lat="38.481629" lon="14.9232955"><ele>362.75</ele><time>2026-04-25T15:21:18.986Z</time></trkpt><trkpt lat="38.481538" lon="14.9232058"><ele>360.5</ele><time>2026-04-25T15:21:19.985Z</time></trkpt><trkpt lat="38.4814532" lon="14.9231148"><ele>358.25</ele><time>2026-04-25T15:21:20.986Z</time></trkpt><trkpt lat="38.4813647" lon="14.9230123"><ele>356.0</ele><time>2026-04-25T15:21:21.985Z</time></trkpt><trkpt lat="38.4812791" lon="14.9229028"><ele>355.75</ele><time>2026-04-25T15:21:22.986Z</time></trkpt><trkpt lat="38.4812027" lon="14.922786"><ele>355.5</ele><time>2026-04-25T15:21:23.986Z</time></trkpt><trkpt lat="38.4811293" lon="14.9226692"><ele>355.25</ele><time>2026-04-25T15:21:24.985Z</time></trkpt><trkpt lat="38.4810565" lon="14.9225511"><ele>355.0</ele><time>2026-04-25T15:21:25.985Z</time></trkpt><trkpt lat="38.4809852" lon="14.9224312"><ele>354.0</ele><time>2026-04-25T15:21:26.985Z</time></trkpt><trkpt lat="38.480914" lon="14.9223087"><ele>353.0</ele><time>2026-04-25T15:21:27.986Z</time></trkpt><trkpt lat="38.4808403" lon="14.9221925"><ele>352.0</ele><time>2026-04-25T15:21:28.986Z</time></trkpt><trkpt lat="38.4807698" lon="14.9220796"><ele>351.0</ele><time>2026-04-25T15:21:29.986Z</time></trkpt><trkpt lat="38.4807056" lon="14.9219729"><ele>351.0</ele><time>2026-04-25T15:21:30.986Z</time></trkpt><trkpt lat="38.4806427" lon="14.921876"><ele>351.0</ele><time>2026-04-25T15:21:31.986Z</time></trkpt><trkpt lat="38.4805818" lon="14.9217982"><ele>351.0</ele><time>2026-04-25T15:21:32.985Z</time></trkpt><trkpt lat="38.4805169" lon="14.9217391"><ele>351.0</ele><time>2026-04-25T15:21:33.985Z</time></trkpt><trkpt lat="38.4804431" lon="14.9216991"><ele>351.0</ele><time>2026-04-25T15:21:34.985Z</time></trkpt><trkpt lat="38.4803679" lon="14.9216799"><ele>351.0</ele><time>2026-04-25T15:21:35.985Z</time></trkpt><trkpt lat="38.4802873" lon="14.9216768"><ele>349.4</ele><time>2026-04-25T15:21:36.985Z</time></trkpt><trkpt lat="38.4802034" lon="14.9217049"><ele>347.8</ele><time>2026-04-25T15:21:37.985Z</time></trkpt><trkpt lat="38.480123" lon="14.9217572"><ele>346.2</ele><time>2026-04-25T15:21:38.985Z</time></trkpt><trkpt lat="38.4800388" lon="14.9218119"><ele>344.59999999999997</ele><time>2026-04-25T15:21:39.985Z</time></trkpt><trkpt lat="38.4799531" lon="14.9218802"><ele>343.0</ele><time>2026-04-25T15:21:40.985Z</time></trkpt><trkpt lat="38.4798702" lon="14.9219663"><ele>343.0</ele><time>2026-04-25T15:21:41.985Z</time></trkpt><trkpt lat="38.4797978" lon="14.9220673"><ele>343.0</ele><time>2026-04-25T15:21:42.985Z</time></trkpt><trkpt lat="38.4797408" lon="14.9221819"><ele>343.0</ele><time>2026-04-25T15:21:43.986Z</time></trkpt><trkpt lat="38.4796873" lon="14.9223034"><ele>343.0</ele><time>2026-04-25T15:21:44.985Z</time></trkpt><trkpt lat="38.479638" lon="14.922429"><ele>343.0</ele><time>2026-04-25T15:21:45.985Z</time></trkpt><trkpt lat="38.479582" lon="14.9225582"><ele>339.59999999999997</ele><time>2026-04-25T15:21:46.985Z</time></trkpt><trkpt lat="38.4795232" lon="14.9226789"><ele>336.2</ele><time>2026-04-25T15:21:47.985Z</time></trkpt><trkpt lat="38.4794703" lon="14.9227971"><ele>332.8</ele><time>2026-04-25T15:21:48.985Z</time></trkpt><trkpt lat="38.4794184" lon="14.9229144"><ele>329.4</ele><time>2026-04-25T15:21:49.985Z</time></trkpt><trkpt lat="38.4793707" lon="14.9230385"><ele>326.0</ele><time>2026-04-25T15:21:50.986Z</time></trkpt><trkpt lat="38.4793392" lon="14.9231642"><ele>326.0</ele><time>2026-04-25T15:21:51.985Z</time></trkpt><trkpt lat="38.4793185" lon="14.9232953"><ele>326.0</ele><time>2026-04-25T15:21:52.986Z</time></trkpt><trkpt lat="38.4793135" lon="14.9234261"><ele>326.0</ele><time>2026-04-25T15:21:53.985Z</time></trkpt><trkpt lat="38.4793095" lon="14.9235535"><ele>326.0</ele><time>2026-04-25T15:21:54.986Z</time></trkpt><trkpt lat="38.4793068" lon="14.9236789"><ele>326.0</ele><time>2026-04-25T15:21:55.986Z</time></trkpt><trkpt lat="38.4793019" lon="14.9238055"><ele>325.6</ele><time>2026-04-25T15:21:56.986Z</time></trkpt><trkpt lat="38.4792947" lon="14.9239329"><ele>325.20000000000005</ele><time>2026-04-25T15:21:57.986Z</time></trkpt><trkpt lat="38.4792841" lon="14.9240642"><ele>324.79999999999995</ele><time>2026-04-25T15:21:58.986Z</time></trkpt><trkpt lat="38.4792731" lon="14.924192"><ele>324.4</ele><time>2026-04-25T15:21:59.986Z</time></trkpt><trkpt lat="38.4792591" lon="14.9243243"><ele>324.0</ele><time>2026-04-25T15:22:00.985Z</time></trkpt><trkpt lat="38.4792356" lon="14.9244574"><ele>323.79999999999995</ele><time>2026-04-25T15:22:01.986Z</time></trkpt><trkpt lat="38.4792137" lon="14.9245889"><ele>323.59999999999997</ele><time>2026-04-25T15:22:02.986Z</time></trkpt><trkpt lat="38.4791954" lon="14.9247217"><ele>323.4</ele><time>2026-04-25T15:22:03.985Z</time></trkpt><trkpt lat="38.4791734" lon="14.9248507"><ele>323.2</ele><time>2026-04-25T15:22:04.985Z</time></trkpt><trkpt lat="38.4791445" lon="14.9249771"><ele>323.0</ele><time>2026-04-25T15:22:05.986Z</time></trkpt><trkpt lat="38.479106" lon="14.9251064"><ele>322.59999999999997</ele><time>2026-04-25T15:22:06.986Z</time></trkpt><trkpt lat="38.4790615" lon="14.9252342"><ele>322.2</ele><time>2026-04-25T15:22:07.986Z</time></trkpt><trkpt lat="38.4790186" lon="14.9253573"><ele>321.8</ele><time>2026-04-25T15:22:08.985Z</time></trkpt><trkpt lat="38.4789771" lon="14.9254813"><ele>321.4</ele><time>2026-04-25T15:22:09.986Z</time></trkpt><trkpt lat="38.4789389" lon="14.9256007"><ele>321.0</ele><time>2026-04-25T15:22:10.985Z</time></trkpt><trkpt lat="38.4788972" lon="14.9257223"><ele>321.0</ele><time>2026-04-25T15:22:11.986Z</time></trkpt><trkpt lat="38.4788607" lon="14.9258357"><ele>321.0</ele><time>2026-04-25T15:22:12.985Z</time></trkpt><trkpt lat="38.4788322" lon="14.9259518"><ele>321.0</ele><time>2026-04-25T15:22:13.986Z</time></trkpt><trkpt lat="38.4788229" lon="14.9260631"><ele>321.0</ele><time>2026-04-25T15:22:14.986Z</time></trkpt><trkpt lat="38.4788177" lon="14.9261783"><ele>321.0</ele><time>2026-04-25T15:22:15.986Z</time></trkpt><trkpt lat="38.4788208" lon="14.9262954"><ele>320.1666666666667</ele><time>2026-04-25T15:22:16.985Z</time></trkpt><trkpt lat="38.4788153" lon="14.9264007"><ele>319.3333333333333</ele><time>2026-04-25T15:22:17.985Z</time></trkpt><trkpt lat="38.478796" lon="14.9264968"><ele>318.5</ele><time>2026-04-25T15:22:18.985Z</time></trkpt><trkpt lat="38.4787607" lon="14.9265875"><ele>317.66666666666663</ele><time>2026-04-25T15:22:19.985Z</time></trkpt><trkpt lat="38.4787125" lon="14.926666"><ele>316.8333333333333</ele><time>2026-04-25T15:22:20.985Z</time></trkpt><trkpt lat="38.4786639" lon="14.9267442"><ele>316.0</ele><time>2026-04-25T15:22:21.986Z</time></trkpt><trkpt lat="38.4786098" lon="14.9268239"><ele>314.66666666666663</ele><time>2026-04-25T15:22:22.985Z</time></trkpt><trkpt lat="38.4785655" lon="14.9269124"><ele>313.3333333333333</ele><time>2026-04-25T15:22:23.986Z</time></trkpt><trkpt lat="38.478539" lon="14.9270165"><ele>312.0</ele><time>2026-04-25T15:22:24.985Z</time></trkpt><trkpt lat="38.4785308" lon="14.9271202"><ele>310.6666666666667</ele><time>2026-04-25T15:22:25.986Z</time></trkpt><trkpt lat="38.4785245" lon="14.9272304"><ele>309.33333333333337</ele><time>2026-04-25T15:22:26.986Z</time></trkpt><trkpt lat="38.4785083" lon="14.9273314"><ele>308.0</ele><time>2026-04-25T15:22:27.986Z</time></trkpt><trkpt lat="38.4784749" lon="14.9274238"><ele>308.0</ele><time>2026-04-25T15:22:28.985Z</time></trkpt><trkpt lat="38.4784243" lon="14.9275118"><ele>308.0</ele><time>2026-04-25T15:22:29.986Z</time></trkpt><trkpt lat="38.4783611" lon="14.9275844"><ele>308.0</ele><time>2026-04-25T15:22:30.986Z</time></trkpt><trkpt lat="38.4782864" lon="14.9276479"><ele>308.0</ele><time>2026-04-25T15:22:31.986Z</time></trkpt><trkpt lat="38.4782025" lon="14.9277078"><ele>308.0</ele><time>2026-04-25T15:22:32.986Z</time></trkpt><trkpt lat="38.4781186" lon="14.9277714"><ele>306.2</ele><time>2026-04-25T15:22:33.986Z</time></trkpt><trkpt lat="38.4780299" lon="14.9278257"><ele>304.4</ele><time>2026-04-25T15:22:34.986Z</time></trkpt><trkpt lat="38.4779317" lon="14.9278864"><ele>302.59999999999997</ele><time>2026-04-25T15:22:35.986Z</time></trkpt><trkpt lat="38.4778363" lon="14.9279498"><ele>300.8</ele><time>2026-04-25T15:22:36.985Z</time></trkpt><trkpt lat="38.477737" lon="14.9280086"><ele>299.0</ele><time>2026-04-25T15:22:37.986Z</time></trkpt><trkpt lat="38.4776375" lon="14.9280619"><ele>299.0</ele><time>2026-04-25T15:22:38.985Z</time></trkpt><trkpt lat="38.4775396" lon="14.9281146"><ele>299.0</ele><time>2026-04-25T15:22:39.985Z</time></trkpt><trkpt lat="38.4774514" lon="14.928171"><ele>299.0</ele><time>2026-04-25T15:22:40.985Z</time></trkpt><trkpt lat="38.4773726" lon="14.9282186"><ele>299.0</ele><time>2026-04-25T15:22:41.985Z</time></trkpt><trkpt lat="38.4772953" lon="14.9282505"><ele>299.0</ele><time>2026-04-25T15:22:42.986Z</time></trkpt><trkpt lat="38.4772172" lon="14.9282761"><ele>299.0</ele><time>2026-04-25T15:22:43.985Z</time></trkpt><trkpt lat="38.4771369" lon="14.9283026"><ele>299.0</ele><time>2026-04-25T15:22:44.986Z</time></trkpt><trkpt lat="38.4770547" lon="14.9283271"><ele>299.0</ele><time>2026-04-25T15:22:45.986Z</time></trkpt><trkpt lat="38.4769692" lon="14.9283502"><ele>299.0</ele><time>2026-04-25T15:22:46.985Z</time></trkpt><trkpt lat="38.4768794" lon="14.928375"><ele>299.0</ele><time>2026-04-25T15:22:47.985Z</time></trkpt><trkpt lat="38.4767844" lon="14.9284091"><ele>299.0</ele><time>2026-04-25T15:22:48.986Z</time></trkpt><trkpt lat="38.4766875" lon="14.9284471"><ele>296.59999999999997</ele><time>2026-04-25T15:22:49.986Z</time></trkpt><trkpt lat="38.4765887" lon="14.92849"><ele>294.2</ele><time>2026-04-25T15:22:50.985Z</time></trkpt><trkpt lat="38.4764839" lon="14.9285478"><ele>291.79999999999995</ele><time>2026-04-25T15:22:51.985Z</time></trkpt><trkpt lat="38.4763785" lon="14.928602"><ele>289.4</ele><time>2026-04-25T15:22:52.985Z</time></trkpt><trkpt lat="38.4762785" lon="14.9286585"><ele>287.0</ele><time>2026-04-25T15:22:53.986Z</time></trkpt><trkpt lat="38.4761787" lon="14.9287117"><ele>287.0</ele><time>2026-04-25T15:22:54.986Z</time></trkpt><trkpt lat="38.47608" lon="14.9287553"><ele>287.0</ele><time>2026-04-25T15:22:55.986Z</time></trkpt><trkpt lat="38.4759811" lon="14.9287891"><ele>287.0</ele><time>2026-04-25T15:22:56.986Z</time></trkpt><trkpt lat="38.4758834" lon="14.9288166"><ele>287.0</ele><time>2026-04-25T15:22:57.985Z</time></trkpt><trkpt lat="38.4757893" lon="14.9288429"><ele>287.0</ele><time>2026-04-25T15:22:58.985Z</time></trkpt><trkpt lat="38.4757051" lon="14.9288634"><ele>287.0</ele><time>2026-04-25T15:22:59.986Z</time></trkpt><trkpt lat="38.475633" lon="14.9288643"><ele>287.0</ele><time>2026-04-25T15:23:00.985Z</time></trkpt><trkpt lat="38.4755621" lon="14.9288459"><ele>287.0</ele><time>2026-04-25T15:23:01.986Z</time></trkpt><trkpt lat="38.4755129" lon="14.9287831"><ele>287.0</ele><time>2026-04-25T15:23:02.985Z</time></trkpt><trkpt lat="38.4754701" lon="14.928707"><ele>287.0</ele><time>2026-04-25T15:23:03.985Z</time></trkpt><trkpt lat="38.4754284" lon="14.9286198"><ele>287.0</ele><time>2026-04-25T15:23:04.986Z</time></trkpt><trkpt lat="38.4753742" lon="14.9285434"><ele>287.0</ele><time>2026-04-25T15:23:05.985Z</time></trkpt><trkpt lat="38.4753073" lon="14.9284897"><ele>286.2</ele><time>2026-04-25T15:23:06.986Z</time></trkpt><trkpt lat="38.4752224" lon="14.9284598"><ele>285.4</ele><time>2026-04-25T15:23:07.986Z</time></trkpt><trkpt lat="38.4751222" lon="14.9284476"><ele>284.6</ele><time>2026-04-25T15:23:08.985Z</time></trkpt><trkpt lat="38.475028" lon="14.9284608"><ele>283.8</ele><time>2026-04-25T15:23:09.985Z</time></trkpt><trkpt lat="38.4749218" lon="14.9284802"><ele>283.0</ele><time>2026-04-25T15:23:10.985Z</time></trkpt><trkpt lat="38.4748147" lon="14.9284953"><ele>283.0</ele><time>2026-04-25T15:23:11.985Z</time></trkpt><trkpt lat="38.4747034" lon="14.9285172"><ele>283.0</ele><time>2026-04-25T15:23:12.985Z</time></trkpt><trkpt lat="38.4745941" lon="14.928536"><ele>283.0</ele><time>2026-04-25T15:23:13.986Z</time></trkpt><trkpt lat="38.4744854" lon="14.9285561"><ele>283.0</ele><time>2026-04-25T15:23:14.986Z</time></trkpt><trkpt lat="38.4743712" lon="14.9285763"><ele>283.0</ele><time>2026-04-25T15:23:15.985Z</time></trkpt><trkpt lat="38.4742584" lon="14.928599"><ele>282.2</ele><time>2026-04-25T15:23:16.985Z</time></trkpt><trkpt lat="38.4741511" lon="14.9286148"><ele>281.4</ele><time>2026-04-25T15:23:17.986Z</time></trkpt><trkpt lat="38.4740453" lon="14.9286277"><ele>280.59999999999997</ele><time>2026-04-25T15:23:18.985Z</time></trkpt><trkpt lat="38.4739415" lon="14.9286415"><ele>279.8</ele><time>2026-04-25T15:23:19.986Z</time></trkpt><trkpt lat="38.4738489" lon="14.92866"><ele>279.0</ele><time>2026-04-25T15:23:20.985Z</time></trkpt><trkpt lat="38.4737677" lon="14.9286729"><ele>278.59999999999997</ele><time>2026-04-25T15:23:21.986Z</time></trkpt><trkpt lat="38.4737018" lon="14.9286832"><ele>278.2</ele><time>2026-04-25T15:23:22.985Z</time></trkpt><trkpt lat="38.4736015" lon="14.9286755"><ele>277.79999999999995</ele><time>2026-04-25T15:23:24.985Z</time></trkpt><trkpt lat="38.473541" lon="14.9285847"><ele>277.4</ele><time>2026-04-25T15:23:26.985Z</time></trkpt><trkpt lat="38.4734951" lon="14.9284501"><ele>277.0</ele><time>2026-04-25T15:23:28.985Z</time></trkpt><trkpt lat="38.4734745" lon="14.9283551"><ele>277.0</ele><time>2026-04-25T15:23:30.986Z</time></trkpt><trkpt lat="38.4734351" lon="14.9282332"><ele>277.0</ele><time>2026-04-25T15:23:33.986Z</time></trkpt><trkpt lat="38.4733981" lon="14.9280901"><ele>277.0</ele><time>2026-04-25T15:23:35.986Z</time></trkpt><trkpt lat="38.4733702" lon="14.9280048"><ele>277.0</ele><time>2026-04-25T15:23:36.986Z</time></trkpt><trkpt lat="38.4733383" lon="14.9279172"><ele>277.0</ele><time>2026-04-25T15:23:37.985Z</time></trkpt><trkpt lat="38.4732998" lon="14.927829"><ele>277.0</ele><time>2026-04-25T15:23:38.985Z</time></trkpt><trkpt lat="38.4732643" lon="14.9277341"><ele>277.0</ele><time>2026-04-25T15:23:39.986Z</time></trkpt><trkpt lat="38.4732233" lon="14.9276379"><ele>277.0</ele><time>2026-04-25T15:23:40.986Z</time></trkpt><trkpt lat="38.473178" lon="14.9275348"><ele>277.0</ele><time>2026-04-25T15:23:41.986Z</time></trkpt><trkpt lat="38.4731346" lon="14.9274307"><ele>277.0</ele><time>2026-04-25T15:23:42.986Z</time></trkpt><trkpt lat="38.4730922" lon="14.9273223"><ele>277.0</ele><time>2026-04-25T15:23:43.986Z</time></trkpt><trkpt lat="38.4730546" lon="14.9272182"><ele>277.16666666666663</ele><time>2026-04-25T15:23:44.985Z</time></trkpt><trkpt lat="38.4730167" lon="14.9271143"><ele>277.3333333333333</ele><time>2026-04-25T15:23:45.985Z</time></trkpt><trkpt lat="38.4729772" lon="14.9270158"><ele>277.5</ele><time>2026-04-25T15:23:46.986Z</time></trkpt><trkpt lat="38.4729346" lon="14.9269222"><ele>277.6666666666667</ele><time>2026-04-25T15:23:47.985Z</time></trkpt><trkpt lat="38.4728877" lon="14.9268302"><ele>277.83333333333337</ele><time>2026-04-25T15:23:48.985Z</time></trkpt><trkpt lat="38.4728464" lon="14.9267298"><ele>278.0</ele><time>2026-04-25T15:23:49.985Z</time></trkpt><trkpt lat="38.4728023" lon="14.9266291"><ele>276.4</ele><time>2026-04-25T15:23:50.986Z</time></trkpt><trkpt lat="38.472758" lon="14.9265219"><ele>274.8</ele><time>2026-04-25T15:23:51.985Z</time></trkpt><trkpt lat="38.4727179" lon="14.926415"><ele>273.2</ele><time>2026-04-25T15:23:52.985Z</time></trkpt><trkpt lat="38.4726806" lon="14.9263022"><ele>271.6</ele><time>2026-04-25T15:23:53.986Z</time></trkpt><trkpt lat="38.4726436" lon="14.9261894"><ele>270.0</ele><time>2026-04-25T15:23:54.986Z</time></trkpt><trkpt lat="38.4726035" lon="14.9260823"><ele>270.0</ele><time>2026-04-25T15:23:55.986Z</time></trkpt><trkpt lat="38.4725684" lon="14.9259824"><ele>270.0</ele><time>2026-04-25T15:23:56.985Z</time></trkpt><trkpt lat="38.4725291" lon="14.9258868"><ele>270.0</ele><time>2026-04-25T15:23:57.986Z</time></trkpt><trkpt lat="38.4724896" lon="14.9257971"><ele>270.0</ele><time>2026-04-25T15:23:58.985Z</time></trkpt><trkpt lat="38.4724495" lon="14.9257174"><ele>270.0</ele><time>2026-04-25T15:23:59.986Z</time></trkpt><trkpt lat="38.4724205" lon="14.9256303"><ele>270.0</ele><time>2026-04-25T15:24:00.985Z</time></trkpt><trkpt lat="38.4723905" lon="14.925545"><ele>269.8333333333333</ele><time>2026-04-25T15:24:01.986Z</time></trkpt><trkpt lat="38.4723638" lon="14.9254605"><ele>269.6666666666667</ele><time>2026-04-25T15:24:02.985Z</time></trkpt><trkpt lat="38.4723324" lon="14.9253759"><ele>269.5</ele><time>2026-04-25T15:24:03.986Z</time></trkpt><trkpt lat="38.472302" lon="14.9252852"><ele>269.33333333333337</ele><time>2026-04-25T15:24:04.986Z</time></trkpt><trkpt lat="38.4722711" lon="14.9251908"><ele>269.1666666666667</ele><time>2026-04-25T15:24:05.986Z</time></trkpt><trkpt lat="38.4722445" lon="14.9250907"><ele>269.0</ele><time>2026-04-25T15:24:06.985Z</time></trkpt><trkpt lat="38.4722147" lon="14.9249872"><ele>268.83333333333337</ele><time>2026-04-25T15:24:07.985Z</time></trkpt><trkpt lat="38.4721843" lon="14.9248917"><ele>268.6666666666667</ele><time>2026-04-25T15:24:08.985Z</time></trkpt><trkpt lat="38.4721613" lon="14.9247954"><ele>268.5</ele><time>2026-04-25T15:24:09.985Z</time></trkpt><trkpt lat="38.472139" lon="14.9246939"><ele>268.3333333333333</ele><time>2026-04-25T15:24:10.986Z</time></trkpt><trkpt lat="38.4721209" lon="14.9245912"><ele>268.16666666666663</ele><time>2026-04-25T15:24:11.985Z</time></trkpt><trkpt lat="38.4721146" lon="14.9244847"><ele>268.0</ele><time>2026-04-25T15:24:12.986Z</time></trkpt><trkpt lat="38.4721159" lon="14.9243712"><ele>268.0</ele><time>2026-04-25T15:24:13.986Z</time></trkpt><trkpt lat="38.4721325" lon="14.9242629"><ele>268.0</ele><time>2026-04-25T15:24:14.985Z</time></trkpt><trkpt lat="38.4721517" lon="14.924157"><ele>268.0</ele><time>2026-04-25T15:24:15.986Z</time></trkpt><trkpt lat="38.4721725" lon="14.9240472"><ele>268.0</ele><time>2026-04-25T15:24:16.986Z</time></trkpt><trkpt lat="38.4721949" lon="14.9239349"><ele>268.0</ele><time>2026-04-25T15:24:17.985Z</time></trkpt><trkpt lat="38.4722106" lon="14.9238149"><ele>268.0</ele><time>2026-04-25T15:24:18.985Z</time></trkpt><trkpt lat="38.4722352" lon="14.9237065"><ele>267.5</ele><time>2026-04-25T15:24:19.986Z</time></trkpt><trkpt lat="38.4722571" lon="14.923598"><ele>267.0</ele><time>2026-04-25T15:24:20.985Z</time></trkpt><trkpt lat="38.4722859" lon="14.9234854"><ele>266.5</ele><time>2026-04-25T15:24:21.985Z</time></trkpt><trkpt lat="38.472313" lon="14.9233812"><ele>266.0</ele><time>2026-04-25T15:24:22.985Z</time></trkpt><trkpt lat="38.4723426" lon="14.9232782"><ele>265.5</ele><time>2026-04-25T15:24:23.985Z</time></trkpt><trkpt lat="38.4723859" lon="14.9231808"><ele>265.0</ele><time>2026-04-25T15:24:24.985Z</time></trkpt><trkpt lat="38.4724369" lon="14.9230876"><ele>263.0</ele><time>2026-04-25T15:24:25.985Z</time></trkpt><trkpt lat="38.4724895" lon="14.9230032"><ele>261.0</ele><time>2026-04-25T15:24:26.985Z</time></trkpt><trkpt lat="38.4725516" lon="14.9229174"><ele>259.0</ele><time>2026-04-25T15:24:27.986Z</time></trkpt><trkpt lat="38.4726166" lon="14.9228292"><ele>257.0</ele><time>2026-04-25T15:24:28.985Z</time></trkpt><trkpt lat="38.472684" lon="14.9227368"><ele>255.0</ele><time>2026-04-25T15:24:29.985Z</time></trkpt><trkpt lat="38.4727532" lon="14.9226457"><ele>254.6</ele><time>2026-04-25T15:24:30.986Z</time></trkpt><trkpt lat="38.4728247" lon="14.9225471"><ele>254.2</ele><time>2026-04-25T15:24:31.986Z</time></trkpt><trkpt lat="38.4728947" lon="14.9224496"><ele>253.8</ele><time>2026-04-25T15:24:32.986Z</time></trkpt><trkpt lat="38.4729616" lon="14.9223512"><ele>253.4</ele><time>2026-04-25T15:24:33.986Z</time></trkpt><trkpt lat="38.4730245" lon="14.9222495"><ele>253.0</ele><time>2026-04-25T15:24:34.985Z</time></trkpt><trkpt lat="38.4730803" lon="14.9221426"><ele>253.0</ele><time>2026-04-25T15:24:35.985Z</time></trkpt><trkpt lat="38.4731306" lon="14.9220362"><ele>253.0</ele><time>2026-04-25T15:24:36.986Z</time></trkpt><trkpt lat="38.4731697" lon="14.9219302"><ele>253.0</ele><time>2026-04-25T15:24:37.986Z</time></trkpt><trkpt lat="38.4732128" lon="14.9218244"><ele>253.0</ele><time>2026-04-25T15:24:38.985Z</time></trkpt><trkpt lat="38.4732688" lon="14.9217469"><ele>253.0</ele><time>2026-04-25T15:24:39.986Z</time></trkpt><trkpt lat="38.4733262" lon="14.9216665"><ele>249.60000000000002</ele><time>2026-04-25T15:24:40.986Z</time></trkpt><trkpt lat="38.473397" lon="14.9216053"><ele>246.20000000000002</ele><time>2026-04-25T15:24:41.985Z</time></trkpt><trkpt lat="38.4734756" lon="14.9215524"><ele>242.8</ele><time>2026-04-25T15:24:42.985Z</time></trkpt><trkpt lat="38.473566" lon="14.9215116"><ele>239.4</ele><time>2026-04-25T15:24:43.985Z</time></trkpt><trkpt lat="38.473657" lon="14.9214809"><ele>236.0</ele><time>2026-04-25T15:24:44.985Z</time></trkpt><trkpt lat="38.4737489" lon="14.92145"><ele>238.16666666666669</ele><time>2026-04-25T15:24:45.985Z</time></trkpt><trkpt lat="38.4738398" lon="14.9214137"><ele>240.33333333333334</ele><time>2026-04-25T15:24:46.986Z</time></trkpt><trkpt lat="38.4739313" lon="14.921376"><ele>242.5</ele><time>2026-04-25T15:24:47.986Z</time></trkpt><trkpt lat="38.4740152" lon="14.9213412"><ele>244.66666666666669</ele><time>2026-04-25T15:24:48.985Z</time></trkpt><trkpt lat="38.4740915" lon="14.9213012"><ele>246.83333333333334</ele><time>2026-04-25T15:24:49.986Z</time></trkpt><trkpt lat="38.4741521" lon="14.9212384"><ele>249.0</ele><time>2026-04-25T15:24:50.985Z</time></trkpt><trkpt lat="38.4741916" lon="14.9211518"><ele>249.0</ele><time>2026-04-25T15:24:51.985Z</time></trkpt><trkpt lat="38.4742123" lon="14.921057"><ele>249.0</ele><time>2026-04-25T15:24:52.985Z</time></trkpt><trkpt lat="38.4742137" lon="14.9209478"><ele>249.0</ele><time>2026-04-25T15:24:53.985Z</time></trkpt><trkpt lat="38.4742018" lon="14.92084"><ele>249.0</ele><time>2026-04-25T15:24:54.986Z</time></trkpt><trkpt lat="38.4741844" lon="14.9207432"><ele>249.0</ele><time>2026-04-25T15:24:55.985Z</time></trkpt><trkpt lat="38.4741716" lon="14.9206373"><ele>249.0</ele><time>2026-04-25T15:24:56.985Z</time></trkpt><trkpt lat="38.4741633" lon="14.9205342"><ele>247.14285714285714</ele><time>2026-04-25T15:24:57.986Z</time></trkpt><trkpt lat="38.4741595" lon="14.9204474"><ele>245.28571428571428</ele><time>2026-04-25T15:24:58.985Z</time></trkpt><trkpt lat="38.474162" lon="14.9203444"><ele>243.42857142857142</ele><time>2026-04-25T15:24:59.986Z</time></trkpt><trkpt lat="38.47418" lon="14.9202526"><ele>241.57142857142856</ele><time>2026-04-25T15:25:00.986Z</time></trkpt><trkpt lat="38.4742174" lon="14.9201704"><ele>239.71428571428572</ele><time>2026-04-25T15:25:01.985Z</time></trkpt><trkpt lat="38.4742707" lon="14.9201019"><ele>237.85714285714283</ele><time>2026-04-25T15:25:02.985Z</time></trkpt><trkpt lat="38.4743351" lon="14.9200523"><ele>236.0</ele><time>2026-04-25T15:25:03.985Z</time></trkpt><trkpt lat="38.4744154" lon="14.9200239"><ele>234.66666666666669</ele><time>2026-04-25T15:25:04.985Z</time></trkpt><trkpt lat="38.4744972" lon="14.9200247"><ele>233.33333333333334</ele><time>2026-04-25T15:25:05.985Z</time></trkpt><trkpt lat="38.4745773" lon="14.9200309"><ele>232.0</ele><time>2026-04-25T15:25:06.986Z</time></trkpt><trkpt lat="38.4746713" lon="14.9200466"><ele>230.66666666666669</ele><time>2026-04-25T15:25:07.985Z</time></trkpt><trkpt lat="38.4747593" lon="14.9200508"><ele>229.33333333333334</ele><time>2026-04-25T15:25:08.986Z</time></trkpt><trkpt lat="38.4748487" lon="14.9200476"><ele>228.0</ele><time>2026-04-25T15:25:09.985Z</time></trkpt><trkpt lat="38.4749349" lon="14.9200281"><ele>228.0</ele><time>2026-04-25T15:25:10.986Z</time></trkpt><trkpt lat="38.4750284" lon="14.9200066"><ele>228.0</ele><time>2026-04-25T15:25:11.986Z</time></trkpt><trkpt lat="38.4751112" lon="14.9199804"><ele>228.0</ele><time>2026-04-25T15:25:12.986Z</time></trkpt><trkpt lat="38.4751894" lon="14.9199449"><ele>228.0</ele><time>2026-04-25T15:25:13.985Z</time></trkpt><trkpt lat="38.4752606" lon="14.9198866"><ele>228.0</ele><time>2026-04-25T15:25:14.986Z</time></trkpt><trkpt lat="38.475324" lon="14.9198107"><ele>228.0</ele><time>2026-04-25T15:25:15.985Z</time></trkpt><trkpt lat="38.4753783" lon="14.9197379"><ele>228.0</ele><time>2026-04-25T15:25:16.985Z</time></trkpt><trkpt lat="38.4754361" lon="14.9196566"><ele>228.0</ele><time>2026-04-25T15:25:17.986Z</time></trkpt><trkpt lat="38.4754901" lon="14.9195732"><ele>228.0</ele><time>2026-04-25T15:25:18.985Z</time></trkpt><trkpt lat="38.4755439" lon="14.9194914"><ele>228.0</ele><time>2026-04-25T15:25:19.985Z</time></trkpt><trkpt lat="38.4755947" lon="14.9194229"><ele>228.0</ele><time>2026-04-25T15:25:20.986Z</time></trkpt><trkpt lat="38.475647" lon="14.9193651"><ele>228.0</ele><time>2026-04-25T15:25:21.985Z</time></trkpt><trkpt lat="38.4757626" lon="14.9193756"><ele>225.8</ele><time>2026-04-25T15:25:23.985Z</time></trkpt><trkpt lat="38.475819" lon="14.9194978"><ele>223.60000000000002</ele><time>2026-04-25T15:25:25.986Z</time></trkpt><trkpt lat="38.4758254" lon="14.9196632"><ele>221.39999999999998</ele><time>2026-04-25T15:25:27.985Z</time></trkpt><trkpt lat="38.4758103" lon="14.9197711"><ele>219.2</ele><time>2026-04-25T15:25:28.986Z</time></trkpt><trkpt lat="38.4757987" lon="14.9198757"><ele>217.0</ele><time>2026-04-25T15:25:29.985Z</time></trkpt><trkpt lat="38.4757978" lon="14.9199739"><ele>219.16666666666666</ele><time>2026-04-25T15:25:30.986Z</time></trkpt><trkpt lat="38.4758009" lon="14.9200783"><ele>221.33333333333331</ele><time>2026-04-25T15:25:31.986Z</time></trkpt><trkpt lat="38.475814" lon="14.9201854"><ele>223.5</ele><time>2026-04-25T15:25:32.986Z</time></trkpt><trkpt lat="38.4758253" lon="14.9202888"><ele>225.66666666666669</ele><time>2026-04-25T15:25:33.986Z</time></trkpt><trkpt lat="38.475818" lon="14.9203765"><ele>227.83333333333334</ele><time>2026-04-25T15:25:34.985Z</time></trkpt><trkpt lat="38.4758233" lon="14.9204586"><ele>230.0</ele><time>2026-04-25T15:25:35.985Z</time></trkpt><trkpt lat="38.4758397" lon="14.9205972"><ele>230.0</ele><time>2026-04-25T15:25:37.985Z</time></trkpt><trkpt lat="38.475948" lon="14.9206335"><ele>230.0</ele><time>2026-04-25T15:25:39.986Z</time></trkpt><trkpt lat="38.4760273" lon="14.9205134"><ele>230.0</ele><time>2026-04-25T15:25:41.986Z</time></trkpt><trkpt lat="38.476045" lon="14.9204262"><ele>230.0</ele><time>2026-04-25T15:25:42.985Z</time></trkpt><trkpt lat="38.4760668" lon="14.9203283"><ele>230.0</ele><time>2026-04-25T15:25:43.986Z</time></trkpt><trkpt lat="38.4760989" lon="14.9202386"><ele>230.00000000000003</ele><time>2026-04-25T15:25:44.985Z</time></trkpt><trkpt lat="38.4761389" lon="14.9201388"><ele>230.0</ele><time>2026-04-25T15:25:45.986Z</time></trkpt><trkpt lat="38.4761911" lon="14.9200417"><ele>230.0</ele><time>2026-04-25T15:25:46.985Z</time></trkpt><trkpt lat="38.476239" lon="14.919954"><ele>230.0</ele><time>2026-04-25T15:25:47.985Z</time></trkpt><trkpt lat="38.4762735" lon="14.919842"><ele>230.00000000000003</ele><time>2026-04-25T15:25:48.986Z</time></trkpt><trkpt lat="38.4763121" lon="14.919737"><ele>230.0</ele><time>2026-04-25T15:25:49.986Z</time></trkpt><trkpt lat="38.4763507" lon="14.9196224"><ele>232.16666666666669</ele><time>2026-04-25T15:25:50.985Z</time></trkpt><trkpt lat="38.4763817" lon="14.919513"><ele>234.33333333333334</ele><time>2026-04-25T15:25:51.986Z</time></trkpt><trkpt lat="38.4764047" lon="14.9194049"><ele>236.5</ele><time>2026-04-25T15:25:52.985Z</time></trkpt><trkpt lat="38.4764192" lon="14.9192946"><ele>238.66666666666669</ele><time>2026-04-25T15:25:53.986Z</time></trkpt><trkpt lat="38.4764308" lon="14.9191885"><ele>240.83333333333334</ele><time>2026-04-25T15:25:54.985Z</time></trkpt><trkpt lat="38.4764371" lon="14.9190727"><ele>243.0</ele><time>2026-04-25T15:25:55.986Z</time></trkpt><trkpt lat="38.4764319" lon="14.9189637"><ele>238.16666666666666</ele><time>2026-04-25T15:25:56.985Z</time></trkpt><trkpt lat="38.4764341" lon="14.918851"><ele>233.33333333333331</ele><time>2026-04-25T15:25:57.985Z</time></trkpt><trkpt lat="38.4764351" lon="14.9187295"><ele>228.5</ele><time>2026-04-25T15:25:58.985Z</time></trkpt><trkpt lat="38.4764369" lon="14.9186306"><ele>223.66666666666666</ele><time>2026-04-25T15:25:59.985Z</time></trkpt><trkpt lat="38.4764484" lon="14.9185177"><ele>218.83333333333331</ele><time>2026-04-25T15:26:00.986Z</time></trkpt><trkpt lat="38.4764636" lon="14.9184106"><ele>214.0</ele><time>2026-04-25T15:26:01.985Z</time></trkpt><trkpt lat="38.4764825" lon="14.9183062"><ele>211.39999999999998</ele><time>2026-04-25T15:26:02.985Z</time></trkpt><trkpt lat="38.476506" lon="14.9181876"><ele>208.79999999999998</ele><time>2026-04-25T15:26:03.985Z</time></trkpt><trkpt lat="38.4765214" lon="14.9180643"><ele>206.2</ele><time>2026-04-25T15:26:04.985Z</time></trkpt><trkpt lat="38.4765328" lon="14.9179477"><ele>203.60000000000002</ele><time>2026-04-25T15:26:05.985Z</time></trkpt><trkpt lat="38.4765348" lon="14.9178296"><ele>201.0</ele><time>2026-04-25T15:26:06.986Z</time></trkpt><trkpt lat="38.4765341" lon="14.9177081"><ele>201.0</ele><time>2026-04-25T15:26:07.986Z</time></trkpt><trkpt lat="38.4765349" lon="14.9175935"><ele>201.0</ele><time>2026-04-25T15:26:08.986Z</time></trkpt><trkpt lat="38.4765364" lon="14.9174753"><ele>201.0</ele><time>2026-04-25T15:26:09.986Z</time></trkpt><trkpt lat="38.4765392" lon="14.9173571"><ele>201.0</ele><time>2026-04-25T15:26:10.985Z</time></trkpt><trkpt lat="38.4765353" lon="14.9172424"><ele>201.0</ele><time>2026-04-25T15:26:11.986Z</time></trkpt><trkpt lat="38.4765152" lon="14.9171315"><ele>200.5</ele><time>2026-04-25T15:26:12.985Z</time></trkpt><trkpt lat="38.4764854" lon="14.9170278"><ele>200.0</ele><time>2026-04-25T15:26:13.985Z</time></trkpt><trkpt lat="38.4764484" lon="14.9169245"><ele>199.5</ele><time>2026-04-25T15:26:14.986Z</time></trkpt><trkpt lat="38.4764058" lon="14.9168259"><ele>199.0</ele><time>2026-04-25T15:26:15.985Z</time></trkpt><trkpt lat="38.4763606" lon="14.9167295"><ele>198.5</ele><time>2026-04-25T15:26:16.986Z</time></trkpt><trkpt lat="38.4763123" lon="14.9166323"><ele>198.0</ele><time>2026-04-25T15:26:17.985Z</time></trkpt><trkpt lat="38.4762648" lon="14.9165238"><ele>194.2</ele><time>2026-04-25T15:26:18.985Z</time></trkpt><trkpt lat="38.4762222" lon="14.9164212"><ele>190.4</ele><time>2026-04-25T15:26:19.986Z</time></trkpt><trkpt lat="38.4761705" lon="14.9163264"><ele>186.6</ele><time>2026-04-25T15:26:20.986Z</time></trkpt><trkpt lat="38.4761002" lon="14.9162379"><ele>182.79999999999998</ele><time>2026-04-25T15:26:21.985Z</time></trkpt><trkpt lat="38.4760389" lon="14.9161573"><ele>179.0</ele><time>2026-04-25T15:26:22.986Z</time></trkpt><trkpt lat="38.4759672" lon="14.9160883"><ele>179.0</ele><time>2026-04-25T15:26:23.986Z</time></trkpt><trkpt lat="38.4758965" lon="14.9160452"><ele>179.0</ele><time>2026-04-25T15:26:24.985Z</time></trkpt><trkpt lat="38.4758197" lon="14.9160247"><ele>179.0</ele><time>2026-04-25T15:26:25.985Z</time></trkpt><trkpt lat="38.4757311" lon="14.9160192"><ele>179.0</ele><time>2026-04-25T15:26:26.986Z</time></trkpt><trkpt lat="38.4756539" lon="14.9160106"><ele>179.0</ele><time>2026-04-25T15:26:27.986Z</time></trkpt><trkpt lat="38.4755686" lon="14.915997"><ele>179.0</ele><time>2026-04-25T15:26:28.985Z</time></trkpt><trkpt lat="38.4754917" lon="14.9159708"><ele>178.66666666666666</ele><time>2026-04-25T15:26:29.985Z</time></trkpt><trkpt lat="38.4754116" lon="14.9159367"><ele>178.33333333333331</ele><time>2026-04-25T15:26:30.985Z</time></trkpt><trkpt lat="38.4753473" lon="14.9158858"><ele>178.0</ele><time>2026-04-25T15:26:31.985Z</time></trkpt><trkpt lat="38.4752774" lon="14.9158499"><ele>177.66666666666666</ele><time>2026-04-25T15:26:32.986Z</time></trkpt><trkpt lat="38.4752187" lon="14.9158042"><ele>177.33333333333334</ele><time>2026-04-25T15:26:33.985Z</time></trkpt><trkpt lat="38.4751503" lon="14.9157489"><ele>177.0</ele><time>2026-04-25T15:26:34.985Z</time></trkpt><trkpt lat="38.4750771" lon="14.9156845"><ele>177.0</ele><time>2026-04-25T15:26:35.985Z</time></trkpt><trkpt lat="38.4750064" lon="14.915633"><ele>177.0</ele><time>2026-04-25T15:26:36.986Z</time></trkpt><trkpt lat="38.4749373" lon="14.9155845"><ele>177.0</ele><time>2026-04-25T15:26:37.985Z</time></trkpt><trkpt lat="38.4748814" lon="14.9155328"><ele>177.0</ele><time>2026-04-25T15:26:38.986Z</time></trkpt><trkpt lat="38.4748226" lon="14.9154664"><ele>177.0</ele><time>2026-04-25T15:26:39.985Z</time></trkpt><trkpt lat="38.474783" lon="14.9153968"><ele>177.0</ele><time>2026-04-25T15:26:40.985Z</time></trkpt><trkpt lat="38.4747527" lon="14.9153245"><ele>177.0</ele><time>2026-04-25T15:26:41.985Z</time></trkpt><trkpt lat="38.4747469" lon="14.9152357"><ele>177.0</ele><time>2026-04-25T15:26:42.985Z</time></trkpt><trkpt lat="38.4747607" lon="14.9151445"><ele>177.0</ele><time>2026-04-25T15:26:43.985Z</time></trkpt><trkpt lat="38.4747848" lon="14.9150505"><ele>177.0</ele><time>2026-04-25T15:26:44.986Z</time></trkpt><trkpt lat="38.4748123" lon="14.9149583"><ele>177.0</ele><time>2026-04-25T15:26:45.985Z</time></trkpt><trkpt lat="38.4748414" lon="14.9148688"><ele>177.0</ele><time>2026-04-25T15:26:46.985Z</time></trkpt><trkpt lat="38.4748621" lon="14.9147693"><ele>177.0</ele><time>2026-04-25T15:26:47.985Z</time></trkpt><trkpt lat="38.4748844" lon="14.9146689"><ele>178.33333333333334</ele><time>2026-04-25T15:26:48.986Z</time></trkpt><trkpt lat="38.4748856" lon="14.9145668"><ele>179.66666666666666</ele><time>2026-04-25T15:26:49.985Z</time></trkpt><trkpt lat="38.4748733" lon="14.9144754"><ele>181.0</ele><time>2026-04-25T15:26:50.985Z</time></trkpt><trkpt lat="38.4748556" lon="14.9143731"><ele>182.33333333333331</ele><time>2026-04-25T15:26:51.986Z</time></trkpt><trkpt lat="38.4748388" lon="14.9142749"><ele>183.66666666666666</ele><time>2026-04-25T15:26:52.985Z</time></trkpt><trkpt lat="38.4748342" lon="14.9141707"><ele>185.0</ele><time>2026-04-25T15:26:53.986Z</time></trkpt><trkpt lat="38.4748271" lon="14.9140687"><ele>184.99999999999997</ele><time>2026-04-25T15:26:54.986Z</time></trkpt><trkpt lat="38.4748094" lon="14.9139804"><ele>185.0</ele><time>2026-04-25T15:26:55.986Z</time></trkpt><trkpt lat="38.4748029" lon="14.9138874"><ele>185.0</ele><time>2026-04-25T15:26:56.985Z</time></trkpt><trkpt lat="38.4747966" lon="14.9137977"><ele>185.0</ele><time>2026-04-25T15:26:57.986Z</time></trkpt><trkpt lat="38.4747903" lon="14.9137148"><ele>185.0</ele><time>2026-04-25T15:26:58.985Z</time></trkpt><trkpt lat="38.4747853" lon="14.9136255"><ele>184.99999999999997</ele><time>2026-04-25T15:26:59.985Z</time></trkpt><trkpt lat="38.4747898" lon="14.9135334"><ele>185.0</ele><time>2026-04-25T15:27:00.986Z</time></trkpt><trkpt lat="38.4748082" lon="14.9134457"><ele>183.66666666666666</ele><time>2026-04-25T15:27:01.985Z</time></trkpt><trkpt lat="38.4748395" lon="14.9133588"><ele>182.33333333333331</ele><time>2026-04-25T15:27:02.985Z</time></trkpt><trkpt lat="38.4748748" lon="14.9132743"><ele>181.0</ele><time>2026-04-25T15:27:03.986Z</time></trkpt><trkpt lat="38.4749181" lon="14.9131918"><ele>179.66666666666666</ele><time>2026-04-25T15:27:04.985Z</time></trkpt><trkpt lat="38.474971" lon="14.9131088"><ele>178.33333333333334</ele><time>2026-04-25T15:27:05.986Z</time></trkpt><trkpt lat="38.4750256" lon="14.9130301"><ele>177.0</ele><time>2026-04-25T15:27:06.985Z</time></trkpt><trkpt lat="38.4750819" lon="14.9129503"><ele>177.0</ele><time>2026-04-25T15:27:07.985Z</time></trkpt><trkpt lat="38.4751397" lon="14.9128747"><ele>177.0</ele><time>2026-04-25T15:27:08.986Z</time></trkpt><trkpt lat="38.4751944" lon="14.9128032"><ele>177.0</ele><time>2026-04-25T15:27:09.986Z</time></trkpt><trkpt lat="38.4752529" lon="14.9127243"><ele>177.0</ele><time>2026-04-25T15:27:10.986Z</time></trkpt><trkpt lat="38.4753104" lon="14.9126476"><ele>177.0</ele><time>2026-04-25T15:27:11.986Z</time></trkpt><trkpt lat="38.4753705" lon="14.9125714"><ele>177.0</ele><time>2026-04-25T15:27:12.986Z</time></trkpt><trkpt lat="38.4754273" lon="14.912483"><ele>177.16666666666666</ele><time>2026-04-25T15:27:13.985Z</time></trkpt><trkpt lat="38.4754865" lon="14.9124043"><ele>177.33333333333334</ele><time>2026-04-25T15:27:14.986Z</time></trkpt><trkpt lat="38.4755348" lon="14.9123143"><ele>177.5</ele><time>2026-04-25T15:27:15.986Z</time></trkpt><trkpt lat="38.4755732" lon="14.9122125"><ele>177.66666666666669</ele><time>2026-04-25T15:27:16.985Z</time></trkpt><trkpt lat="38.4755946" lon="14.9121045"><ele>177.83333333333334</ele><time>2026-04-25T15:27:17.986Z</time></trkpt><trkpt lat="38.4756256" lon="14.9120121"><ele>178.0</ele><time>2026-04-25T15:27:18.985Z</time></trkpt><trkpt lat="38.4756557" lon="14.9119117"><ele>178.0</ele><time>2026-04-25T15:27:19.986Z</time></trkpt><trkpt lat="38.4756938" lon="14.9118131"><ele>178.0</ele><time>2026-04-25T15:27:20.985Z</time></trkpt><trkpt lat="38.4757334" lon="14.9117193"><ele>178.0</ele><time>2026-04-25T15:27:21.986Z</time></trkpt><trkpt lat="38.4757801" lon="14.9116363"><ele>178.0</ele><time>2026-04-25T15:27:22.986Z</time></trkpt><trkpt lat="38.4758359" lon="14.9115628"><ele>178.0</ele><time>2026-04-25T15:27:23.985Z</time></trkpt><trkpt lat="38.4759046" lon="14.9115034"><ele>178.0</ele><time>2026-04-25T15:27:24.985Z</time></trkpt><trkpt lat="38.4759667" lon="14.9114381"><ele>178.8</ele><time>2026-04-25T15:27:25.985Z</time></trkpt><trkpt lat="38.4760355" lon="14.9113746"><ele>179.60000000000002</ele><time>2026-04-25T15:27:26.985Z</time></trkpt><trkpt lat="38.4761034" lon="14.9113037"><ele>180.39999999999998</ele><time>2026-04-25T15:27:27.986Z</time></trkpt><trkpt lat="38.4761758" lon="14.9112336"><ele>181.2</ele><time>2026-04-25T15:27:28.985Z</time></trkpt><trkpt lat="38.4762503" lon="14.9111607"><ele>182.0</ele><time>2026-04-25T15:27:29.986Z</time></trkpt><trkpt lat="38.4763193" lon="14.9110787"><ele>182.0</ele><time>2026-04-25T15:27:30.986Z</time></trkpt><trkpt lat="38.4763864" lon="14.910977"><ele>182.0</ele><time>2026-04-25T15:27:31.985Z</time></trkpt><trkpt lat="38.476437" lon="14.9108767"><ele>182.0</ele><time>2026-04-25T15:27:32.986Z</time></trkpt><trkpt lat="38.4764689" lon="14.91076"><ele>182.0</ele><time>2026-04-25T15:27:33.985Z</time></trkpt><trkpt lat="38.4764937" lon="14.9106448"><ele>182.0</ele><time>2026-04-25T15:27:34.985Z</time></trkpt><trkpt lat="38.4765064" lon="14.9105373"><ele>179.83333333333331</ele><time>2026-04-25T15:27:35.985Z</time></trkpt><trkpt lat="38.4765269" lon="14.9104334"><ele>177.66666666666666</ele><time>2026-04-25T15:27:36.985Z</time></trkpt><trkpt lat="38.4765492" lon="14.9103254"><ele>175.5</ele><time>2026-04-25T15:27:37.985Z</time></trkpt><trkpt lat="38.4765739" lon="14.9102219"><ele>173.33333333333334</ele><time>2026-04-25T15:27:38.985Z</time></trkpt><trkpt lat="38.4765918" lon="14.9101262"><ele>171.16666666666669</ele><time>2026-04-25T15:27:39.986Z</time></trkpt><trkpt lat="38.4766134" lon="14.9100279"><ele>169.0</ele><time>2026-04-25T15:27:40.985Z</time></trkpt><trkpt lat="38.4766362" lon="14.9099244"><ele>166.66666666666669</ele><time>2026-04-25T15:27:41.985Z</time></trkpt><trkpt lat="38.4766634" lon="14.909822"><ele>164.33333333333334</ele><time>2026-04-25T15:27:42.985Z</time></trkpt><trkpt lat="38.4766972" lon="14.9097342"><ele>162.0</ele><time>2026-04-25T15:27:43.985Z</time></trkpt><trkpt lat="38.4767403" lon="14.9096589"><ele>159.66666666666666</ele><time>2026-04-25T15:27:44.985Z</time></trkpt><trkpt lat="38.476795" lon="14.9095957"><ele>157.33333333333331</ele><time>2026-04-25T15:27:45.985Z</time></trkpt><trkpt lat="38.4768585" lon="14.9095425"><ele>155.0</ele><time>2026-04-25T15:27:46.986Z</time></trkpt><trkpt lat="38.4769254" lon="14.9095063"><ele>155.0</ele><time>2026-04-25T15:27:47.985Z</time></trkpt><trkpt lat="38.4769974" lon="14.9094834"><ele>155.0</ele><time>2026-04-25T15:27:48.985Z</time></trkpt><trkpt lat="38.4770666" lon="14.9094674"><ele>155.0</ele><time>2026-04-25T15:27:49.985Z</time></trkpt><trkpt lat="38.4771303" lon="14.909473"><ele>155.0</ele><time>2026-04-25T15:27:50.985Z</time></trkpt><trkpt lat="38.4772001" lon="14.9095158"><ele>155.0</ele><time>2026-04-25T15:27:51.985Z</time></trkpt><trkpt lat="38.4772668" lon="14.9095547"><ele>155.0</ele><time>2026-04-25T15:27:52.985Z</time></trkpt><trkpt lat="38.4773373" lon="14.9096157"><ele>155.0</ele><time>2026-04-25T15:27:53.985Z</time></trkpt><trkpt lat="38.4773917" lon="14.9096827"><ele>156.0</ele><time>2026-04-25T15:27:54.986Z</time></trkpt><trkpt lat="38.4774445" lon="14.9097468"><ele>157.0</ele><time>2026-04-25T15:27:55.986Z</time></trkpt><trkpt lat="38.4774937" lon="14.9098099"><ele>158.0</ele><time>2026-04-25T15:27:56.986Z</time></trkpt><trkpt lat="38.4775369" lon="14.9098709"><ele>159.0</ele><time>2026-04-25T15:27:57.986Z</time></trkpt><trkpt lat="38.4776294" lon="14.9099607"><ele>160.0</ele><time>2026-04-25T15:27:59.986Z</time></trkpt><trkpt lat="38.4776757" lon="14.9100164"><ele>161.0</ele><time>2026-04-25T15:28:00.986Z</time></trkpt><trkpt lat="38.4777491" lon="14.9101034"><ele>161.0</ele><time>2026-04-25T15:28:02.985Z</time></trkpt><trkpt lat="38.4777983" lon="14.9101919"><ele>161.0</ele><time>2026-04-25T15:28:04.986Z</time></trkpt><trkpt lat="38.4777957" lon="14.9101092"><ele>161.0</ele><time>2026-04-25T15:28:21.985Z</time></trkpt><trkpt lat="38.477741" lon="14.9100451"><ele>161.0</ele><time>2026-04-25T15:28:23.986Z</time></trkpt><trkpt lat="38.4776906" lon="14.9099736"><ele>161.0</ele><time>2026-04-25T15:28:25.986Z</time></trkpt><trkpt lat="38.4776341" lon="14.9099135"><ele>161.0</ele><time>2026-04-25T15:29:35.985Z</time></trkpt><trkpt lat="38.4776351" lon="14.9098233"><ele>161.0</ele><time>2026-04-25T15:30:35.986Z</time></trkpt><trkpt lat="38.4776481" lon="14.9099028"><ele>161.0</ele><time>2026-04-25T15:32:19.986Z</time></trkpt><trkpt lat="38.4776811" lon="14.9099723"><ele>161.0</ele><time>2026-04-25T15:32:38.986Z</time></trkpt><trkpt lat="38.4777329" lon="14.9100206"><ele>161.0</ele><time>2026-04-25T15:32:43.991Z</time></trkpt><trkpt lat="38.4777858" lon="14.9100793"><ele>161.0</ele><time>2026-04-25T15:32:48.985Z</time></trkpt><trkpt lat="38.4778319" lon="14.9101552"><ele>161.0</ele><time>2026-04-25T15:32:54.991Z</time></trkpt><trkpt lat="38.4778532" lon="14.9102401"><ele>161.0</ele><time>2026-04-25T15:33:00.887Z</time></trkpt><trkpt lat="38.477887" lon="14.9103121"><ele>161.0</ele><time>2026-04-25T15:33:07.029Z</time></trkpt><trkpt lat="38.4779239" lon="14.9103846"><ele>161.0</ele><time>2026-04-25T15:33:13.986Z</time></trkpt><trkpt lat="38.4779867" lon="14.9103685"><ele>161.0</ele><time>2026-04-25T15:33:21.985Z</time></trkpt><trkpt lat="38.4779263" lon="14.9103424"><ele>161.0</ele><time>2026-04-25T15:33:59.992Z</time></trkpt><trkpt lat="38.4778883" lon="14.9102766"><ele>161.0</ele><time>2026-04-25T15:34:34.036Z</time></trkpt><trkpt lat="38.4778475" lon="14.9102024"><ele>161.0</ele><time>2026-04-25T15:34:47.985Z</time></trkpt><trkpt lat="38.4778715" lon="14.9101203"><ele>161.0</ele><time>2026-04-25T15:36:34.986Z</time></trkpt><trkpt lat="38.4778106" lon="14.9100823"><ele>161.0</ele><time>2026-04-25T15:36:42.99Z</time></trkpt><trkpt lat="38.4777621" lon="14.9100184"><ele>161.0</ele><time>2026-04-25T15:36:50.985Z</time></trkpt><trkpt lat="38.4777038" lon="14.9099783"><ele>161.0</ele><time>2026-04-25T15:36:57.985Z</time></trkpt><trkpt lat="38.4776452" lon="14.9099433"><ele>161.0</ele><time>2026-04-25T15:37:04.986Z</time></trkpt><trkpt lat="38.4776067" lon="14.9098791"><ele>161.0</ele><time>2026-04-25T15:38:58.985Z</time></trkpt><trkpt lat="38.477531" lon="14.9098043"><ele>161.0</ele><time>2026-04-25T15:38:59.986Z</time></trkpt><trkpt lat="38.4774464" lon="14.909708"><ele>161.0</ele><time>2026-04-25T15:39:01.985Z</time></trkpt><trkpt lat="38.4773897" lon="14.9096669"><ele>161.0</ele><time>2026-04-25T15:39:02.986Z</time></trkpt><trkpt lat="38.4773413" lon="14.9096148"><ele>161.0</ele><time>2026-04-25T15:39:03.986Z</time></trkpt><trkpt lat="38.4772285" lon="14.9095359"><ele>161.0</ele><time>2026-04-25T15:39:05.986Z</time></trkpt><trkpt lat="38.4771664" lon="14.9094956"><ele>161.0</ele><time>2026-04-25T15:39:06.985Z</time></trkpt><trkpt lat="38.4771039" lon="14.909476"><ele>161.0</ele><time>2026-04-25T15:39:07.985Z</time></trkpt><trkpt lat="38.4770374" lon="14.9094703"><ele>161.0</ele><time>2026-04-25T15:39:08.985Z</time></trkpt><trkpt lat="38.4769681" lon="14.9094864"><ele>160.14285714285714</ele><time>2026-04-25T15:39:09.986Z</time></trkpt><trkpt lat="38.4769013" lon="14.909506"><ele>159.28571428571428</ele><time>2026-04-25T15:39:10.985Z</time></trkpt><trkpt lat="38.4768387" lon="14.9095249"><ele>158.42857142857144</ele><time>2026-04-25T15:39:11.986Z</time></trkpt><trkpt lat="38.4767799" lon="14.9095678"><ele>157.57142857142856</ele><time>2026-04-25T15:39:12.985Z</time></trkpt><trkpt lat="38.4767252" lon="14.9096201"><ele>156.71428571428572</ele><time>2026-04-25T15:39:13.985Z</time></trkpt><trkpt lat="38.4766806" lon="14.9097128"><ele>155.85714285714286</ele><time>2026-04-25T15:39:14.985Z</time></trkpt><trkpt lat="38.4766337" lon="14.9098135"><ele>155.0</ele><time>2026-04-25T15:39:15.986Z</time></trkpt><trkpt lat="38.4765931" lon="14.9099286"><ele>158.5</ele><time>2026-04-25T15:39:16.985Z</time></trkpt><trkpt lat="38.4765729" lon="14.9100807"><ele>162.0</ele><time>2026-04-25T15:39:17.986Z</time></trkpt><trkpt lat="38.4765438" lon="14.9102256"><ele>165.5</ele><time>2026-04-25T15:39:18.985Z</time></trkpt><trkpt lat="38.4765157" lon="14.9103694"><ele>169.0</ele><time>2026-04-25T15:39:19.986Z</time></trkpt><trkpt lat="38.4764857" lon="14.9105093"><ele>169.0</ele><time>2026-04-25T15:39:20.986Z</time></trkpt><trkpt lat="38.4764644" lon="14.9106451"><ele>169.0</ele><time>2026-04-25T15:39:21.986Z</time></trkpt><trkpt lat="38.476424" lon="14.9107485"><ele>169.0</ele><time>2026-04-25T15:39:22.986Z</time></trkpt><trkpt lat="38.4763867" lon="14.9108597"><ele>169.0</ele><time>2026-04-25T15:39:23.985Z</time></trkpt><trkpt lat="38.4763321" lon="14.9109645"><ele>169.0</ele><time>2026-04-25T15:39:24.986Z</time></trkpt><trkpt lat="38.4762745" lon="14.9110566"><ele>167.79999999999998</ele><time>2026-04-25T15:39:25.985Z</time></trkpt><trkpt lat="38.4762067" lon="14.9111391"><ele>166.6</ele><time>2026-04-25T15:39:26.986Z</time></trkpt><trkpt lat="38.4761308" lon="14.9112194"><ele>165.4</ele><time>2026-04-25T15:39:27.986Z</time></trkpt><trkpt lat="38.4760493" lon="14.9112946"><ele>164.2</ele><time>2026-04-25T15:39:28.986Z</time></trkpt><trkpt lat="38.4759698" lon="14.9113713"><ele>163.0</ele><time>2026-04-25T15:39:29.986Z</time></trkpt><trkpt lat="38.4758912" lon="14.9114475"><ele>163.0</ele><time>2026-04-25T15:39:30.986Z</time></trkpt><trkpt lat="38.4758176" lon="14.9115343"><ele>163.0</ele><time>2026-04-25T15:39:31.985Z</time></trkpt><trkpt lat="38.4757476" lon="14.9116253"><ele>163.0</ele><time>2026-04-25T15:39:32.985Z</time></trkpt><trkpt lat="38.4756922" lon="14.9117344"><ele>163.0</ele><time>2026-04-25T15:39:33.985Z</time></trkpt><trkpt lat="38.4756442" lon="14.9118519"><ele>163.0</ele><time>2026-04-25T15:39:34.985Z</time></trkpt><trkpt lat="38.4756068" lon="14.9119695"><ele>161.8</ele><time>2026-04-25T15:39:35.986Z</time></trkpt><trkpt lat="38.4755665" lon="14.9120901"><ele>160.60000000000002</ele><time>2026-04-25T15:39:36.985Z</time></trkpt><trkpt lat="38.4755322" lon="14.9122027"><ele>159.39999999999998</ele><time>2026-04-25T15:39:37.986Z</time></trkpt><trkpt lat="38.475489" lon="14.9123052"><ele>158.2</ele><time>2026-04-25T15:39:38.985Z</time></trkpt><trkpt lat="38.4754346" lon="14.9124128"><ele>157.0</ele><time>2026-04-25T15:39:39.985Z</time></trkpt><trkpt lat="38.4753706" lon="14.9125125"><ele>161.0</ele><time>2026-04-25T15:39:40.985Z</time></trkpt><trkpt lat="38.4753124" lon="14.9125986"><ele>165.0</ele><time>2026-04-25T15:39:41.985Z</time></trkpt><trkpt lat="38.4752431" lon="14.9126834"><ele>169.0</ele><time>2026-04-25T15:39:42.985Z</time></trkpt><trkpt lat="38.4751701" lon="14.9127653"><ele>173.0</ele><time>2026-04-25T15:39:43.985Z</time></trkpt><trkpt lat="38.4751025" lon="14.9128545"><ele>177.0</ele><time>2026-04-25T15:39:44.986Z</time></trkpt><trkpt lat="38.4750435" lon="14.9129485"><ele>177.0</ele><time>2026-04-25T15:39:45.986Z</time></trkpt><trkpt lat="38.4749783" lon="14.9130382"><ele>177.0</ele><time>2026-04-25T15:39:46.985Z</time></trkpt><trkpt lat="38.4749189" lon="14.9131256"><ele>177.0</ele><time>2026-04-25T15:39:47.985Z</time></trkpt><trkpt lat="38.4748745" lon="14.9132166"><ele>177.0</ele><time>2026-04-25T15:39:48.986Z</time></trkpt><trkpt lat="38.4748335" lon="14.9133098"><ele>177.0</ele><time>2026-04-25T15:39:49.985Z</time></trkpt><trkpt lat="38.4747938" lon="14.9134021"><ele>177.0</ele><time>2026-04-25T15:39:50.985Z</time></trkpt><trkpt lat="38.4747729" lon="14.9135028"><ele>178.6</ele><time>2026-04-25T15:39:51.986Z</time></trkpt><trkpt lat="38.4747679" lon="14.9136073"><ele>180.2</ele><time>2026-04-25T15:39:52.986Z</time></trkpt><trkpt lat="38.474777" lon="14.9137223"><ele>181.8</ele><time>2026-04-25T15:39:53.985Z</time></trkpt><trkpt lat="38.4747881" lon="14.9138393"><ele>183.4</ele><time>2026-04-25T15:39:54.986Z</time></trkpt><trkpt lat="38.4748112" lon="14.9139543"><ele>185.0</ele><time>2026-04-25T15:39:55.986Z</time></trkpt><trkpt lat="38.4748312" lon="14.9140725"><ele>185.0</ele><time>2026-04-25T15:39:56.986Z</time></trkpt><trkpt lat="38.4748451" lon="14.9141894"><ele>185.0</ele><time>2026-04-25T15:39:57.985Z</time></trkpt><trkpt lat="38.4748547" lon="14.9143078"><ele>185.0</ele><time>2026-04-25T15:39:58.985Z</time></trkpt><trkpt lat="38.4748703" lon="14.9144197"><ele>185.0</ele><time>2026-04-25T15:39:59.985Z</time></trkpt><trkpt lat="38.4748848" lon="14.9145381"><ele>185.0</ele><time>2026-04-25T15:40:00.986Z</time></trkpt><trkpt lat="38.474884" lon="14.9146527"><ele>185.33333333333331</ele><time>2026-04-25T15:40:01.986Z</time></trkpt><trkpt lat="38.4748661" lon="14.9147595"><ele>185.66666666666666</ele><time>2026-04-25T15:40:02.986Z</time></trkpt><trkpt lat="38.4748307" lon="14.9148653"><ele>186.0</ele><time>2026-04-25T15:40:03.985Z</time></trkpt><trkpt lat="38.4747912" lon="14.9149687"><ele>186.33333333333334</ele><time>2026-04-25T15:40:04.986Z</time></trkpt><trkpt lat="38.4747526" lon="14.91506"><ele>186.66666666666669</ele><time>2026-04-25T15:40:05.986Z</time></trkpt><trkpt lat="38.4747233" lon="14.9151478"><ele>187.0</ele><time>2026-04-25T15:40:06.985Z</time></trkpt><trkpt lat="38.4747185" lon="14.9152444"><ele>185.33333333333334</ele><time>2026-04-25T15:40:07.985Z</time></trkpt><trkpt lat="38.4747274" lon="14.9153427"><ele>183.66666666666669</ele><time>2026-04-25T15:40:08.985Z</time></trkpt><trkpt lat="38.4747604" lon="14.9154292"><ele>182.0</ele><time>2026-04-25T15:40:09.985Z</time></trkpt><trkpt lat="38.4748126" lon="14.9155044"><ele>180.33333333333334</ele><time>2026-04-25T15:40:10.985Z</time></trkpt><trkpt lat="38.474879" lon="14.9155702"><ele>178.66666666666666</ele><time>2026-04-25T15:40:11.985Z</time></trkpt><trkpt lat="38.4749562" lon="14.9156176"><ele>177.0</ele><time>2026-04-25T15:40:12.985Z</time></trkpt><trkpt lat="38.4750396" lon="14.9156788"><ele>177.0</ele><time>2026-04-25T15:40:13.985Z</time></trkpt><trkpt lat="38.4751268" lon="14.9157463"><ele>177.0</ele><time>2026-04-25T15:40:14.985Z</time></trkpt><trkpt lat="38.4752076" lon="14.9158153"><ele>177.0</ele><time>2026-04-25T15:40:15.985Z</time></trkpt><trkpt lat="38.4752839" lon="14.9158822"><ele>177.0</ele><time>2026-04-25T15:40:16.986Z</time></trkpt><trkpt lat="38.475364" lon="14.9159456"><ele>177.0</ele><time>2026-04-25T15:40:17.986Z</time></trkpt><trkpt lat="38.4754436" lon="14.9159962"><ele>177.33333333333334</ele><time>2026-04-25T15:40:18.985Z</time></trkpt><trkpt lat="38.4755282" lon="14.916036"><ele>177.66666666666666</ele><time>2026-04-25T15:40:19.985Z</time></trkpt><trkpt lat="38.4756178" lon="14.9160564"><ele>178.0</ele><time>2026-04-25T15:40:20.986Z</time></trkpt><trkpt lat="38.4757098" lon="14.9160698"><ele>178.33333333333331</ele><time>2026-04-25T15:40:21.985Z</time></trkpt><trkpt lat="38.4757932" lon="14.9160848"><ele>178.66666666666666</ele><time>2026-04-25T15:40:22.985Z</time></trkpt><trkpt lat="38.4758778" lon="14.9161111"><ele>179.0</ele><time>2026-04-25T15:40:23.985Z</time></trkpt><trkpt lat="38.4759482" lon="14.9161504"><ele>179.0</ele><time>2026-04-25T15:40:24.986Z</time></trkpt><trkpt lat="38.4760102" lon="14.9161991"><ele>179.0</ele><time>2026-04-25T15:40:25.985Z</time></trkpt><trkpt lat="38.476075" lon="14.9162681"><ele>179.0</ele><time>2026-04-25T15:40:26.985Z</time></trkpt><trkpt lat="38.4761268" lon="14.9163369"><ele>179.0</ele><time>2026-04-25T15:40:27.985Z</time></trkpt><trkpt lat="38.4761705" lon="14.9164219"><ele>179.0</ele><time>2026-04-25T15:40:28.985Z</time></trkpt><trkpt lat="38.4762132" lon="14.9165072"><ele>179.0</ele><time>2026-04-25T15:40:29.985Z</time></trkpt><trkpt lat="38.4762615" lon="14.9165888"><ele>182.16666666666666</ele><time>2026-04-25T15:40:30.985Z</time></trkpt><trkpt lat="38.4763081" lon="14.9166846"><ele>185.33333333333331</ele><time>2026-04-25T15:40:31.985Z</time></trkpt><trkpt lat="38.4763559" lon="14.9167834"><ele>188.5</ele><time>2026-04-25T15:40:32.985Z</time></trkpt><trkpt lat="38.4763997" lon="14.916882"><ele>191.66666666666666</ele><time>2026-04-25T15:40:33.984Z</time></trkpt><trkpt lat="38.4764474" lon="14.9169771"><ele>194.83333333333334</ele><time>2026-04-25T15:40:34.986Z</time></trkpt><trkpt lat="38.4764815" lon="14.9170719"><ele>198.0</ele><time>2026-04-25T15:40:35.985Z</time></trkpt><trkpt lat="38.4765065" lon="14.9171694"><ele>198.0</ele><time>2026-04-25T15:40:36.986Z</time></trkpt><trkpt lat="38.4765217" lon="14.9172761"><ele>198.0</ele><time>2026-04-25T15:40:37.986Z</time></trkpt><trkpt lat="38.4765264" lon="14.9173887"><ele>198.0</ele><time>2026-04-25T15:40:38.985Z</time></trkpt><trkpt lat="38.4765309" lon="14.9175072"><ele>198.0</ele><time>2026-04-25T15:40:39.986Z</time></trkpt><trkpt lat="38.4765337" lon="14.917626"><ele>198.0</ele><time>2026-04-25T15:40:40.985Z</time></trkpt><trkpt lat="38.4765351" lon="14.9177428"><ele>198.60000000000002</ele><time>2026-04-25T15:40:41.985Z</time></trkpt><trkpt lat="38.476535" lon="14.9178587"><ele>199.20000000000002</ele><time>2026-04-25T15:40:42.985Z</time></trkpt><trkpt lat="38.4765266" lon="14.9179772"><ele>199.8</ele><time>2026-04-25T15:40:43.985Z</time></trkpt><trkpt lat="38.4765099" lon="14.9181001"><ele>200.4</ele><time>2026-04-25T15:40:44.985Z</time></trkpt><trkpt lat="38.4764908" lon="14.9182237"><ele>201.0</ele><time>2026-04-25T15:40:45.985Z</time></trkpt><trkpt lat="38.4764699" lon="14.918342"><ele>203.60000000000002</ele><time>2026-04-25T15:40:46.986Z</time></trkpt><trkpt lat="38.476448" lon="14.9184607"><ele>206.2</ele><time>2026-04-25T15:40:47.986Z</time></trkpt><trkpt lat="38.4764277" lon="14.9185729"><ele>208.79999999999998</ele><time>2026-04-25T15:40:48.986Z</time></trkpt><trkpt lat="38.47642" lon="14.9186906"><ele>211.39999999999998</ele><time>2026-04-25T15:40:49.986Z</time></trkpt><trkpt lat="38.4764197" lon="14.9188214"><ele>214.0</ele><time>2026-04-25T15:40:50.985Z</time></trkpt><trkpt lat="38.476416" lon="14.9189502"><ele>214.0</ele><time>2026-04-25T15:40:51.985Z</time></trkpt><trkpt lat="38.4764115" lon="14.9190843"><ele>213.99999999999997</ele><time>2026-04-25T15:40:52.985Z</time></trkpt><trkpt lat="38.4764048" lon="14.9192092"><ele>213.99999999999997</ele><time>2026-04-25T15:40:53.985Z</time></trkpt><trkpt lat="38.476394" lon="14.9193346"><ele>214.0</ele><time>2026-04-25T15:40:54.985Z</time></trkpt><trkpt lat="38.4763724" lon="14.9194517"><ele>214.0</ele><time>2026-04-25T15:40:55.986Z</time></trkpt><trkpt lat="38.4763409" lon="14.9195631"><ele>214.6</ele><time>2026-04-25T15:40:56.985Z</time></trkpt><trkpt lat="38.4762975" lon="14.9196786"><ele>215.2</ele><time>2026-04-25T15:40:57.986Z</time></trkpt><trkpt lat="38.4762625" lon="14.9197914"><ele>215.79999999999998</ele><time>2026-04-25T15:40:58.986Z</time></trkpt><trkpt lat="38.4761989" lon="14.9198868"><ele>216.39999999999998</ele><time>2026-04-25T15:40:59.985Z</time></trkpt><trkpt lat="38.4761548" lon="14.9199962"><ele>217.0</ele><time>2026-04-25T15:41:00.985Z</time></trkpt><trkpt lat="38.4761051" lon="14.9201095"><ele>219.16666666666666</ele><time>2026-04-25T15:41:01.985Z</time></trkpt><trkpt lat="38.4760689" lon="14.9202077"><ele>221.33333333333331</ele><time>2026-04-25T15:41:02.985Z</time></trkpt><trkpt lat="38.4760379" lon="14.9203074"><ele>223.5</ele><time>2026-04-25T15:41:03.986Z</time></trkpt><trkpt lat="38.4760131" lon="14.9203948"><ele>225.66666666666669</ele><time>2026-04-25T15:41:04.986Z</time></trkpt><trkpt lat="38.4759874" lon="14.9204686"><ele>227.83333333333334</ele><time>2026-04-25T15:41:05.985Z</time></trkpt><trkpt lat="38.4759247" lon="14.920575"><ele>230.0</ele><time>2026-04-25T15:41:07.985Z</time></trkpt><trkpt lat="38.4758174" lon="14.9205546"><ele>230.0</ele><time>2026-04-25T15:41:09.986Z</time></trkpt><trkpt lat="38.4757767" lon="14.9204261"><ele>230.0</ele><time>2026-04-25T15:41:11.985Z</time></trkpt><trkpt lat="38.4757584" lon="14.9202403"><ele>230.0</ele><time>2026-04-25T15:41:13.986Z</time></trkpt><trkpt lat="38.4757565" lon="14.9201351"><ele>230.0</ele><time>2026-04-25T15:41:14.985Z</time></trkpt><trkpt lat="38.475753" lon="14.9200299"><ele>230.0</ele><time>2026-04-25T15:41:15.986Z</time></trkpt><trkpt lat="38.4757586" lon="14.919917"><ele>227.83333333333334</ele><time>2026-04-25T15:41:16.985Z</time></trkpt><trkpt lat="38.4757682" lon="14.9198109"><ele>225.66666666666669</ele><time>2026-04-25T15:41:17.986Z</time></trkpt><trkpt lat="38.4757901" lon="14.9197096"><ele>223.5</ele><time>2026-04-25T15:41:18.986Z</time></trkpt><trkpt lat="38.4758213" lon="14.9196181"><ele>221.33333333333331</ele><time>2026-04-25T15:41:19.985Z</time></trkpt><trkpt lat="38.4758294" lon="14.9195302"><ele>219.16666666666666</ele><time>2026-04-25T15:41:20.985Z</time></trkpt><trkpt lat="38.4758047" lon="14.9193861"><ele>217.0</ele><time>2026-04-25T15:41:22.986Z</time></trkpt><trkpt lat="38.4757109" lon="14.9193165"><ele>217.0</ele><time>2026-04-25T15:41:24.985Z</time></trkpt><trkpt lat="38.4755996" lon="14.9193833"><ele>217.0</ele><time>2026-04-25T15:41:26.985Z</time></trkpt><trkpt lat="38.4755467" lon="14.9194478"><ele>217.0</ele><time>2026-04-25T15:41:27.985Z</time></trkpt><trkpt lat="38.4754984" lon="14.9195284"><ele>217.0</ele><time>2026-04-25T15:41:28.986Z</time></trkpt><trkpt lat="38.4754483" lon="14.9196174"><ele>217.0</ele><time>2026-04-25T15:41:29.985Z</time></trkpt><trkpt lat="38.4753922" lon="14.9197059"><ele>218.83333333333331</ele><time>2026-04-25T15:41:30.985Z</time></trkpt><trkpt lat="38.4753348" lon="14.9197922"><ele>220.66666666666666</ele><time>2026-04-25T15:41:31.986Z</time></trkpt><trkpt lat="38.4752685" lon="14.9198684"><ele>222.5</ele><time>2026-04-25T15:41:32.986Z</time></trkpt><trkpt lat="38.4751917" lon="14.9199407"><ele>224.33333333333331</ele><time>2026-04-25T15:41:33.986Z</time></trkpt><trkpt lat="38.4751154" lon="14.9199932"><ele>226.16666666666666</ele><time>2026-04-25T15:41:34.986Z</time></trkpt><trkpt lat="38.4750316" lon="14.9200257"><ele>228.0</ele><time>2026-04-25T15:41:35.985Z</time></trkpt><trkpt lat="38.4749423" lon="14.9200484"><ele>228.0</ele><time>2026-04-25T15:41:36.986Z</time></trkpt><trkpt lat="38.4748554" lon="14.9200579"><ele>228.0</ele><time>2026-04-25T15:41:37.985Z</time></trkpt><trkpt lat="38.4747715" lon="14.9200546"><ele>228.0</ele><time>2026-04-25T15:41:38.985Z</time></trkpt><trkpt lat="38.474675" lon="14.9200415"><ele>228.0</ele><time>2026-04-25T15:41:39.986Z</time></trkpt><trkpt lat="38.4745924" lon="14.9200256"><ele>228.0</ele><time>2026-04-25T15:41:40.985Z</time></trkpt><trkpt lat="38.4745028" lon="14.9200086"><ele>228.0</ele><time>2026-04-25T15:41:41.986Z</time></trkpt><trkpt lat="38.474424" lon="14.9199989"><ele>227.0</ele><time>2026-04-25T15:41:42.986Z</time></trkpt><trkpt lat="38.4743448" lon="14.9200202"><ele>226.0</ele><time>2026-04-25T15:41:43.985Z</time></trkpt><trkpt lat="38.4742711" lon="14.920064"><ele>225.0</ele><time>2026-04-25T15:41:44.985Z</time></trkpt><trkpt lat="38.4742082" lon="14.9201329"><ele>224.0</ele><time>2026-04-25T15:41:45.985Z</time></trkpt><trkpt lat="38.4741602" lon="14.920213"><ele>223.0</ele><time>2026-04-25T15:41:46.986Z</time></trkpt><trkpt lat="38.474133" lon="14.9203131"><ele>222.0</ele><time>2026-04-25T15:41:47.986Z</time></trkpt><trkpt lat="38.474125" lon="14.9204265"><ele>224.33333333333334</ele><time>2026-04-25T15:41:48.985Z</time></trkpt><trkpt lat="38.4741361" lon="14.9205366"><ele>226.66666666666669</ele><time>2026-04-25T15:41:49.986Z</time></trkpt><trkpt lat="38.4741507" lon="14.9206508"><ele>229.0</ele><time>2026-04-25T15:41:50.985Z</time></trkpt><trkpt lat="38.4741641" lon="14.9207665"><ele>231.33333333333334</ele><time>2026-04-25T15:41:51.986Z</time></trkpt><trkpt lat="38.4741765" lon="14.9208782"><ele>233.66666666666669</ele><time>2026-04-25T15:41:52.985Z</time></trkpt><trkpt lat="38.4741792" lon="14.9209823"><ele>236.0</ele><time>2026-04-25T15:41:53.985Z</time></trkpt><trkpt lat="38.4741628" lon="14.9210828"><ele>238.16666666666669</ele><time>2026-04-25T15:41:54.985Z</time></trkpt><trkpt lat="38.4741342" lon="14.9211715"><ele>240.33333333333334</ele><time>2026-04-25T15:41:55.985Z</time></trkpt><trkpt lat="38.4740863" lon="14.9212451"><ele>242.5</ele><time>2026-04-25T15:41:56.985Z</time></trkpt><trkpt lat="38.4740145" lon="14.9212924"><ele>244.66666666666669</ele><time>2026-04-25T15:41:57.985Z</time></trkpt><trkpt lat="38.4739411" lon="14.9213332"><ele>246.83333333333334</ele><time>2026-04-25T15:41:58.986Z</time></trkpt><trkpt lat="38.4738617" lon="14.9213696"><ele>249.0</ele><time>2026-04-25T15:41:59.985Z</time></trkpt><trkpt lat="38.4737763" lon="14.9214057"><ele>246.39999999999998</ele><time>2026-04-25T15:42:00.985Z</time></trkpt><trkpt lat="38.473688" lon="14.9214419"><ele>243.79999999999998</ele><time>2026-04-25T15:42:01.985Z</time></trkpt><trkpt lat="38.473602" lon="14.921474"><ele>241.20000000000002</ele><time>2026-04-25T15:42:02.985Z</time></trkpt><trkpt lat="38.4735096" lon="14.9215006"><ele>238.60000000000002</ele><time>2026-04-25T15:42:03.985Z</time></trkpt><trkpt lat="38.4734182" lon="14.9215332"><ele>236.0</ele><time>2026-04-25T15:42:04.986Z</time></trkpt><trkpt lat="38.473335" lon="14.9215817"><ele>236.0</ele><time>2026-04-25T15:42:05.985Z</time></trkpt><trkpt lat="38.4732703" lon="14.9216573"><ele>236.00000000000003</ele><time>2026-04-25T15:42:06.986Z</time></trkpt><trkpt lat="38.4732112" lon="14.9217522"><ele>236.00000000000003</ele><time>2026-04-25T15:42:07.986Z</time></trkpt><trkpt lat="38.4731706" lon="14.9218664"><ele>236.0</ele><time>2026-04-25T15:42:08.986Z</time></trkpt><trkpt lat="38.4731284" lon="14.9219848"><ele>236.0</ele><time>2026-04-25T15:42:09.985Z</time></trkpt><trkpt lat="38.4730807" lon="14.9221109"><ele>236.60000000000002</ele><time>2026-04-25T15:42:10.986Z</time></trkpt><trkpt lat="38.4730185" lon="14.9222151"><ele>237.20000000000002</ele><time>2026-04-25T15:42:11.985Z</time></trkpt><trkpt lat="38.472949" lon="14.922319"><ele>237.79999999999998</ele><time>2026-04-25T15:42:12.985Z</time></trkpt><trkpt lat="38.4728801" lon="14.9224166"><ele>238.39999999999998</ele><time>2026-04-25T15:42:13.985Z</time></trkpt><trkpt lat="38.472811" lon="14.9225152"><ele>239.0</ele><time>2026-04-25T15:42:14.985Z</time></trkpt><trkpt lat="38.4727428" lon="14.9226168"><ele>242.2</ele><time>2026-04-25T15:42:15.986Z</time></trkpt><trkpt lat="38.4726703" lon="14.9227156"><ele>245.39999999999998</ele><time>2026-04-25T15:42:16.985Z</time></trkpt><trkpt lat="38.4725969" lon="14.9228127"><ele>248.6</ele><time>2026-04-25T15:42:17.986Z</time></trkpt><trkpt lat="38.4725282" lon="14.9229175"><ele>251.8</ele><time>2026-04-25T15:42:18.986Z</time></trkpt><trkpt lat="38.4724553" lon="14.9230081"><ele>255.0</ele><time>2026-04-25T15:42:19.986Z</time></trkpt><trkpt lat="38.4723892" lon="14.9231024"><ele>255.0</ele><time>2026-04-25T15:42:20.985Z</time></trkpt><trkpt lat="38.4723344" lon="14.9231989"><ele>255.0</ele><time>2026-04-25T15:42:21.985Z</time></trkpt><trkpt lat="38.472297" lon="14.9233106"><ele>255.0</ele><time>2026-04-25T15:42:22.986Z</time></trkpt><trkpt lat="38.4722691" lon="14.9234314"><ele>255.0</ele><time>2026-04-25T15:42:23.985Z</time></trkpt><trkpt lat="38.4722483" lon="14.9235554"><ele>255.0</ele><time>2026-04-25T15:42:24.985Z</time></trkpt><trkpt lat="38.4722251" lon="14.9236782"><ele>257.0</ele><time>2026-04-25T15:42:25.985Z</time></trkpt><trkpt lat="38.472198" lon="14.9238057"><ele>259.0</ele><time>2026-04-25T15:42:26.985Z</time></trkpt><trkpt lat="38.4721693" lon="14.9239277"><ele>261.0</ele><time>2026-04-25T15:42:27.986Z</time></trkpt><trkpt lat="38.4721453" lon="14.9240534"><ele>263.0</ele><time>2026-04-25T15:42:28.985Z</time></trkpt><trkpt lat="38.4721251" lon="14.9241735"><ele>265.0</ele><time>2026-04-25T15:42:29.986Z</time></trkpt><trkpt lat="38.472108" lon="14.924288"><ele>265.2</ele><time>2026-04-25T15:42:30.985Z</time></trkpt><trkpt lat="38.4720863" lon="14.9244059"><ele>265.4</ele><time>2026-04-25T15:42:31.985Z</time></trkpt><trkpt lat="38.4720789" lon="14.9245209"><ele>265.6</ele><time>2026-04-25T15:42:32.985Z</time></trkpt><trkpt lat="38.4720862" lon="14.9246425"><ele>265.8</ele><time>2026-04-25T15:42:33.985Z</time></trkpt><trkpt lat="38.4721138" lon="14.9247645"><ele>266.0</ele><time>2026-04-25T15:42:34.986Z</time></trkpt><trkpt lat="38.4721497" lon="14.924879"><ele>266.33333333333337</ele><time>2026-04-25T15:42:35.985Z</time></trkpt><trkpt lat="38.4721813" lon="14.9249914"><ele>266.6666666666667</ele><time>2026-04-25T15:42:36.986Z</time></trkpt><trkpt lat="38.4722151" lon="14.9251062"><ele>267.0</ele><time>2026-04-25T15:42:37.986Z</time></trkpt><trkpt lat="38.4722467" lon="14.9252117"><ele>267.3333333333333</ele><time>2026-04-25T15:42:38.985Z</time></trkpt><trkpt lat="38.47228" lon="14.9253091"><ele>267.66666666666663</ele><time>2026-04-25T15:42:39.985Z</time></trkpt><trkpt lat="38.47231" lon="14.9253999"><ele>268.0</ele><time>2026-04-25T15:42:40.985Z</time></trkpt><trkpt lat="38.4723317" lon="14.9254818"><ele>268.16666666666663</ele><time>2026-04-25T15:42:41.985Z</time></trkpt><trkpt lat="38.4723275" lon="14.9256154"><ele>268.3333333333333</ele><time>2026-04-25T15:42:43.986Z</time></trkpt><trkpt lat="38.4722788" lon="14.925708"><ele>268.5</ele><time>2026-04-25T15:42:45.986Z</time></trkpt><trkpt lat="38.4721771" lon="14.9257613"><ele>268.6666666666667</ele><time>2026-04-25T15:42:47.985Z</time></trkpt><trkpt lat="38.4721116" lon="14.9257627"><ele>268.83333333333337</ele><time>2026-04-25T15:42:48.985Z</time></trkpt><trkpt lat="38.4720456" lon="14.9257645"><ele>269.0</ele><time>2026-04-25T15:42:49.985Z</time></trkpt><trkpt lat="38.4719621" lon="14.9257699"><ele>268.4</ele><time>2026-04-25T15:42:50.985Z</time></trkpt><trkpt lat="38.4718808" lon="14.9257763"><ele>267.79999999999995</ele><time>2026-04-25T15:42:51.985Z</time></trkpt><trkpt lat="38.4717793" lon="14.9257771"><ele>267.20000000000005</ele><time>2026-04-25T15:42:52.985Z</time></trkpt><trkpt lat="38.4716811" lon="14.9257846"><ele>266.6</ele><time>2026-04-25T15:42:53.986Z</time></trkpt><trkpt lat="38.4715807" lon="14.9258004"><ele>266.0</ele><time>2026-04-25T15:42:54.985Z</time></trkpt><trkpt lat="38.4714773" lon="14.9258181"><ele>266.0</ele><time>2026-04-25T15:42:55.985Z</time></trkpt><trkpt lat="38.4713803" lon="14.9258433"><ele>266.0</ele><time>2026-04-25T15:42:56.985Z</time></trkpt><trkpt lat="38.471286" lon="14.9258872"><ele>266.0</ele><time>2026-04-25T15:42:57.986Z</time></trkpt><trkpt lat="38.4711874" lon="14.9259247"><ele>266.0</ele><time>2026-04-25T15:42:58.985Z</time></trkpt><trkpt lat="38.4710869" lon="14.9259724"><ele>266.0</ele><time>2026-04-25T15:42:59.986Z</time></trkpt><trkpt lat="38.4709883" lon="14.9260177"><ele>265.0</ele><time>2026-04-25T15:43:00.986Z</time></trkpt><trkpt lat="38.4708833" lon="14.9260631"><ele>264.0</ele><time>2026-04-25T15:43:01.986Z</time></trkpt><trkpt lat="38.4707772" lon="14.9261095"><ele>263.0</ele><time>2026-04-25T15:43:02.985Z</time></trkpt><trkpt lat="38.4706727" lon="14.9261532"><ele>262.0</ele><time>2026-04-25T15:43:03.985Z</time></trkpt><trkpt lat="38.4705669" lon="14.9261981"><ele>261.0</ele><time>2026-04-25T15:43:04.985Z</time></trkpt><trkpt lat="38.4704562" lon="14.9262391"><ele>260.2</ele><time>2026-04-25T15:43:05.985Z</time></trkpt><trkpt lat="38.4703484" lon="14.9262771"><ele>259.40000000000003</ele><time>2026-04-25T15:43:06.985Z</time></trkpt><trkpt lat="38.4702425" lon="14.9263211"><ele>258.6</ele><time>2026-04-25T15:43:07.986Z</time></trkpt><trkpt lat="38.470135" lon="14.9263657"><ele>257.8</ele><time>2026-04-25T15:43:08.985Z</time></trkpt><trkpt lat="38.4700333" lon="14.9264144"><ele>257.0</ele><time>2026-04-25T15:43:09.985Z</time></trkpt><trkpt lat="38.4699341" lon="14.9264589"><ele>257.0</ele><time>2026-04-25T15:43:10.986Z</time></trkpt><trkpt lat="38.469827" lon="14.9265034"><ele>257.0</ele><time>2026-04-25T15:43:11.985Z</time></trkpt><trkpt lat="38.4697256" lon="14.9265465"><ele>257.0</ele><time>2026-04-25T15:43:12.985Z</time></trkpt><trkpt lat="38.4696179" lon="14.9265903"><ele>257.0</ele><time>2026-04-25T15:43:13.985Z</time></trkpt><trkpt lat="38.4695089" lon="14.9266369"><ele>257.0</ele><time>2026-04-25T15:43:14.986Z</time></trkpt><trkpt lat="38.4693973" lon="14.9266897"><ele>256.2</ele><time>2026-04-25T15:43:15.985Z</time></trkpt><trkpt lat="38.469289" lon="14.9267374"><ele>255.39999999999998</ele><time>2026-04-25T15:43:16.985Z</time></trkpt><trkpt lat="38.4691791" lon="14.9267828"><ele>254.60000000000002</ele><time>2026-04-25T15:43:17.986Z</time></trkpt><trkpt lat="38.4690733" lon="14.9268273"><ele>253.8</ele><time>2026-04-25T15:43:18.985Z</time></trkpt><trkpt lat="38.4689755" lon="14.9268662"><ele>253.0</ele><time>2026-04-25T15:43:19.985Z</time></trkpt><trkpt lat="38.4688759" lon="14.9269029"><ele>253.0</ele><time>2026-04-25T15:43:20.985Z</time></trkpt><trkpt lat="38.4687796" lon="14.9269493"><ele>253.0</ele><time>2026-04-25T15:43:21.986Z</time></trkpt><trkpt lat="38.4686835" lon="14.9269972"><ele>253.0</ele><time>2026-04-25T15:43:22.986Z</time></trkpt><trkpt lat="38.4685829" lon="14.9270412"><ele>253.0</ele><time>2026-04-25T15:43:23.985Z</time></trkpt><trkpt lat="38.4684826" lon="14.9270816"><ele>253.0</ele><time>2026-04-25T15:43:24.985Z</time></trkpt><trkpt lat="38.468377" lon="14.9271248"><ele>252.0</ele><time>2026-04-25T15:43:25.985Z</time></trkpt><trkpt lat="38.4682674" lon="14.9271712"><ele>251.0</ele><time>2026-04-25T15:43:26.985Z</time></trkpt><trkpt lat="38.4681608" lon="14.9272193"><ele>250.0</ele><time>2026-04-25T15:43:27.986Z</time></trkpt><trkpt lat="38.4680545" lon="14.9272702"><ele>249.0</ele><time>2026-04-25T15:43:28.986Z</time></trkpt><trkpt lat="38.4679456" lon="14.9273157"><ele>248.0</ele><time>2026-04-25T15:43:29.986Z</time></trkpt><trkpt lat="38.4678344" lon="14.9273499"><ele>247.0</ele><time>2026-04-25T15:43:30.986Z</time></trkpt><trkpt lat="38.4677207" lon="14.9273841"><ele>246.0</ele><time>2026-04-25T15:43:31.986Z</time></trkpt><trkpt lat="38.4676099" lon="14.92741"><ele>245.0</ele><time>2026-04-25T15:43:32.986Z</time></trkpt><trkpt lat="38.4674906" lon="14.9274309"><ele>245.0</ele><time>2026-04-25T15:43:33.986Z</time></trkpt><trkpt lat="38.467377" lon="14.9274464"><ele>245.0</ele><time>2026-04-25T15:43:34.985Z</time></trkpt><trkpt lat="38.4672629" lon="14.9274636"><ele>245.0</ele><time>2026-04-25T15:43:35.985Z</time></trkpt><trkpt lat="38.4671548" lon="14.9274728"><ele>245.0</ele><time>2026-04-25T15:43:36.985Z</time></trkpt><trkpt lat="38.4670391" lon="14.927476"><ele>244.6</ele><time>2026-04-25T15:43:37.986Z</time></trkpt><trkpt lat="38.4669264" lon="14.9274671"><ele>244.2</ele><time>2026-04-25T15:43:38.985Z</time></trkpt><trkpt lat="38.4668204" lon="14.9274551"><ele>243.8</ele><time>2026-04-25T15:43:39.986Z</time></trkpt><trkpt lat="38.4667169" lon="14.927446"><ele>243.4</ele><time>2026-04-25T15:43:40.985Z</time></trkpt><trkpt lat="38.4666112" lon="14.9274283"><ele>243.0</ele><time>2026-04-25T15:43:41.985Z</time></trkpt><trkpt lat="38.4665012" lon="14.9274084"><ele>243.0</ele><time>2026-04-25T15:43:42.986Z</time></trkpt><trkpt lat="38.466393" lon="14.9273977"><ele>243.0</ele><time>2026-04-25T15:43:43.985Z</time></trkpt><trkpt lat="38.4662858" lon="14.9273908"><ele>243.0</ele><time>2026-04-25T15:43:44.985Z</time></trkpt><trkpt lat="38.4661818" lon="14.92739"><ele>243.0</ele><time>2026-04-25T15:43:45.985Z</time></trkpt><trkpt lat="38.4660778" lon="14.9273934"><ele>243.0</ele><time>2026-04-25T15:43:46.985Z</time></trkpt><trkpt lat="38.4659786" lon="14.9274028"><ele>243.0</ele><time>2026-04-25T15:43:47.986Z</time></trkpt><trkpt lat="38.4658818" lon="14.9274214"><ele>243.0</ele><time>2026-04-25T15:43:48.985Z</time></trkpt><trkpt lat="38.4657947" lon="14.9274681"><ele>243.0</ele><time>2026-04-25T15:43:49.985Z</time></trkpt><trkpt lat="38.465719" lon="14.9275363"><ele>243.0</ele><time>2026-04-25T15:43:50.985Z</time></trkpt><trkpt lat="38.465653" lon="14.9276214"><ele>243.0</ele><time>2026-04-25T15:43:51.985Z</time></trkpt><trkpt lat="38.4655836" lon="14.9277187"><ele>243.0</ele><time>2026-04-25T15:43:52.986Z</time></trkpt><trkpt lat="38.4655158" lon="14.9278212"><ele>243.0</ele><time>2026-04-25T15:43:53.986Z</time></trkpt><trkpt lat="38.4654491" lon="14.9279273"><ele>243.0</ele><time>2026-04-25T15:43:54.986Z</time></trkpt><trkpt lat="38.4653801" lon="14.9280426"><ele>243.0</ele><time>2026-04-25T15:43:55.986Z</time></trkpt><trkpt lat="38.4653162" lon="14.928148"><ele>243.0</ele><time>2026-04-25T15:43:56.986Z</time></trkpt><trkpt lat="38.4652495" lon="14.928261"><ele>239.4</ele><time>2026-04-25T15:43:57.986Z</time></trkpt><trkpt lat="38.4651812" lon="14.9283697"><ele>235.8</ele><time>2026-04-25T15:43:58.985Z</time></trkpt><trkpt lat="38.4651235" lon="14.9284779"><ele>232.2</ele><time>2026-04-25T15:43:59.985Z</time></trkpt><trkpt lat="38.465072" lon="14.9285958"><ele>228.6</ele><time>2026-04-25T15:44:00.985Z</time></trkpt><trkpt lat="38.4650341" lon="14.9287214"><ele>225.0</ele><time>2026-04-25T15:44:01.985Z</time></trkpt><trkpt lat="38.4650122" lon="14.9288568"><ele>225.0</ele><time>2026-04-25T15:44:02.985Z</time></trkpt><trkpt lat="38.4650053" lon="14.9289997"><ele>225.0</ele><time>2026-04-25T15:44:03.985Z</time></trkpt><trkpt lat="38.465008" lon="14.9291437"><ele>225.0</ele><time>2026-04-25T15:44:04.985Z</time></trkpt><trkpt lat="38.4649977" lon="14.9292764"><ele>225.0</ele><time>2026-04-25T15:44:05.985Z</time></trkpt><trkpt lat="38.4649766" lon="14.9294066"><ele>225.0</ele><time>2026-04-25T15:44:06.985Z</time></trkpt><trkpt lat="38.464958" lon="14.9295295"><ele>223.8</ele><time>2026-04-25T15:44:07.985Z</time></trkpt><trkpt lat="38.4649605" lon="14.9296547"><ele>222.6</ele><time>2026-04-25T15:44:08.986Z</time></trkpt><trkpt lat="38.464984" lon="14.9297859"><ele>221.39999999999998</ele><time>2026-04-25T15:44:09.985Z</time></trkpt><trkpt lat="38.4650158" lon="14.9299053"><ele>220.2</ele><time>2026-04-25T15:44:10.985Z</time></trkpt><trkpt lat="38.465049" lon="14.9300164"><ele>219.0</ele><time>2026-04-25T15:44:11.985Z</time></trkpt><trkpt lat="38.4650808" lon="14.9301216"><ele>218.33333333333334</ele><time>2026-04-25T15:44:12.985Z</time></trkpt><trkpt lat="38.465113" lon="14.9302239"><ele>217.66666666666669</ele><time>2026-04-25T15:44:13.986Z</time></trkpt><trkpt lat="38.4651254" lon="14.9303217"><ele>217.0</ele><time>2026-04-25T15:44:14.985Z</time></trkpt><trkpt lat="38.4650802" lon="14.9304033"><ele>216.33333333333334</ele><time>2026-04-25T15:44:15.985Z</time></trkpt><trkpt lat="38.4650202" lon="14.9304591"><ele>215.66666666666669</ele><time>2026-04-25T15:44:16.986Z</time></trkpt><trkpt lat="38.4649417" lon="14.9304961"><ele>215.0</ele><time>2026-04-25T15:44:17.985Z</time></trkpt><trkpt lat="38.4648747" lon="14.9305481"><ele>215.00000000000003</ele><time>2026-04-25T15:44:18.985Z</time></trkpt><trkpt lat="38.4648181" lon="14.9306074"><ele>215.0</ele><time>2026-04-25T15:44:19.985Z</time></trkpt><trkpt lat="38.4647735" lon="14.9306842"><ele>215.0</ele><time>2026-04-25T15:44:20.985Z</time></trkpt><trkpt lat="38.4647677" lon="14.9307865"><ele>215.0</ele><time>2026-04-25T15:44:21.986Z</time></trkpt><trkpt lat="38.4647665" lon="14.9308953"><ele>215.00000000000003</ele><time>2026-04-25T15:44:22.985Z</time></trkpt><trkpt lat="38.4647965" lon="14.9309951"><ele>215.0</ele><time>2026-04-25T15:44:23.986Z</time></trkpt><trkpt lat="38.4648517" lon="14.9310873"><ele>210.4</ele><time>2026-04-25T15:44:24.986Z</time></trkpt><trkpt lat="38.4649009" lon="14.9311587"><ele>205.8</ele><time>2026-04-25T15:44:25.985Z</time></trkpt><trkpt lat="38.4650024" lon="14.9311948"><ele>201.2</ele><time>2026-04-25T15:44:26.986Z</time></trkpt><trkpt lat="38.4651021" lon="14.9312136"><ele>196.6</ele><time>2026-04-25T15:44:27.986Z</time></trkpt><trkpt lat="38.4652111" lon="14.9312221"><ele>192.0</ele><time>2026-04-25T15:44:28.986Z</time></trkpt><trkpt lat="38.4653229" lon="14.9312408"><ele>192.0</ele><time>2026-04-25T15:44:29.985Z</time></trkpt><trkpt lat="38.4654286" lon="14.9312715"><ele>192.0</ele><time>2026-04-25T15:44:30.986Z</time></trkpt><trkpt lat="38.4655353" lon="14.9313231"><ele>192.0</ele><time>2026-04-25T15:44:31.985Z</time></trkpt><trkpt lat="38.4656378" lon="14.931379"><ele>192.0</ele><time>2026-04-25T15:44:32.985Z</time></trkpt><trkpt lat="38.465737" lon="14.9314607"><ele>193.6</ele><time>2026-04-25T15:44:33.985Z</time></trkpt><trkpt lat="38.4658269" lon="14.9315426"><ele>195.2</ele><time>2026-04-25T15:44:34.986Z</time></trkpt><trkpt lat="38.4659267" lon="14.9316249"><ele>196.8</ele><time>2026-04-25T15:44:35.985Z</time></trkpt><trkpt lat="38.4660266" lon="14.9316798"><ele>198.4</ele><time>2026-04-25T15:44:36.985Z</time></trkpt><trkpt lat="38.4661251" lon="14.9317259"><ele>200.0</ele><time>2026-04-25T15:44:37.985Z</time></trkpt><trkpt lat="38.4662385" lon="14.9317453"><ele>199.75</ele><time>2026-04-25T15:44:38.985Z</time></trkpt><trkpt lat="38.4663438" lon="14.9317385"><ele>199.5</ele><time>2026-04-25T15:44:39.985Z</time></trkpt><trkpt lat="38.4664595" lon="14.9317226"><ele>199.25</ele><time>2026-04-25T15:44:40.985Z</time></trkpt><trkpt lat="38.4665761" lon="14.9317028"><ele>199.0</ele><time>2026-04-25T15:44:41.985Z</time></trkpt><trkpt lat="38.4666926" lon="14.9316714"><ele>199.0</ele><time>2026-04-25T15:44:42.986Z</time></trkpt><trkpt lat="38.46682" lon="14.9316486"><ele>199.0</ele><time>2026-04-25T15:44:43.985Z</time></trkpt><trkpt lat="38.4669522" lon="14.9316381"><ele>199.0</ele><time>2026-04-25T15:44:44.985Z</time></trkpt><trkpt lat="38.4670838" lon="14.9316284"><ele>199.0</ele><time>2026-04-25T15:44:45.985Z</time></trkpt><trkpt lat="38.4672095" lon="14.9316187"><ele>197.25</ele><time>2026-04-25T15:44:46.986Z</time></trkpt><trkpt lat="38.467336" lon="14.9315844"><ele>195.5</ele><time>2026-04-25T15:44:47.985Z</time></trkpt><trkpt lat="38.4674585" lon="14.9315501"><ele>193.75</ele><time>2026-04-25T15:44:48.985Z</time></trkpt><trkpt lat="38.4675789" lon="14.9315298"><ele>192.0</ele><time>2026-04-25T15:44:49.986Z</time></trkpt><trkpt lat="38.4676953" lon="14.9315317"><ele>192.0</ele><time>2026-04-25T15:44:50.985Z</time></trkpt><trkpt lat="38.4678154" lon="14.931565"><ele>192.0</ele><time>2026-04-25T15:44:51.985Z</time></trkpt><trkpt lat="38.4679355" lon="14.9316021"><ele>192.0</ele><time>2026-04-25T15:44:52.985Z</time></trkpt><trkpt lat="38.4680556" lon="14.9316393"><ele>192.0</ele><time>2026-04-25T15:44:53.985Z</time></trkpt><trkpt lat="38.4681826" lon="14.9316783"><ele>192.25</ele><time>2026-04-25T15:44:54.985Z</time></trkpt><trkpt lat="38.4683068" lon="14.9317103"><ele>192.5</ele><time>2026-04-25T15:44:55.986Z</time></trkpt><trkpt lat="38.4684307" lon="14.9317428"><ele>192.75</ele><time>2026-04-25T15:44:56.985Z</time></trkpt><trkpt lat="38.4685447" lon="14.9317785"><ele>193.0</ele><time>2026-04-25T15:44:57.986Z</time></trkpt><trkpt lat="38.4686499" lon="14.9318337"><ele>190.60000000000002</ele><time>2026-04-25T15:44:58.985Z</time></trkpt><trkpt lat="38.4687488" lon="14.9318936"><ele>188.20000000000002</ele><time>2026-04-25T15:44:59.985Z</time></trkpt><trkpt lat="38.4688236" lon="14.9319791"><ele>185.8</ele><time>2026-04-25T15:45:00.985Z</time></trkpt><trkpt lat="38.4688956" lon="14.9320522"><ele>183.4</ele><time>2026-04-25T15:45:01.985Z</time></trkpt><trkpt lat="38.4689369" lon="14.9322006"><ele>181.0</ele><time>2026-04-25T15:45:02.985Z</time></trkpt><trkpt lat="38.4690028" lon="14.9323284"><ele>181.0</ele><time>2026-04-25T15:45:03.986Z</time></trkpt><trkpt lat="38.4690892" lon="14.9324286"><ele>181.0</ele><time>2026-04-25T15:45:04.985Z</time></trkpt><trkpt lat="38.4691839" lon="14.9325195"><ele>181.0</ele><time>2026-04-25T15:45:05.985Z</time></trkpt><trkpt lat="38.4692802" lon="14.9326237"><ele>181.0</ele><time>2026-04-25T15:45:06.985Z</time></trkpt><trkpt lat="38.4693794" lon="14.9327389"><ele>180.75</ele><time>2026-04-25T15:45:07.986Z</time></trkpt><trkpt lat="38.4694773" lon="14.9328547"><ele>180.5</ele><time>2026-04-25T15:45:08.985Z</time></trkpt><trkpt lat="38.4695674" lon="14.9329857"><ele>180.25</ele><time>2026-04-25T15:45:09.986Z</time></trkpt><trkpt lat="38.4696565" lon="14.9331303"><ele>180.0</ele><time>2026-04-25T15:45:10.985Z</time></trkpt><trkpt lat="38.4697454" lon="14.9332686"><ele>172.5</ele><time>2026-04-25T15:45:11.985Z</time></trkpt><trkpt lat="38.4698425" lon="14.9333984"><ele>165.0</ele><time>2026-04-25T15:45:12.985Z</time></trkpt><trkpt lat="38.4699412" lon="14.9335199"><ele>157.5</ele><time>2026-04-25T15:45:13.985Z</time></trkpt><trkpt lat="38.4700389" lon="14.933637"><ele>150.0</ele><time>2026-04-25T15:45:14.986Z</time></trkpt><trkpt lat="38.4701386" lon="14.9337472"><ele>150.0</ele><time>2026-04-25T15:45:15.985Z</time></trkpt><trkpt lat="38.4702306" lon="14.9338715"><ele>150.0</ele><time>2026-04-25T15:45:16.986Z</time></trkpt><trkpt lat="38.4703103" lon="14.9340012"><ele>150.0</ele><time>2026-04-25T15:45:17.986Z</time></trkpt><trkpt lat="38.4703859" lon="14.9341289"><ele>150.0</ele><time>2026-04-25T15:45:18.986Z</time></trkpt><trkpt lat="38.4704643" lon="14.9342601"><ele>151.5</ele><time>2026-04-25T15:45:19.985Z</time></trkpt><trkpt lat="38.4705384" lon="14.9343908"><ele>153.0</ele><time>2026-04-25T15:45:20.985Z</time></trkpt><trkpt lat="38.4706076" lon="14.9345213"><ele>154.5</ele><time>2026-04-25T15:45:21.986Z</time></trkpt><trkpt lat="38.4706654" lon="14.9346493"><ele>156.0</ele><time>2026-04-25T15:45:22.985Z</time></trkpt><trkpt lat="38.4707264" lon="14.9347652"><ele>156.0</ele><time>2026-04-25T15:45:23.986Z</time></trkpt><trkpt lat="38.4707932" lon="14.9348774"><ele>156.0</ele><time>2026-04-25T15:45:24.986Z</time></trkpt><trkpt lat="38.4708594" lon="14.93498"><ele>156.0</ele><time>2026-04-25T15:45:25.986Z</time></trkpt><trkpt lat="38.4709415" lon="14.9350536"><ele>156.0</ele><time>2026-04-25T15:45:26.986Z</time></trkpt><trkpt lat="38.4710237" lon="14.9350923"><ele>156.0</ele><time>2026-04-25T15:45:27.986Z</time></trkpt><trkpt lat="38.4711036" lon="14.935084"><ele>158.83333333333334</ele><time>2026-04-25T15:45:28.985Z</time></trkpt><trkpt lat="38.4711671" lon="14.9350744"><ele>161.66666666666666</ele><time>2026-04-25T15:45:29.985Z</time></trkpt><trkpt lat="38.4712678" lon="14.9351115"><ele>164.5</ele><time>2026-04-25T15:45:31.985Z</time></trkpt><trkpt lat="38.471309" lon="14.9352506"><ele>167.33333333333331</ele><time>2026-04-25T15:45:33.985Z</time></trkpt><trkpt lat="38.4712991" lon="14.9353366"><ele>170.16666666666666</ele><time>2026-04-25T15:45:34.985Z</time></trkpt><trkpt lat="38.4712836" lon="14.9354322"><ele>173.0</ele><time>2026-04-25T15:45:35.986Z</time></trkpt><trkpt lat="38.4712879" lon="14.9355159"><ele>173.0</ele><time>2026-04-25T15:45:36.986Z</time></trkpt><trkpt lat="38.4713009" lon="14.9356427"><ele>173.0</ele><time>2026-04-25T15:45:37.985Z</time></trkpt><trkpt lat="38.4713039" lon="14.9357522"><ele>173.0</ele><time>2026-04-25T15:45:38.986Z</time></trkpt><trkpt lat="38.4713035" lon="14.9358665"><ele>173.0</ele><time>2026-04-25T15:45:39.985Z</time></trkpt><trkpt lat="38.4713089" lon="14.9359839"><ele>173.0</ele><time>2026-04-25T15:45:40.985Z</time></trkpt><trkpt lat="38.4713223" lon="14.9360967"><ele>170.16666666666666</ele><time>2026-04-25T15:45:41.985Z</time></trkpt><trkpt lat="38.4713562" lon="14.9362049"><ele>167.33333333333331</ele><time>2026-04-25T15:45:42.986Z</time></trkpt><trkpt lat="38.4713969" lon="14.9363077"><ele>164.5</ele><time>2026-04-25T15:45:43.985Z</time></trkpt><trkpt lat="38.4714529" lon="14.9363971"><ele>161.66666666666666</ele><time>2026-04-25T15:45:44.985Z</time></trkpt><trkpt lat="38.4715305" lon="14.9364529"><ele>158.83333333333334</ele><time>2026-04-25T15:45:45.985Z</time></trkpt><trkpt lat="38.4716107" lon="14.9364981"><ele>156.0</ele><time>2026-04-25T15:45:46.986Z</time></trkpt><trkpt lat="38.4716925" lon="14.9365579"><ele>156.0</ele><time>2026-04-25T15:45:47.985Z</time></trkpt><trkpt lat="38.4717654" lon="14.9366177"><ele>156.0</ele><time>2026-04-25T15:45:48.986Z</time></trkpt><trkpt lat="38.4718024" lon="14.9367323"><ele>156.0</ele><time>2026-04-25T15:45:49.986Z</time></trkpt><trkpt lat="38.4718267" lon="14.9368594"><ele>156.0</ele><time>2026-04-25T15:45:50.985Z</time></trkpt><trkpt lat="38.4718376" lon="14.9369866"><ele>156.0</ele><time>2026-04-25T15:45:51.986Z</time></trkpt><trkpt lat="38.4718319" lon="14.9371134"><ele>153.4</ele><time>2026-04-25T15:45:52.985Z</time></trkpt><trkpt lat="38.4718158" lon="14.9372531"><ele>150.8</ele><time>2026-04-25T15:45:53.986Z</time></trkpt><trkpt lat="38.4717897" lon="14.9373911"><ele>148.20000000000002</ele><time>2026-04-25T15:45:54.985Z</time></trkpt><trkpt lat="38.4717642" lon="14.9375305"><ele>145.6</ele><time>2026-04-25T15:45:55.986Z</time></trkpt><trkpt lat="38.4717512" lon="14.937672"><ele>143.0</ele><time>2026-04-25T15:45:56.985Z</time></trkpt><trkpt lat="38.4717498" lon="14.9378221"><ele>141.5</ele><time>2026-04-25T15:45:57.985Z</time></trkpt><trkpt lat="38.471749" lon="14.93797"><ele>140.0</ele><time>2026-04-25T15:45:58.985Z</time></trkpt><trkpt lat="38.4717575" lon="14.9381388"><ele>138.5</ele><time>2026-04-25T15:45:59.986Z</time></trkpt><trkpt lat="38.4717637" lon="14.9383001"><ele>137.0</ele><time>2026-04-25T15:46:00.986Z</time></trkpt><trkpt lat="38.4717609" lon="14.9384619"><ele>136.5</ele><time>2026-04-25T15:46:01.985Z</time></trkpt><trkpt lat="38.4717468" lon="14.9386163"><ele>136.0</ele><time>2026-04-25T15:46:02.985Z</time></trkpt><trkpt lat="38.4717279" lon="14.938772"><ele>135.5</ele><time>2026-04-25T15:46:03.985Z</time></trkpt><trkpt lat="38.4717117" lon="14.938915"><ele>135.0</ele><time>2026-04-25T15:46:04.985Z</time></trkpt><trkpt lat="38.4716995" lon="14.939061"><ele>135.0</ele><time>2026-04-25T15:46:05.985Z</time></trkpt><trkpt lat="38.471695" lon="14.9392143"><ele>135.0</ele><time>2026-04-25T15:46:06.985Z</time></trkpt><trkpt lat="38.4717072" lon="14.939363"><ele>135.0</ele><time>2026-04-25T15:46:07.986Z</time></trkpt><trkpt lat="38.4717282" lon="14.9395033"><ele>135.0</ele><time>2026-04-25T15:46:08.986Z</time></trkpt><trkpt lat="38.4717488" lon="14.9396503"><ele>133.25</ele><time>2026-04-25T15:46:09.986Z</time></trkpt><trkpt lat="38.4717607" lon="14.9397956"><ele>131.5</ele><time>2026-04-25T15:46:10.985Z</time></trkpt><trkpt lat="38.4717684" lon="14.9399443"><ele>129.75</ele><time>2026-04-25T15:46:11.985Z</time></trkpt><trkpt lat="38.4717697" lon="14.9400899"><ele>128.0</ele><time>2026-04-25T15:46:12.986Z</time></trkpt><trkpt lat="38.4717634" lon="14.9402426"><ele>127.25</ele><time>2026-04-25T15:46:13.985Z</time></trkpt><trkpt lat="38.4717511" lon="14.9403964"><ele>126.5</ele><time>2026-04-25T15:46:14.985Z</time></trkpt><trkpt lat="38.471735" lon="14.9405539"><ele>125.75</ele><time>2026-04-25T15:46:15.985Z</time></trkpt><trkpt lat="38.4717241" lon="14.9407056"><ele>125.0</ele><time>2026-04-25T15:46:16.985Z</time></trkpt><trkpt lat="38.4717036" lon="14.9408561"><ele>123.0</ele><time>2026-04-25T15:46:17.986Z</time></trkpt><trkpt lat="38.4716703" lon="14.9410143"><ele>121.0</ele><time>2026-04-25T15:46:18.986Z</time></trkpt><trkpt lat="38.4716278" lon="14.9411613"><ele>119.0</ele><time>2026-04-25T15:46:19.985Z</time></trkpt><trkpt lat="38.4715825" lon="14.9413067"><ele>117.0</ele><time>2026-04-25T15:46:20.986Z</time></trkpt><trkpt lat="38.4715319" lon="14.941456"><ele>117.0</ele><time>2026-04-25T15:46:21.985Z</time></trkpt><trkpt lat="38.4714834" lon="14.9415997"><ele>117.0</ele><time>2026-04-25T15:46:22.986Z</time></trkpt><trkpt lat="38.4714351" lon="14.9417386"><ele>117.0</ele><time>2026-04-25T15:46:23.985Z</time></trkpt><trkpt lat="38.4713875" lon="14.941871"><ele>117.0</ele><time>2026-04-25T15:46:24.985Z</time></trkpt><trkpt lat="38.4713408" lon="14.9420012"><ele>117.66666666666667</ele><time>2026-04-25T15:46:25.986Z</time></trkpt><trkpt lat="38.4713054" lon="14.9421136"><ele>118.33333333333334</ele><time>2026-04-25T15:46:26.986Z</time></trkpt><trkpt lat="38.4712727" lon="14.9422133"><ele>119.0</ele><time>2026-04-25T15:46:27.986Z</time></trkpt><trkpt lat="38.4712483" lon="14.9423035"><ele>119.66666666666667</ele><time>2026-04-25T15:46:28.986Z</time></trkpt><trkpt lat="38.4712232" lon="14.9423781"><ele>120.33333333333334</ele><time>2026-04-25T15:46:29.985Z</time></trkpt><trkpt lat="38.4711818" lon="14.9424433"><ele>121.0</ele><time>2026-04-25T15:46:30.985Z</time></trkpt><trkpt lat="38.4710567" lon="14.9424616"><ele>121.00000000000001</ele><time>2026-04-25T15:46:32.986Z</time></trkpt><trkpt lat="38.4709969" lon="14.9424157"><ele>121.0</ele><time>2026-04-25T15:46:33.985Z</time></trkpt><trkpt lat="38.4709283" lon="14.9423754"><ele>121.0</ele><time>2026-04-25T15:46:34.986Z</time></trkpt><trkpt lat="38.4708415" lon="14.9423595"><ele>121.0</ele><time>2026-04-25T15:46:35.985Z</time></trkpt><trkpt lat="38.4707454" lon="14.9423763"><ele>121.00000000000001</ele><time>2026-04-25T15:46:36.986Z</time></trkpt><trkpt lat="38.4706531" lon="14.9424096"><ele>121.0</ele><time>2026-04-25T15:46:37.986Z</time></trkpt><trkpt lat="38.4705579" lon="14.9424508"><ele>121.0</ele><time>2026-04-25T15:46:38.985Z</time></trkpt><trkpt lat="38.470456" lon="14.9424892"><ele>121.0</ele><time>2026-04-25T15:46:39.986Z</time></trkpt><trkpt lat="38.470352" lon="14.942527"><ele>121.0</ele><time>2026-04-25T15:46:40.985Z</time></trkpt><trkpt lat="38.4702436" lon="14.9425705"><ele>121.0</ele><time>2026-04-25T15:46:41.985Z</time></trkpt><trkpt lat="38.4701337" lon="14.9426328"><ele>121.0</ele><time>2026-04-25T15:46:42.986Z</time></trkpt><trkpt lat="38.4700249" lon="14.9427051"><ele>121.5</ele><time>2026-04-25T15:46:43.985Z</time></trkpt><trkpt lat="38.4699182" lon="14.9427653"><ele>122.0</ele><time>2026-04-25T15:46:44.985Z</time></trkpt><trkpt lat="38.469805" lon="14.942837"><ele>122.5</ele><time>2026-04-25T15:46:45.985Z</time></trkpt><trkpt lat="38.4696904" lon="14.9428895"><ele>123.0</ele><time>2026-04-25T15:46:46.985Z</time></trkpt><trkpt lat="38.4695781" lon="14.9429394"><ele>119.5</ele><time>2026-04-25T15:46:47.985Z</time></trkpt><trkpt lat="38.4694641" lon="14.9429863"><ele>116.0</ele><time>2026-04-25T15:46:48.985Z</time></trkpt><trkpt lat="38.4693478" lon="14.9430294"><ele>112.5</ele><time>2026-04-25T15:46:49.986Z</time></trkpt><trkpt lat="38.4692337" lon="14.9430798"><ele>109.0</ele><time>2026-04-25T15:46:50.986Z</time></trkpt><trkpt lat="38.4691158" lon="14.9431292"><ele>109.0</ele><time>2026-04-25T15:46:51.986Z</time></trkpt><trkpt lat="38.4689955" lon="14.9431748"><ele>109.0</ele><time>2026-04-25T15:46:52.985Z</time></trkpt><trkpt lat="38.468875" lon="14.9432173"><ele>109.0</ele><time>2026-04-25T15:46:53.985Z</time></trkpt><trkpt lat="38.468758" lon="14.9432616"><ele>109.0</ele><time>2026-04-25T15:46:54.986Z</time></trkpt><trkpt lat="38.4686369" lon="14.943303"><ele>107.75</ele><time>2026-04-25T15:46:55.986Z</time></trkpt><trkpt lat="38.4685171" lon="14.9433474"><ele>106.5</ele><time>2026-04-25T15:46:56.985Z</time></trkpt><trkpt lat="38.4684048" lon="14.9433844"><ele>105.25</ele><time>2026-04-25T15:46:57.985Z</time></trkpt><trkpt lat="38.4682865" lon="14.9434149"><ele>104.0</ele><time>2026-04-25T15:46:58.986Z</time></trkpt><trkpt lat="38.4681784" lon="14.9434344"><ele>103.99999999999999</ele><time>2026-04-25T15:46:59.985Z</time></trkpt><trkpt lat="38.46808" lon="14.9434558"><ele>104.0</ele><time>2026-04-25T15:47:00.985Z</time></trkpt><trkpt lat="38.4679915" lon="14.9434797"><ele>104.0</ele><time>2026-04-25T15:47:01.986Z</time></trkpt><trkpt lat="38.4679198" lon="14.9435161"><ele>104.0</ele><time>2026-04-25T15:47:02.986Z</time></trkpt><trkpt lat="38.4678703" lon="14.9435773"><ele>103.99999999999999</ele><time>2026-04-25T15:47:03.985Z</time></trkpt><trkpt lat="38.4678496" lon="14.9436711"><ele>104.0</ele><time>2026-04-25T15:47:04.986Z</time></trkpt><trkpt lat="38.4678282" lon="14.9437766"><ele>99.0</ele><time>2026-04-25T15:47:05.986Z</time></trkpt><trkpt lat="38.4678089" lon="14.9439057"><ele>94.0</ele><time>2026-04-25T15:47:06.985Z</time></trkpt><trkpt lat="38.4677814" lon="14.9440308"><ele>89.0</ele><time>2026-04-25T15:47:07.986Z</time></trkpt><trkpt lat="38.4677391" lon="14.9441489"><ele>84.0</ele><time>2026-04-25T15:47:08.986Z</time></trkpt><trkpt lat="38.4676995" lon="14.9442749"><ele>79.0</ele><time>2026-04-25T15:47:09.986Z</time></trkpt><trkpt lat="38.4676571" lon="14.9443991"><ele>79.0</ele><time>2026-04-25T15:47:10.985Z</time></trkpt><trkpt lat="38.4676252" lon="14.9445233"><ele>79.0</ele><time>2026-04-25T15:47:11.985Z</time></trkpt><trkpt lat="38.4675908" lon="14.944644"><ele>79.0</ele><time>2026-04-25T15:47:12.985Z</time></trkpt><trkpt lat="38.4675696" lon="14.9447579"><ele>79.0</ele><time>2026-04-25T15:47:13.985Z</time></trkpt><trkpt lat="38.4675453" lon="14.944873"><ele>79.0</ele><time>2026-04-25T15:47:14.985Z</time></trkpt><trkpt lat="38.4675289" lon="14.9449903"><ele>78.16666666666666</ele><time>2026-04-25T15:47:15.985Z</time></trkpt><trkpt lat="38.4675305" lon="14.9451065"><ele>77.33333333333333</ele><time>2026-04-25T15:47:16.986Z</time></trkpt><trkpt lat="38.4675853" lon="14.9451752"><ele>76.5</ele><time>2026-04-25T15:47:17.985Z</time></trkpt><trkpt lat="38.4676349" lon="14.945255"><ele>75.66666666666667</ele><time>2026-04-25T15:47:18.986Z</time></trkpt><trkpt lat="38.4676964" lon="14.9453186"><ele>74.83333333333334</ele><time>2026-04-25T15:47:19.985Z</time></trkpt><trkpt lat="38.4677738" lon="14.9453647"><ele>74.0</ele><time>2026-04-25T15:47:20.985Z</time></trkpt><trkpt lat="38.467844" lon="14.9453899"><ele>74.0</ele><time>2026-04-25T15:47:21.985Z</time></trkpt><trkpt lat="38.4679317" lon="14.9453721"><ele>74.0</ele><time>2026-04-25T15:47:22.986Z</time></trkpt><trkpt lat="38.4680254" lon="14.945367"><ele>74.0</ele><time>2026-04-25T15:47:23.986Z</time></trkpt><trkpt lat="38.4681289" lon="14.9453418"><ele>74.0</ele><time>2026-04-25T15:47:24.986Z</time></trkpt><trkpt lat="38.4682265" lon="14.9453279"><ele>74.0</ele><time>2026-04-25T15:47:25.986Z</time></trkpt><trkpt lat="38.4683211" lon="14.9453299"><ele>73.60000000000001</ele><time>2026-04-25T15:47:26.985Z</time></trkpt><trkpt lat="38.4684255" lon="14.9453418"><ele>73.2</ele><time>2026-04-25T15:47:27.985Z</time></trkpt><trkpt lat="38.4685149" lon="14.9453833"><ele>72.80000000000001</ele><time>2026-04-25T15:47:28.986Z</time></trkpt><trkpt lat="38.4686107" lon="14.945445"><ele>72.4</ele><time>2026-04-25T15:47:29.985Z</time></trkpt><trkpt lat="38.4687032" lon="14.9455124"><ele>72.0</ele><time>2026-04-25T15:47:30.985Z</time></trkpt><trkpt lat="38.4687994" lon="14.9455682"><ele>72.0</ele><time>2026-04-25T15:47:31.986Z</time></trkpt><trkpt lat="38.4688988" lon="14.9456107"><ele>72.0</ele><time>2026-04-25T15:47:32.985Z</time></trkpt><trkpt lat="38.4689975" lon="14.945635"><ele>72.0</ele><time>2026-04-25T15:47:33.985Z</time></trkpt><trkpt lat="38.4690918" lon="14.9456621"><ele>72.0</ele><time>2026-04-25T15:47:34.986Z</time></trkpt><trkpt lat="38.4691887" lon="14.9456936"><ele>72.0</ele><time>2026-04-25T15:47:35.985Z</time></trkpt><trkpt lat="38.469276" lon="14.9457396"><ele>72.0</ele><time>2026-04-25T15:47:36.985Z</time></trkpt><trkpt lat="38.4693582" lon="14.9458008"><ele>72.0</ele><time>2026-04-25T15:47:37.986Z</time></trkpt><trkpt lat="38.4694351" lon="14.945851"><ele>72.0</ele><time>2026-04-25T15:47:38.985Z</time></trkpt><trkpt lat="38.4695058" lon="14.9459018"><ele>72.0</ele><time>2026-04-25T15:47:39.985Z</time></trkpt><trkpt lat="38.4695667" lon="14.9459449"><ele>72.0</ele><time>2026-04-25T15:47:40.985Z</time></trkpt><trkpt lat="38.4696378" lon="14.946042"><ele>72.0</ele><time>2026-04-25T15:47:42.985Z</time></trkpt><trkpt lat="38.4696135" lon="14.9461407"><ele>72.00000000000001</ele><time>2026-04-25T15:47:44.986Z</time></trkpt><trkpt lat="38.469513" lon="14.9461155"><ele>72.0</ele><time>2026-04-25T15:47:46.985Z</time></trkpt><trkpt lat="38.46946" lon="14.9460685"><ele>72.0</ele><time>2026-04-25T15:47:47.986Z</time></trkpt><trkpt lat="38.4694047" lon="14.9460176"><ele>72.0</ele><time>2026-04-25T15:47:48.985Z</time></trkpt><trkpt lat="38.4693519" lon="14.945961"><ele>72.0</ele><time>2026-04-25T15:47:49.985Z</time></trkpt><trkpt lat="38.4692961" lon="14.9459103"><ele>72.00000000000001</ele><time>2026-04-25T15:47:50.985Z</time></trkpt><trkpt lat="38.469237" lon="14.9458717"><ele>72.0</ele><time>2026-04-25T15:47:51.986Z</time></trkpt><trkpt lat="38.4691731" lon="14.9458464"><ele>72.00000000000001</ele><time>2026-04-25T15:47:52.986Z</time></trkpt><trkpt lat="38.4691047" lon="14.9458607"><ele>72.0</ele><time>2026-04-25T15:47:53.986Z</time></trkpt><trkpt lat="38.4690481" lon="14.9459079"><ele>72.0</ele><time>2026-04-25T15:47:54.985Z</time></trkpt><trkpt lat="38.468998" lon="14.9459718"><ele>72.0</ele><time>2026-04-25T15:47:55.985Z</time></trkpt><trkpt lat="38.4689488" lon="14.9460387"><ele>72.0</ele><time>2026-04-25T15:47:56.985Z</time></trkpt><trkpt lat="38.4688982" lon="14.946105"><ele>72.00000000000001</ele><time>2026-04-25T15:47:57.985Z</time></trkpt><trkpt lat="38.4688412" lon="14.9461437"><ele>72.0</ele><time>2026-04-25T15:47:58.985Z</time></trkpt><trkpt lat="38.468779" lon="14.9461792"><ele>69.85714285714286</ele><time>2026-04-25T15:47:59.985Z</time></trkpt><trkpt lat="38.4687084" lon="14.9461998"><ele>67.71428571428572</ele><time>2026-04-25T15:48:00.985Z</time></trkpt><trkpt lat="38.4686359" lon="14.9462014"><ele>65.57142857142857</ele><time>2026-04-25T15:48:01.985Z</time></trkpt><trkpt lat="38.4685741" lon="14.9461826"><ele>63.42857142857143</ele><time>2026-04-25T15:48:02.985Z</time></trkpt><trkpt lat="38.4685093" lon="14.9461621"><ele>61.28571428571428</ele><time>2026-04-25T15:48:03.985Z</time></trkpt><trkpt lat="38.4684418" lon="14.9461264"><ele>59.14285714285714</ele><time>2026-04-25T15:48:04.985Z</time></trkpt><trkpt lat="38.4683803" lon="14.9461081"><ele>57.0</ele><time>2026-04-25T15:48:05.985Z</time></trkpt><trkpt lat="38.4683159" lon="14.9461071"><ele>57.0</ele><time>2026-04-25T15:48:06.985Z</time></trkpt><trkpt lat="38.4682511" lon="14.9461219"><ele>56.99999999999999</ele><time>2026-04-25T15:48:07.985Z</time></trkpt><trkpt lat="38.4681913" lon="14.9461516"><ele>57.0</ele><time>2026-04-25T15:48:08.986Z</time></trkpt><trkpt lat="38.4681329" lon="14.9461917"><ele>57.0</ele><time>2026-04-25T15:48:09.985Z</time></trkpt><trkpt lat="38.4680715" lon="14.9462468"><ele>56.99999999999999</ele><time>2026-04-25T15:48:10.985Z</time></trkpt><trkpt lat="38.4680128" lon="14.9462976"><ele>57.0</ele><time>2026-04-25T15:48:11.985Z</time></trkpt><trkpt lat="38.4679574" lon="14.9463462"><ele>57.0</ele><time>2026-04-25T15:48:12.986Z</time></trkpt><trkpt lat="38.4678526" lon="14.9464289"><ele>57.0</ele><time>2026-04-25T15:48:14.985Z</time></trkpt><trkpt lat="38.4677965" lon="14.9464695"><ele>56.99999999999999</ele><time>2026-04-25T15:48:15.986Z</time></trkpt><trkpt lat="38.4677408" lon="14.9465095"><ele>57.0</ele><time>2026-04-25T15:48:16.985Z</time></trkpt><trkpt lat="38.4676824" lon="14.9465423"><ele>57.0</ele><time>2026-04-25T15:48:17.986Z</time></trkpt><trkpt lat="38.4676189" lon="14.9465816"><ele>56.99999999999999</ele><time>2026-04-25T15:48:18.986Z</time></trkpt><trkpt lat="38.4675491" lon="14.9466241"><ele>57.0</ele><time>2026-04-25T15:48:19.986Z</time></trkpt><trkpt lat="38.467485" lon="14.9466652"><ele>57.0</ele><time>2026-04-25T15:48:20.985Z</time></trkpt><trkpt lat="38.4674244" lon="14.9467022"><ele>55.166666666666664</ele><time>2026-04-25T15:48:21.985Z</time></trkpt><trkpt lat="38.4673669" lon="14.9467449"><ele>53.333333333333336</ele><time>2026-04-25T15:48:22.986Z</time></trkpt><trkpt lat="38.4672646" lon="14.9468444"><ele>51.5</ele><time>2026-04-25T15:48:24.985Z</time></trkpt><trkpt lat="38.4672335" lon="14.9469145"><ele>49.66666666666667</ele><time>2026-04-25T15:48:25.985Z</time></trkpt><trkpt lat="38.4672207" lon="14.9470021"><ele>47.833333333333336</ele><time>2026-04-25T15:48:26.985Z</time></trkpt><trkpt lat="38.4672251" lon="14.9470848"><ele>46.0</ele><time>2026-04-25T15:48:27.986Z</time></trkpt><trkpt lat="38.4672396" lon="14.9471647"><ele>46.0</ele><time>2026-04-25T15:48:28.986Z</time></trkpt><trkpt lat="38.4672498" lon="14.9472483"><ele>46.0</ele><time>2026-04-25T15:48:29.985Z</time></trkpt><trkpt lat="38.467255" lon="14.9473382"><ele>46.0</ele><time>2026-04-25T15:48:30.985Z</time></trkpt><trkpt lat="38.4672485" lon="14.9474361"><ele>46.0</ele><time>2026-04-25T15:48:31.986Z</time></trkpt><trkpt lat="38.4672349" lon="14.9475332"><ele>46.0</ele><time>2026-04-25T15:48:32.986Z</time></trkpt><trkpt lat="38.4672157" lon="14.9476328"><ele>46.0</ele><time>2026-04-25T15:48:33.985Z</time></trkpt><trkpt lat="38.4671723" lon="14.9477347"><ele>47.66666666666667</ele><time>2026-04-25T15:48:34.986Z</time></trkpt><trkpt lat="38.4671179" lon="14.9478263"><ele>49.333333333333336</ele><time>2026-04-25T15:48:35.985Z</time></trkpt><trkpt lat="38.4670595" lon="14.9479128"><ele>51.0</ele><time>2026-04-25T15:48:36.986Z</time></trkpt><trkpt lat="38.4670083" lon="14.9480096"><ele>52.66666666666667</ele><time>2026-04-25T15:48:37.986Z</time></trkpt><trkpt lat="38.4669708" lon="14.948113"><ele>54.333333333333336</ele><time>2026-04-25T15:48:38.986Z</time></trkpt><trkpt lat="38.4669508" lon="14.9482215"><ele>56.0</ele><time>2026-04-25T15:48:39.985Z</time></trkpt><trkpt lat="38.4669315" lon="14.9483293"><ele>53.333333333333336</ele><time>2026-04-25T15:48:40.986Z</time></trkpt><trkpt lat="38.4669103" lon="14.9484328"><ele>50.66666666666667</ele><time>2026-04-25T15:48:41.985Z</time></trkpt><trkpt lat="38.4668804" lon="14.9485383"><ele>48.0</ele><time>2026-04-25T15:48:42.985Z</time></trkpt><trkpt lat="38.4668419" lon="14.9486221"><ele>45.333333333333336</ele><time>2026-04-25T15:48:43.985Z</time></trkpt><trkpt lat="38.4667957" lon="14.9487075"><ele>42.66666666666667</ele><time>2026-04-25T15:48:44.985Z</time></trkpt><trkpt lat="38.4667346" lon="14.9487776"><ele>40.0</ele><time>2026-04-25T15:48:45.985Z</time></trkpt><trkpt lat="38.466672" lon="14.9488552"><ele>40.0</ele><time>2026-04-25T15:48:46.985Z</time></trkpt><trkpt lat="38.4666151" lon="14.9489299"><ele>40.0</ele><time>2026-04-25T15:48:47.986Z</time></trkpt><trkpt lat="38.4665597" lon="14.9489994"><ele>40.0</ele><time>2026-04-25T15:48:48.986Z</time></trkpt><trkpt lat="38.466512" lon="14.9490622"><ele>40.0</ele><time>2026-04-25T15:48:49.985Z</time></trkpt><trkpt lat="38.4664556" lon="14.9491104"><ele>40.0</ele><time>2026-04-25T15:48:50.985Z</time></trkpt><trkpt lat="38.4664069" lon="14.9491672"><ele>40.0</ele><time>2026-04-25T15:48:51.985Z</time></trkpt><trkpt lat="38.4663297" lon="14.9492694"><ele>40.0</ele><time>2026-04-25T15:48:53.985Z</time></trkpt><trkpt lat="38.4662506" lon="14.9493702"><ele>40.0</ele><time>2026-04-25T15:48:55.985Z</time></trkpt><trkpt lat="38.4661765" lon="14.9494939"><ele>40.0</ele><time>2026-04-25T15:48:57.986Z</time></trkpt><trkpt lat="38.4661476" lon="14.9495706"><ele>40.0</ele><time>2026-04-25T15:48:58.985Z</time></trkpt><trkpt lat="38.4661216" lon="14.9496447"><ele>40.0</ele><time>2026-04-25T15:48:59.986Z</time></trkpt><trkpt lat="38.4660984" lon="14.9497205"><ele>40.0</ele><time>2026-04-25T15:49:00.986Z</time></trkpt><trkpt lat="38.4660502" lon="14.9498681"><ele>40.0</ele><time>2026-04-25T15:49:02.986Z</time></trkpt><trkpt lat="38.4660026" lon="14.95001"><ele>40.0</ele><time>2026-04-25T15:49:04.986Z</time></trkpt><trkpt lat="38.465971" lon="14.9500846"><ele>40.0</ele><time>2026-04-25T15:49:05.985Z</time></trkpt><trkpt lat="38.465896" lon="14.9502173"><ele>40.0</ele><time>2026-04-25T15:49:07.986Z</time></trkpt><trkpt lat="38.4658543" lon="14.9502819"><ele>40.0</ele><time>2026-04-25T15:49:08.985Z</time></trkpt><trkpt lat="38.4658054" lon="14.9503335"><ele>40.0</ele><time>2026-04-25T15:49:09.985Z</time></trkpt><trkpt lat="38.4657552" lon="14.9503895"><ele>38.714285714285715</ele><time>2026-04-25T15:49:10.985Z</time></trkpt><trkpt lat="38.4656957" lon="14.9504389"><ele>37.42857142857143</ele><time>2026-04-25T15:49:11.985Z</time></trkpt><trkpt lat="38.4656374" lon="14.9504835"><ele>36.142857142857146</ele><time>2026-04-25T15:49:12.985Z</time></trkpt><trkpt lat="38.4655741" lon="14.9505157"><ele>34.85714285714286</ele><time>2026-04-25T15:49:13.985Z</time></trkpt><trkpt lat="38.4655024" lon="14.950547"><ele>33.57142857142858</ele><time>2026-04-25T15:49:14.986Z</time></trkpt><trkpt lat="38.4654334" lon="14.9505675"><ele>32.285714285714285</ele><time>2026-04-25T15:49:15.985Z</time></trkpt><trkpt lat="38.4653637" lon="14.9505932"><ele>31.0</ele><time>2026-04-25T15:49:16.986Z</time></trkpt><trkpt lat="38.4652939" lon="14.9506195"><ele>30.857142857142858</ele><time>2026-04-25T15:49:17.986Z</time></trkpt><trkpt lat="38.4652237" lon="14.9506313"><ele>30.714285714285715</ele><time>2026-04-25T15:49:18.986Z</time></trkpt><trkpt lat="38.4651551" lon="14.9506282"><ele>30.571428571428573</ele><time>2026-04-25T15:49:19.986Z</time></trkpt><trkpt lat="38.4650863" lon="14.9506181"><ele>30.42857142857143</ele><time>2026-04-25T15:49:20.985Z</time></trkpt><trkpt lat="38.4650164" lon="14.9506057"><ele>30.285714285714285</ele><time>2026-04-25T15:49:21.986Z</time></trkpt><trkpt lat="38.4649484" lon="14.9505964"><ele>30.142857142857146</ele><time>2026-04-25T15:49:22.985Z</time></trkpt><trkpt lat="38.4648841" lon="14.950589"><ele>30.0</ele><time>2026-04-25T15:49:23.986Z</time></trkpt><trkpt lat="38.464781" lon="14.9505699"><ele>30.0</ele><time>2026-04-25T15:49:25.985Z</time></trkpt><trkpt lat="38.4646908" lon="14.950605"><ele>30.0</ele><time>2026-04-25T15:49:27.986Z</time></trkpt><trkpt lat="38.4646242" lon="14.9507043"><ele>30.0</ele><time>2026-04-25T15:49:29.986Z</time></trkpt><trkpt lat="38.4646152" lon="14.9508539"><ele>30.0</ele><time>2026-04-25T15:49:31.985Z</time></trkpt><trkpt lat="38.4646038" lon="14.9510075"><ele>30.0</ele><time>2026-04-25T15:49:33.986Z</time></trkpt><trkpt lat="38.4645953" lon="14.9511455"><ele>28.8</ele><time>2026-04-25T15:49:35.985Z</time></trkpt><trkpt lat="38.4645905" lon="14.9512914"><ele>27.6</ele><time>2026-04-25T15:49:37.985Z</time></trkpt><trkpt lat="38.4645915" lon="14.9514298"><ele>26.4</ele><time>2026-04-25T15:49:39.986Z</time></trkpt><trkpt lat="38.4645978" lon="14.9515734"><ele>25.2</ele><time>2026-04-25T15:49:41.985Z</time></trkpt><trkpt lat="38.4646066" lon="14.9517162"><ele>24.0</ele><time>2026-04-25T15:49:43.985Z</time></trkpt><trkpt lat="38.4646147" lon="14.9518462"><ele>23.5</ele><time>2026-04-25T15:49:45.986Z</time></trkpt><trkpt lat="38.4646307" lon="14.9519422"><ele>23.0</ele><time>2026-04-25T15:49:47.985Z</time></trkpt><trkpt lat="38.4646767" lon="14.9520101"><ele>22.5</ele><time>2026-04-25T15:49:49.985Z</time></trkpt><trkpt lat="38.4647579" lon="14.952027"><ele>22.0</ele><time>2026-04-25T15:49:51.985Z</time></trkpt><trkpt lat="38.4648725" lon="14.9520141"><ele>21.5</ele><time>2026-04-25T15:49:53.985Z</time></trkpt><trkpt lat="38.4649469" lon="14.9519974"><ele>21.0</ele><time>2026-04-25T15:49:54.986Z</time></trkpt><trkpt lat="38.4650214" lon="14.9519896"><ele>21.0</ele><time>2026-04-25T15:49:55.986Z</time></trkpt><trkpt lat="38.4651077" lon="14.9519825"><ele>21.0</ele><time>2026-04-25T15:49:56.986Z</time></trkpt><trkpt lat="38.4652046" lon="14.9519866"><ele>21.0</ele><time>2026-04-25T15:49:57.986Z</time></trkpt><trkpt lat="38.4652948" lon="14.9519784"><ele>21.0</ele><time>2026-04-25T15:49:58.986Z</time></trkpt><trkpt lat="38.4653898" lon="14.9519604"><ele>21.0</ele><time>2026-04-25T15:49:59.986Z</time></trkpt><trkpt lat="38.4654834" lon="14.9519269"><ele>21.200000000000003</ele><time>2026-04-25T15:50:00.985Z</time></trkpt><trkpt lat="38.465573" lon="14.9518992"><ele>21.400000000000002</ele><time>2026-04-25T15:50:01.986Z</time></trkpt><trkpt lat="38.4656644" lon="14.9518735"><ele>21.6</ele><time>2026-04-25T15:50:02.985Z</time></trkpt><trkpt lat="38.4657556" lon="14.9518502"><ele>21.8</ele><time>2026-04-25T15:50:03.985Z</time></trkpt><trkpt lat="38.4658475" lon="14.9518372"><ele>22.0</ele><time>2026-04-25T15:50:04.986Z</time></trkpt><trkpt lat="38.4659323" lon="14.9518331"><ele>22.0</ele><time>2026-04-25T15:50:05.986Z</time></trkpt><trkpt lat="38.4660133" lon="14.9518347"><ele>22.0</ele><time>2026-04-25T15:50:06.986Z</time></trkpt><trkpt lat="38.4660963" lon="14.9518235"><ele>22.0</ele><time>2026-04-25T15:50:07.985Z</time></trkpt><trkpt lat="38.4661727" lon="14.9518213"><ele>22.0</ele><time>2026-04-25T15:50:08.986Z</time></trkpt><trkpt lat="38.4662491" lon="14.9518176"><ele>22.0</ele><time>2026-04-25T15:50:09.985Z</time></trkpt><trkpt lat="38.4663256" lon="14.9518085"><ele>22.0</ele><time>2026-04-25T15:50:10.986Z</time></trkpt><trkpt lat="38.4664" lon="14.951792"><ele>21.833333333333332</ele><time>2026-04-25T15:50:11.985Z</time></trkpt><trkpt lat="38.4664814" lon="14.9517828"><ele>21.666666666666664</ele><time>2026-04-25T15:50:12.985Z</time></trkpt><trkpt lat="38.4665586" lon="14.9517793"><ele>21.5</ele><time>2026-04-25T15:50:13.986Z</time></trkpt><trkpt lat="38.4666407" lon="14.951766"><ele>21.333333333333332</ele><time>2026-04-25T15:50:14.986Z</time></trkpt><trkpt lat="38.4667242" lon="14.9517613"><ele>21.166666666666668</ele><time>2026-04-25T15:50:15.986Z</time></trkpt><trkpt lat="38.4668021" lon="14.9517444"><ele>21.0</ele><time>2026-04-25T15:50:16.985Z</time></trkpt><trkpt lat="38.4668933" lon="14.9517326"><ele>21.0</ele><time>2026-04-25T15:50:17.986Z</time></trkpt><trkpt lat="38.4669902" lon="14.9517251"><ele>21.0</ele><time>2026-04-25T15:50:18.985Z</time></trkpt><trkpt lat="38.467082" lon="14.9517029"><ele>21.0</ele><time>2026-04-25T15:50:19.985Z</time></trkpt><trkpt lat="38.4671676" lon="14.9516946"><ele>21.0</ele><time>2026-04-25T15:50:20.986Z</time></trkpt><trkpt lat="38.4672563" lon="14.9516799"><ele>21.0</ele><time>2026-04-25T15:50:21.986Z</time></trkpt><trkpt lat="38.4673485" lon="14.9516654"><ele>20.666666666666668</ele><time>2026-04-25T15:50:22.985Z</time></trkpt><trkpt lat="38.4674424" lon="14.9516558"><ele>20.333333333333332</ele><time>2026-04-25T15:50:23.985Z</time></trkpt><trkpt lat="38.4675242" lon="14.9516436"><ele>20.0</ele><time>2026-04-25T15:50:24.986Z</time></trkpt><trkpt lat="38.4676126" lon="14.9516347"><ele>19.666666666666664</ele><time>2026-04-25T15:50:25.986Z</time></trkpt><trkpt lat="38.4676998" lon="14.9516209"><ele>19.333333333333332</ele><time>2026-04-25T15:50:26.986Z</time></trkpt><trkpt lat="38.4677883" lon="14.9516127"><ele>19.0</ele><time>2026-04-25T15:50:27.985Z</time></trkpt><trkpt lat="38.4678735" lon="14.9515969"><ele>18.666666666666664</ele><time>2026-04-25T15:50:28.986Z</time></trkpt><trkpt lat="38.4679595" lon="14.9515842"><ele>18.333333333333332</ele><time>2026-04-25T15:50:29.986Z</time></trkpt><trkpt lat="38.468041" lon="14.9515701"><ele>18.0</ele><time>2026-04-25T15:50:30.986Z</time></trkpt><trkpt lat="38.4681207" lon="14.9515644"><ele>17.666666666666668</ele><time>2026-04-25T15:50:31.985Z</time></trkpt><trkpt lat="38.4681964" lon="14.9515736"><ele>17.333333333333336</ele><time>2026-04-25T15:50:32.985Z</time></trkpt><trkpt lat="38.4682659" lon="14.9516027"><ele>17.0</ele><time>2026-04-25T15:50:33.986Z</time></trkpt><trkpt lat="38.4683254" lon="14.9516441"><ele>17.0</ele><time>2026-04-25T15:50:34.985Z</time></trkpt><trkpt lat="38.468382" lon="14.9516987"><ele>17.0</ele><time>2026-04-25T15:50:35.986Z</time></trkpt><trkpt lat="38.4684402" lon="14.9517715"><ele>17.0</ele><time>2026-04-25T15:50:36.986Z</time></trkpt><trkpt lat="38.4684989" lon="14.9518485"><ele>17.0</ele><time>2026-04-25T15:50:37.985Z</time></trkpt><trkpt lat="38.4685701" lon="14.9519155"><ele>17.0</ele><time>2026-04-25T15:50:38.986Z</time></trkpt><trkpt lat="38.4686439" lon="14.9519774"><ele>17.0</ele><time>2026-04-25T15:50:39.986Z</time></trkpt><trkpt lat="38.4687147" lon="14.952034"><ele>16.428571428571427</ele><time>2026-04-25T15:50:40.985Z</time></trkpt><trkpt lat="38.4687871" lon="14.9520888"><ele>15.857142857142858</ele><time>2026-04-25T15:50:41.986Z</time></trkpt><trkpt lat="38.4688521" lon="14.9521405"><ele>15.285714285714285</ele><time>2026-04-25T15:50:42.986Z</time></trkpt><trkpt lat="38.4689148" lon="14.9521903"><ele>14.714285714285714</ele><time>2026-04-25T15:50:43.985Z</time></trkpt><trkpt lat="38.4689787" lon="14.9522323"><ele>14.142857142857142</ele><time>2026-04-25T15:50:44.986Z</time></trkpt><trkpt lat="38.4690413" lon="14.952275"><ele>13.571428571428571</ele><time>2026-04-25T15:50:45.985Z</time></trkpt><trkpt lat="38.4691029" lon="14.9523092"><ele>13.0</ele><time>2026-04-25T15:50:46.985Z</time></trkpt><trkpt lat="38.4691612" lon="14.9523431"><ele>12.999999999999998</ele><time>2026-04-25T15:50:47.986Z</time></trkpt><trkpt lat="38.4692613" lon="14.9524225"><ele>13.0</ele><time>2026-04-25T15:50:49.986Z</time></trkpt><trkpt lat="38.4693136" lon="14.9524736"><ele>13.0</ele><time>2026-04-25T15:50:50.985Z</time></trkpt><trkpt lat="38.4693649" lon="14.9525273"><ele>13.0</ele><time>2026-04-25T15:50:51.985Z</time></trkpt><trkpt lat="38.4694166" lon="14.9525929"><ele>12.999999999999998</ele><time>2026-04-25T15:50:52.985Z</time></trkpt><trkpt lat="38.469471" lon="14.9526618"><ele>13.0</ele><time>2026-04-25T15:50:53.985Z</time></trkpt><trkpt lat="38.4695313" lon="14.952737"><ele>12.666666666666666</ele><time>2026-04-25T15:50:54.985Z</time></trkpt><trkpt lat="38.4695823" lon="14.9528136"><ele>12.333333333333332</ele><time>2026-04-25T15:50:55.986Z</time></trkpt><trkpt lat="38.4696439" lon="14.9528936"><ele>12.0</ele><time>2026-04-25T15:50:56.985Z</time></trkpt><trkpt lat="38.4696987" lon="14.9529704"><ele>11.666666666666666</ele><time>2026-04-25T15:50:57.985Z</time></trkpt><trkpt lat="38.4697552" lon="14.9530442"><ele>11.333333333333332</ele><time>2026-04-25T15:50:58.986Z</time></trkpt><trkpt lat="38.4698175" lon="14.953121"><ele>11.0</ele><time>2026-04-25T15:50:59.986Z</time></trkpt><trkpt lat="38.4698801" lon="14.953194"><ele>10.857142857142858</ele><time>2026-04-25T15:51:00.986Z</time></trkpt><trkpt lat="38.4699293" lon="14.953256"><ele>10.714285714285714</ele><time>2026-04-25T15:51:01.985Z</time></trkpt><trkpt lat="38.4699861" lon="14.9533417"><ele>10.571428571428571</ele><time>2026-04-25T15:51:03.986Z</time></trkpt><trkpt lat="38.4700302" lon="14.9534086"><ele>10.428571428571429</ele><time>2026-04-25T15:51:05.985Z</time></trkpt><trkpt lat="38.4701008" lon="14.9534875"><ele>10.285714285714286</ele><time>2026-04-25T15:51:07.985Z</time></trkpt><trkpt lat="38.4701478" lon="14.9535423"><ele>10.142857142857142</ele><time>2026-04-25T15:51:08.986Z</time></trkpt><trkpt lat="38.4701931" lon="14.9536021"><ele>10.0</ele><time>2026-04-25T15:51:09.985Z</time></trkpt><trkpt lat="38.4702553" lon="14.9536698"><ele>9.714285714285714</ele><time>2026-04-25T15:51:10.986Z</time></trkpt><trkpt lat="38.4703087" lon="14.9537344"><ele>9.428571428571429</ele><time>2026-04-25T15:51:11.985Z</time></trkpt><trkpt lat="38.4703607" lon="14.9538091"><ele>9.142857142857142</ele><time>2026-04-25T15:51:12.985Z</time></trkpt><trkpt lat="38.4704094" lon="14.9538801"><ele>8.857142857142858</ele><time>2026-04-25T15:51:13.986Z</time></trkpt><trkpt lat="38.4704583" lon="14.9539515"><ele>8.571428571428571</ele><time>2026-04-25T15:51:14.986Z</time></trkpt><trkpt lat="38.4705022" lon="14.9540222"><ele>8.285714285714285</ele><time>2026-04-25T15:51:15.986Z</time></trkpt><trkpt lat="38.4705366" lon="14.954094"><ele>8.0</ele><time>2026-04-25T15:51:16.986Z</time></trkpt><trkpt lat="38.4705551" lon="14.9542372"><ele>7.0</ele><time>2026-04-25T15:51:18.985Z</time></trkpt><trkpt lat="38.470552" lon="14.9543536"><ele>6.000000000000001</ele><time>2026-04-25T15:51:20.986Z</time></trkpt><trkpt lat="38.4705964" lon="14.9544544"><ele>5.0</ele><time>2026-04-25T15:51:24.985Z</time></trkpt><trkpt lat="38.4706825" lon="14.9544602"><ele>4.0</ele><time>2026-04-25T15:51:26.985Z</time></trkpt><trkpt lat="38.4707945" lon="14.9544122"><ele>3.0</ele><time>2026-04-25T15:51:28.985Z</time></trkpt><trkpt lat="38.4708591" lon="14.9543814"><ele>2.9999999999999996</ele><time>2026-04-25T15:51:29.986Z</time></trkpt><trkpt lat="38.4709276" lon="14.9543541"><ele>3.0</ele><time>2026-04-25T15:51:30.985Z</time></trkpt><trkpt lat="38.4709988" lon="14.9543325"><ele>3.0</ele><time>2026-04-25T15:51:31.985Z</time></trkpt><trkpt lat="38.4710711" lon="14.9542932"><ele>3.0</ele><time>2026-04-25T15:51:32.986Z</time></trkpt><trkpt lat="38.4711452" lon="14.9542528"><ele>3.0</ele><time>2026-04-25T15:51:33.985Z</time></trkpt><trkpt lat="38.4712152" lon="14.9542255"><ele>2.9999999999999996</ele><time>2026-04-25T15:51:34.985Z</time></trkpt><trkpt lat="38.4712857" lon="14.954208"><ele>3.0</ele><time>2026-04-25T15:51:35.986Z</time></trkpt><trkpt lat="38.4713489" lon="14.9541997"><ele>3.0</ele><time>2026-04-25T15:51:36.985Z</time></trkpt><trkpt lat="38.4714586" lon="14.9541735"><ele>3.0</ele><time>2026-04-25T15:51:38.985Z</time></trkpt><trkpt lat="38.4715737" lon="14.9541322"><ele>3.0</ele><time>2026-04-25T15:51:40.986Z</time></trkpt><trkpt lat="38.4716992" lon="14.9541192"><ele>3.0</ele><time>2026-04-25T15:51:42.986Z</time></trkpt><trkpt lat="38.4717629" lon="14.9541117"><ele>3.0</ele><time>2026-04-25T15:51:43.985Z</time></trkpt><trkpt lat="38.4718358" lon="14.9541107"><ele>3.0</ele><time>2026-04-25T15:51:44.985Z</time></trkpt><trkpt lat="38.471924" lon="14.9541157"><ele>3.0</ele><time>2026-04-25T15:51:45.985Z</time></trkpt><trkpt lat="38.4720069" lon="14.9541196"><ele>3.0</ele><time>2026-04-25T15:51:46.985Z</time></trkpt><trkpt lat="38.4720958" lon="14.9541252"><ele>3.0</ele><time>2026-04-25T15:51:47.986Z</time></trkpt><trkpt lat="38.4721857" lon="14.95413"><ele>3.0</ele><time>2026-04-25T15:51:48.985Z</time></trkpt><trkpt lat="38.472275" lon="14.9541307"><ele>3.0</ele><time>2026-04-25T15:51:49.985Z</time></trkpt><trkpt lat="38.4723623" lon="14.9541297"><ele>3.1666666666666665</ele><time>2026-04-25T15:51:50.986Z</time></trkpt><trkpt lat="38.4724453" lon="14.9541334"><ele>3.333333333333333</ele><time>2026-04-25T15:51:51.985Z</time></trkpt><trkpt lat="38.4725293" lon="14.9541356"><ele>3.5</ele><time>2026-04-25T15:51:52.985Z</time></trkpt><trkpt lat="38.4726075" lon="14.9541477"><ele>3.6666666666666665</ele><time>2026-04-25T15:51:53.985Z</time></trkpt><trkpt lat="38.4726888" lon="14.9541698"><ele>3.833333333333333</ele><time>2026-04-25T15:51:54.985Z</time></trkpt><trkpt lat="38.4727656" lon="14.9541917"><ele>4.0</ele><time>2026-04-25T15:51:55.985Z</time></trkpt><trkpt lat="38.4728561" lon="14.9542135"><ele>4.4</ele><time>2026-04-25T15:51:56.985Z</time></trkpt><trkpt lat="38.4729375" lon="14.9542453"><ele>4.800000000000001</ele><time>2026-04-25T15:51:57.986Z</time></trkpt><trkpt lat="38.4730237" lon="14.9542638"><ele>5.199999999999999</ele><time>2026-04-25T15:51:58.985Z</time></trkpt><trkpt lat="38.4731163" lon="14.9542965"><ele>5.6</ele><time>2026-04-25T15:51:59.986Z</time></trkpt><trkpt lat="38.4732034" lon="14.9543289"><ele>6.0</ele><time>2026-04-25T15:52:00.986Z</time></trkpt><trkpt lat="38.4732917" lon="14.9543654"><ele>6.0</ele><time>2026-04-25T15:52:01.985Z</time></trkpt><trkpt lat="38.4733811" lon="14.9543951"><ele>6.0</ele><time>2026-04-25T15:52:02.986Z</time></trkpt><trkpt lat="38.4734732" lon="14.9544228"><ele>6.0</ele><time>2026-04-25T15:52:03.985Z</time></trkpt><trkpt lat="38.4735623" lon="14.9544563"><ele>6.0</ele><time>2026-04-25T15:52:04.985Z</time></trkpt><trkpt lat="38.4736504" lon="14.9544974"><ele>6.0</ele><time>2026-04-25T15:52:05.986Z</time></trkpt><trkpt lat="38.473742" lon="14.9545406"><ele>5.6</ele><time>2026-04-25T15:52:06.986Z</time></trkpt><trkpt lat="38.4738317" lon="14.9545883"><ele>5.199999999999999</ele><time>2026-04-25T15:52:07.985Z</time></trkpt><trkpt lat="38.473917" lon="14.9546394"><ele>4.800000000000001</ele><time>2026-04-25T15:52:08.985Z</time></trkpt><trkpt lat="38.4740063" lon="14.9546835"><ele>4.4</ele><time>2026-04-25T15:52:09.985Z</time></trkpt><trkpt lat="38.4740945" lon="14.9547342"><ele>4.0</ele><time>2026-04-25T15:52:10.985Z</time></trkpt><trkpt lat="38.4741828" lon="14.9547844"><ele>4.0</ele><time>2026-04-25T15:52:11.985Z</time></trkpt><trkpt lat="38.4742677" lon="14.9548345"><ele>4.0</ele><time>2026-04-25T15:52:12.986Z</time></trkpt><trkpt lat="38.4743538" lon="14.9548803"><ele>4.0</ele><time>2026-04-25T15:52:13.986Z</time></trkpt><trkpt lat="38.4744392" lon="14.9549242"><ele>4.0</ele><time>2026-04-25T15:52:14.985Z</time></trkpt><trkpt lat="38.4745199" lon="14.9549661"><ele>4.0</ele><time>2026-04-25T15:52:15.985Z</time></trkpt><trkpt lat="38.4746012" lon="14.9550114"><ele>4.333333333333333</ele><time>2026-04-25T15:52:16.985Z</time></trkpt><trkpt lat="38.4746797" lon="14.95505"><ele>4.666666666666666</ele><time>2026-04-25T15:52:17.986Z</time></trkpt><trkpt lat="38.4747558" lon="14.9550937"><ele>5.0</ele><time>2026-04-25T15:52:18.985Z</time></trkpt><trkpt lat="38.4748237" lon="14.9551344"><ele>5.333333333333333</ele><time>2026-04-25T15:52:19.985Z</time></trkpt><trkpt lat="38.4748895" lon="14.9551747"><ele>5.666666666666667</ele><time>2026-04-25T15:52:20.986Z</time></trkpt><trkpt lat="38.4749532" lon="14.9552145"><ele>6.0</ele><time>2026-04-25T15:52:21.985Z</time></trkpt><trkpt lat="38.4750169" lon="14.9552544"><ele>5.999999999999999</ele><time>2026-04-25T15:52:22.986Z</time></trkpt><trkpt lat="38.4750798" lon="14.955297"><ele>6.0</ele><time>2026-04-25T15:52:23.986Z</time></trkpt><trkpt lat="38.4751386" lon="14.9553388"><ele>6.0</ele><time>2026-04-25T15:52:24.985Z</time></trkpt><trkpt lat="38.4752004" lon="14.955384"><ele>6.0</ele><time>2026-04-25T15:52:25.986Z</time></trkpt><trkpt lat="38.4752651" lon="14.9554334"><ele>6.0</ele><time>2026-04-25T15:52:26.986Z</time></trkpt><trkpt lat="38.4753318" lon="14.9554858"><ele>5.999999999999999</ele><time>2026-04-25T15:52:27.985Z</time></trkpt><trkpt lat="38.4754008" lon="14.955537"><ele>6.0</ele><time>2026-04-25T15:52:28.986Z</time></trkpt><trkpt lat="38.4754678" lon="14.9555923"><ele>6.166666666666667</ele><time>2026-04-25T15:52:29.985Z</time></trkpt><trkpt lat="38.4755357" lon="14.9556479"><ele>6.333333333333334</ele><time>2026-04-25T15:52:30.986Z</time></trkpt><trkpt lat="38.4756031" lon="14.9557049"><ele>6.5</ele><time>2026-04-25T15:52:31.985Z</time></trkpt><trkpt lat="38.4756697" lon="14.9557574"><ele>6.666666666666667</ele><time>2026-04-25T15:52:32.985Z</time></trkpt><trkpt lat="38.4757382" lon="14.9558075"><ele>6.833333333333334</ele><time>2026-04-25T15:52:33.986Z</time></trkpt><trkpt lat="38.4758022" lon="14.9558564"><ele>7.0</ele><time>2026-04-25T15:52:34.985Z</time></trkpt><trkpt lat="38.4758662" lon="14.9559041"><ele>7.428571428571429</ele><time>2026-04-25T15:52:35.986Z</time></trkpt><trkpt lat="38.4759276" lon="14.9559512"><ele>7.857142857142858</ele><time>2026-04-25T15:52:36.985Z</time></trkpt><trkpt lat="38.4759963" lon="14.9559964"><ele>8.285714285714285</ele><time>2026-04-25T15:52:37.985Z</time></trkpt><trkpt lat="38.4760606" lon="14.9560382"><ele>8.714285714285715</ele><time>2026-04-25T15:52:38.985Z</time></trkpt><trkpt lat="38.4761241" lon="14.9560871"><ele>9.142857142857142</ele><time>2026-04-25T15:52:39.985Z</time></trkpt><trkpt lat="38.4761862" lon="14.9561348"><ele>9.571428571428571</ele><time>2026-04-25T15:52:40.986Z</time></trkpt><trkpt lat="38.4762446" lon="14.9561807"><ele>10.0</ele><time>2026-04-25T15:52:41.985Z</time></trkpt><trkpt lat="38.4763053" lon="14.9562191"><ele>10.0</ele><time>2026-04-25T15:52:42.985Z</time></trkpt><trkpt lat="38.476369" lon="14.9562635"><ele>10.0</ele><time>2026-04-25T15:52:43.985Z</time></trkpt><trkpt lat="38.4764289" lon="14.9563121"><ele>10.0</ele><time>2026-04-25T15:52:44.986Z</time></trkpt><trkpt lat="38.4764822" lon="14.9563694"><ele>10.0</ele><time>2026-04-25T15:52:45.985Z</time></trkpt><trkpt lat="38.4765325" lon="14.9564319"><ele>10.0</ele><time>2026-04-25T15:52:46.985Z</time></trkpt><trkpt lat="38.4765819" lon="14.9564911"><ele>10.0</ele><time>2026-04-25T15:52:47.985Z</time></trkpt><trkpt lat="38.4766319" lon="14.9565597"><ele>10.0</ele><time>2026-04-25T15:52:48.986Z</time></trkpt><trkpt lat="38.4766805" lon="14.9566232"><ele>10.0</ele><time>2026-04-25T15:52:49.985Z</time></trkpt><trkpt lat="38.4767284" lon="14.9566899"><ele>10.0</ele><time>2026-04-25T15:52:50.986Z</time></trkpt><trkpt lat="38.4767832" lon="14.9567473"><ele>10.0</ele><time>2026-04-25T15:52:51.986Z</time></trkpt><trkpt lat="38.476842" lon="14.9568105"><ele>10.0</ele><time>2026-04-25T15:52:52.985Z</time></trkpt><trkpt lat="38.4769027" lon="14.9568612"><ele>10.0</ele><time>2026-04-25T15:52:53.986Z</time></trkpt><trkpt lat="38.4769627" lon="14.9569162"><ele>10.0</ele><time>2026-04-25T15:52:54.985Z</time></trkpt><trkpt lat="38.4770177" lon="14.9569765"><ele>10.0</ele><time>2026-04-25T15:52:55.985Z</time></trkpt><trkpt lat="38.4770597" lon="14.9570569"><ele>10.166666666666668</ele><time>2026-04-25T15:52:56.986Z</time></trkpt><trkpt lat="38.4770965" lon="14.9571339"><ele>10.333333333333334</ele><time>2026-04-25T15:52:57.985Z</time></trkpt><trkpt lat="38.4771391" lon="14.9572115"><ele>10.5</ele><time>2026-04-25T15:52:58.985Z</time></trkpt><trkpt lat="38.4771873" lon="14.9572898"><ele>10.666666666666666</ele><time>2026-04-25T15:52:59.986Z</time></trkpt><trkpt lat="38.4772394" lon="14.9573728"><ele>10.833333333333332</ele><time>2026-04-25T15:53:00.985Z</time></trkpt><trkpt lat="38.4772927" lon="14.957461"><ele>11.0</ele><time>2026-04-25T15:53:01.986Z</time></trkpt><trkpt lat="38.477345" lon="14.9575542"><ele>11.0</ele><time>2026-04-25T15:53:02.985Z</time></trkpt><trkpt lat="38.4773907" lon="14.9576486"><ele>11.0</ele><time>2026-04-25T15:53:03.986Z</time></trkpt><trkpt lat="38.4774393" lon="14.9577353"><ele>11.0</ele><time>2026-04-25T15:53:04.985Z</time></trkpt><trkpt lat="38.4774903" lon="14.9578265"><ele>11.0</ele><time>2026-04-25T15:53:05.986Z</time></trkpt><trkpt lat="38.4775377" lon="14.957918"><ele>11.0</ele><time>2026-04-25T15:53:06.985Z</time></trkpt><trkpt lat="38.4775799" lon="14.9580086"><ele>11.0</ele><time>2026-04-25T15:53:07.985Z</time></trkpt><trkpt lat="38.4776216" lon="14.9581101"><ele>11.0</ele><time>2026-04-25T15:53:08.986Z</time></trkpt><trkpt lat="38.4776515" lon="14.9582173"><ele>11.0</ele><time>2026-04-25T15:53:09.986Z</time></trkpt><trkpt lat="38.4776757" lon="14.9583251"><ele>11.0</ele><time>2026-04-25T15:53:10.985Z</time></trkpt><trkpt lat="38.4776933" lon="14.9584347"><ele>11.0</ele><time>2026-04-25T15:53:11.986Z</time></trkpt><trkpt lat="38.4776986" lon="14.9585409"><ele>11.0</ele><time>2026-04-25T15:53:12.985Z</time></trkpt><trkpt lat="38.4776971" lon="14.9586441"><ele>11.0</ele><time>2026-04-25T15:53:13.986Z</time></trkpt><trkpt lat="38.4776961" lon="14.9587341"><ele>11.142857142857142</ele><time>2026-04-25T15:53:14.986Z</time></trkpt><trkpt lat="38.4776978" lon="14.9588303"><ele>11.285714285714285</ele><time>2026-04-25T15:53:15.985Z</time></trkpt><trkpt lat="38.4777044" lon="14.9589207"><ele>11.428571428571427</ele><time>2026-04-25T15:53:16.985Z</time></trkpt><trkpt lat="38.4777137" lon="14.9590089"><ele>11.571428571428571</ele><time>2026-04-25T15:53:17.986Z</time></trkpt><trkpt lat="38.477733" lon="14.9590917"><ele>11.714285714285714</ele><time>2026-04-25T15:53:18.986Z</time></trkpt><trkpt lat="38.4777551" lon="14.959172"><ele>11.857142857142856</ele><time>2026-04-25T15:53:19.985Z</time></trkpt><trkpt lat="38.4777872" lon="14.9592477"><ele>12.0</ele><time>2026-04-25T15:53:20.986Z</time></trkpt><trkpt lat="38.4778309" lon="14.9593184"><ele>11.333333333333334</ele><time>2026-04-25T15:53:21.985Z</time></trkpt><trkpt lat="38.4778796" lon="14.9593925"><ele>10.666666666666666</ele><time>2026-04-25T15:53:22.985Z</time></trkpt><trkpt lat="38.4779324" lon="14.9594654"><ele>10.0</ele><time>2026-04-25T15:53:23.985Z</time></trkpt><trkpt lat="38.4779713" lon="14.9595533"><ele>9.333333333333332</ele><time>2026-04-25T15:53:24.986Z</time></trkpt><trkpt lat="38.4779979" lon="14.9596526"><ele>8.666666666666666</ele><time>2026-04-25T15:53:25.986Z</time></trkpt><trkpt lat="38.4780185" lon="14.9597518"><ele>8.0</ele><time>2026-04-25T15:53:26.986Z</time></trkpt><trkpt lat="38.4780355" lon="14.9598437"><ele>10.571428571428571</ele><time>2026-04-25T15:53:27.985Z</time></trkpt><trkpt lat="38.4780403" lon="14.9599408"><ele>13.142857142857142</ele><time>2026-04-25T15:53:28.986Z</time></trkpt><trkpt lat="38.478048" lon="14.960044"><ele>15.714285714285714</ele><time>2026-04-25T15:53:29.986Z</time></trkpt><trkpt lat="38.4780561" lon="14.9601396"><ele>18.285714285714285</ele><time>2026-04-25T15:53:30.985Z</time></trkpt><trkpt lat="38.4780614" lon="14.9602282"><ele>20.857142857142858</ele><time>2026-04-25T15:53:31.986Z</time></trkpt><trkpt lat="38.478073" lon="14.9603143"><ele>23.428571428571427</ele><time>2026-04-25T15:53:32.985Z</time></trkpt><trkpt lat="38.4780933" lon="14.9603958"><ele>26.0</ele><time>2026-04-25T15:53:33.986Z</time></trkpt><trkpt lat="38.4781136" lon="14.9604741"><ele>25.999999999999996</ele><time>2026-04-25T15:53:34.986Z</time></trkpt><trkpt lat="38.4781638" lon="14.9606122"><ele>26.0</ele><time>2026-04-25T15:53:36.986Z</time></trkpt><trkpt lat="38.4781828" lon="14.960692"><ele>26.0</ele><time>2026-04-25T15:53:37.986Z</time></trkpt><trkpt lat="38.4781998" lon="14.9607759"><ele>26.0</ele><time>2026-04-25T15:53:38.986Z</time></trkpt><trkpt lat="38.4782222" lon="14.9608608"><ele>25.999999999999996</ele><time>2026-04-25T15:53:39.986Z</time></trkpt><trkpt lat="38.4782507" lon="14.9609582"><ele>26.0</ele><time>2026-04-25T15:53:40.985Z</time></trkpt><trkpt lat="38.4782883" lon="14.9610514"><ele>23.833333333333332</ele><time>2026-04-25T15:53:41.985Z</time></trkpt><trkpt lat="38.478322" lon="14.961142"><ele>21.666666666666664</ele><time>2026-04-25T15:53:42.986Z</time></trkpt><trkpt lat="38.4783507" lon="14.9612288"><ele>19.5</ele><time>2026-04-25T15:53:43.985Z</time></trkpt><trkpt lat="38.4783755" lon="14.9613154"><ele>17.333333333333332</ele><time>2026-04-25T15:53:44.985Z</time></trkpt><trkpt lat="38.4784057" lon="14.9613986"><ele>15.166666666666664</ele><time>2026-04-25T15:53:45.985Z</time></trkpt><trkpt lat="38.4784367" lon="14.9614861"><ele>13.0</ele><time>2026-04-25T15:53:46.985Z</time></trkpt><trkpt lat="38.4784714" lon="14.9615806"><ele>12.999999999999998</ele><time>2026-04-25T15:53:47.985Z</time></trkpt><trkpt lat="38.4785078" lon="14.9616708"><ele>13.0</ele><time>2026-04-25T15:53:48.985Z</time></trkpt><trkpt lat="38.4785537" lon="14.9617558"><ele>13.0</ele><time>2026-04-25T15:53:49.985Z</time></trkpt><trkpt lat="38.4786037" lon="14.9618356"><ele>13.0</ele><time>2026-04-25T15:53:50.986Z</time></trkpt><trkpt lat="38.4786586" lon="14.9619142"><ele>12.999999999999998</ele><time>2026-04-25T15:53:51.985Z</time></trkpt><trkpt lat="38.4787085" lon="14.9619994"><ele>13.0</ele><time>2026-04-25T15:53:52.986Z</time></trkpt><trkpt lat="38.4787556" lon="14.9620824"><ele>13.8</ele><time>2026-04-25T15:53:53.985Z</time></trkpt><trkpt lat="38.4788042" lon="14.962167"><ele>14.600000000000001</ele><time>2026-04-25T15:53:54.985Z</time></trkpt><trkpt lat="38.4788642" lon="14.9622509"><ele>15.399999999999999</ele><time>2026-04-25T15:53:55.985Z</time></trkpt><trkpt lat="38.4789266" lon="14.9623342"><ele>16.2</ele><time>2026-04-25T15:53:56.985Z</time></trkpt><trkpt lat="38.4790066" lon="14.9624074"><ele>17.0</ele><time>2026-04-25T15:53:57.986Z</time></trkpt><trkpt lat="38.4790921" lon="14.9624687"><ele>17.0</ele><time>2026-04-25T15:53:58.985Z</time></trkpt><trkpt lat="38.4791906" lon="14.9625101"><ele>17.0</ele><time>2026-04-25T15:53:59.986Z</time></trkpt><trkpt lat="38.4792947" lon="14.9625565"><ele>17.0</ele><time>2026-04-25T15:54:00.985Z</time></trkpt><trkpt lat="38.4793951" lon="14.9625833"><ele>17.0</ele><time>2026-04-25T15:54:01.985Z</time></trkpt><trkpt lat="38.479497" lon="14.9626234"><ele>17.0</ele><time>2026-04-25T15:54:02.986Z</time></trkpt><trkpt lat="38.4796006" lon="14.9626576"><ele>23.6</ele><time>2026-04-25T15:54:03.985Z</time></trkpt><trkpt lat="38.4796961" lon="14.9626902"><ele>30.2</ele><time>2026-04-25T15:54:04.985Z</time></trkpt><trkpt lat="38.4797841" lon="14.9627258"><ele>36.8</ele><time>2026-04-25T15:54:05.985Z</time></trkpt><trkpt lat="38.479867" lon="14.9627458"><ele>43.4</ele><time>2026-04-25T15:54:06.985Z</time></trkpt><trkpt lat="38.4799559" lon="14.9627695"><ele>50.0</ele><time>2026-04-25T15:54:07.985Z</time></trkpt><trkpt lat="38.4800448" lon="14.9627799"><ele>50.0</ele><time>2026-04-25T15:54:08.986Z</time></trkpt><trkpt lat="38.4801218" lon="14.962792"><ele>50.0</ele><time>2026-04-25T15:54:09.985Z</time></trkpt><trkpt lat="38.4802015" lon="14.9628076"><ele>50.0</ele><time>2026-04-25T15:54:10.985Z</time></trkpt><trkpt lat="38.4821564" lon="14.9631317"><ele>45.8</ele><time>2026-04-25T15:54:30.985Z</time></trkpt><trkpt lat="38.4822653" lon="14.9631474"><ele>41.6</ele><time>2026-04-25T15:54:31.986Z</time></trkpt><trkpt lat="38.482363" lon="14.9631614"><ele>37.4</ele><time>2026-04-25T15:54:32.985Z</time></trkpt><trkpt lat="38.4824538" lon="14.96318"><ele>33.2</ele><time>2026-04-25T15:54:33.985Z</time></trkpt><trkpt lat="38.482556" lon="14.9631982"><ele>29.0</ele><time>2026-04-25T15:54:34.985Z</time></trkpt><trkpt lat="38.4826552" lon="14.9632205"><ele>29.0</ele><time>2026-04-25T15:54:35.985Z</time></trkpt><trkpt lat="38.4827489" lon="14.9632502"><ele>29.0</ele><time>2026-04-25T15:54:36.986Z</time></trkpt><trkpt lat="38.4828415" lon="14.9632924"><ele>29.0</ele><time>2026-04-25T15:54:37.985Z</time></trkpt><trkpt lat="38.4829321" lon="14.9633544"><ele>29.0</ele><time>2026-04-25T15:54:38.986Z</time></trkpt><trkpt lat="38.4830132" lon="14.9634257"><ele>29.0</ele><time>2026-04-25T15:54:39.985Z</time></trkpt><trkpt lat="38.4830924" lon="14.9634876"><ele>29.166666666666664</ele><time>2026-04-25T15:54:40.985Z</time></trkpt><trkpt lat="38.4831765" lon="14.9635394"><ele>29.333333333333332</ele><time>2026-04-25T15:54:41.985Z</time></trkpt><trkpt lat="38.4832585" lon="14.9636019"><ele>29.5</ele><time>2026-04-25T15:54:42.985Z</time></trkpt><trkpt lat="38.4833388" lon="14.9636545"><ele>29.666666666666664</ele><time>2026-04-25T15:54:43.985Z</time></trkpt><trkpt lat="38.4834162" lon="14.9637096"><ele>29.833333333333332</ele><time>2026-04-25T15:54:44.985Z</time></trkpt><trkpt lat="38.4834804" lon="14.9637619"><ele>30.0</ele><time>2026-04-25T15:54:45.986Z</time></trkpt><trkpt lat="38.4835462" lon="14.9638472"><ele>30.0</ele><time>2026-04-25T15:54:46.985Z</time></trkpt><trkpt lat="38.4836191" lon="14.9639333"><ele>30.0</ele><time>2026-04-25T15:54:47.985Z</time></trkpt><trkpt lat="38.4836701" lon="14.9640251"><ele>30.0</ele><time>2026-04-25T15:54:48.985Z</time></trkpt><trkpt lat="38.4837227" lon="14.9641103"><ele>30.0</ele><time>2026-04-25T15:54:49.985Z</time></trkpt><trkpt lat="38.483778" lon="14.964197"><ele>30.0</ele><time>2026-04-25T15:54:50.985Z</time></trkpt><trkpt lat="38.4838361" lon="14.9642838"><ele>30.0</ele><time>2026-04-25T15:54:51.986Z</time></trkpt><trkpt lat="38.4838934" lon="14.9643632"><ele>28.833333333333332</ele><time>2026-04-25T15:54:52.985Z</time></trkpt><trkpt lat="38.4839414" lon="14.9644476"><ele>27.666666666666668</ele><time>2026-04-25T15:54:53.985Z</time></trkpt><trkpt lat="38.4840008" lon="14.9645377"><ele>26.5</ele><time>2026-04-25T15:54:54.985Z</time></trkpt><trkpt lat="38.4840583" lon="14.9646146"><ele>25.333333333333336</ele><time>2026-04-25T15:54:55.986Z</time></trkpt><trkpt lat="38.484118" lon="14.9646951"><ele>24.166666666666668</ele><time>2026-04-25T15:54:56.986Z</time></trkpt><trkpt lat="38.4841678" lon="14.9647724"><ele>23.0</ele><time>2026-04-25T15:54:57.986Z</time></trkpt><trkpt lat="38.48422" lon="14.9648586"><ele>23.0</ele><time>2026-04-25T15:54:58.985Z</time></trkpt><trkpt lat="38.4842632" lon="14.9649478"><ele>23.0</ele><time>2026-04-25T15:54:59.986Z</time></trkpt><trkpt lat="38.4842918" lon="14.9650439"><ele>23.0</ele><time>2026-04-25T15:55:00.986Z</time></trkpt><trkpt lat="38.484309" lon="14.9651452"><ele>23.0</ele><time>2026-04-25T15:55:01.985Z</time></trkpt><trkpt lat="38.4843156" lon="14.9652488"><ele>23.0</ele><time>2026-04-25T15:55:02.985Z</time></trkpt><trkpt lat="38.4843205" lon="14.9653625"><ele>23.0</ele><time>2026-04-25T15:55:03.985Z</time></trkpt><trkpt lat="38.4843264" lon="14.9654796"><ele>24.799999999999997</ele><time>2026-04-25T15:55:04.985Z</time></trkpt><trkpt lat="38.4843351" lon="14.9656048"><ele>26.6</ele><time>2026-04-25T15:55:05.985Z</time></trkpt><trkpt lat="38.4843461" lon="14.9657295"><ele>28.400000000000002</ele><time>2026-04-25T15:55:06.986Z</time></trkpt><trkpt lat="38.4843547" lon="14.9658618"><ele>30.200000000000003</ele><time>2026-04-25T15:55:07.985Z</time></trkpt><trkpt lat="38.4843521" lon="14.965987"><ele>32.0</ele><time>2026-04-25T15:55:08.985Z</time></trkpt><trkpt lat="38.4843617" lon="14.9661188"><ele>33.2</ele><time>2026-04-25T15:55:09.985Z</time></trkpt><trkpt lat="38.4843769" lon="14.966245"><ele>34.400000000000006</ele><time>2026-04-25T15:55:10.986Z</time></trkpt><trkpt lat="38.4843984" lon="14.966369"><ele>35.599999999999994</ele><time>2026-04-25T15:55:11.986Z</time></trkpt><trkpt lat="38.4844164" lon="14.9664804"><ele>36.8</ele><time>2026-04-25T15:55:12.985Z</time></trkpt><trkpt lat="38.4844465" lon="14.9665955"><ele>38.0</ele><time>2026-04-25T15:55:13.986Z</time></trkpt><trkpt lat="38.4844767" lon="14.9666968"><ele>40.166666666666664</ele><time>2026-04-25T15:55:14.986Z</time></trkpt><trkpt lat="38.48451" lon="14.9668039"><ele>42.33333333333333</ele><time>2026-04-25T15:55:15.986Z</time></trkpt><trkpt lat="38.4845384" lon="14.9669083"><ele>44.5</ele><time>2026-04-25T15:55:16.986Z</time></trkpt><trkpt lat="38.4845706" lon="14.9670091"><ele>46.666666666666664</ele><time>2026-04-25T15:55:17.985Z</time></trkpt><trkpt lat="38.4846052" lon="14.9671098"><ele>48.833333333333336</ele><time>2026-04-25T15:55:18.985Z</time></trkpt><trkpt lat="38.4846434" lon="14.9672073"><ele>51.0</ele><time>2026-04-25T15:55:19.985Z</time></trkpt><trkpt lat="38.4846971" lon="14.9672914"><ele>45.0</ele><time>2026-04-25T15:55:20.985Z</time></trkpt><trkpt lat="38.4847571" lon="14.9673691"><ele>39.0</ele><time>2026-04-25T15:55:21.985Z</time></trkpt><trkpt lat="38.4848223" lon="14.9674398"><ele>33.0</ele><time>2026-04-25T15:55:22.986Z</time></trkpt><trkpt lat="38.484874" lon="14.967511"><ele>27.0</ele><time>2026-04-25T15:55:23.985Z</time></trkpt><trkpt lat="38.484915" lon="14.9675899"><ele>21.0</ele><time>2026-04-25T15:55:24.985Z</time></trkpt><trkpt lat="38.4849006" lon="14.9677488"><ele>15.0</ele><time>2026-04-25T15:55:26.985Z</time></trkpt><trkpt lat="38.484868" lon="14.9678274"><ele>14.0</ele><time>2026-04-25T15:55:27.986Z</time></trkpt><trkpt lat="38.4848367" lon="14.9679195"><ele>13.0</ele><time>2026-04-25T15:55:28.986Z</time></trkpt><trkpt lat="38.4848049" lon="14.9680063"><ele>12.0</ele><time>2026-04-25T15:55:29.985Z</time></trkpt><trkpt lat="38.4847842" lon="14.9681013"><ele>11.0</ele><time>2026-04-25T15:55:30.986Z</time></trkpt><trkpt lat="38.4847766" lon="14.9682115"><ele>10.0</ele><time>2026-04-25T15:55:31.985Z</time></trkpt><trkpt lat="38.4847833" lon="14.9683139"><ele>9.0</ele><time>2026-04-25T15:55:32.985Z</time></trkpt><trkpt lat="38.4848098" lon="14.9684152"><ele>8.666666666666666</ele><time>2026-04-25T15:55:33.985Z</time></trkpt><trkpt lat="38.4848578" lon="14.9685075"><ele>8.333333333333334</ele><time>2026-04-25T15:55:34.986Z</time></trkpt><trkpt lat="38.4849205" lon="14.9685819"><ele>8.0</ele><time>2026-04-25T15:55:35.985Z</time></trkpt><trkpt lat="38.4849909" lon="14.968643"><ele>7.666666666666667</ele><time>2026-04-25T15:55:36.986Z</time></trkpt><trkpt lat="38.4850569" lon="14.9686912"><ele>7.333333333333334</ele><time>2026-04-25T15:55:37.986Z</time></trkpt><trkpt lat="38.4851266" lon="14.96874"><ele>7.0</ele><time>2026-04-25T15:55:38.986Z</time></trkpt><trkpt lat="38.4851913" lon="14.9687968"><ele>7.000000000000001</ele><time>2026-04-25T15:55:39.985Z</time></trkpt><trkpt lat="38.4852508" lon="14.9688426"><ele>7.0</ele><time>2026-04-25T15:55:40.985Z</time></trkpt><trkpt lat="38.48531" lon="14.9688828"><ele>7.0</ele><time>2026-04-25T15:55:41.985Z</time></trkpt><trkpt lat="38.4854062" lon="14.968906"><ele>7.0</ele><time>2026-04-25T15:55:43.986Z</time></trkpt><trkpt lat="38.4854825" lon="14.9688353"><ele>7.000000000000001</ele><time>2026-04-25T15:55:45.986Z</time></trkpt><trkpt lat="38.4855199" lon="14.9687637"><ele>7.0</ele><time>2026-04-25T15:55:46.985Z</time></trkpt><trkpt lat="38.48556" lon="14.9686778"><ele>6.500000000000001</ele><time>2026-04-25T15:55:47.985Z</time></trkpt><trkpt lat="38.4855992" lon="14.9685888"><ele>6.0</ele><time>2026-04-25T15:55:48.985Z</time></trkpt><trkpt lat="38.4856348" lon="14.9685042"><ele>5.5</ele><time>2026-04-25T15:55:49.985Z</time></trkpt><trkpt lat="38.4856729" lon="14.9684221"><ele>5.0</ele><time>2026-04-25T15:55:50.985Z</time></trkpt><trkpt lat="38.4857077" lon="14.9683362"><ele>4.5</ele><time>2026-04-25T15:55:51.985Z</time></trkpt><trkpt lat="38.4857439" lon="14.9682426"><ele>4.0</ele><time>2026-04-25T15:55:52.986Z</time></trkpt><trkpt lat="38.4857787" lon="14.9681546"><ele>4.0</ele><time>2026-04-25T15:55:53.985Z</time></trkpt><trkpt lat="38.4858143" lon="14.9680755"><ele>3.9999999999999996</ele><time>2026-04-25T15:55:54.985Z</time></trkpt><trkpt lat="38.4858505" lon="14.9679875"><ele>4.0</ele><time>2026-04-25T15:55:55.986Z</time></trkpt><trkpt lat="38.4858843" lon="14.9679074"><ele>4.0</ele><time>2026-04-25T15:55:56.985Z</time></trkpt><trkpt lat="38.4859206" lon="14.9678291"><ele>3.9999999999999996</ele><time>2026-04-25T15:55:57.985Z</time></trkpt><trkpt lat="38.4859526" lon="14.9677569"><ele>4.0</ele><time>2026-04-25T15:55:58.986Z</time></trkpt><trkpt lat="38.4859854" lon="14.9676842"><ele>4.0</ele><time>2026-04-25T15:55:59.986Z</time></trkpt><trkpt lat="38.4860137" lon="14.9676105"><ele>3.9999999999999996</ele><time>2026-04-25T15:56:00.985Z</time></trkpt><trkpt lat="38.486043" lon="14.9675331"><ele>4.0</ele><time>2026-04-25T15:56:01.986Z</time></trkpt><trkpt lat="38.4860755" lon="14.9674571"><ele>4.0</ele><time>2026-04-25T15:56:02.985Z</time></trkpt><trkpt lat="38.4861136" lon="14.9673899"><ele>4.0</ele><time>2026-04-25T15:56:03.985Z</time></trkpt><trkpt lat="38.4861739" lon="14.9672681"><ele>3.9999999999999996</ele><time>2026-04-25T15:56:05.986Z</time></trkpt><trkpt lat="38.4862163" lon="14.9671696"><ele>4.0</ele><time>2026-04-25T15:56:07.985Z</time></trkpt><trkpt lat="38.4862474" lon="14.9670464"><ele>4.0</ele><time>2026-04-25T15:56:09.986Z</time></trkpt><trkpt lat="38.4863115" lon="14.9669025"><ele>4.0</ele><time>2026-04-25T15:56:11.986Z</time></trkpt><trkpt lat="38.4863553" lon="14.9668243"><ele>4.0</ele><time>2026-04-25T15:56:12.985Z</time></trkpt><trkpt lat="38.4864094" lon="14.9667428"><ele>4.0</ele><time>2026-04-25T15:56:13.985Z</time></trkpt><trkpt lat="38.4864617" lon="14.966663"><ele>4.0</ele><time>2026-04-25T15:56:14.986Z</time></trkpt><trkpt lat="38.4865127" lon="14.9665843"><ele>4.4</ele><time>2026-04-25T15:56:15.985Z</time></trkpt><trkpt lat="38.4865675" lon="14.966503"><ele>4.800000000000001</ele><time>2026-04-25T15:56:16.985Z</time></trkpt><trkpt lat="38.4866274" lon="14.9664238"><ele>5.199999999999999</ele><time>2026-04-25T15:56:17.985Z</time></trkpt><trkpt lat="38.486695" lon="14.966343"><ele>5.6</ele><time>2026-04-25T15:56:18.985Z</time></trkpt><trkpt lat="38.4867617" lon="14.9662541"><ele>6.0</ele><time>2026-04-25T15:56:19.985Z</time></trkpt><trkpt lat="38.4868256" lon="14.9661556"><ele>6.0</ele><time>2026-04-25T15:56:20.985Z</time></trkpt><trkpt lat="38.4868906" lon="14.9660614"><ele>6.0</ele><time>2026-04-25T15:56:21.985Z</time></trkpt><trkpt lat="38.4869476" lon="14.9659702"><ele>6.0</ele><time>2026-04-25T15:56:22.985Z</time></trkpt><trkpt lat="38.4869932" lon="14.965884"><ele>6.0</ele><time>2026-04-25T15:56:23.985Z</time></trkpt><trkpt lat="38.4870538" lon="14.9658013"><ele>6.0</ele><time>2026-04-25T15:56:24.986Z</time></trkpt><trkpt lat="38.4871154" lon="14.9657245"><ele>6.0</ele><time>2026-04-25T15:56:25.986Z</time></trkpt><trkpt lat="38.4871796" lon="14.9656481"><ele>5.5</ele><time>2026-04-25T15:56:26.986Z</time></trkpt><trkpt lat="38.4872381" lon="14.9655766"><ele>5.0</ele><time>2026-04-25T15:56:27.985Z</time></trkpt><trkpt lat="38.4872892" lon="14.9655071"><ele>4.5</ele><time>2026-04-25T15:56:28.986Z</time></trkpt><trkpt lat="38.4873434" lon="14.9654463"><ele>4.0</ele><time>2026-04-25T15:56:29.985Z</time></trkpt><trkpt lat="38.4873924" lon="14.9653938"><ele>3.5</ele><time>2026-04-25T15:56:30.985Z</time></trkpt><trkpt lat="38.4874438" lon="14.9653405"><ele>3.0</ele><time>2026-04-25T15:56:31.985Z</time></trkpt><trkpt lat="38.4875294" lon="14.9652501"><ele>3.0</ele><time>2026-04-25T15:56:33.986Z</time></trkpt><trkpt lat="38.4876003" lon="14.9651762"><ele>3.0</ele><time>2026-04-25T15:56:35.985Z</time></trkpt><trkpt lat="38.4876629" lon="14.9650926"><ele>3.0</ele><time>2026-04-25T15:56:37.985Z</time></trkpt><trkpt lat="38.4877331" lon="14.9650101"><ele>3.0</ele><time>2026-04-25T15:56:39.986Z</time></trkpt><trkpt lat="38.4878046" lon="14.9649296"><ele>3.0</ele><time>2026-04-25T15:56:41.985Z</time></trkpt><trkpt lat="38.4878833" lon="14.9648395"><ele>3.3333333333333335</ele><time>2026-04-25T15:56:43.985Z</time></trkpt><trkpt lat="38.4879816" lon="14.9647417"><ele>3.666666666666667</ele><time>2026-04-25T15:56:45.986Z</time></trkpt><trkpt lat="38.4880397" lon="14.964698"><ele>4.0</ele><time>2026-04-25T15:56:46.985Z</time></trkpt><trkpt lat="38.4880873" lon="14.9646414"><ele>4.333333333333334</ele><time>2026-04-25T15:56:47.985Z</time></trkpt><trkpt lat="38.4881453" lon="14.9645857"><ele>4.666666666666667</ele><time>2026-04-25T15:56:48.985Z</time></trkpt><trkpt lat="38.4882041" lon="14.9645297"><ele>5.0</ele><time>2026-04-25T15:56:49.985Z</time></trkpt><trkpt lat="38.4882654" lon="14.9644729"><ele>5.0</ele><time>2026-04-25T15:56:50.986Z</time></trkpt><trkpt lat="38.4883194" lon="14.964417"><ele>5.0</ele><time>2026-04-25T15:56:51.985Z</time></trkpt><trkpt lat="38.488369" lon="14.9643658"><ele>5.0</ele><time>2026-04-25T15:56:52.985Z</time></trkpt><trkpt lat="38.4884145" lon="14.9643072"><ele>5.0</ele><time>2026-04-25T15:56:53.986Z</time></trkpt><trkpt lat="38.4884613" lon="14.9642512"><ele>5.0</ele><time>2026-04-25T15:56:54.985Z</time></trkpt><trkpt lat="38.4885169" lon="14.9642024"><ele>5.0</ele><time>2026-04-25T15:56:55.985Z</time></trkpt><trkpt lat="38.4886195" lon="14.9641131"><ele>5.142857142857142</ele><time>2026-04-25T15:56:57.986Z</time></trkpt><trkpt lat="38.4886728" lon="14.9640585"><ele>5.285714285714286</ele><time>2026-04-25T15:56:58.986Z</time></trkpt><trkpt lat="38.488726" lon="14.9640081"><ele>5.428571428571429</ele><time>2026-04-25T15:56:59.985Z</time></trkpt><trkpt lat="38.4887794" lon="14.963962"><ele>5.571428571428571</ele><time>2026-04-25T15:57:00.985Z</time></trkpt><trkpt lat="38.4888301" lon="14.9639039"><ele>5.714285714285714</ele><time>2026-04-25T15:57:01.985Z</time></trkpt><trkpt lat="38.4888873" lon="14.9638597"><ele>5.857142857142857</ele><time>2026-04-25T15:57:02.985Z</time></trkpt><trkpt lat="38.4889497" lon="14.9638106"><ele>6.0</ele><time>2026-04-25T15:57:03.985Z</time></trkpt><trkpt lat="38.489011" lon="14.9637511"><ele>5.333333333333333</ele><time>2026-04-25T15:57:04.986Z</time></trkpt><trkpt lat="38.4890802" lon="14.9636962"><ele>4.666666666666667</ele><time>2026-04-25T15:57:05.986Z</time></trkpt><trkpt lat="38.4891431" lon="14.963646"><ele>4.0</ele><time>2026-04-25T15:57:06.986Z</time></trkpt><trkpt lat="38.4892072" lon="14.96359"><ele>3.333333333333333</ele><time>2026-04-25T15:57:07.986Z</time></trkpt><trkpt lat="38.489267" lon="14.9635228"><ele>2.6666666666666665</ele><time>2026-04-25T15:57:08.986Z</time></trkpt><trkpt lat="38.4893272" lon="14.9634594"><ele>2.0</ele><time>2026-04-25T15:57:09.985Z</time></trkpt><trkpt lat="38.4893899" lon="14.9633975"><ele>1.9999999999999998</ele><time>2026-04-25T15:57:10.985Z</time></trkpt><trkpt lat="38.489455" lon="14.9633338"><ele>2.0</ele><time>2026-04-25T15:57:11.985Z</time></trkpt><trkpt lat="38.4895186" lon="14.963273"><ele>2.0</ele><time>2026-04-25T15:57:12.985Z</time></trkpt><trkpt lat="38.4895848" lon="14.9632154"><ele>2.0</ele><time>2026-04-25T15:57:13.985Z</time></trkpt><trkpt lat="38.4896533" lon="14.9631555"><ele>1.9999999999999998</ele><time>2026-04-25T15:57:14.985Z</time></trkpt><trkpt lat="38.4897228" lon="14.9630918"><ele>2.0</ele><time>2026-04-25T15:57:15.986Z</time></trkpt><trkpt lat="38.4897863" lon="14.9630325"><ele>1.9999999999999998</ele><time>2026-04-25T15:57:16.985Z</time></trkpt><trkpt lat="38.4898534" lon="14.9629844"><ele>2.0</ele><time>2026-04-25T15:57:17.986Z</time></trkpt><trkpt lat="38.4899111" lon="14.9629357"><ele>2.0</ele><time>2026-04-25T15:57:18.985Z</time></trkpt><trkpt lat="38.4899642" lon="14.9628849"><ele>2.0</ele><time>2026-04-25T15:57:19.985Z</time></trkpt><trkpt lat="38.4900151" lon="14.9628349"><ele>1.9999999999999998</ele><time>2026-04-25T15:57:20.985Z</time></trkpt><trkpt lat="38.4901032" lon="14.9627482"><ele>2.0</ele><time>2026-04-25T15:57:22.985Z</time></trkpt><trkpt lat="38.4901319" lon="14.9626602"><ele>2.0</ele><time>2026-04-25T15:57:24.986Z</time></trkpt><trkpt lat="38.4900859" lon="14.9625479"><ele>2.0</ele><time>2026-04-25T15:57:27.985Z</time></trkpt><trkpt lat="38.4900214" lon="14.9624523"><ele>2.0</ele><time>2026-04-25T15:57:29.985Z</time></trkpt><trkpt lat="38.4899513" lon="14.962328"><ele>2.0</ele><time>2026-04-25T15:57:31.986Z</time></trkpt><trkpt lat="38.489915" lon="14.9622591"><ele>2.0</ele><time>2026-04-25T15:57:32.985Z</time></trkpt><trkpt lat="38.4898605" lon="14.9621749"><ele>2.833333333333333</ele><time>2026-04-25T15:57:34.985Z</time></trkpt><trkpt lat="38.4897955" lon="14.9621152"><ele>3.666666666666667</ele><time>2026-04-25T15:57:37.986Z</time></trkpt><trkpt lat="38.4897188" lon="14.9621788"><ele>4.5</ele><time>2026-04-25T15:57:40.986Z</time></trkpt><trkpt lat="38.4896348" lon="14.9622596"><ele>5.333333333333334</ele><time>2026-04-25T15:57:42.986Z</time></trkpt><trkpt lat="38.4895688" lon="14.9622945"><ele>6.166666666666667</ele><time>2026-04-25T15:57:43.985Z</time></trkpt><trkpt lat="38.4895192" lon="14.9623522"><ele>7.0</ele><time>2026-04-25T15:57:44.985Z</time></trkpt><trkpt lat="38.4894723" lon="14.9624076"><ele>7.000000000000001</ele><time>2026-04-25T15:57:45.986Z</time></trkpt><trkpt lat="38.4894134" lon="14.9624656"><ele>7.0</ele><time>2026-04-25T15:57:46.986Z</time></trkpt><trkpt lat="38.4893548" lon="14.962521"><ele>7.0</ele><time>2026-04-25T15:57:47.985Z</time></trkpt><trkpt lat="38.4892794" lon="14.9625673"><ele>7.0</ele><time>2026-04-25T15:57:48.986Z</time></trkpt><trkpt lat="38.4892245" lon="14.962627"><ele>7.000000000000001</ele><time>2026-04-25T15:57:49.986Z</time></trkpt><trkpt lat="38.4891481" lon="14.9626796"><ele>7.0</ele><time>2026-04-25T15:57:50.985Z</time></trkpt><trkpt lat="38.4890935" lon="14.9627396"><ele>7.0</ele><time>2026-04-25T15:57:51.986Z</time></trkpt><trkpt lat="38.4890364" lon="14.9627947"><ele>7.0</ele><time>2026-04-25T15:57:52.985Z</time></trkpt><trkpt lat="38.4889776" lon="14.9628579"><ele>7.0</ele><time>2026-04-25T15:57:53.985Z</time></trkpt><trkpt lat="38.4889081" lon="14.9629109"><ele>7.0</ele><time>2026-04-25T15:57:54.986Z</time></trkpt><trkpt lat="38.4888638" lon="14.9629713"><ele>7.0</ele><time>2026-04-25T15:57:55.986Z</time></trkpt><trkpt lat="38.4888025" lon="14.9630313"><ele>7.0</ele><time>2026-04-25T15:57:56.985Z</time></trkpt><trkpt lat="38.4887467" lon="14.9630804"><ele>7.0</ele><time>2026-04-25T15:57:57.985Z</time></trkpt><trkpt lat="38.4886863" lon="14.9631284"><ele>6.833333333333334</ele><time>2026-04-25T15:57:58.985Z</time></trkpt><trkpt lat="38.4886331" lon="14.9631859"><ele>6.666666666666667</ele><time>2026-04-25T15:57:59.985Z</time></trkpt><trkpt lat="38.4885726" lon="14.9632461"><ele>6.5</ele><time>2026-04-25T15:58:00.985Z</time></trkpt><trkpt lat="38.4885193" lon="14.9633162"><ele>6.333333333333334</ele><time>2026-04-25T15:58:01.985Z</time></trkpt><trkpt lat="38.4884476" lon="14.9633774"><ele>6.166666666666667</ele><time>2026-04-25T15:58:02.986Z</time></trkpt><trkpt lat="38.4883873" lon="14.9634412"><ele>6.0</ele><time>2026-04-25T15:58:03.985Z</time></trkpt><trkpt lat="38.4883366" lon="14.9635125"><ele>6.0</ele><time>2026-04-25T15:58:04.986Z</time></trkpt><trkpt lat="38.488276" lon="14.9635778"><ele>6.0</ele><time>2026-04-25T15:58:05.986Z</time></trkpt><trkpt lat="38.4882237" lon="14.9636458"><ele>6.0</ele><time>2026-04-25T15:58:06.985Z</time></trkpt><trkpt lat="38.4881642" lon="14.9637137"><ele>6.0</ele><time>2026-04-25T15:58:07.985Z</time></trkpt><trkpt lat="38.4880971" lon="14.9637715"><ele>6.0</ele><time>2026-04-25T15:58:08.986Z</time></trkpt><trkpt lat="38.4880272" lon="14.9638343"><ele>6.0</ele><time>2026-04-25T15:58:09.985Z</time></trkpt><trkpt lat="38.4879614" lon="14.9638966"><ele>6.166666666666667</ele><time>2026-04-25T15:58:10.985Z</time></trkpt><trkpt lat="38.4878931" lon="14.9639627"><ele>6.333333333333334</ele><time>2026-04-25T15:58:11.985Z</time></trkpt><trkpt lat="38.4878337" lon="14.9640289"><ele>6.5</ele><time>2026-04-25T15:58:12.985Z</time></trkpt><trkpt lat="38.4877728" lon="14.9640989"><ele>6.666666666666667</ele><time>2026-04-25T15:58:13.986Z</time></trkpt><trkpt lat="38.4877099" lon="14.9641662"><ele>6.833333333333334</ele><time>2026-04-25T15:58:14.985Z</time></trkpt><trkpt lat="38.4876558" lon="14.96424"><ele>7.0</ele><time>2026-04-25T15:58:15.985Z</time></trkpt><trkpt lat="38.4875895" lon="14.9643133"><ele>7.000000000000001</ele><time>2026-04-25T15:58:16.985Z</time></trkpt><trkpt lat="38.4875223" lon="14.9643708"><ele>7.0</ele><time>2026-04-25T15:58:17.986Z</time></trkpt><trkpt lat="38.4874601" lon="14.9644417"><ele>7.0</ele><time>2026-04-25T15:58:18.985Z</time></trkpt><trkpt lat="38.4873895" lon="14.9645098"><ele>7.0</ele><time>2026-04-25T15:58:19.986Z</time></trkpt><trkpt lat="38.4873249" lon="14.964584"><ele>7.000000000000001</ele><time>2026-04-25T15:58:20.985Z</time></trkpt><trkpt lat="38.4872428" lon="14.9646506"><ele>7.0</ele><time>2026-04-25T15:58:21.985Z</time></trkpt><trkpt lat="38.4871715" lon="14.964725"><ele>7.0</ele><time>2026-04-25T15:58:22.985Z</time></trkpt><trkpt lat="38.4870989" lon="14.9648016"><ele>6.999999999999999</ele><time>2026-04-25T15:58:23.986Z</time></trkpt><trkpt lat="38.4870282" lon="14.9648788"><ele>6.999999999999999</ele><time>2026-04-25T15:58:24.986Z</time></trkpt><trkpt lat="38.4869595" lon="14.9649601"><ele>7.0</ele><time>2026-04-25T15:58:25.986Z</time></trkpt><trkpt lat="38.4868864" lon="14.9650375"><ele>7.0</ele><time>2026-04-25T15:58:26.986Z</time></trkpt><trkpt lat="38.4868151" lon="14.9651174"><ele>7.166666666666667</ele><time>2026-04-25T15:58:27.985Z</time></trkpt><trkpt lat="38.4867499" lon="14.9652007"><ele>7.333333333333334</ele><time>2026-04-25T15:58:28.985Z</time></trkpt><trkpt lat="38.4866845" lon="14.9652773"><ele>7.5</ele><time>2026-04-25T15:58:29.985Z</time></trkpt><trkpt lat="38.4866137" lon="14.965352"><ele>7.666666666666666</ele><time>2026-04-25T15:58:30.985Z</time></trkpt><trkpt lat="38.4865485" lon="14.965423"><ele>7.833333333333333</ele><time>2026-04-25T15:58:31.985Z</time></trkpt><trkpt lat="38.4864759" lon="14.9654848"><ele>8.0</ele><time>2026-04-25T15:58:32.985Z</time></trkpt><trkpt lat="38.4864084" lon="14.965569"><ele>7.999999999999999</ele><time>2026-04-25T15:58:33.985Z</time></trkpt><trkpt lat="38.4863434" lon="14.9656397"><ele>8.0</ele><time>2026-04-25T15:58:34.985Z</time></trkpt><trkpt lat="38.4862753" lon="14.9657009"><ele>8.0</ele><time>2026-04-25T15:58:35.986Z</time></trkpt><trkpt lat="38.4862105" lon="14.9657706"><ele>8.0</ele><time>2026-04-25T15:58:36.985Z</time></trkpt><trkpt lat="38.4861351" lon="14.9658435"><ele>7.999999999999999</ele><time>2026-04-25T15:58:37.985Z</time></trkpt><trkpt lat="38.4860655" lon="14.9659129"><ele>8.0</ele><time>2026-04-25T15:58:38.985Z</time></trkpt><trkpt lat="38.4860033" lon="14.9659836"><ele>8.333333333333332</ele><time>2026-04-25T15:58:39.986Z</time></trkpt><trkpt lat="38.4859396" lon="14.9660545"><ele>8.666666666666666</ele><time>2026-04-25T15:58:40.985Z</time></trkpt><trkpt lat="38.4858841" lon="14.9661267"><ele>9.0</ele><time>2026-04-25T15:58:41.986Z</time></trkpt><trkpt lat="38.4858241" lon="14.9661942"><ele>9.333333333333334</ele><time>2026-04-25T15:58:42.985Z</time></trkpt><trkpt lat="38.4857606" lon="14.9662508"><ele>9.666666666666668</ele><time>2026-04-25T15:58:43.985Z</time></trkpt><trkpt lat="38.4857152" lon="14.9663067"><ele>10.0</ele><time>2026-04-25T15:58:44.985Z</time></trkpt><trkpt lat="38.4856623" lon="14.966362"><ele>10.0</ele><time>2026-04-25T15:58:45.986Z</time></trkpt><trkpt lat="38.4856046" lon="14.9664096"><ele>10.0</ele><time>2026-04-25T15:58:46.985Z</time></trkpt><trkpt lat="38.4855039" lon="14.9665148"><ele>10.0</ele><time>2026-04-25T15:58:48.985Z</time></trkpt><trkpt lat="38.4854554" lon="14.9666448"><ele>10.0</ele><time>2026-04-25T15:58:50.985Z</time></trkpt><trkpt lat="38.4854281" lon="14.9667182"><ele>10.0</ele><time>2026-04-25T15:58:51.986Z</time></trkpt><trkpt lat="38.4854149" lon="14.9668594"><ele>9.666666666666668</ele><time>2026-04-25T15:58:53.986Z</time></trkpt><trkpt lat="38.4854409" lon="14.9669692"><ele>9.333333333333334</ele><time>2026-04-25T15:58:55.985Z</time></trkpt><trkpt lat="38.4855155" lon="14.9670464"><ele>9.0</ele><time>2026-04-25T15:58:57.986Z</time></trkpt><trkpt lat="38.4856053" lon="14.9670813"><ele>8.666666666666666</ele><time>2026-04-25T15:58:58.986Z</time></trkpt><trkpt lat="38.48567" lon="14.9671336"><ele>8.333333333333332</ele><time>2026-04-25T15:58:59.986Z</time></trkpt><trkpt lat="38.4857416" lon="14.9671841"><ele>8.0</ele><time>2026-04-25T15:59:00.986Z</time></trkpt><trkpt lat="38.4858027" lon="14.9672315"><ele>8.0</ele><time>2026-04-25T15:59:01.986Z</time></trkpt><trkpt lat="38.4858696" lon="14.9672716"><ele>8.0</ele><time>2026-04-25T15:59:02.986Z</time></trkpt><trkpt lat="38.4859336" lon="14.967305"><ele>8.0</ele><time>2026-04-25T15:59:03.986Z</time></trkpt><trkpt lat="38.4860316" lon="14.9673593"><ele>8.0</ele><time>2026-04-25T15:59:05.985Z</time></trkpt><trkpt lat="38.4860983" lon="14.9673751"><ele>8.0</ele><time>2026-04-25T15:59:07.985Z</time></trkpt></trkseg></trk></gpx>